<?xml version="1.0" encoding="UTF-8" standalone="no" ?>
<gpx xmlns="http://www.topografix.com/GPX/1/1" xmlns:xsi="http://www.w3.org/2001/XMLSchema-instance" xsi:schemaLocation="http://www.topografix.com/GPX/1/1 http://www.topografix.com/GPX/1/1/gpx.xsd" version="1.1" creator="VisuGPX - https://www.visugpx.com">
  <metadata>
    <name>Cyclo - Rando les gorges du Doux</name>
    <desc><![CDATA[Très jolie rando des gorges du Doux. Paysages superbes.]]></desc>
  </metadata>
  <trk>
    <name><![CDATA[Cyclo - Rando les gorges du Doux]]></name>
    <trkseg>
      <trkpt lat="45.06711" lon="4.8087">
        <ele>64</ele>
        <time>2019-05-25T05:54:39Z</time>
      </trkpt>
      <trkpt lat="45.06711" lon="4.8087">
        <ele>64</ele>
        <time>2019-05-25T05:54:44Z</time>
      </trkpt>
      <trkpt lat="45.06711" lon="4.80833">
        <ele>64</ele>
        <time>2019-05-25T05:54:49Z</time>
      </trkpt>
      <trkpt lat="45.067" lon="4.80794">
        <ele>64</ele>
        <time>2019-05-25T05:54:54Z</time>
      </trkpt>
      <trkpt lat="45.06696" lon="4.80745">
        <ele>64</ele>
        <time>2019-05-25T05:54:59Z</time>
      </trkpt>
      <trkpt lat="45.0669" lon="4.80695">
        <ele>64</ele>
        <time>2019-05-25T05:55:04Z</time>
      </trkpt>
      <trkpt lat="45.06687" lon="4.80682">
        <ele>64</ele>
        <time>2019-05-25T05:55:09Z</time>
      </trkpt>
      <trkpt lat="45.06689" lon="4.80713">
        <ele>63</ele>
        <time>2019-05-25T05:55:14Z</time>
      </trkpt>
      <trkpt lat="45.06693" lon="4.80754">
        <ele>63</ele>
        <time>2019-05-25T05:55:19Z</time>
      </trkpt>
      <trkpt lat="45.06696" lon="4.808">
        <ele>63</ele>
        <time>2019-05-25T05:55:24Z</time>
      </trkpt>
      <trkpt lat="45.06693" lon="4.80842">
        <ele>64</ele>
        <time>2019-05-25T05:55:29Z</time>
      </trkpt>
      <trkpt lat="45.06703" lon="4.80873">
        <ele>64</ele>
        <time>2019-05-25T05:55:34Z</time>
      </trkpt>
      <trkpt lat="45.06733" lon="4.80862">
        <ele>64</ele>
        <time>2019-05-25T05:55:39Z</time>
      </trkpt>
      <trkpt lat="45.0677" lon="4.80854">
        <ele>64</ele>
        <time>2019-05-25T05:55:44Z</time>
      </trkpt>
      <trkpt lat="45.06811" lon="4.8084">
        <ele>62</ele>
        <time>2019-05-25T05:55:49Z</time>
      </trkpt>
      <trkpt lat="45.0685" lon="4.8082">
        <ele>61</ele>
        <time>2019-05-25T05:55:54Z</time>
      </trkpt>
      <trkpt lat="45.06885" lon="4.80789">
        <ele>61</ele>
        <time>2019-05-25T05:55:59Z</time>
      </trkpt>
      <trkpt lat="45.06919" lon="4.80757">
        <ele>60</ele>
        <time>2019-05-25T05:56:04Z</time>
      </trkpt>
      <trkpt lat="45.06952" lon="4.80733">
        <ele>60</ele>
        <time>2019-05-25T05:56:09Z</time>
      </trkpt>
      <trkpt lat="45.06975" lon="4.80772">
        <ele>59</ele>
        <time>2019-05-25T05:56:14Z</time>
      </trkpt>
      <trkpt lat="45.06993" lon="4.80823">
        <ele>59</ele>
        <time>2019-05-25T05:56:19Z</time>
      </trkpt>
      <trkpt lat="45.0701" lon="4.80874">
        <ele>59</ele>
        <time>2019-05-25T05:56:24Z</time>
      </trkpt>
      <trkpt lat="45.07022" lon="4.80927">
        <ele>59</ele>
        <time>2019-05-25T05:56:29Z</time>
      </trkpt>
      <trkpt lat="45.07038" lon="4.80977">
        <ele>59</ele>
        <time>2019-05-25T05:56:34Z</time>
      </trkpt>
      <trkpt lat="45.07054" lon="4.81026">
        <ele>59</ele>
        <time>2019-05-25T05:56:39Z</time>
      </trkpt>
      <trkpt lat="45.07076" lon="4.81064">
        <ele>59</ele>
        <time>2019-05-25T05:56:44Z</time>
      </trkpt>
      <trkpt lat="45.07112" lon="4.81058">
        <ele>59</ele>
        <time>2019-05-25T05:56:49Z</time>
      </trkpt>
      <trkpt lat="45.07147" lon="4.81045">
        <ele>59</ele>
        <time>2019-05-25T05:56:54Z</time>
      </trkpt>
      <trkpt lat="45.07181" lon="4.8103">
        <ele>59</ele>
        <time>2019-05-25T05:56:59Z</time>
      </trkpt>
      <trkpt lat="45.07208" lon="4.81041">
        <ele>59</ele>
        <time>2019-05-25T05:57:04Z</time>
      </trkpt>
      <trkpt lat="45.07217" lon="4.81076">
        <ele>58</ele>
        <time>2019-05-25T05:57:09Z</time>
      </trkpt>
      <trkpt lat="45.07227" lon="4.81113">
        <ele>57</ele>
        <time>2019-05-25T05:57:14Z</time>
      </trkpt>
      <trkpt lat="45.07235" lon="4.81149">
        <ele>57</ele>
        <time>2019-05-25T05:57:19Z</time>
      </trkpt>
      <trkpt lat="45.07239" lon="4.81174">
        <ele>57</ele>
        <time>2019-05-25T05:57:24Z</time>
      </trkpt>
      <trkpt lat="45.07248" lon="4.81205">
        <ele>57</ele>
        <time>2019-05-25T05:57:29Z</time>
      </trkpt>
      <trkpt lat="45.07257" lon="4.81244">
        <ele>57</ele>
        <time>2019-05-25T05:57:34Z</time>
      </trkpt>
      <trkpt lat="45.07267" lon="4.81282">
        <ele>57</ele>
        <time>2019-05-25T05:57:39Z</time>
      </trkpt>
      <trkpt lat="45.07273" lon="4.81304">
        <ele>57</ele>
        <time>2019-05-25T05:57:44Z</time>
      </trkpt>
      <trkpt lat="45.07281" lon="4.81335">
        <ele>56</ele>
        <time>2019-05-25T05:57:49Z</time>
      </trkpt>
      <trkpt lat="45.07289" lon="4.81371">
        <ele>56</ele>
        <time>2019-05-25T05:57:54Z</time>
      </trkpt>
      <trkpt lat="45.07299" lon="4.81408">
        <ele>56</ele>
        <time>2019-05-25T05:57:59Z</time>
      </trkpt>
      <trkpt lat="45.07309" lon="4.81445">
        <ele>56</ele>
        <time>2019-05-25T05:58:04Z</time>
      </trkpt>
      <trkpt lat="45.0732" lon="4.81485">
        <ele>56</ele>
        <time>2019-05-25T05:58:09Z</time>
      </trkpt>
      <trkpt lat="45.07331" lon="4.81526">
        <ele>56</ele>
        <time>2019-05-25T05:58:14Z</time>
      </trkpt>
      <trkpt lat="45.0733" lon="4.8156">
        <ele>56</ele>
        <time>2019-05-25T05:58:19Z</time>
      </trkpt>
      <trkpt lat="45.0732" lon="4.81596">
        <ele>56</ele>
        <time>2019-05-25T05:58:24Z</time>
      </trkpt>
      <trkpt lat="45.07309" lon="4.81626">
        <ele>56</ele>
        <time>2019-05-25T05:58:29Z</time>
      </trkpt>
      <trkpt lat="45.07301" lon="4.81636">
        <ele>56</ele>
        <time>2019-05-25T05:58:34Z</time>
      </trkpt>
      <trkpt lat="45.073" lon="4.81636">
        <ele>56</ele>
        <time>2019-05-25T05:58:37Z</time>
      </trkpt>
      <trkpt lat="45.0731" lon="4.8162">
        <ele>55</ele>
        <time>2019-05-25T05:58:43Z</time>
      </trkpt>
      <trkpt lat="45.07321" lon="4.81596">
        <ele>55</ele>
        <time>2019-05-25T05:58:48Z</time>
      </trkpt>
      <trkpt lat="45.07331" lon="4.81565">
        <ele>55</ele>
        <time>2019-05-25T05:58:53Z</time>
      </trkpt>
      <trkpt lat="45.07332" lon="4.8153">
        <ele>55</ele>
        <time>2019-05-25T05:58:58Z</time>
      </trkpt>
      <trkpt lat="45.07323" lon="4.81496">
        <ele>55</ele>
        <time>2019-05-25T05:59:03Z</time>
      </trkpt>
      <trkpt lat="45.07313" lon="4.81456">
        <ele>55</ele>
        <time>2019-05-25T05:59:08Z</time>
      </trkpt>
      <trkpt lat="45.07302" lon="4.81415">
        <ele>55</ele>
        <time>2019-05-25T05:59:13Z</time>
      </trkpt>
      <trkpt lat="45.07292" lon="4.81375">
        <ele>55</ele>
        <time>2019-05-25T05:59:18Z</time>
      </trkpt>
      <trkpt lat="45.07281" lon="4.81335">
        <ele>55</ele>
        <time>2019-05-25T05:59:23Z</time>
      </trkpt>
      <trkpt lat="45.07272" lon="4.81297">
        <ele>55</ele>
        <time>2019-05-25T05:59:28Z</time>
      </trkpt>
      <trkpt lat="45.07264" lon="4.8127">
        <ele>55</ele>
        <time>2019-05-25T05:59:33Z</time>
      </trkpt>
      <trkpt lat="45.07253" lon="4.81236">
        <ele>55</ele>
        <time>2019-05-25T05:59:38Z</time>
      </trkpt>
      <trkpt lat="45.07244" lon="4.81198">
        <ele>55</ele>
        <time>2019-05-25T05:59:43Z</time>
      </trkpt>
      <trkpt lat="45.07235" lon="4.8116">
        <ele>55</ele>
        <time>2019-05-25T05:59:48Z</time>
      </trkpt>
      <trkpt lat="45.07227" lon="4.81124">
        <ele>55</ele>
        <time>2019-05-25T05:59:53Z</time>
      </trkpt>
      <trkpt lat="45.07219" lon="4.81096">
        <ele>56</ele>
        <time>2019-05-25T05:59:58Z</time>
      </trkpt>
      <trkpt lat="45.0721" lon="4.81064">
        <ele>56</ele>
        <time>2019-05-25T06:00:03Z</time>
      </trkpt>
      <trkpt lat="45.07199" lon="4.81029">
        <ele>57</ele>
        <time>2019-05-25T06:00:08Z</time>
      </trkpt>
      <trkpt lat="45.0717" lon="4.81024">
        <ele>57</ele>
        <time>2019-05-25T06:00:13Z</time>
      </trkpt>
      <trkpt lat="45.07138" lon="4.81036">
        <ele>58</ele>
        <time>2019-05-25T06:00:18Z</time>
      </trkpt>
      <trkpt lat="45.07106" lon="4.81046">
        <ele>58</ele>
        <time>2019-05-25T06:00:23Z</time>
      </trkpt>
      <trkpt lat="45.07072" lon="4.8105">
        <ele>58</ele>
        <time>2019-05-25T06:00:28Z</time>
      </trkpt>
      <trkpt lat="45.07049" lon="4.81018">
        <ele>58</ele>
        <time>2019-05-25T06:00:33Z</time>
      </trkpt>
      <trkpt lat="45.07034" lon="4.80971">
        <ele>58</ele>
        <time>2019-05-25T06:00:38Z</time>
      </trkpt>
      <trkpt lat="45.07019" lon="4.80925">
        <ele>58</ele>
        <time>2019-05-25T06:00:43Z</time>
      </trkpt>
      <trkpt lat="45.07007" lon="4.80876">
        <ele>58</ele>
        <time>2019-05-25T06:00:48Z</time>
      </trkpt>
      <trkpt lat="45.06992" lon="4.80828">
        <ele>58</ele>
        <time>2019-05-25T06:00:53Z</time>
      </trkpt>
      <trkpt lat="45.06977" lon="4.80781">
        <ele>58</ele>
        <time>2019-05-25T06:00:58Z</time>
      </trkpt>
      <trkpt lat="45.06959" lon="4.80737">
        <ele>58</ele>
        <time>2019-05-25T06:01:03Z</time>
      </trkpt>
      <trkpt lat="45.06927" lon="4.80732">
        <ele>58</ele>
        <time>2019-05-25T06:01:08Z</time>
      </trkpt>
      <trkpt lat="45.06898" lon="4.80761">
        <ele>59</ele>
        <time>2019-05-25T06:01:13Z</time>
      </trkpt>
      <trkpt lat="45.06869" lon="4.80791">
        <ele>59</ele>
        <time>2019-05-25T06:01:18Z</time>
      </trkpt>
      <trkpt lat="45.06838" lon="4.80817">
        <ele>59</ele>
        <time>2019-05-25T06:01:23Z</time>
      </trkpt>
      <trkpt lat="45.06805" lon="4.80831">
        <ele>59</ele>
        <time>2019-05-25T06:01:28Z</time>
      </trkpt>
      <trkpt lat="45.06766" lon="4.80843">
        <ele>59</ele>
        <time>2019-05-25T06:01:34Z</time>
      </trkpt>
      <trkpt lat="45.06734" lon="4.80848">
        <ele>61</ele>
        <time>2019-05-25T06:01:39Z</time>
      </trkpt>
      <trkpt lat="45.0671" lon="4.80836">
        <ele>63</ele>
        <time>2019-05-25T06:01:44Z</time>
      </trkpt>
      <trkpt lat="45.06694" lon="4.80802">
        <ele>63</ele>
        <time>2019-05-25T06:01:49Z</time>
      </trkpt>
      <trkpt lat="45.06691" lon="4.80753">
        <ele>64</ele>
        <time>2019-05-25T06:01:54Z</time>
      </trkpt>
      <trkpt lat="45.06687" lon="4.80701">
        <ele>64</ele>
        <time>2019-05-25T06:01:59Z</time>
      </trkpt>
      <trkpt lat="45.06686" lon="4.80644">
        <ele>64</ele>
        <time>2019-05-25T06:02:04Z</time>
      </trkpt>
      <trkpt lat="45.06687" lon="4.80585">
        <ele>63</ele>
        <time>2019-05-25T06:02:09Z</time>
      </trkpt>
      <trkpt lat="45.06687" lon="4.80526">
        <ele>63</ele>
        <time>2019-05-25T06:02:14Z</time>
      </trkpt>
      <trkpt lat="45.06687" lon="4.80467">
        <ele>63</ele>
        <time>2019-05-25T06:02:19Z</time>
      </trkpt>
      <trkpt lat="45.06687" lon="4.80409">
        <ele>62</ele>
        <time>2019-05-25T06:02:24Z</time>
      </trkpt>
      <trkpt lat="45.06688" lon="4.80354">
        <ele>62</ele>
        <time>2019-05-25T06:02:29Z</time>
      </trkpt>
      <trkpt lat="45.06689" lon="4.80298">
        <ele>62</ele>
        <time>2019-05-25T06:02:34Z</time>
      </trkpt>
      <trkpt lat="45.06691" lon="4.80241">
        <ele>62</ele>
        <time>2019-05-25T06:02:39Z</time>
      </trkpt>
      <trkpt lat="45.06693" lon="4.80186">
        <ele>62</ele>
        <time>2019-05-25T06:02:44Z</time>
      </trkpt>
      <trkpt lat="45.06693" lon="4.80132">
        <ele>62</ele>
        <time>2019-05-25T06:02:49Z</time>
      </trkpt>
      <trkpt lat="45.06694" lon="4.8008">
        <ele>62</ele>
        <time>2019-05-25T06:02:54Z</time>
      </trkpt>
      <trkpt lat="45.06695" lon="4.80029">
        <ele>62</ele>
        <time>2019-05-25T06:02:59Z</time>
      </trkpt>
      <trkpt lat="45.06695" lon="4.79977">
        <ele>62</ele>
        <time>2019-05-25T06:03:04Z</time>
      </trkpt>
      <trkpt lat="45.06696" lon="4.79927">
        <ele>62</ele>
        <time>2019-05-25T06:03:09Z</time>
      </trkpt>
      <trkpt lat="45.06696" lon="4.79865">
        <ele>62</ele>
        <time>2019-05-25T06:03:15Z</time>
      </trkpt>
      <trkpt lat="45.06695" lon="4.79814">
        <ele>62</ele>
        <time>2019-05-25T06:03:20Z</time>
      </trkpt>
      <trkpt lat="45.06686" lon="4.79766">
        <ele>62</ele>
        <time>2019-05-25T06:03:25Z</time>
      </trkpt>
      <trkpt lat="45.06665" lon="4.79715">
        <ele>63</ele>
        <time>2019-05-25T06:03:31Z</time>
      </trkpt>
      <trkpt lat="45.06647" lon="4.79676">
        <ele>64</ele>
        <time>2019-05-25T06:03:36Z</time>
      </trkpt>
      <trkpt lat="45.0663" lon="4.79639">
        <ele>65</ele>
        <time>2019-05-25T06:03:41Z</time>
      </trkpt>
      <trkpt lat="45.0661" lon="4.79593">
        <ele>66</ele>
        <time>2019-05-25T06:03:47Z</time>
      </trkpt>
      <trkpt lat="45.06597" lon="4.7955">
        <ele>66</ele>
        <time>2019-05-25T06:03:52Z</time>
      </trkpt>
      <trkpt lat="45.06582" lon="4.79508">
        <ele>66</ele>
        <time>2019-05-25T06:03:57Z</time>
      </trkpt>
      <trkpt lat="45.06568" lon="4.79467">
        <ele>66</ele>
        <time>2019-05-25T06:04:02Z</time>
      </trkpt>
      <trkpt lat="45.06554" lon="4.79427">
        <ele>66</ele>
        <time>2019-05-25T06:04:07Z</time>
      </trkpt>
      <trkpt lat="45.0654" lon="4.79388">
        <ele>66</ele>
        <time>2019-05-25T06:04:12Z</time>
      </trkpt>
      <trkpt lat="45.06521" lon="4.79353">
        <ele>67</ele>
        <time>2019-05-25T06:04:17Z</time>
      </trkpt>
      <trkpt lat="45.06496" lon="4.79325">
        <ele>68</ele>
        <time>2019-05-25T06:04:22Z</time>
      </trkpt>
      <trkpt lat="45.06471" lon="4.79298">
        <ele>68</ele>
        <time>2019-05-25T06:04:27Z</time>
      </trkpt>
      <trkpt lat="45.06449" lon="4.7926">
        <ele>68</ele>
        <time>2019-05-25T06:04:32Z</time>
      </trkpt>
      <trkpt lat="45.06432" lon="4.79218">
        <ele>68</ele>
        <time>2019-05-25T06:04:37Z</time>
      </trkpt>
      <trkpt lat="45.06426" lon="4.79169">
        <ele>68</ele>
        <time>2019-05-25T06:04:42Z</time>
      </trkpt>
      <trkpt lat="45.06437" lon="4.7912">
        <ele>68</ele>
        <time>2019-05-25T06:04:47Z</time>
      </trkpt>
      <trkpt lat="45.06453" lon="4.79077">
        <ele>68</ele>
        <time>2019-05-25T06:04:52Z</time>
      </trkpt>
      <trkpt lat="45.06468" lon="4.79035">
        <ele>68</ele>
        <time>2019-05-25T06:04:57Z</time>
      </trkpt>
      <trkpt lat="45.0648" lon="4.78988">
        <ele>69</ele>
        <time>2019-05-25T06:05:02Z</time>
      </trkpt>
      <trkpt lat="45.06491" lon="4.7894">
        <ele>69</ele>
        <time>2019-05-25T06:05:07Z</time>
      </trkpt>
      <trkpt lat="45.06499" lon="4.78894">
        <ele>69</ele>
        <time>2019-05-25T06:05:12Z</time>
      </trkpt>
      <trkpt lat="45.06509" lon="4.78849">
        <ele>70</ele>
        <time>2019-05-25T06:05:17Z</time>
      </trkpt>
      <trkpt lat="45.0652" lon="4.78805">
        <ele>70</ele>
        <time>2019-05-25T06:05:22Z</time>
      </trkpt>
      <trkpt lat="45.06537" lon="4.78764">
        <ele>70</ele>
        <time>2019-05-25T06:05:27Z</time>
      </trkpt>
      <trkpt lat="45.06563" lon="4.78719">
        <ele>71</ele>
        <time>2019-05-25T06:05:33Z</time>
      </trkpt>
      <trkpt lat="45.06583" lon="4.78683">
        <ele>72</ele>
        <time>2019-05-25T06:05:38Z</time>
      </trkpt>
      <trkpt lat="45.06601" lon="4.78645">
        <ele>73</ele>
        <time>2019-05-25T06:05:43Z</time>
      </trkpt>
      <trkpt lat="45.06614" lon="4.78603">
        <ele>73</ele>
        <time>2019-05-25T06:05:48Z</time>
      </trkpt>
      <trkpt lat="45.06626" lon="4.78558">
        <ele>73</ele>
        <time>2019-05-25T06:05:53Z</time>
      </trkpt>
      <trkpt lat="45.06638" lon="4.78516">
        <ele>74</ele>
        <time>2019-05-25T06:05:58Z</time>
      </trkpt>
      <trkpt lat="45.06642" lon="4.7847">
        <ele>74</ele>
        <time>2019-05-25T06:06:03Z</time>
      </trkpt>
      <trkpt lat="45.06634" lon="4.78425">
        <ele>74</ele>
        <time>2019-05-25T06:06:08Z</time>
      </trkpt>
      <trkpt lat="45.06628" lon="4.78381">
        <ele>75</ele>
        <time>2019-05-25T06:06:13Z</time>
      </trkpt>
      <trkpt lat="45.06628" lon="4.78338">
        <ele>76</ele>
        <time>2019-05-25T06:06:18Z</time>
      </trkpt>
      <trkpt lat="45.0663" lon="4.78297">
        <ele>78</ele>
        <time>2019-05-25T06:06:23Z</time>
      </trkpt>
      <trkpt lat="45.06631" lon="4.78256">
        <ele>78</ele>
        <time>2019-05-25T06:06:28Z</time>
      </trkpt>
      <trkpt lat="45.06628" lon="4.78214">
        <ele>79</ele>
        <time>2019-05-25T06:06:33Z</time>
      </trkpt>
      <trkpt lat="45.0661" lon="4.78171">
        <ele>80</ele>
        <time>2019-05-25T06:06:39Z</time>
      </trkpt>
      <trkpt lat="45.06585" lon="4.7815">
        <ele>80</ele>
        <time>2019-05-25T06:06:44Z</time>
      </trkpt>
      <trkpt lat="45.06557" lon="4.78138">
        <ele>81</ele>
        <time>2019-05-25T06:06:49Z</time>
      </trkpt>
      <trkpt lat="45.06528" lon="4.78135">
        <ele>82</ele>
        <time>2019-05-25T06:06:54Z</time>
      </trkpt>
      <trkpt lat="45.06498" lon="4.78133">
        <ele>82</ele>
        <time>2019-05-25T06:06:59Z</time>
      </trkpt>
      <trkpt lat="45.06467" lon="4.78131">
        <ele>82</ele>
        <time>2019-05-25T06:07:04Z</time>
      </trkpt>
      <trkpt lat="45.06438" lon="4.78142">
        <ele>83</ele>
        <time>2019-05-25T06:07:09Z</time>
      </trkpt>
      <trkpt lat="45.0642" lon="4.78178">
        <ele>84</ele>
        <time>2019-05-25T06:07:14Z</time>
      </trkpt>
      <trkpt lat="45.06403" lon="4.78213">
        <ele>85</ele>
        <time>2019-05-25T06:07:19Z</time>
      </trkpt>
      <trkpt lat="45.06388" lon="4.78248">
        <ele>85</ele>
        <time>2019-05-25T06:07:24Z</time>
      </trkpt>
      <trkpt lat="45.06376" lon="4.78287">
        <ele>86</ele>
        <time>2019-05-25T06:07:29Z</time>
      </trkpt>
      <trkpt lat="45.0636" lon="4.78323">
        <ele>86</ele>
        <time>2019-05-25T06:07:34Z</time>
      </trkpt>
      <trkpt lat="45.06348" lon="4.78361">
        <ele>87</ele>
        <time>2019-05-25T06:07:39Z</time>
      </trkpt>
      <trkpt lat="45.06344" lon="4.78402">
        <ele>88</ele>
        <time>2019-05-25T06:07:44Z</time>
      </trkpt>
      <trkpt lat="45.06341" lon="4.78443">
        <ele>88</ele>
        <time>2019-05-25T06:07:49Z</time>
      </trkpt>
      <trkpt lat="45.06328" lon="4.78481">
        <ele>89</ele>
        <time>2019-05-25T06:07:54Z</time>
      </trkpt>
      <trkpt lat="45.06313" lon="4.78516">
        <ele>90</ele>
        <time>2019-05-25T06:07:59Z</time>
      </trkpt>
      <trkpt lat="45.06292" lon="4.78546">
        <ele>90</ele>
        <time>2019-05-25T06:08:04Z</time>
      </trkpt>
      <trkpt lat="45.0627" lon="4.78575">
        <ele>91</ele>
        <time>2019-05-25T06:08:09Z</time>
      </trkpt>
      <trkpt lat="45.06249" lon="4.78606">
        <ele>91</ele>
        <time>2019-05-25T06:08:14Z</time>
      </trkpt>
      <trkpt lat="45.06224" lon="4.78628">
        <ele>92</ele>
        <time>2019-05-25T06:08:19Z</time>
      </trkpt>
      <trkpt lat="45.06197" lon="4.78644">
        <ele>93</ele>
        <time>2019-05-25T06:08:24Z</time>
      </trkpt>
      <trkpt lat="45.0617" lon="4.78661">
        <ele>94</ele>
        <time>2019-05-25T06:08:29Z</time>
      </trkpt>
      <trkpt lat="45.06141" lon="4.78671">
        <ele>95</ele>
        <time>2019-05-25T06:08:34Z</time>
      </trkpt>
      <trkpt lat="45.0611" lon="4.7867">
        <ele>96</ele>
        <time>2019-05-25T06:08:39Z</time>
      </trkpt>
      <trkpt lat="45.06081" lon="4.7867">
        <ele>96</ele>
        <time>2019-05-25T06:08:44Z</time>
      </trkpt>
      <trkpt lat="45.06051" lon="4.78674">
        <ele>97</ele>
        <time>2019-05-25T06:08:49Z</time>
      </trkpt>
      <trkpt lat="45.06024" lon="4.78662">
        <ele>98</ele>
        <time>2019-05-25T06:08:54Z</time>
      </trkpt>
      <trkpt lat="45.05998" lon="4.7865">
        <ele>99</ele>
        <time>2019-05-25T06:08:59Z</time>
      </trkpt>
      <trkpt lat="45.05972" lon="4.78635">
        <ele>100</ele>
        <time>2019-05-25T06:09:04Z</time>
      </trkpt>
      <trkpt lat="45.05949" lon="4.78608">
        <ele>101</ele>
        <time>2019-05-25T06:09:09Z</time>
      </trkpt>
      <trkpt lat="45.05933" lon="4.78576">
        <ele>102</ele>
        <time>2019-05-25T06:09:14Z</time>
      </trkpt>
      <trkpt lat="45.05913" lon="4.78546">
        <ele>103</ele>
        <time>2019-05-25T06:09:19Z</time>
      </trkpt>
      <trkpt lat="45.05898" lon="4.78511">
        <ele>103</ele>
        <time>2019-05-25T06:09:24Z</time>
      </trkpt>
      <trkpt lat="45.05879" lon="4.78479">
        <ele>104</ele>
        <time>2019-05-25T06:09:29Z</time>
      </trkpt>
      <trkpt lat="45.05851" lon="4.78472">
        <ele>105</ele>
        <time>2019-05-25T06:09:34Z</time>
      </trkpt>
      <trkpt lat="45.05822" lon="4.78481">
        <ele>106</ele>
        <time>2019-05-25T06:09:39Z</time>
      </trkpt>
      <trkpt lat="45.05794" lon="4.7847">
        <ele>107</ele>
        <time>2019-05-25T06:09:44Z</time>
      </trkpt>
      <trkpt lat="45.05765" lon="4.78469">
        <ele>108</ele>
        <time>2019-05-25T06:09:49Z</time>
      </trkpt>
      <trkpt lat="45.05741" lon="4.78486">
        <ele>108</ele>
        <time>2019-05-25T06:09:54Z</time>
      </trkpt>
      <trkpt lat="45.05714" lon="4.78498">
        <ele>109</ele>
        <time>2019-05-25T06:09:59Z</time>
      </trkpt>
      <trkpt lat="45.05686" lon="4.7849">
        <ele>110</ele>
        <time>2019-05-25T06:10:04Z</time>
      </trkpt>
      <trkpt lat="45.0566" lon="4.78475">
        <ele>112</ele>
        <time>2019-05-25T06:10:09Z</time>
      </trkpt>
      <trkpt lat="45.05646" lon="4.78445">
        <ele>113</ele>
        <time>2019-05-25T06:10:14Z</time>
      </trkpt>
      <trkpt lat="45.05652" lon="4.78405">
        <ele>113</ele>
        <time>2019-05-25T06:10:19Z</time>
      </trkpt>
      <trkpt lat="45.05662" lon="4.78367">
        <ele>115</ele>
        <time>2019-05-25T06:10:24Z</time>
      </trkpt>
      <trkpt lat="45.05671" lon="4.78328">
        <ele>115</ele>
        <time>2019-05-25T06:10:29Z</time>
      </trkpt>
      <trkpt lat="45.0568" lon="4.78292">
        <ele>116</ele>
        <time>2019-05-25T06:10:34Z</time>
      </trkpt>
      <trkpt lat="45.05689" lon="4.78258">
        <ele>117</ele>
        <time>2019-05-25T06:10:39Z</time>
      </trkpt>
      <trkpt lat="45.057" lon="4.78227">
        <ele>118</ele>
        <time>2019-05-25T06:10:44Z</time>
      </trkpt>
      <trkpt lat="45.05721" lon="4.78211">
        <ele>118</ele>
        <time>2019-05-25T06:10:49Z</time>
      </trkpt>
      <trkpt lat="45.05746" lon="4.78202">
        <ele>119</ele>
        <time>2019-05-25T06:10:54Z</time>
      </trkpt>
      <trkpt lat="45.05773" lon="4.78191">
        <ele>120</ele>
        <time>2019-05-25T06:10:59Z</time>
      </trkpt>
      <trkpt lat="45.05795" lon="4.78167">
        <ele>121</ele>
        <time>2019-05-25T06:11:04Z</time>
      </trkpt>
      <trkpt lat="45.05804" lon="4.78129">
        <ele>122</ele>
        <time>2019-05-25T06:11:09Z</time>
      </trkpt>
      <trkpt lat="45.05806" lon="4.78089">
        <ele>123</ele>
        <time>2019-05-25T06:11:14Z</time>
      </trkpt>
      <trkpt lat="45.05811" lon="4.78051">
        <ele>124</ele>
        <time>2019-05-25T06:11:19Z</time>
      </trkpt>
      <trkpt lat="45.0581" lon="4.78015">
        <ele>125</ele>
        <time>2019-05-25T06:11:24Z</time>
      </trkpt>
      <trkpt lat="45.05802" lon="4.77979">
        <ele>126</ele>
        <time>2019-05-25T06:11:29Z</time>
      </trkpt>
      <trkpt lat="45.05803" lon="4.77943">
        <ele>127</ele>
        <time>2019-05-25T06:11:34Z</time>
      </trkpt>
      <trkpt lat="45.05823" lon="4.77918">
        <ele>128</ele>
        <time>2019-05-25T06:11:39Z</time>
      </trkpt>
      <trkpt lat="45.05836" lon="4.77887">
        <ele>129</ele>
        <time>2019-05-25T06:11:44Z</time>
      </trkpt>
      <trkpt lat="45.05844" lon="4.77852">
        <ele>130</ele>
        <time>2019-05-25T06:11:49Z</time>
      </trkpt>
      <trkpt lat="45.05855" lon="4.77819">
        <ele>131</ele>
        <time>2019-05-25T06:11:54Z</time>
      </trkpt>
      <trkpt lat="45.05859" lon="4.77783">
        <ele>132</ele>
        <time>2019-05-25T06:11:59Z</time>
      </trkpt>
      <trkpt lat="45.05862" lon="4.77745">
        <ele>133</ele>
        <time>2019-05-25T06:12:04Z</time>
      </trkpt>
      <trkpt lat="45.05868" lon="4.7771">
        <ele>134</ele>
        <time>2019-05-25T06:12:09Z</time>
      </trkpt>
      <trkpt lat="45.05872" lon="4.77674">
        <ele>135</ele>
        <time>2019-05-25T06:12:14Z</time>
      </trkpt>
      <trkpt lat="45.05858" lon="4.77644">
        <ele>136</ele>
        <time>2019-05-25T06:12:19Z</time>
      </trkpt>
      <trkpt lat="45.05833" lon="4.77624">
        <ele>137</ele>
        <time>2019-05-25T06:12:24Z</time>
      </trkpt>
      <trkpt lat="45.05806" lon="4.77612">
        <ele>138</ele>
        <time>2019-05-25T06:12:29Z</time>
      </trkpt>
      <trkpt lat="45.0578" lon="4.77608">
        <ele>139</ele>
        <time>2019-05-25T06:12:34Z</time>
      </trkpt>
      <trkpt lat="45.05756" lon="4.77593">
        <ele>141</ele>
        <time>2019-05-25T06:12:39Z</time>
      </trkpt>
      <trkpt lat="45.05731" lon="4.77566">
        <ele>142</ele>
        <time>2019-05-25T06:12:45Z</time>
      </trkpt>
      <trkpt lat="45.05709" lon="4.77534">
        <ele>143</ele>
        <time>2019-05-25T06:12:51Z</time>
      </trkpt>
      <trkpt lat="45.05689" lon="4.77501">
        <ele>144</ele>
        <time>2019-05-25T06:12:57Z</time>
      </trkpt>
      <trkpt lat="45.05667" lon="4.77468">
        <ele>145</ele>
        <time>2019-05-25T06:13:03Z</time>
      </trkpt>
      <trkpt lat="45.05641" lon="4.77446">
        <ele>147</ele>
        <time>2019-05-25T06:13:09Z</time>
      </trkpt>
      <trkpt lat="45.05629" lon="4.77416">
        <ele>148</ele>
        <time>2019-05-25T06:13:14Z</time>
      </trkpt>
      <trkpt lat="45.05621" lon="4.77381">
        <ele>148</ele>
        <time>2019-05-25T06:13:19Z</time>
      </trkpt>
      <trkpt lat="45.05614" lon="4.77344">
        <ele>149</ele>
        <time>2019-05-25T06:13:24Z</time>
      </trkpt>
      <trkpt lat="45.05608" lon="4.77309">
        <ele>151</ele>
        <time>2019-05-25T06:13:29Z</time>
      </trkpt>
      <trkpt lat="45.05605" lon="4.77274">
        <ele>152</ele>
        <time>2019-05-25T06:13:34Z</time>
      </trkpt>
      <trkpt lat="45.05605" lon="4.77238">
        <ele>152</ele>
        <time>2019-05-25T06:13:39Z</time>
      </trkpt>
      <trkpt lat="45.05611" lon="4.77203">
        <ele>153</ele>
        <time>2019-05-25T06:13:44Z</time>
      </trkpt>
      <trkpt lat="45.05619" lon="4.77164">
        <ele>154</ele>
        <time>2019-05-25T06:13:49Z</time>
      </trkpt>
      <trkpt lat="45.0562" lon="4.77124">
        <ele>156</ele>
        <time>2019-05-25T06:13:54Z</time>
      </trkpt>
      <trkpt lat="45.05616" lon="4.77089">
        <ele>157</ele>
        <time>2019-05-25T06:13:59Z</time>
      </trkpt>
      <trkpt lat="45.05617" lon="4.77054">
        <ele>158</ele>
        <time>2019-05-25T06:14:04Z</time>
      </trkpt>
      <trkpt lat="45.05638" lon="4.77038">
        <ele>159</ele>
        <time>2019-05-25T06:14:09Z</time>
      </trkpt>
      <trkpt lat="45.05661" lon="4.7702">
        <ele>160</ele>
        <time>2019-05-25T06:14:14Z</time>
      </trkpt>
      <trkpt lat="45.05681" lon="4.76992">
        <ele>161</ele>
        <time>2019-05-25T06:14:19Z</time>
      </trkpt>
      <trkpt lat="45.05696" lon="4.76961">
        <ele>162</ele>
        <time>2019-05-25T06:14:24Z</time>
      </trkpt>
      <trkpt lat="45.05717" lon="4.76939">
        <ele>163</ele>
        <time>2019-05-25T06:14:29Z</time>
      </trkpt>
      <trkpt lat="45.05738" lon="4.76915">
        <ele>164</ele>
        <time>2019-05-25T06:14:34Z</time>
      </trkpt>
      <trkpt lat="45.05757" lon="4.76889">
        <ele>165</ele>
        <time>2019-05-25T06:14:39Z</time>
      </trkpt>
      <trkpt lat="45.05777" lon="4.76866">
        <ele>166</ele>
        <time>2019-05-25T06:14:44Z</time>
      </trkpt>
      <trkpt lat="45.05792" lon="4.76836">
        <ele>167</ele>
        <time>2019-05-25T06:14:49Z</time>
      </trkpt>
      <trkpt lat="45.05801" lon="4.768">
        <ele>168</ele>
        <time>2019-05-25T06:14:54Z</time>
      </trkpt>
      <trkpt lat="45.05796" lon="4.76766">
        <ele>170</ele>
        <time>2019-05-25T06:14:59Z</time>
      </trkpt>
      <trkpt lat="45.05803" lon="4.76734">
        <ele>171</ele>
        <time>2019-05-25T06:15:04Z</time>
      </trkpt>
      <trkpt lat="45.05824" lon="4.76723">
        <ele>172</ele>
        <time>2019-05-25T06:15:09Z</time>
      </trkpt>
      <trkpt lat="45.05849" lon="4.7672">
        <ele>173</ele>
        <time>2019-05-25T06:15:14Z</time>
      </trkpt>
      <trkpt lat="45.05874" lon="4.76711">
        <ele>174</ele>
        <time>2019-05-25T06:15:19Z</time>
      </trkpt>
      <trkpt lat="45.05901" lon="4.76698">
        <ele>175</ele>
        <time>2019-05-25T06:15:24Z</time>
      </trkpt>
      <trkpt lat="45.05923" lon="4.7668">
        <ele>176</ele>
        <time>2019-05-25T06:15:29Z</time>
      </trkpt>
      <trkpt lat="45.0594" lon="4.76652">
        <ele>177</ele>
        <time>2019-05-25T06:15:34Z</time>
      </trkpt>
      <trkpt lat="45.05951" lon="4.76619">
        <ele>178</ele>
        <time>2019-05-25T06:15:39Z</time>
      </trkpt>
      <trkpt lat="45.05967" lon="4.76588">
        <ele>179</ele>
        <time>2019-05-25T06:15:44Z</time>
      </trkpt>
      <trkpt lat="45.05984" lon="4.76561">
        <ele>180</ele>
        <time>2019-05-25T06:15:49Z</time>
      </trkpt>
      <trkpt lat="45.06009" lon="4.76552">
        <ele>181</ele>
        <time>2019-05-25T06:15:54Z</time>
      </trkpt>
      <trkpt lat="45.06032" lon="4.76561">
        <ele>182</ele>
        <time>2019-05-25T06:15:59Z</time>
      </trkpt>
      <trkpt lat="45.06054" lon="4.76575">
        <ele>184</ele>
        <time>2019-05-25T06:16:04Z</time>
      </trkpt>
      <trkpt lat="45.06076" lon="4.76584">
        <ele>186</ele>
        <time>2019-05-25T06:16:09Z</time>
      </trkpt>
      <trkpt lat="45.06099" lon="4.76583">
        <ele>188</ele>
        <time>2019-05-25T06:16:14Z</time>
      </trkpt>
      <trkpt lat="45.06118" lon="4.76559">
        <ele>189</ele>
        <time>2019-05-25T06:16:19Z</time>
      </trkpt>
      <trkpt lat="45.06118" lon="4.76523">
        <ele>190</ele>
        <time>2019-05-25T06:16:24Z</time>
      </trkpt>
      <trkpt lat="45.06111" lon="4.76486">
        <ele>191</ele>
        <time>2019-05-25T06:16:29Z</time>
      </trkpt>
      <trkpt lat="45.06108" lon="4.7645">
        <ele>192</ele>
        <time>2019-05-25T06:16:34Z</time>
      </trkpt>
      <trkpt lat="45.06107" lon="4.76408">
        <ele>194</ele>
        <time>2019-05-25T06:16:40Z</time>
      </trkpt>
      <trkpt lat="45.0611" lon="4.76365">
        <ele>195</ele>
        <time>2019-05-25T06:16:46Z</time>
      </trkpt>
      <trkpt lat="45.06118" lon="4.76322">
        <ele>196</ele>
        <time>2019-05-25T06:16:52Z</time>
      </trkpt>
      <trkpt lat="45.06125" lon="4.76279">
        <ele>197</ele>
        <time>2019-05-25T06:16:58Z</time>
      </trkpt>
      <trkpt lat="45.06136" lon="4.76237">
        <ele>199</ele>
        <time>2019-05-25T06:17:04Z</time>
      </trkpt>
      <trkpt lat="45.06153" lon="4.76201">
        <ele>200</ele>
        <time>2019-05-25T06:17:10Z</time>
      </trkpt>
      <trkpt lat="45.06168" lon="4.76171">
        <ele>201</ele>
        <time>2019-05-25T06:17:15Z</time>
      </trkpt>
      <trkpt lat="45.06183" lon="4.76143">
        <ele>202</ele>
        <time>2019-05-25T06:17:20Z</time>
      </trkpt>
      <trkpt lat="45.06199" lon="4.76117">
        <ele>203</ele>
        <time>2019-05-25T06:17:25Z</time>
      </trkpt>
      <trkpt lat="45.06216" lon="4.76096">
        <ele>204</ele>
        <time>2019-05-25T06:17:30Z</time>
      </trkpt>
      <trkpt lat="45.06236" lon="4.76079">
        <ele>205</ele>
        <time>2019-05-25T06:17:35Z</time>
      </trkpt>
      <trkpt lat="45.06257" lon="4.76062">
        <ele>206</ele>
        <time>2019-05-25T06:17:40Z</time>
      </trkpt>
      <trkpt lat="45.06278" lon="4.76047">
        <ele>207</ele>
        <time>2019-05-25T06:17:45Z</time>
      </trkpt>
      <trkpt lat="45.063" lon="4.76033">
        <ele>208</ele>
        <time>2019-05-25T06:17:50Z</time>
      </trkpt>
      <trkpt lat="45.06321" lon="4.76016">
        <ele>209</ele>
        <time>2019-05-25T06:17:55Z</time>
      </trkpt>
      <trkpt lat="45.06342" lon="4.75997">
        <ele>209</ele>
        <time>2019-05-25T06:18:00Z</time>
      </trkpt>
      <trkpt lat="45.06361" lon="4.75974">
        <ele>211</ele>
        <time>2019-05-25T06:18:05Z</time>
      </trkpt>
      <trkpt lat="45.0638" lon="4.75954">
        <ele>212</ele>
        <time>2019-05-25T06:18:10Z</time>
      </trkpt>
      <trkpt lat="45.06402" lon="4.75941">
        <ele>212</ele>
        <time>2019-05-25T06:18:15Z</time>
      </trkpt>
      <trkpt lat="45.06423" lon="4.75947">
        <ele>213</ele>
        <time>2019-05-25T06:18:20Z</time>
      </trkpt>
      <trkpt lat="45.06442" lon="4.75967">
        <ele>214</ele>
        <time>2019-05-25T06:18:25Z</time>
      </trkpt>
      <trkpt lat="45.0646" lon="4.75997">
        <ele>215</ele>
        <time>2019-05-25T06:18:30Z</time>
      </trkpt>
      <trkpt lat="45.06486" lon="4.76">
        <ele>217</ele>
        <time>2019-05-25T06:18:35Z</time>
      </trkpt>
      <trkpt lat="45.06512" lon="4.75998">
        <ele>218</ele>
        <time>2019-05-25T06:18:40Z</time>
      </trkpt>
      <trkpt lat="45.06536" lon="4.76004">
        <ele>218</ele>
        <time>2019-05-25T06:18:45Z</time>
      </trkpt>
      <trkpt lat="45.06561" lon="4.76005">
        <ele>220</ele>
        <time>2019-05-25T06:18:50Z</time>
      </trkpt>
      <trkpt lat="45.06582" lon="4.75991">
        <ele>223</ele>
        <time>2019-05-25T06:18:55Z</time>
      </trkpt>
      <trkpt lat="45.06598" lon="4.75965">
        <ele>225</ele>
        <time>2019-05-25T06:19:00Z</time>
      </trkpt>
      <trkpt lat="45.06607" lon="4.75936">
        <ele>227</ele>
        <time>2019-05-25T06:19:05Z</time>
      </trkpt>
      <trkpt lat="45.06607" lon="4.759">
        <ele>229</ele>
        <time>2019-05-25T06:19:10Z</time>
      </trkpt>
      <trkpt lat="45.06596" lon="4.75863">
        <ele>230</ele>
        <time>2019-05-25T06:19:15Z</time>
      </trkpt>
      <trkpt lat="45.06586" lon="4.75829">
        <ele>231</ele>
        <time>2019-05-25T06:19:20Z</time>
      </trkpt>
      <trkpt lat="45.06584" lon="4.75792">
        <ele>232</ele>
        <time>2019-05-25T06:19:25Z</time>
      </trkpt>
      <trkpt lat="45.0658" lon="4.75754">
        <ele>233</ele>
        <time>2019-05-25T06:19:30Z</time>
      </trkpt>
      <trkpt lat="45.0658" lon="4.75717">
        <ele>234</ele>
        <time>2019-05-25T06:19:35Z</time>
      </trkpt>
      <trkpt lat="45.06575" lon="4.75681">
        <ele>235</ele>
        <time>2019-05-25T06:19:40Z</time>
      </trkpt>
      <trkpt lat="45.06567" lon="4.75649">
        <ele>236</ele>
        <time>2019-05-25T06:19:45Z</time>
      </trkpt>
      <trkpt lat="45.06565" lon="4.75614">
        <ele>237</ele>
        <time>2019-05-25T06:19:50Z</time>
      </trkpt>
      <trkpt lat="45.0658" lon="4.75585">
        <ele>238</ele>
        <time>2019-05-25T06:19:55Z</time>
      </trkpt>
      <trkpt lat="45.06601" lon="4.75563">
        <ele>239</ele>
        <time>2019-05-25T06:20:00Z</time>
      </trkpt>
      <trkpt lat="45.06618" lon="4.75534">
        <ele>240</ele>
        <time>2019-05-25T06:20:05Z</time>
      </trkpt>
      <trkpt lat="45.06618" lon="4.75499">
        <ele>241</ele>
        <time>2019-05-25T06:20:10Z</time>
      </trkpt>
      <trkpt lat="45.06613" lon="4.75462">
        <ele>242</ele>
        <time>2019-05-25T06:20:15Z</time>
      </trkpt>
      <trkpt lat="45.06619" lon="4.75427">
        <ele>243</ele>
        <time>2019-05-25T06:20:20Z</time>
      </trkpt>
      <trkpt lat="45.06637" lon="4.754">
        <ele>244</ele>
        <time>2019-05-25T06:20:25Z</time>
      </trkpt>
      <trkpt lat="45.06647" lon="4.75364">
        <ele>245</ele>
        <time>2019-05-25T06:20:30Z</time>
      </trkpt>
      <trkpt lat="45.06643" lon="4.75326">
        <ele>247</ele>
        <time>2019-05-25T06:20:35Z</time>
      </trkpt>
      <trkpt lat="45.0662" lon="4.75305">
        <ele>248</ele>
        <time>2019-05-25T06:20:40Z</time>
      </trkpt>
      <trkpt lat="45.06594" lon="4.75296">
        <ele>249</ele>
        <time>2019-05-25T06:20:45Z</time>
      </trkpt>
      <trkpt lat="45.06579" lon="4.75266">
        <ele>250</ele>
        <time>2019-05-25T06:20:50Z</time>
      </trkpt>
      <trkpt lat="45.06579" lon="4.7523">
        <ele>251</ele>
        <time>2019-05-25T06:20:55Z</time>
      </trkpt>
      <trkpt lat="45.06568" lon="4.75197">
        <ele>253</ele>
        <time>2019-05-25T06:21:00Z</time>
      </trkpt>
      <trkpt lat="45.06551" lon="4.75166">
        <ele>254</ele>
        <time>2019-05-25T06:21:05Z</time>
      </trkpt>
      <trkpt lat="45.06534" lon="4.75138">
        <ele>254</ele>
        <time>2019-05-25T06:21:10Z</time>
      </trkpt>
      <trkpt lat="45.06515" lon="4.75117">
        <ele>256</ele>
        <time>2019-05-25T06:21:15Z</time>
      </trkpt>
      <trkpt lat="45.06493" lon="4.75105">
        <ele>257</ele>
        <time>2019-05-25T06:21:20Z</time>
      </trkpt>
      <trkpt lat="45.06482" lon="4.75079">
        <ele>258</ele>
        <time>2019-05-25T06:21:25Z</time>
      </trkpt>
      <trkpt lat="45.06476" lon="4.75043">
        <ele>259</ele>
        <time>2019-05-25T06:21:30Z</time>
      </trkpt>
      <trkpt lat="45.06467" lon="4.75009">
        <ele>260</ele>
        <time>2019-05-25T06:21:35Z</time>
      </trkpt>
      <trkpt lat="45.06452" lon="4.74982">
        <ele>261</ele>
        <time>2019-05-25T06:21:40Z</time>
      </trkpt>
      <trkpt lat="45.06429" lon="4.74969">
        <ele>262</ele>
        <time>2019-05-25T06:21:45Z</time>
      </trkpt>
      <trkpt lat="45.06404" lon="4.74957">
        <ele>263</ele>
        <time>2019-05-25T06:21:50Z</time>
      </trkpt>
      <trkpt lat="45.06383" lon="4.74938">
        <ele>264</ele>
        <time>2019-05-25T06:21:55Z</time>
      </trkpt>
      <trkpt lat="45.06368" lon="4.7491">
        <ele>265</ele>
        <time>2019-05-25T06:22:00Z</time>
      </trkpt>
      <trkpt lat="45.06362" lon="4.74875">
        <ele>266</ele>
        <time>2019-05-25T06:22:05Z</time>
      </trkpt>
      <trkpt lat="45.06348" lon="4.74844">
        <ele>267</ele>
        <time>2019-05-25T06:22:10Z</time>
      </trkpt>
      <trkpt lat="45.06343" lon="4.74808">
        <ele>268</ele>
        <time>2019-05-25T06:22:15Z</time>
      </trkpt>
      <trkpt lat="45.06335" lon="4.74772">
        <ele>269</ele>
        <time>2019-05-25T06:22:20Z</time>
      </trkpt>
      <trkpt lat="45.0632" lon="4.74742">
        <ele>270</ele>
        <time>2019-05-25T06:22:25Z</time>
      </trkpt>
      <trkpt lat="45.06303" lon="4.74716">
        <ele>271</ele>
        <time>2019-05-25T06:22:30Z</time>
      </trkpt>
      <trkpt lat="45.0628" lon="4.74707">
        <ele>272</ele>
        <time>2019-05-25T06:22:35Z</time>
      </trkpt>
      <trkpt lat="45.06258" lon="4.74726">
        <ele>274</ele>
        <time>2019-05-25T06:22:40Z</time>
      </trkpt>
      <trkpt lat="45.06239" lon="4.74752">
        <ele>275</ele>
        <time>2019-05-25T06:22:45Z</time>
      </trkpt>
      <trkpt lat="45.06217" lon="4.74771">
        <ele>276</ele>
        <time>2019-05-25T06:22:50Z</time>
      </trkpt>
      <trkpt lat="45.06195" lon="4.74785">
        <ele>278</ele>
        <time>2019-05-25T06:22:55Z</time>
      </trkpt>
      <trkpt lat="45.06172" lon="4.74798">
        <ele>279</ele>
        <time>2019-05-25T06:23:00Z</time>
      </trkpt>
      <trkpt lat="45.06151" lon="4.74818">
        <ele>280</ele>
        <time>2019-05-25T06:23:05Z</time>
      </trkpt>
      <trkpt lat="45.06132" lon="4.74841">
        <ele>281</ele>
        <time>2019-05-25T06:23:10Z</time>
      </trkpt>
      <trkpt lat="45.06108" lon="4.74855">
        <ele>282</ele>
        <time>2019-05-25T06:23:15Z</time>
      </trkpt>
      <trkpt lat="45.06079" lon="4.74866">
        <ele>283</ele>
        <time>2019-05-25T06:23:21Z</time>
      </trkpt>
      <trkpt lat="45.06048" lon="4.74867">
        <ele>283</ele>
        <time>2019-05-25T06:23:27Z</time>
      </trkpt>
      <trkpt lat="45.06018" lon="4.74876">
        <ele>285</ele>
        <time>2019-05-25T06:23:33Z</time>
      </trkpt>
      <trkpt lat="45.05993" lon="4.74899">
        <ele>286</ele>
        <time>2019-05-25T06:23:39Z</time>
      </trkpt>
      <trkpt lat="45.05965" lon="4.74914">
        <ele>287</ele>
        <time>2019-05-25T06:23:45Z</time>
      </trkpt>
      <trkpt lat="45.05941" lon="4.74921">
        <ele>288</ele>
        <time>2019-05-25T06:23:50Z</time>
      </trkpt>
      <trkpt lat="45.05916" lon="4.74927">
        <ele>289</ele>
        <time>2019-05-25T06:23:55Z</time>
      </trkpt>
      <trkpt lat="45.05892" lon="4.74935">
        <ele>290</ele>
        <time>2019-05-25T06:24:00Z</time>
      </trkpt>
      <trkpt lat="45.05868" lon="4.74949">
        <ele>290</ele>
        <time>2019-05-25T06:24:05Z</time>
      </trkpt>
      <trkpt lat="45.05843" lon="4.74964">
        <ele>291</ele>
        <time>2019-05-25T06:24:10Z</time>
      </trkpt>
      <trkpt lat="45.05817" lon="4.74969">
        <ele>292</ele>
        <time>2019-05-25T06:24:15Z</time>
      </trkpt>
      <trkpt lat="45.0579" lon="4.74955">
        <ele>293</ele>
        <time>2019-05-25T06:24:20Z</time>
      </trkpt>
      <trkpt lat="45.0577" lon="4.74934">
        <ele>294</ele>
        <time>2019-05-25T06:24:25Z</time>
      </trkpt>
      <trkpt lat="45.05756" lon="4.74904">
        <ele>295</ele>
        <time>2019-05-25T06:24:30Z</time>
      </trkpt>
      <trkpt lat="45.05752" lon="4.74874">
        <ele>297</ele>
        <time>2019-05-25T06:24:35Z</time>
      </trkpt>
      <trkpt lat="45.05757" lon="4.74838">
        <ele>298</ele>
        <time>2019-05-25T06:24:40Z</time>
      </trkpt>
      <trkpt lat="45.05772" lon="4.74807">
        <ele>299</ele>
        <time>2019-05-25T06:24:45Z</time>
      </trkpt>
      <trkpt lat="45.05785" lon="4.74775">
        <ele>299</ele>
        <time>2019-05-25T06:24:50Z</time>
      </trkpt>
      <trkpt lat="45.05794" lon="4.74742">
        <ele>300</ele>
        <time>2019-05-25T06:24:55Z</time>
      </trkpt>
      <trkpt lat="45.05793" lon="4.74706">
        <ele>301</ele>
        <time>2019-05-25T06:25:00Z</time>
      </trkpt>
      <trkpt lat="45.05784" lon="4.74671">
        <ele>302</ele>
        <time>2019-05-25T06:25:05Z</time>
      </trkpt>
      <trkpt lat="45.05766" lon="4.7464">
        <ele>303</ele>
        <time>2019-05-25T06:25:10Z</time>
      </trkpt>
      <trkpt lat="45.05748" lon="4.74611">
        <ele>304</ele>
        <time>2019-05-25T06:25:15Z</time>
      </trkpt>
      <trkpt lat="45.05738" lon="4.74574">
        <ele>305</ele>
        <time>2019-05-25T06:25:20Z</time>
      </trkpt>
      <trkpt lat="45.05723" lon="4.74541">
        <ele>306</ele>
        <time>2019-05-25T06:25:25Z</time>
      </trkpt>
      <trkpt lat="45.0571" lon="4.74509">
        <ele>307</ele>
        <time>2019-05-25T06:25:30Z</time>
      </trkpt>
      <trkpt lat="45.05692" lon="4.74482">
        <ele>308</ele>
        <time>2019-05-25T06:25:35Z</time>
      </trkpt>
      <trkpt lat="45.05679" lon="4.74449">
        <ele>309</ele>
        <time>2019-05-25T06:25:40Z</time>
      </trkpt>
      <trkpt lat="45.05678" lon="4.7441">
        <ele>311</ele>
        <time>2019-05-25T06:25:45Z</time>
      </trkpt>
      <trkpt lat="45.05684" lon="4.74374">
        <ele>312</ele>
        <time>2019-05-25T06:25:50Z</time>
      </trkpt>
      <trkpt lat="45.05679" lon="4.7434">
        <ele>313</ele>
        <time>2019-05-25T06:25:55Z</time>
      </trkpt>
      <trkpt lat="45.05662" lon="4.74311">
        <ele>314</ele>
        <time>2019-05-25T06:26:00Z</time>
      </trkpt>
      <trkpt lat="45.05641" lon="4.74284">
        <ele>314</ele>
        <time>2019-05-25T06:26:05Z</time>
      </trkpt>
      <trkpt lat="45.0562" lon="4.74265">
        <ele>315</ele>
        <time>2019-05-25T06:26:10Z</time>
      </trkpt>
      <trkpt lat="45.05628" lon="4.74297">
        <ele>315</ele>
        <time>2019-05-25T06:26:15Z</time>
      </trkpt>
      <trkpt lat="45.05645" lon="4.74322">
        <ele>316</ele>
        <time>2019-05-25T06:26:20Z</time>
      </trkpt>
      <trkpt lat="45.05659" lon="4.74348">
        <ele>317</ele>
        <time>2019-05-25T06:26:25Z</time>
      </trkpt>
      <trkpt lat="45.05665" lon="4.74378">
        <ele>319</ele>
        <time>2019-05-25T06:26:30Z</time>
      </trkpt>
      <trkpt lat="45.05662" lon="4.7441">
        <ele>320</ele>
        <time>2019-05-25T06:26:35Z</time>
      </trkpt>
      <trkpt lat="45.05655" lon="4.74441">
        <ele>321</ele>
        <time>2019-05-25T06:26:40Z</time>
      </trkpt>
      <trkpt lat="45.05647" lon="4.7447">
        <ele>322</ele>
        <time>2019-05-25T06:26:45Z</time>
      </trkpt>
      <trkpt lat="45.05651" lon="4.74503">
        <ele>323</ele>
        <time>2019-05-25T06:26:50Z</time>
      </trkpt>
      <trkpt lat="45.05667" lon="4.74526">
        <ele>325</ele>
        <time>2019-05-25T06:26:55Z</time>
      </trkpt>
      <trkpt lat="45.05683" lon="4.74549">
        <ele>326</ele>
        <time>2019-05-25T06:27:00Z</time>
      </trkpt>
      <trkpt lat="45.05696" lon="4.74576">
        <ele>327</ele>
        <time>2019-05-25T06:27:05Z</time>
      </trkpt>
      <trkpt lat="45.05705" lon="4.74605">
        <ele>329</ele>
        <time>2019-05-25T06:27:10Z</time>
      </trkpt>
      <trkpt lat="45.05713" lon="4.74642">
        <ele>330</ele>
        <time>2019-05-25T06:27:16Z</time>
      </trkpt>
      <trkpt lat="45.05722" lon="4.74677">
        <ele>332</ele>
        <time>2019-05-25T06:27:22Z</time>
      </trkpt>
      <trkpt lat="45.0573" lon="4.74714">
        <ele>333</ele>
        <time>2019-05-25T06:27:28Z</time>
      </trkpt>
      <trkpt lat="45.05723" lon="4.74747">
        <ele>334</ele>
        <time>2019-05-25T06:27:34Z</time>
      </trkpt>
      <trkpt lat="45.05705" lon="4.74774">
        <ele>336</ele>
        <time>2019-05-25T06:27:40Z</time>
      </trkpt>
      <trkpt lat="45.05685" lon="4.748">
        <ele>337</ele>
        <time>2019-05-25T06:27:46Z</time>
      </trkpt>
      <trkpt lat="45.05672" lon="4.74834">
        <ele>339</ele>
        <time>2019-05-25T06:27:52Z</time>
      </trkpt>
      <trkpt lat="45.05666" lon="4.74865">
        <ele>340</ele>
        <time>2019-05-25T06:27:57Z</time>
      </trkpt>
      <trkpt lat="45.05656" lon="4.74895">
        <ele>342</ele>
        <time>2019-05-25T06:28:02Z</time>
      </trkpt>
      <trkpt lat="45.05644" lon="4.7492">
        <ele>343</ele>
        <time>2019-05-25T06:28:07Z</time>
      </trkpt>
      <trkpt lat="45.05632" lon="4.74945">
        <ele>344</ele>
        <time>2019-05-25T06:28:12Z</time>
      </trkpt>
      <trkpt lat="45.05618" lon="4.74935">
        <ele>345</ele>
        <time>2019-05-25T06:28:17Z</time>
      </trkpt>
      <trkpt lat="45.05614" lon="4.74902">
        <ele>346</ele>
        <time>2019-05-25T06:28:22Z</time>
      </trkpt>
      <trkpt lat="45.05609" lon="4.74873">
        <ele>347</ele>
        <time>2019-05-25T06:28:27Z</time>
      </trkpt>
      <trkpt lat="45.05605" lon="4.74845">
        <ele>348</ele>
        <time>2019-05-25T06:28:32Z</time>
      </trkpt>
      <trkpt lat="45.05602" lon="4.7482">
        <ele>350</ele>
        <time>2019-05-25T06:28:37Z</time>
      </trkpt>
      <trkpt lat="45.05598" lon="4.74798">
        <ele>352</ele>
        <time>2019-05-25T06:28:42Z</time>
      </trkpt>
      <trkpt lat="45.05595" lon="4.74777">
        <ele>355</ele>
        <time>2019-05-25T06:28:47Z</time>
      </trkpt>
      <trkpt lat="45.05587" lon="4.74755">
        <ele>357</ele>
        <time>2019-05-25T06:28:52Z</time>
      </trkpt>
      <trkpt lat="45.05576" lon="4.74737">
        <ele>358</ele>
        <time>2019-05-25T06:28:57Z</time>
      </trkpt>
      <trkpt lat="45.05573" lon="4.74718">
        <ele>360</ele>
        <time>2019-05-25T06:29:02Z</time>
      </trkpt>
      <trkpt lat="45.05565" lon="4.74693">
        <ele>361</ele>
        <time>2019-05-25T06:29:07Z</time>
      </trkpt>
      <trkpt lat="45.05547" lon="4.74683">
        <ele>364</ele>
        <time>2019-05-25T06:29:12Z</time>
      </trkpt>
      <trkpt lat="45.05526" lon="4.74679">
        <ele>365</ele>
        <time>2019-05-25T06:29:17Z</time>
      </trkpt>
      <trkpt lat="45.05506" lon="4.74673">
        <ele>366</ele>
        <time>2019-05-25T06:29:22Z</time>
      </trkpt>
      <trkpt lat="45.05486" lon="4.74662">
        <ele>367</ele>
        <time>2019-05-25T06:29:27Z</time>
      </trkpt>
      <trkpt lat="45.05465" lon="4.74651">
        <ele>369</ele>
        <time>2019-05-25T06:29:32Z</time>
      </trkpt>
      <trkpt lat="45.05442" lon="4.74646">
        <ele>369</ele>
        <time>2019-05-25T06:29:37Z</time>
      </trkpt>
      <trkpt lat="45.05419" lon="4.74655">
        <ele>369</ele>
        <time>2019-05-25T06:29:42Z</time>
      </trkpt>
      <trkpt lat="45.05396" lon="4.74648">
        <ele>370</ele>
        <time>2019-05-25T06:29:47Z</time>
      </trkpt>
      <trkpt lat="45.0537" lon="4.7465">
        <ele>371</ele>
        <time>2019-05-25T06:29:52Z</time>
      </trkpt>
      <trkpt lat="45.05341" lon="4.74658">
        <ele>371</ele>
        <time>2019-05-25T06:29:57Z</time>
      </trkpt>
      <trkpt lat="45.05307" lon="4.74669">
        <ele>369</ele>
        <time>2019-05-25T06:30:02Z</time>
      </trkpt>
      <trkpt lat="45.05268" lon="4.7467">
        <ele>368</ele>
        <time>2019-05-25T06:30:07Z</time>
      </trkpt>
      <trkpt lat="45.05247" lon="4.74653">
        <ele>365</ele>
        <time>2019-05-25T06:30:12Z</time>
      </trkpt>
      <trkpt lat="45.05246" lon="4.7461">
        <ele>364</ele>
        <time>2019-05-25T06:30:17Z</time>
      </trkpt>
      <trkpt lat="45.05251" lon="4.74559">
        <ele>364</ele>
        <time>2019-05-25T06:30:22Z</time>
      </trkpt>
      <trkpt lat="45.05258" lon="4.74495">
        <ele>363</ele>
        <time>2019-05-25T06:30:27Z</time>
      </trkpt>
      <trkpt lat="45.05264" lon="4.74433">
        <ele>362</ele>
        <time>2019-05-25T06:30:32Z</time>
      </trkpt>
      <trkpt lat="45.05272" lon="4.74385">
        <ele>362</ele>
        <time>2019-05-25T06:30:37Z</time>
      </trkpt>
      <trkpt lat="45.05266" lon="4.74352">
        <ele>361</ele>
        <time>2019-05-25T06:30:42Z</time>
      </trkpt>
      <trkpt lat="45.05241" lon="4.74317">
        <ele>361</ele>
        <time>2019-05-25T06:30:47Z</time>
      </trkpt>
      <trkpt lat="45.05213" lon="4.7428">
        <ele>361</ele>
        <time>2019-05-25T06:30:52Z</time>
      </trkpt>
      <trkpt lat="45.05184" lon="4.74242">
        <ele>361</ele>
        <time>2019-05-25T06:30:57Z</time>
      </trkpt>
      <trkpt lat="45.05157" lon="4.74205">
        <ele>361</ele>
        <time>2019-05-25T06:31:02Z</time>
      </trkpt>
      <trkpt lat="45.05124" lon="4.74162">
        <ele>361</ele>
        <time>2019-05-25T06:31:08Z</time>
      </trkpt>
      <trkpt lat="45.05091" lon="4.74118">
        <ele>361</ele>
        <time>2019-05-25T06:31:14Z</time>
      </trkpt>
      <trkpt lat="45.05064" lon="4.74068">
        <ele>361</ele>
        <time>2019-05-25T06:31:20Z</time>
      </trkpt>
      <trkpt lat="45.05046" lon="4.74016">
        <ele>361</ele>
        <time>2019-05-25T06:31:26Z</time>
      </trkpt>
      <trkpt lat="45.05032" lon="4.73972">
        <ele>363</ele>
        <time>2019-05-25T06:31:32Z</time>
      </trkpt>
      <trkpt lat="45.05018" lon="4.73941">
        <ele>366</ele>
        <time>2019-05-25T06:31:38Z</time>
      </trkpt>
      <trkpt lat="45.05007" lon="4.73909">
        <ele>369</ele>
        <time>2019-05-25T06:31:44Z</time>
      </trkpt>
      <trkpt lat="45.04994" lon="4.73876">
        <ele>372</ele>
        <time>2019-05-25T06:31:50Z</time>
      </trkpt>
      <trkpt lat="45.04981" lon="4.73843">
        <ele>374</ele>
        <time>2019-05-25T06:31:56Z</time>
      </trkpt>
      <trkpt lat="45.04969" lon="4.73816">
        <ele>377</ele>
        <time>2019-05-25T06:32:01Z</time>
      </trkpt>
      <trkpt lat="45.04959" lon="4.7379">
        <ele>380</ele>
        <time>2019-05-25T06:32:06Z</time>
      </trkpt>
      <trkpt lat="45.04948" lon="4.73764">
        <ele>382</ele>
        <time>2019-05-25T06:32:11Z</time>
      </trkpt>
      <trkpt lat="45.04939" lon="4.73738">
        <ele>385</ele>
        <time>2019-05-25T06:32:16Z</time>
      </trkpt>
      <trkpt lat="45.04927" lon="4.73712">
        <ele>387</ele>
        <time>2019-05-25T06:32:21Z</time>
      </trkpt>
      <trkpt lat="45.04916" lon="4.73684">
        <ele>388</ele>
        <time>2019-05-25T06:32:26Z</time>
      </trkpt>
      <trkpt lat="45.04903" lon="4.73658">
        <ele>390</ele>
        <time>2019-05-25T06:32:31Z</time>
      </trkpt>
      <trkpt lat="45.04887" lon="4.73629">
        <ele>391</ele>
        <time>2019-05-25T06:32:36Z</time>
      </trkpt>
      <trkpt lat="45.04874" lon="4.73598">
        <ele>392</ele>
        <time>2019-05-25T06:32:41Z</time>
      </trkpt>
      <trkpt lat="45.04863" lon="4.73567">
        <ele>393</ele>
        <time>2019-05-25T06:32:46Z</time>
      </trkpt>
      <trkpt lat="45.04853" lon="4.73533">
        <ele>394</ele>
        <time>2019-05-25T06:32:51Z</time>
      </trkpt>
      <trkpt lat="45.04844" lon="4.73498">
        <ele>394</ele>
        <time>2019-05-25T06:32:56Z</time>
      </trkpt>
      <trkpt lat="45.04836" lon="4.73465">
        <ele>396</ele>
        <time>2019-05-25T06:33:01Z</time>
      </trkpt>
      <trkpt lat="45.04827" lon="4.73428">
        <ele>397</ele>
        <time>2019-05-25T06:33:06Z</time>
      </trkpt>
      <trkpt lat="45.04818" lon="4.73389">
        <ele>397</ele>
        <time>2019-05-25T06:33:11Z</time>
      </trkpt>
      <trkpt lat="45.04811" lon="4.73345">
        <ele>397</ele>
        <time>2019-05-25T06:33:16Z</time>
      </trkpt>
      <trkpt lat="45.04805" lon="4.733">
        <ele>397</ele>
        <time>2019-05-25T06:33:21Z</time>
      </trkpt>
      <trkpt lat="45.048" lon="4.73255">
        <ele>397</ele>
        <time>2019-05-25T06:33:26Z</time>
      </trkpt>
      <trkpt lat="45.04795" lon="4.73211">
        <ele>398</ele>
        <time>2019-05-25T06:33:31Z</time>
      </trkpt>
      <trkpt lat="45.0479" lon="4.73168">
        <ele>398</ele>
        <time>2019-05-25T06:33:36Z</time>
      </trkpt>
      <trkpt lat="45.04787" lon="4.73125">
        <ele>399</ele>
        <time>2019-05-25T06:33:41Z</time>
      </trkpt>
      <trkpt lat="45.04784" lon="4.73085">
        <ele>400</ele>
        <time>2019-05-25T06:33:46Z</time>
      </trkpt>
      <trkpt lat="45.04777" lon="4.73047">
        <ele>401</ele>
        <time>2019-05-25T06:33:51Z</time>
      </trkpt>
      <trkpt lat="45.04766" lon="4.73017">
        <ele>403</ele>
        <time>2019-05-25T06:33:56Z</time>
      </trkpt>
      <trkpt lat="45.04752" lon="4.72988">
        <ele>405</ele>
        <time>2019-05-25T06:34:01Z</time>
      </trkpt>
      <trkpt lat="45.04737" lon="4.7296">
        <ele>407</ele>
        <time>2019-05-25T06:34:06Z</time>
      </trkpt>
      <trkpt lat="45.04722" lon="4.72933">
        <ele>408</ele>
        <time>2019-05-25T06:34:11Z</time>
      </trkpt>
      <trkpt lat="45.04708" lon="4.72902">
        <ele>409</ele>
        <time>2019-05-25T06:34:16Z</time>
      </trkpt>
      <trkpt lat="45.04694" lon="4.72871">
        <ele>410</ele>
        <time>2019-05-25T06:34:21Z</time>
      </trkpt>
      <trkpt lat="45.04678" lon="4.72838">
        <ele>410</ele>
        <time>2019-05-25T06:34:26Z</time>
      </trkpt>
      <trkpt lat="45.04664" lon="4.72807">
        <ele>411</ele>
        <time>2019-05-25T06:34:31Z</time>
      </trkpt>
      <trkpt lat="45.04651" lon="4.72778">
        <ele>412</ele>
        <time>2019-05-25T06:34:36Z</time>
      </trkpt>
      <trkpt lat="45.04636" lon="4.72749">
        <ele>413</ele>
        <time>2019-05-25T06:34:41Z</time>
      </trkpt>
      <trkpt lat="45.04621" lon="4.72725">
        <ele>414</ele>
        <time>2019-05-25T06:34:46Z</time>
      </trkpt>
      <trkpt lat="45.0461" lon="4.72707">
        <ele>415</ele>
        <time>2019-05-25T06:34:51Z</time>
      </trkpt>
      <trkpt lat="45.04597" lon="4.72685">
        <ele>415</ele>
        <time>2019-05-25T06:34:57Z</time>
      </trkpt>
      <trkpt lat="45.04583" lon="4.72664">
        <ele>416</ele>
        <time>2019-05-25T06:35:02Z</time>
      </trkpt>
      <trkpt lat="45.04566" lon="4.72644">
        <ele>417</ele>
        <time>2019-05-25T06:35:07Z</time>
      </trkpt>
      <trkpt lat="45.04549" lon="4.72628">
        <ele>418</ele>
        <time>2019-05-25T06:35:12Z</time>
      </trkpt>
      <trkpt lat="45.04531" lon="4.72613">
        <ele>420</ele>
        <time>2019-05-25T06:35:17Z</time>
      </trkpt>
      <trkpt lat="45.04513" lon="4.726">
        <ele>422</ele>
        <time>2019-05-25T06:35:22Z</time>
      </trkpt>
      <trkpt lat="45.04496" lon="4.72587">
        <ele>423</ele>
        <time>2019-05-25T06:35:27Z</time>
      </trkpt>
      <trkpt lat="45.04482" lon="4.72574">
        <ele>425</ele>
        <time>2019-05-25T06:35:32Z</time>
      </trkpt>
      <trkpt lat="45.0447" lon="4.72564">
        <ele>426</ele>
        <time>2019-05-25T06:35:37Z</time>
      </trkpt>
      <trkpt lat="45.04458" lon="4.72555">
        <ele>426</ele>
        <time>2019-05-25T06:35:42Z</time>
      </trkpt>
      <trkpt lat="45.04448" lon="4.72546">
        <ele>426</ele>
        <time>2019-05-25T06:35:47Z</time>
      </trkpt>
      <trkpt lat="45.04438" lon="4.72539">
        <ele>427</ele>
        <time>2019-05-25T06:35:52Z</time>
      </trkpt>
      <trkpt lat="45.0442" lon="4.72527">
        <ele>427</ele>
        <time>2019-05-25T06:35:57Z</time>
      </trkpt>
      <trkpt lat="45.04399" lon="4.72511">
        <ele>427</ele>
        <time>2019-05-25T06:36:02Z</time>
      </trkpt>
      <trkpt lat="45.04378" lon="4.72496">
        <ele>428</ele>
        <time>2019-05-25T06:36:07Z</time>
      </trkpt>
      <trkpt lat="45.04358" lon="4.72482">
        <ele>429</ele>
        <time>2019-05-25T06:36:12Z</time>
      </trkpt>
      <trkpt lat="45.04338" lon="4.72467">
        <ele>430</ele>
        <time>2019-05-25T06:36:17Z</time>
      </trkpt>
      <trkpt lat="45.04324" lon="4.72461">
        <ele>431</ele>
        <time>2019-05-25T06:36:22Z</time>
      </trkpt>
      <trkpt lat="45.04316" lon="4.72453">
        <ele>432</ele>
        <time>2019-05-25T06:36:27Z</time>
      </trkpt>
      <trkpt lat="45.0432" lon="4.72461">
        <ele>432</ele>
        <time>2019-05-25T06:36:32Z</time>
      </trkpt>
      <trkpt lat="45.0433" lon="4.72468">
        <ele>432</ele>
        <time>2019-05-25T06:36:37Z</time>
      </trkpt>
      <trkpt lat="45.04339" lon="4.72475">
        <ele>432</ele>
        <time>2019-05-25T06:36:42Z</time>
      </trkpt>
      <trkpt lat="45.04337" lon="4.72474">
        <ele>432</ele>
        <time>2019-05-25T06:36:47Z</time>
      </trkpt>
      <trkpt lat="45.04346" lon="4.72482">
        <ele>432</ele>
        <time>2019-05-25T06:36:52Z</time>
      </trkpt>
      <trkpt lat="45.04354" lon="4.72485">
        <ele>431</ele>
        <time>2019-05-25T06:36:57Z</time>
      </trkpt>
      <trkpt lat="45.04342" lon="4.72475">
        <ele>431</ele>
        <time>2019-05-25T06:37:02Z</time>
      </trkpt>
      <trkpt lat="45.04324" lon="4.72461">
        <ele>431</ele>
        <time>2019-05-25T06:37:07Z</time>
      </trkpt>
      <trkpt lat="45.04306" lon="4.72452">
        <ele>431</ele>
        <time>2019-05-25T06:37:12Z</time>
      </trkpt>
      <trkpt lat="45.04286" lon="4.72445">
        <ele>432</ele>
        <time>2019-05-25T06:37:18Z</time>
      </trkpt>
      <trkpt lat="45.04275" lon="4.72441">
        <ele>432</ele>
        <time>2019-05-25T06:37:24Z</time>
      </trkpt>
      <trkpt lat="45.04274" lon="4.72443">
        <ele>432</ele>
        <time>2019-05-25T06:37:30Z</time>
      </trkpt>
      <trkpt lat="45.04267" lon="4.72438">
        <ele>432</ele>
        <time>2019-05-25T06:37:36Z</time>
      </trkpt>
      <trkpt lat="45.04247" lon="4.72426">
        <ele>432</ele>
        <time>2019-05-25T06:37:42Z</time>
      </trkpt>
      <trkpt lat="45.04224" lon="4.72414">
        <ele>431</ele>
        <time>2019-05-25T06:37:48Z</time>
      </trkpt>
      <trkpt lat="45.04195" lon="4.72408">
        <ele>431</ele>
        <time>2019-05-25T06:37:54Z</time>
      </trkpt>
      <trkpt lat="45.04161" lon="4.72398">
        <ele>430</ele>
        <time>2019-05-25T06:38:00Z</time>
      </trkpt>
      <trkpt lat="45.0413" lon="4.72378">
        <ele>430</ele>
        <time>2019-05-25T06:38:05Z</time>
      </trkpt>
      <trkpt lat="45.04093" lon="4.72358">
        <ele>429</ele>
        <time>2019-05-25T06:38:10Z</time>
      </trkpt>
      <trkpt lat="45.04056" lon="4.72336">
        <ele>427</ele>
        <time>2019-05-25T06:38:15Z</time>
      </trkpt>
      <trkpt lat="45.04022" lon="4.72302">
        <ele>427</ele>
        <time>2019-05-25T06:38:20Z</time>
      </trkpt>
      <trkpt lat="45.03985" lon="4.7226">
        <ele>425</ele>
        <time>2019-05-25T06:38:25Z</time>
      </trkpt>
      <trkpt lat="45.03945" lon="4.72213">
        <ele>423</ele>
        <time>2019-05-25T06:38:30Z</time>
      </trkpt>
      <trkpt lat="45.03905" lon="4.72167">
        <ele>421</ele>
        <time>2019-05-25T06:38:35Z</time>
      </trkpt>
      <trkpt lat="45.03867" lon="4.72122">
        <ele>420</ele>
        <time>2019-05-25T06:38:40Z</time>
      </trkpt>
      <trkpt lat="45.03834" lon="4.72082">
        <ele>420</ele>
        <time>2019-05-25T06:38:45Z</time>
      </trkpt>
      <trkpt lat="45.03815" lon="4.72043">
        <ele>420</ele>
        <time>2019-05-25T06:38:50Z</time>
      </trkpt>
      <trkpt lat="45.03791" lon="4.72024">
        <ele>421</ele>
        <time>2019-05-25T06:38:55Z</time>
      </trkpt>
      <trkpt lat="45.03759" lon="4.72015">
        <ele>422</ele>
        <time>2019-05-25T06:39:00Z</time>
      </trkpt>
      <trkpt lat="45.0373" lon="4.72003">
        <ele>423</ele>
        <time>2019-05-25T06:39:05Z</time>
      </trkpt>
      <trkpt lat="45.03704" lon="4.71993">
        <ele>424</ele>
        <time>2019-05-25T06:39:10Z</time>
      </trkpt>
      <trkpt lat="45.03678" lon="4.71981">
        <ele>425</ele>
        <time>2019-05-25T06:39:15Z</time>
      </trkpt>
      <trkpt lat="45.03649" lon="4.71968">
        <ele>425</ele>
        <time>2019-05-25T06:39:20Z</time>
      </trkpt>
      <trkpt lat="45.03621" lon="4.71955">
        <ele>426</ele>
        <time>2019-05-25T06:39:25Z</time>
      </trkpt>
      <trkpt lat="45.03593" lon="4.71942">
        <ele>426</ele>
        <time>2019-05-25T06:39:30Z</time>
      </trkpt>
      <trkpt lat="45.03563" lon="4.71928">
        <ele>427</ele>
        <time>2019-05-25T06:39:35Z</time>
      </trkpt>
      <trkpt lat="45.03533" lon="4.71914">
        <ele>428</ele>
        <time>2019-05-25T06:39:40Z</time>
      </trkpt>
      <trkpt lat="45.03502" lon="4.719">
        <ele>428</ele>
        <time>2019-05-25T06:39:45Z</time>
      </trkpt>
      <trkpt lat="45.03472" lon="4.71885">
        <ele>429</ele>
        <time>2019-05-25T06:39:50Z</time>
      </trkpt>
      <trkpt lat="45.03442" lon="4.7187">
        <ele>430</ele>
        <time>2019-05-25T06:39:55Z</time>
      </trkpt>
      <trkpt lat="45.03412" lon="4.71857">
        <ele>431</ele>
        <time>2019-05-25T06:40:00Z</time>
      </trkpt>
      <trkpt lat="45.03383" lon="4.71845">
        <ele>431</ele>
        <time>2019-05-25T06:40:05Z</time>
      </trkpt>
      <trkpt lat="45.03355" lon="4.71831">
        <ele>431</ele>
        <time>2019-05-25T06:40:10Z</time>
      </trkpt>
      <trkpt lat="45.03326" lon="4.71816">
        <ele>432</ele>
        <time>2019-05-25T06:40:15Z</time>
      </trkpt>
      <trkpt lat="45.03293" lon="4.71796">
        <ele>432</ele>
        <time>2019-05-25T06:40:20Z</time>
      </trkpt>
      <trkpt lat="45.03258" lon="4.71778">
        <ele>432</ele>
        <time>2019-05-25T06:40:25Z</time>
      </trkpt>
      <trkpt lat="45.03223" lon="4.71764">
        <ele>432</ele>
        <time>2019-05-25T06:40:30Z</time>
      </trkpt>
      <trkpt lat="45.03189" lon="4.71747">
        <ele>432</ele>
        <time>2019-05-25T06:40:35Z</time>
      </trkpt>
      <trkpt lat="45.03155" lon="4.71747">
        <ele>432</ele>
        <time>2019-05-25T06:40:40Z</time>
      </trkpt>
      <trkpt lat="45.03133" lon="4.71788">
        <ele>432</ele>
        <time>2019-05-25T06:40:45Z</time>
      </trkpt>
      <trkpt lat="45.03118" lon="4.71835">
        <ele>432</ele>
        <time>2019-05-25T06:40:50Z</time>
      </trkpt>
      <trkpt lat="45.03091" lon="4.71869">
        <ele>432</ele>
        <time>2019-05-25T06:40:55Z</time>
      </trkpt>
      <trkpt lat="45.03059" lon="4.71883">
        <ele>434</ele>
        <time>2019-05-25T06:41:00Z</time>
      </trkpt>
      <trkpt lat="45.03029" lon="4.71897">
        <ele>434</ele>
        <time>2019-05-25T06:41:05Z</time>
      </trkpt>
      <trkpt lat="45.02999" lon="4.71908">
        <ele>434</ele>
        <time>2019-05-25T06:41:10Z</time>
      </trkpt>
      <trkpt lat="45.02967" lon="4.71922">
        <ele>435</ele>
        <time>2019-05-25T06:41:16Z</time>
      </trkpt>
      <trkpt lat="45.02941" lon="4.71933">
        <ele>435</ele>
        <time>2019-05-25T06:41:21Z</time>
      </trkpt>
      <trkpt lat="45.02911" lon="4.71943">
        <ele>435</ele>
        <time>2019-05-25T06:41:26Z</time>
      </trkpt>
      <trkpt lat="45.0288" lon="4.71956">
        <ele>436</ele>
        <time>2019-05-25T06:41:31Z</time>
      </trkpt>
      <trkpt lat="45.0284" lon="4.71971">
        <ele>437</ele>
        <time>2019-05-25T06:41:37Z</time>
      </trkpt>
      <trkpt lat="45.02806" lon="4.71982">
        <ele>438</ele>
        <time>2019-05-25T06:41:42Z</time>
      </trkpt>
      <trkpt lat="45.02769" lon="4.71984">
        <ele>438</ele>
        <time>2019-05-25T06:41:47Z</time>
      </trkpt>
      <trkpt lat="45.02733" lon="4.7197">
        <ele>438</ele>
        <time>2019-05-25T06:41:52Z</time>
      </trkpt>
      <trkpt lat="45.02697" lon="4.71948">
        <ele>438</ele>
        <time>2019-05-25T06:41:57Z</time>
      </trkpt>
      <trkpt lat="45.02658" lon="4.71927">
        <ele>438</ele>
        <time>2019-05-25T06:42:02Z</time>
      </trkpt>
      <trkpt lat="45.0262" lon="4.71894">
        <ele>436</ele>
        <time>2019-05-25T06:42:07Z</time>
      </trkpt>
      <trkpt lat="45.02589" lon="4.71845">
        <ele>434</ele>
        <time>2019-05-25T06:42:12Z</time>
      </trkpt>
      <trkpt lat="45.02559" lon="4.71795">
        <ele>432</ele>
        <time>2019-05-25T06:42:17Z</time>
      </trkpt>
      <trkpt lat="45.02528" lon="4.71742">
        <ele>430</ele>
        <time>2019-05-25T06:42:22Z</time>
      </trkpt>
      <trkpt lat="45.02508" lon="4.71662">
        <ele>428</ele>
        <time>2019-05-25T06:42:28Z</time>
      </trkpt>
      <trkpt lat="45.02479" lon="4.716">
        <ele>427</ele>
        <time>2019-05-25T06:42:33Z</time>
      </trkpt>
      <trkpt lat="45.02442" lon="4.71545">
        <ele>426</ele>
        <time>2019-05-25T06:42:38Z</time>
      </trkpt>
      <trkpt lat="45.02409" lon="4.71488">
        <ele>425</ele>
        <time>2019-05-25T06:42:43Z</time>
      </trkpt>
      <trkpt lat="45.02372" lon="4.71424">
        <ele>424</ele>
        <time>2019-05-25T06:42:49Z</time>
      </trkpt>
      <trkpt lat="45.02342" lon="4.71371">
        <ele>424</ele>
        <time>2019-05-25T06:42:54Z</time>
      </trkpt>
      <trkpt lat="45.02301" lon="4.71337">
        <ele>424</ele>
        <time>2019-05-25T06:42:59Z</time>
      </trkpt>
      <trkpt lat="45.02258" lon="4.7131">
        <ele>424</ele>
        <time>2019-05-25T06:43:04Z</time>
      </trkpt>
      <trkpt lat="45.02213" lon="4.71269">
        <ele>424</ele>
        <time>2019-05-25T06:43:10Z</time>
      </trkpt>
      <trkpt lat="45.02175" lon="4.71232">
        <ele>425</ele>
        <time>2019-05-25T06:43:15Z</time>
      </trkpt>
      <trkpt lat="45.02134" lon="4.712">
        <ele>425</ele>
        <time>2019-05-25T06:43:20Z</time>
      </trkpt>
      <trkpt lat="45.02086" lon="4.71144">
        <ele>425</ele>
        <time>2019-05-25T06:43:26Z</time>
      </trkpt>
      <trkpt lat="45.02056" lon="4.7108">
        <ele>424</ele>
        <time>2019-05-25T06:43:31Z</time>
      </trkpt>
      <trkpt lat="45.02014" lon="4.7103">
        <ele>420</ele>
        <time>2019-05-25T06:43:36Z</time>
      </trkpt>
      <trkpt lat="45.01978" lon="4.70979">
        <ele>420</ele>
        <time>2019-05-25T06:43:41Z</time>
      </trkpt>
      <trkpt lat="45.01952" lon="4.70902">
        <ele>419</ele>
        <time>2019-05-25T06:43:47Z</time>
      </trkpt>
      <trkpt lat="45.01932" lon="4.70839">
        <ele>419</ele>
        <time>2019-05-25T06:43:52Z</time>
      </trkpt>
      <trkpt lat="45.019" lon="4.70793">
        <ele>419</ele>
        <time>2019-05-25T06:43:57Z</time>
      </trkpt>
      <trkpt lat="45.0187" lon="4.70745">
        <ele>418</ele>
        <time>2019-05-25T06:44:02Z</time>
      </trkpt>
      <trkpt lat="45.01835" lon="4.70689">
        <ele>418</ele>
        <time>2019-05-25T06:44:08Z</time>
      </trkpt>
      <trkpt lat="45.01809" lon="4.7064">
        <ele>418</ele>
        <time>2019-05-25T06:44:13Z</time>
      </trkpt>
      <trkpt lat="45.01789" lon="4.70591">
        <ele>418</ele>
        <time>2019-05-25T06:44:18Z</time>
      </trkpt>
      <trkpt lat="45.01767" lon="4.70536">
        <ele>418</ele>
        <time>2019-05-25T06:44:24Z</time>
      </trkpt>
      <trkpt lat="45.01746" lon="4.70484">
        <ele>419</ele>
        <time>2019-05-25T06:44:30Z</time>
      </trkpt>
      <trkpt lat="45.01738" lon="4.70436">
        <ele>420</ele>
        <time>2019-05-25T06:44:35Z</time>
      </trkpt>
      <trkpt lat="45.01733" lon="4.7039">
        <ele>421</ele>
        <time>2019-05-25T06:44:40Z</time>
      </trkpt>
      <trkpt lat="45.01726" lon="4.70345">
        <ele>421</ele>
        <time>2019-05-25T06:44:45Z</time>
      </trkpt>
      <trkpt lat="45.01701" lon="4.70304">
        <ele>422</ele>
        <time>2019-05-25T06:44:51Z</time>
      </trkpt>
      <trkpt lat="45.01673" lon="4.7028">
        <ele>422</ele>
        <time>2019-05-25T06:44:56Z</time>
      </trkpt>
      <trkpt lat="45.01647" lon="4.70259">
        <ele>424</ele>
        <time>2019-05-25T06:45:01Z</time>
      </trkpt>
      <trkpt lat="45.01623" lon="4.70241">
        <ele>425</ele>
        <time>2019-05-25T06:45:06Z</time>
      </trkpt>
      <trkpt lat="45.01601" lon="4.7022">
        <ele>426</ele>
        <time>2019-05-25T06:45:11Z</time>
      </trkpt>
      <trkpt lat="45.01579" lon="4.70194">
        <ele>428</ele>
        <time>2019-05-25T06:45:16Z</time>
      </trkpt>
      <trkpt lat="45.01561" lon="4.70166">
        <ele>429</ele>
        <time>2019-05-25T06:45:21Z</time>
      </trkpt>
      <trkpt lat="45.0154" lon="4.70135">
        <ele>429</ele>
        <time>2019-05-25T06:45:27Z</time>
      </trkpt>
      <trkpt lat="45.01517" lon="4.70113">
        <ele>430</ele>
        <time>2019-05-25T06:45:32Z</time>
      </trkpt>
      <trkpt lat="45.01487" lon="4.70102">
        <ele>431</ele>
        <time>2019-05-25T06:45:37Z</time>
      </trkpt>
      <trkpt lat="45.01449" lon="4.70097">
        <ele>431</ele>
        <time>2019-05-25T06:45:43Z</time>
      </trkpt>
      <trkpt lat="45.01416" lon="4.70112">
        <ele>432</ele>
        <time>2019-05-25T06:45:48Z</time>
      </trkpt>
      <trkpt lat="45.01386" lon="4.70141">
        <ele>432</ele>
        <time>2019-05-25T06:45:53Z</time>
      </trkpt>
      <trkpt lat="45.01356" lon="4.70161">
        <ele>433</ele>
        <time>2019-05-25T06:45:58Z</time>
      </trkpt>
      <trkpt lat="45.01322" lon="4.70166">
        <ele>434</ele>
        <time>2019-05-25T06:46:03Z</time>
      </trkpt>
      <trkpt lat="45.01288" lon="4.70171">
        <ele>434</ele>
        <time>2019-05-25T06:46:08Z</time>
      </trkpt>
      <trkpt lat="45.01256" lon="4.70186">
        <ele>434</ele>
        <time>2019-05-25T06:46:13Z</time>
      </trkpt>
      <trkpt lat="45.01222" lon="4.70216">
        <ele>436</ele>
        <time>2019-05-25T06:46:19Z</time>
      </trkpt>
      <trkpt lat="45.01192" lon="4.70235">
        <ele>437</ele>
        <time>2019-05-25T06:46:24Z</time>
      </trkpt>
      <trkpt lat="45.01161" lon="4.70245">
        <ele>438</ele>
        <time>2019-05-25T06:46:29Z</time>
      </trkpt>
      <trkpt lat="45.01132" lon="4.70244">
        <ele>439</ele>
        <time>2019-05-25T06:46:34Z</time>
      </trkpt>
      <trkpt lat="45.01103" lon="4.70243">
        <ele>439</ele>
        <time>2019-05-25T06:46:39Z</time>
      </trkpt>
      <trkpt lat="45.0107" lon="4.70247">
        <ele>439</ele>
        <time>2019-05-25T06:46:44Z</time>
      </trkpt>
      <trkpt lat="45.01048" lon="4.70237">
        <ele>440</ele>
        <time>2019-05-25T06:46:49Z</time>
      </trkpt>
      <trkpt lat="45.01036" lon="4.70185">
        <ele>440</ele>
        <time>2019-05-25T06:46:55Z</time>
      </trkpt>
      <trkpt lat="45.0103" lon="4.70131">
        <ele>439</ele>
        <time>2019-05-25T06:47:00Z</time>
      </trkpt>
      <trkpt lat="45.01004" lon="4.70082">
        <ele>437</ele>
        <time>2019-05-25T06:47:05Z</time>
      </trkpt>
      <trkpt lat="45.00965" lon="4.70025">
        <ele>435</ele>
        <time>2019-05-25T06:47:11Z</time>
      </trkpt>
      <trkpt lat="45.00929" lon="4.69968">
        <ele>433</ele>
        <time>2019-05-25T06:47:17Z</time>
      </trkpt>
      <trkpt lat="45.009" lon="4.69922">
        <ele>433</ele>
        <time>2019-05-25T06:47:22Z</time>
      </trkpt>
      <trkpt lat="45.00873" lon="4.69862">
        <ele>432</ele>
        <time>2019-05-25T06:47:28Z</time>
      </trkpt>
      <trkpt lat="45.00851" lon="4.69808">
        <ele>432</ele>
        <time>2019-05-25T06:47:33Z</time>
      </trkpt>
      <trkpt lat="45.00821" lon="4.69758">
        <ele>432</ele>
        <time>2019-05-25T06:47:38Z</time>
      </trkpt>
      <trkpt lat="45.00779" lon="4.69719">
        <ele>430</ele>
        <time>2019-05-25T06:47:44Z</time>
      </trkpt>
      <trkpt lat="45.00744" lon="4.6973">
        <ele>430</ele>
        <time>2019-05-25T06:47:49Z</time>
      </trkpt>
      <trkpt lat="45.00709" lon="4.69753">
        <ele>430</ele>
        <time>2019-05-25T06:47:54Z</time>
      </trkpt>
      <trkpt lat="45.00669" lon="4.69747">
        <ele>430</ele>
        <time>2019-05-25T06:47:59Z</time>
      </trkpt>
      <trkpt lat="45.00628" lon="4.69732">
        <ele>430</ele>
        <time>2019-05-25T06:48:04Z</time>
      </trkpt>
      <trkpt lat="45.00584" lon="4.69725">
        <ele>430</ele>
        <time>2019-05-25T06:48:09Z</time>
      </trkpt>
      <trkpt lat="45.0054" lon="4.69733">
        <ele>428</ele>
        <time>2019-05-25T06:48:14Z</time>
      </trkpt>
      <trkpt lat="45.00487" lon="4.69748">
        <ele>428</ele>
        <time>2019-05-25T06:48:20Z</time>
      </trkpt>
      <trkpt lat="45.00441" lon="4.69749">
        <ele>425</ele>
        <time>2019-05-25T06:48:25Z</time>
      </trkpt>
      <trkpt lat="45.00387" lon="4.69762">
        <ele>425</ele>
        <time>2019-05-25T06:48:31Z</time>
      </trkpt>
      <trkpt lat="45.00343" lon="4.69766">
        <ele>423</ele>
        <time>2019-05-25T06:48:36Z</time>
      </trkpt>
      <trkpt lat="45.00307" lon="4.6971">
        <ele>423</ele>
        <time>2019-05-25T06:48:42Z</time>
      </trkpt>
      <trkpt lat="45.00297" lon="4.69634">
        <ele>421</ele>
        <time>2019-05-25T06:48:48Z</time>
      </trkpt>
      <trkpt lat="45.00258" lon="4.69604">
        <ele>421</ele>
        <time>2019-05-25T06:48:53Z</time>
      </trkpt>
      <trkpt lat="45.00218" lon="4.69572">
        <ele>419</ele>
        <time>2019-05-25T06:48:58Z</time>
      </trkpt>
      <trkpt lat="45.00202" lon="4.69513">
        <ele>418</ele>
        <time>2019-05-25T06:49:03Z</time>
      </trkpt>
      <trkpt lat="45.00181" lon="4.69459">
        <ele>418</ele>
        <time>2019-05-25T06:49:08Z</time>
      </trkpt>
      <trkpt lat="45.00144" lon="4.69406">
        <ele>417</ele>
        <time>2019-05-25T06:49:14Z</time>
      </trkpt>
      <trkpt lat="45.00114" lon="4.6936">
        <ele>415</ele>
        <time>2019-05-25T06:49:19Z</time>
      </trkpt>
      <trkpt lat="45.00074" lon="4.69349">
        <ele>415</ele>
        <time>2019-05-25T06:49:24Z</time>
      </trkpt>
      <trkpt lat="45.00034" lon="4.69333">
        <ele>413</ele>
        <time>2019-05-25T06:49:29Z</time>
      </trkpt>
      <trkpt lat="44.9999" lon="4.69289">
        <ele>412</ele>
        <time>2019-05-25T06:49:35Z</time>
      </trkpt>
      <trkpt lat="44.99952" lon="4.69252">
        <ele>411</ele>
        <time>2019-05-25T06:49:40Z</time>
      </trkpt>
      <trkpt lat="44.99913" lon="4.69216">
        <ele>408</ele>
        <time>2019-05-25T06:49:45Z</time>
      </trkpt>
      <trkpt lat="44.99879" lon="4.69166">
        <ele>408</ele>
        <time>2019-05-25T06:49:50Z</time>
      </trkpt>
      <trkpt lat="44.99883" lon="4.69088">
        <ele>406</ele>
        <time>2019-05-25T06:49:56Z</time>
      </trkpt>
      <trkpt lat="44.99881" lon="4.69032">
        <ele>405</ele>
        <time>2019-05-25T06:50:01Z</time>
      </trkpt>
      <trkpt lat="44.99841" lon="4.69048">
        <ele>403</ele>
        <time>2019-05-25T06:50:06Z</time>
      </trkpt>
      <trkpt lat="44.99809" lon="4.69087">
        <ele>403</ele>
        <time>2019-05-25T06:50:11Z</time>
      </trkpt>
      <trkpt lat="44.9978" lon="4.69126">
        <ele>403</ele>
        <time>2019-05-25T06:50:16Z</time>
      </trkpt>
      <trkpt lat="44.9975" lon="4.69162">
        <ele>403</ele>
        <time>2019-05-25T06:50:21Z</time>
      </trkpt>
      <trkpt lat="44.99762" lon="4.69219">
        <ele>401</ele>
        <time>2019-05-25T06:50:26Z</time>
      </trkpt>
      <trkpt lat="44.9976" lon="4.69276">
        <ele>400</ele>
        <time>2019-05-25T06:50:31Z</time>
      </trkpt>
      <trkpt lat="44.99746" lon="4.69337">
        <ele>397</ele>
        <time>2019-05-25T06:50:36Z</time>
      </trkpt>
      <trkpt lat="44.99739" lon="4.69399">
        <ele>397</ele>
        <time>2019-05-25T06:50:41Z</time>
      </trkpt>
      <trkpt lat="44.99704" lon="4.69416">
        <ele>397</ele>
        <time>2019-05-25T06:50:46Z</time>
      </trkpt>
      <trkpt lat="44.99664" lon="4.6939">
        <ele>396</ele>
        <time>2019-05-25T06:50:51Z</time>
      </trkpt>
      <trkpt lat="44.99629" lon="4.69335">
        <ele>395</ele>
        <time>2019-05-25T06:50:57Z</time>
      </trkpt>
      <trkpt lat="44.99608" lon="4.69281">
        <ele>393</ele>
        <time>2019-05-25T06:51:02Z</time>
      </trkpt>
      <trkpt lat="44.99603" lon="4.69222">
        <ele>393</ele>
        <time>2019-05-25T06:51:07Z</time>
      </trkpt>
      <trkpt lat="44.99596" lon="4.6916">
        <ele>393</ele>
        <time>2019-05-25T06:51:12Z</time>
      </trkpt>
      <trkpt lat="44.99589" lon="4.691">
        <ele>391</ele>
        <time>2019-05-25T06:51:17Z</time>
      </trkpt>
      <trkpt lat="44.99558" lon="4.69063">
        <ele>391</ele>
        <time>2019-05-25T06:51:22Z</time>
      </trkpt>
      <trkpt lat="44.99525" lon="4.69104">
        <ele>391</ele>
        <time>2019-05-25T06:51:27Z</time>
      </trkpt>
      <trkpt lat="44.99496" lon="4.69079">
        <ele>390</ele>
        <time>2019-05-25T06:51:32Z</time>
      </trkpt>
      <trkpt lat="44.99489" lon="4.69021">
        <ele>388</ele>
        <time>2019-05-25T06:51:37Z</time>
      </trkpt>
      <trkpt lat="44.99445" lon="4.69021">
        <ele>387</ele>
        <time>2019-05-25T06:51:42Z</time>
      </trkpt>
      <trkpt lat="44.99407" lon="4.68992">
        <ele>386</ele>
        <time>2019-05-25T06:51:47Z</time>
      </trkpt>
      <trkpt lat="44.9937" lon="4.68954">
        <ele>385</ele>
        <time>2019-05-25T06:51:52Z</time>
      </trkpt>
      <trkpt lat="44.99342" lon="4.68902">
        <ele>384</ele>
        <time>2019-05-25T06:51:57Z</time>
      </trkpt>
      <trkpt lat="44.9931" lon="4.68853">
        <ele>382</ele>
        <time>2019-05-25T06:52:02Z</time>
      </trkpt>
      <trkpt lat="44.99278" lon="4.68807">
        <ele>382</ele>
        <time>2019-05-25T06:52:07Z</time>
      </trkpt>
      <trkpt lat="44.99244" lon="4.68763">
        <ele>380</ele>
        <time>2019-05-25T06:52:12Z</time>
      </trkpt>
      <trkpt lat="44.99222" lon="4.68704">
        <ele>380</ele>
        <time>2019-05-25T06:52:17Z</time>
      </trkpt>
      <trkpt lat="44.99212" lon="4.68642">
        <ele>379</ele>
        <time>2019-05-25T06:52:22Z</time>
      </trkpt>
      <trkpt lat="44.99171" lon="4.68646">
        <ele>377</ele>
        <time>2019-05-25T06:52:27Z</time>
      </trkpt>
      <trkpt lat="44.99138" lon="4.68688">
        <ele>375</ele>
        <time>2019-05-25T06:52:32Z</time>
      </trkpt>
      <trkpt lat="44.99099" lon="4.68657">
        <ele>375</ele>
        <time>2019-05-25T06:52:37Z</time>
      </trkpt>
      <trkpt lat="44.99059" lon="4.68625">
        <ele>374</ele>
        <time>2019-05-25T06:52:42Z</time>
      </trkpt>
      <trkpt lat="44.99028" lon="4.68574">
        <ele>373</ele>
        <time>2019-05-25T06:52:47Z</time>
      </trkpt>
      <trkpt lat="44.98991" lon="4.68531">
        <ele>372</ele>
        <time>2019-05-25T06:52:52Z</time>
      </trkpt>
      <trkpt lat="44.98964" lon="4.68476">
        <ele>372</ele>
        <time>2019-05-25T06:52:57Z</time>
      </trkpt>
      <trkpt lat="44.98949" lon="4.68422">
        <ele>371</ele>
        <time>2019-05-25T06:53:02Z</time>
      </trkpt>
      <trkpt lat="44.98947" lon="4.68375">
        <ele>371</ele>
        <time>2019-05-25T06:53:07Z</time>
      </trkpt>
      <trkpt lat="44.98949" lon="4.68335">
        <ele>373</ele>
        <time>2019-05-25T06:53:12Z</time>
      </trkpt>
      <trkpt lat="44.98949" lon="4.68296">
        <ele>375</ele>
        <time>2019-05-25T06:53:17Z</time>
      </trkpt>
      <trkpt lat="44.98948" lon="4.6826">
        <ele>377</ele>
        <time>2019-05-25T06:53:22Z</time>
      </trkpt>
      <trkpt lat="44.98949" lon="4.68224">
        <ele>378</ele>
        <time>2019-05-25T06:53:27Z</time>
      </trkpt>
      <trkpt lat="44.98964" lon="4.6819">
        <ele>380</ele>
        <time>2019-05-25T06:53:33Z</time>
      </trkpt>
      <trkpt lat="44.98976" lon="4.68166">
        <ele>382</ele>
        <time>2019-05-25T06:53:38Z</time>
      </trkpt>
      <trkpt lat="44.98964" lon="4.68138">
        <ele>383</ele>
        <time>2019-05-25T06:53:43Z</time>
      </trkpt>
      <trkpt lat="44.98955" lon="4.68109">
        <ele>385</ele>
        <time>2019-05-25T06:53:48Z</time>
      </trkpt>
      <trkpt lat="44.98948" lon="4.68081">
        <ele>386</ele>
        <time>2019-05-25T06:53:53Z</time>
      </trkpt>
      <trkpt lat="44.98945" lon="4.68051">
        <ele>387</ele>
        <time>2019-05-25T06:53:58Z</time>
      </trkpt>
      <trkpt lat="44.98939" lon="4.68022">
        <ele>389</ele>
        <time>2019-05-25T06:54:03Z</time>
      </trkpt>
      <trkpt lat="44.98933" lon="4.67994">
        <ele>390</ele>
        <time>2019-05-25T06:54:08Z</time>
      </trkpt>
      <trkpt lat="44.98924" lon="4.67965">
        <ele>391</ele>
        <time>2019-05-25T06:54:13Z</time>
      </trkpt>
      <trkpt lat="44.98916" lon="4.67939">
        <ele>393</ele>
        <time>2019-05-25T06:54:18Z</time>
      </trkpt>
      <trkpt lat="44.98916" lon="4.67909">
        <ele>394</ele>
        <time>2019-05-25T06:54:23Z</time>
      </trkpt>
      <trkpt lat="44.9892" lon="4.6788">
        <ele>395</ele>
        <time>2019-05-25T06:54:28Z</time>
      </trkpt>
      <trkpt lat="44.98932" lon="4.6785">
        <ele>397</ele>
        <time>2019-05-25T06:54:34Z</time>
      </trkpt>
      <trkpt lat="44.98949" lon="4.67824">
        <ele>398</ele>
        <time>2019-05-25T06:54:40Z</time>
      </trkpt>
      <trkpt lat="44.98968" lon="4.67808">
        <ele>399</ele>
        <time>2019-05-25T06:54:46Z</time>
      </trkpt>
      <trkpt lat="44.98987" lon="4.67785">
        <ele>401</ele>
        <time>2019-05-25T06:54:52Z</time>
      </trkpt>
      <trkpt lat="44.99011" lon="4.67768">
        <ele>403</ele>
        <time>2019-05-25T06:54:58Z</time>
      </trkpt>
      <trkpt lat="44.99024" lon="4.67734">
        <ele>404</ele>
        <time>2019-05-25T06:55:04Z</time>
      </trkpt>
      <trkpt lat="44.99042" lon="4.67709">
        <ele>406</ele>
        <time>2019-05-25T06:55:10Z</time>
      </trkpt>
      <trkpt lat="44.99062" lon="4.67694">
        <ele>408</ele>
        <time>2019-05-25T06:55:16Z</time>
      </trkpt>
      <trkpt lat="44.99073" lon="4.67666">
        <ele>409</ele>
        <time>2019-05-25T06:55:22Z</time>
      </trkpt>
      <trkpt lat="44.99087" lon="4.67638">
        <ele>411</ele>
        <time>2019-05-25T06:55:28Z</time>
      </trkpt>
      <trkpt lat="44.99106" lon="4.67621">
        <ele>413</ele>
        <time>2019-05-25T06:55:34Z</time>
      </trkpt>
      <trkpt lat="44.99125" lon="4.67599">
        <ele>414</ele>
        <time>2019-05-25T06:55:40Z</time>
      </trkpt>
      <trkpt lat="44.99142" lon="4.67574">
        <ele>416</ele>
        <time>2019-05-25T06:55:46Z</time>
      </trkpt>
      <trkpt lat="44.99164" lon="4.67567">
        <ele>417</ele>
        <time>2019-05-25T06:55:52Z</time>
      </trkpt>
      <trkpt lat="44.99181" lon="4.67549">
        <ele>419</ele>
        <time>2019-05-25T06:55:58Z</time>
      </trkpt>
      <trkpt lat="44.99167" lon="4.6752">
        <ele>421</ele>
        <time>2019-05-25T06:56:04Z</time>
      </trkpt>
      <trkpt lat="44.99156" lon="4.67493">
        <ele>422</ele>
        <time>2019-05-25T06:56:10Z</time>
      </trkpt>
      <trkpt lat="44.99155" lon="4.67465">
        <ele>423</ele>
        <time>2019-05-25T06:56:15Z</time>
      </trkpt>
      <trkpt lat="44.99167" lon="4.67444">
        <ele>425</ele>
        <time>2019-05-25T06:56:20Z</time>
      </trkpt>
      <trkpt lat="44.99181" lon="4.67427">
        <ele>426</ele>
        <time>2019-05-25T06:56:25Z</time>
      </trkpt>
      <trkpt lat="44.99172" lon="4.67399">
        <ele>427</ele>
        <time>2019-05-25T06:56:30Z</time>
      </trkpt>
      <trkpt lat="44.99159" lon="4.67376">
        <ele>429</ele>
        <time>2019-05-25T06:56:35Z</time>
      </trkpt>
      <trkpt lat="44.99149" lon="4.67351">
        <ele>429</ele>
        <time>2019-05-25T06:56:40Z</time>
      </trkpt>
      <trkpt lat="44.99137" lon="4.67328">
        <ele>431</ele>
        <time>2019-05-25T06:56:45Z</time>
      </trkpt>
      <trkpt lat="44.99121" lon="4.67311">
        <ele>432</ele>
        <time>2019-05-25T06:56:50Z</time>
      </trkpt>
      <trkpt lat="44.99107" lon="4.67292">
        <ele>433</ele>
        <time>2019-05-25T06:56:55Z</time>
      </trkpt>
      <trkpt lat="44.99095" lon="4.67269">
        <ele>435</ele>
        <time>2019-05-25T06:57:00Z</time>
      </trkpt>
      <trkpt lat="44.99098" lon="4.67241">
        <ele>436</ele>
        <time>2019-05-25T06:57:05Z</time>
      </trkpt>
      <trkpt lat="44.99113" lon="4.67222">
        <ele>437</ele>
        <time>2019-05-25T06:57:10Z</time>
      </trkpt>
      <trkpt lat="44.99134" lon="4.6722">
        <ele>438</ele>
        <time>2019-05-25T06:57:15Z</time>
      </trkpt>
      <trkpt lat="44.99154" lon="4.67227">
        <ele>440</ele>
        <time>2019-05-25T06:57:20Z</time>
      </trkpt>
      <trkpt lat="44.99172" lon="4.67233">
        <ele>441</ele>
        <time>2019-05-25T06:57:25Z</time>
      </trkpt>
      <trkpt lat="44.99191" lon="4.67227">
        <ele>442</ele>
        <time>2019-05-25T06:57:30Z</time>
      </trkpt>
      <trkpt lat="44.99194" lon="4.672">
        <ele>443</ele>
        <time>2019-05-25T06:57:35Z</time>
      </trkpt>
      <trkpt lat="44.99179" lon="4.67179">
        <ele>445</ele>
        <time>2019-05-25T06:57:40Z</time>
      </trkpt>
      <trkpt lat="44.99166" lon="4.67156">
        <ele>446</ele>
        <time>2019-05-25T06:57:45Z</time>
      </trkpt>
      <trkpt lat="44.99157" lon="4.67128">
        <ele>447</ele>
        <time>2019-05-25T06:57:50Z</time>
      </trkpt>
      <trkpt lat="44.99159" lon="4.67097">
        <ele>448</ele>
        <time>2019-05-25T06:57:55Z</time>
      </trkpt>
      <trkpt lat="44.99164" lon="4.67068">
        <ele>449</ele>
        <time>2019-05-25T06:58:00Z</time>
      </trkpt>
      <trkpt lat="44.9917" lon="4.67039">
        <ele>450</ele>
        <time>2019-05-25T06:58:05Z</time>
      </trkpt>
      <trkpt lat="44.99175" lon="4.67011">
        <ele>451</ele>
        <time>2019-05-25T06:58:10Z</time>
      </trkpt>
      <trkpt lat="44.99174" lon="4.6698">
        <ele>452</ele>
        <time>2019-05-25T06:58:15Z</time>
      </trkpt>
      <trkpt lat="44.99171" lon="4.66949">
        <ele>454</ele>
        <time>2019-05-25T06:58:20Z</time>
      </trkpt>
      <trkpt lat="44.9917" lon="4.66917">
        <ele>454</ele>
        <time>2019-05-25T06:58:25Z</time>
      </trkpt>
      <trkpt lat="44.99172" lon="4.66886">
        <ele>455</ele>
        <time>2019-05-25T06:58:30Z</time>
      </trkpt>
      <trkpt lat="44.99174" lon="4.66853">
        <ele>456</ele>
        <time>2019-05-25T06:58:35Z</time>
      </trkpt>
      <trkpt lat="44.99174" lon="4.66818">
        <ele>457</ele>
        <time>2019-05-25T06:58:40Z</time>
      </trkpt>
      <trkpt lat="44.99164" lon="4.66785">
        <ele>458</ele>
        <time>2019-05-25T06:58:45Z</time>
      </trkpt>
      <trkpt lat="44.99146" lon="4.66759">
        <ele>458</ele>
        <time>2019-05-25T06:58:50Z</time>
      </trkpt>
      <trkpt lat="44.99141" lon="4.6672">
        <ele>459</ele>
        <time>2019-05-25T06:58:56Z</time>
      </trkpt>
      <trkpt lat="44.99163" lon="4.66699">
        <ele>460</ele>
        <time>2019-05-25T06:59:02Z</time>
      </trkpt>
      <trkpt lat="44.9919" lon="4.66714">
        <ele>463</ele>
        <time>2019-05-25T06:59:08Z</time>
      </trkpt>
      <trkpt lat="44.99215" lon="4.66731">
        <ele>463</ele>
        <time>2019-05-25T06:59:14Z</time>
      </trkpt>
      <trkpt lat="44.99244" lon="4.66733">
        <ele>465</ele>
        <time>2019-05-25T06:59:20Z</time>
      </trkpt>
      <trkpt lat="44.99272" lon="4.66722">
        <ele>466</ele>
        <time>2019-05-25T06:59:26Z</time>
      </trkpt>
      <trkpt lat="44.99301" lon="4.66721">
        <ele>466</ele>
        <time>2019-05-25T06:59:32Z</time>
      </trkpt>
      <trkpt lat="44.99326" lon="4.66728">
        <ele>467</ele>
        <time>2019-05-25T06:59:38Z</time>
      </trkpt>
      <trkpt lat="44.99352" lon="4.66735">
        <ele>468</ele>
        <time>2019-05-25T06:59:44Z</time>
      </trkpt>
      <trkpt lat="44.99382" lon="4.66737">
        <ele>470</ele>
        <time>2019-05-25T06:59:50Z</time>
      </trkpt>
      <trkpt lat="44.99407" lon="4.66718">
        <ele>471</ele>
        <time>2019-05-25T06:59:56Z</time>
      </trkpt>
      <trkpt lat="44.99406" lon="4.66674">
        <ele>473</ele>
        <time>2019-05-25T07:00:02Z</time>
      </trkpt>
      <trkpt lat="44.99387" lon="4.6664">
        <ele>475</ele>
        <time>2019-05-25T07:00:08Z</time>
      </trkpt>
      <trkpt lat="44.99364" lon="4.66612">
        <ele>476</ele>
        <time>2019-05-25T07:00:14Z</time>
      </trkpt>
      <trkpt lat="44.99341" lon="4.66583">
        <ele>478</ele>
        <time>2019-05-25T07:00:20Z</time>
      </trkpt>
      <trkpt lat="44.99319" lon="4.66557">
        <ele>479</ele>
        <time>2019-05-25T07:00:26Z</time>
      </trkpt>
      <trkpt lat="44.99302" lon="4.66534">
        <ele>480</ele>
        <time>2019-05-25T07:00:31Z</time>
      </trkpt>
      <trkpt lat="44.99295" lon="4.66504">
        <ele>482</ele>
        <time>2019-05-25T07:00:36Z</time>
      </trkpt>
      <trkpt lat="44.99299" lon="4.66473">
        <ele>483</ele>
        <time>2019-05-25T07:00:41Z</time>
      </trkpt>
      <trkpt lat="44.99304" lon="4.66443">
        <ele>485</ele>
        <time>2019-05-25T07:00:46Z</time>
      </trkpt>
      <trkpt lat="44.99309" lon="4.66412">
        <ele>486</ele>
        <time>2019-05-25T07:00:51Z</time>
      </trkpt>
      <trkpt lat="44.99309" lon="4.66382">
        <ele>487</ele>
        <time>2019-05-25T07:00:56Z</time>
      </trkpt>
      <trkpt lat="44.99314" lon="4.66352">
        <ele>489</ele>
        <time>2019-05-25T07:01:01Z</time>
      </trkpt>
      <trkpt lat="44.99327" lon="4.66327">
        <ele>490</ele>
        <time>2019-05-25T07:01:06Z</time>
      </trkpt>
      <trkpt lat="44.99339" lon="4.66303">
        <ele>491</ele>
        <time>2019-05-25T07:01:11Z</time>
      </trkpt>
      <trkpt lat="44.99345" lon="4.66274">
        <ele>492</ele>
        <time>2019-05-25T07:01:16Z</time>
      </trkpt>
      <trkpt lat="44.99351" lon="4.66244">
        <ele>494</ele>
        <time>2019-05-25T07:01:21Z</time>
      </trkpt>
      <trkpt lat="44.99359" lon="4.66217">
        <ele>495</ele>
        <time>2019-05-25T07:01:26Z</time>
      </trkpt>
      <trkpt lat="44.99367" lon="4.66193">
        <ele>496</ele>
        <time>2019-05-25T07:01:31Z</time>
      </trkpt>
      <trkpt lat="44.99376" lon="4.66168">
        <ele>498</ele>
        <time>2019-05-25T07:01:36Z</time>
      </trkpt>
      <trkpt lat="44.99384" lon="4.6614">
        <ele>499</ele>
        <time>2019-05-25T07:01:41Z</time>
      </trkpt>
      <trkpt lat="44.99396" lon="4.66118">
        <ele>500</ele>
        <time>2019-05-25T07:01:46Z</time>
      </trkpt>
      <trkpt lat="44.99415" lon="4.66103">
        <ele>501</ele>
        <time>2019-05-25T07:01:51Z</time>
      </trkpt>
      <trkpt lat="44.99435" lon="4.66096">
        <ele>502</ele>
        <time>2019-05-25T07:01:56Z</time>
      </trkpt>
      <trkpt lat="44.99451" lon="4.66086">
        <ele>504</ele>
        <time>2019-05-25T07:02:01Z</time>
      </trkpt>
      <trkpt lat="44.99466" lon="4.66078">
        <ele>505</ele>
        <time>2019-05-25T07:02:06Z</time>
      </trkpt>
      <trkpt lat="44.99484" lon="4.66069">
        <ele>506</ele>
        <time>2019-05-25T07:02:11Z</time>
      </trkpt>
      <trkpt lat="44.99502" lon="4.66051">
        <ele>507</ele>
        <time>2019-05-25T07:02:16Z</time>
      </trkpt>
      <trkpt lat="44.99504" lon="4.66022">
        <ele>508</ele>
        <time>2019-05-25T07:02:21Z</time>
      </trkpt>
      <trkpt lat="44.99485" lon="4.66006">
        <ele>510</ele>
        <time>2019-05-25T07:02:26Z</time>
      </trkpt>
      <trkpt lat="44.99466" lon="4.65997">
        <ele>511</ele>
        <time>2019-05-25T07:02:31Z</time>
      </trkpt>
      <trkpt lat="44.99448" lon="4.6598">
        <ele>512</ele>
        <time>2019-05-25T07:02:36Z</time>
      </trkpt>
      <trkpt lat="44.9943" lon="4.65956">
        <ele>514</ele>
        <time>2019-05-25T07:02:42Z</time>
      </trkpt>
      <trkpt lat="44.9941" lon="4.65932">
        <ele>515</ele>
        <time>2019-05-25T07:02:48Z</time>
      </trkpt>
      <trkpt lat="44.99391" lon="4.65909">
        <ele>516</ele>
        <time>2019-05-25T07:02:54Z</time>
      </trkpt>
      <trkpt lat="44.9937" lon="4.65886">
        <ele>517</ele>
        <time>2019-05-25T07:03:00Z</time>
      </trkpt>
      <trkpt lat="44.99359" lon="4.65851">
        <ele>519</ele>
        <time>2019-05-25T07:03:06Z</time>
      </trkpt>
      <trkpt lat="44.99355" lon="4.65818">
        <ele>520</ele>
        <time>2019-05-25T07:03:12Z</time>
      </trkpt>
      <trkpt lat="44.99353" lon="4.65789">
        <ele>522</ele>
        <time>2019-05-25T07:03:18Z</time>
      </trkpt>
      <trkpt lat="44.99359" lon="4.65758">
        <ele>524</ele>
        <time>2019-05-25T07:03:24Z</time>
      </trkpt>
      <trkpt lat="44.99361" lon="4.65723">
        <ele>525</ele>
        <time>2019-05-25T07:03:30Z</time>
      </trkpt>
      <trkpt lat="44.99351" lon="4.65688">
        <ele>526</ele>
        <time>2019-05-25T07:03:36Z</time>
      </trkpt>
      <trkpt lat="44.99329" lon="4.65685">
        <ele>527</ele>
        <time>2019-05-25T07:03:42Z</time>
      </trkpt>
      <trkpt lat="44.99316" lon="4.65713">
        <ele>529</ele>
        <time>2019-05-25T07:03:48Z</time>
      </trkpt>
      <trkpt lat="44.99306" lon="4.65739">
        <ele>531</ele>
        <time>2019-05-25T07:03:54Z</time>
      </trkpt>
      <trkpt lat="44.99292" lon="4.65765">
        <ele>532</ele>
        <time>2019-05-25T07:04:00Z</time>
      </trkpt>
      <trkpt lat="44.99278" lon="4.65794">
        <ele>533</ele>
        <time>2019-05-25T07:04:06Z</time>
      </trkpt>
      <trkpt lat="44.99251" lon="4.65791">
        <ele>535</ele>
        <time>2019-05-25T07:04:12Z</time>
      </trkpt>
      <trkpt lat="44.9923" lon="4.6578">
        <ele>536</ele>
        <time>2019-05-25T07:04:17Z</time>
      </trkpt>
      <trkpt lat="44.9921" lon="4.65767">
        <ele>537</ele>
        <time>2019-05-25T07:04:22Z</time>
      </trkpt>
      <trkpt lat="44.99194" lon="4.65746">
        <ele>538</ele>
        <time>2019-05-25T07:04:27Z</time>
      </trkpt>
      <trkpt lat="44.99181" lon="4.65721">
        <ele>539</ele>
        <time>2019-05-25T07:04:32Z</time>
      </trkpt>
      <trkpt lat="44.99169" lon="4.65694">
        <ele>540</ele>
        <time>2019-05-25T07:04:37Z</time>
      </trkpt>
      <trkpt lat="44.99157" lon="4.65669">
        <ele>542</ele>
        <time>2019-05-25T07:04:42Z</time>
      </trkpt>
      <trkpt lat="44.99146" lon="4.65643">
        <ele>543</ele>
        <time>2019-05-25T07:04:47Z</time>
      </trkpt>
      <trkpt lat="44.99135" lon="4.65615">
        <ele>544</ele>
        <time>2019-05-25T07:04:52Z</time>
      </trkpt>
      <trkpt lat="44.99129" lon="4.65588">
        <ele>545</ele>
        <time>2019-05-25T07:04:57Z</time>
      </trkpt>
      <trkpt lat="44.99129" lon="4.65558">
        <ele>547</ele>
        <time>2019-05-25T07:05:02Z</time>
      </trkpt>
      <trkpt lat="44.9913" lon="4.65528">
        <ele>548</ele>
        <time>2019-05-25T07:05:07Z</time>
      </trkpt>
      <trkpt lat="44.99132" lon="4.655">
        <ele>549</ele>
        <time>2019-05-25T07:05:12Z</time>
      </trkpt>
      <trkpt lat="44.99139" lon="4.65472">
        <ele>551</ele>
        <time>2019-05-25T07:05:17Z</time>
      </trkpt>
      <trkpt lat="44.99148" lon="4.65448">
        <ele>552</ele>
        <time>2019-05-25T07:05:22Z</time>
      </trkpt>
      <trkpt lat="44.99162" lon="4.65427">
        <ele>553</ele>
        <time>2019-05-25T07:05:27Z</time>
      </trkpt>
      <trkpt lat="44.99175" lon="4.65405">
        <ele>554</ele>
        <time>2019-05-25T07:05:32Z</time>
      </trkpt>
      <trkpt lat="44.99177" lon="4.65378">
        <ele>555</ele>
        <time>2019-05-25T07:05:37Z</time>
      </trkpt>
      <trkpt lat="44.99168" lon="4.65352">
        <ele>557</ele>
        <time>2019-05-25T07:05:42Z</time>
      </trkpt>
      <trkpt lat="44.99154" lon="4.65329">
        <ele>557</ele>
        <time>2019-05-25T07:05:47Z</time>
      </trkpt>
      <trkpt lat="44.99139" lon="4.65309">
        <ele>558</ele>
        <time>2019-05-25T07:05:52Z</time>
      </trkpt>
      <trkpt lat="44.99125" lon="4.65288">
        <ele>559</ele>
        <time>2019-05-25T07:05:57Z</time>
      </trkpt>
      <trkpt lat="44.99117" lon="4.65263">
        <ele>561</ele>
        <time>2019-05-25T07:06:02Z</time>
      </trkpt>
      <trkpt lat="44.99115" lon="4.65237">
        <ele>562</ele>
        <time>2019-05-25T07:06:07Z</time>
      </trkpt>
      <trkpt lat="44.99114" lon="4.65212">
        <ele>563</ele>
        <time>2019-05-25T07:06:12Z</time>
      </trkpt>
      <trkpt lat="44.99112" lon="4.65185">
        <ele>564</ele>
        <time>2019-05-25T07:06:17Z</time>
      </trkpt>
      <trkpt lat="44.9911" lon="4.65155">
        <ele>566</ele>
        <time>2019-05-25T07:06:22Z</time>
      </trkpt>
      <trkpt lat="44.9911" lon="4.65117">
        <ele>567</ele>
        <time>2019-05-25T07:06:28Z</time>
      </trkpt>
      <trkpt lat="44.99119" lon="4.65082">
        <ele>568</ele>
        <time>2019-05-25T07:06:34Z</time>
      </trkpt>
      <trkpt lat="44.99131" lon="4.65052">
        <ele>570</ele>
        <time>2019-05-25T07:06:40Z</time>
      </trkpt>
      <trkpt lat="44.99138" lon="4.65022">
        <ele>571</ele>
        <time>2019-05-25T07:06:46Z</time>
      </trkpt>
      <trkpt lat="44.99143" lon="4.64993">
        <ele>572</ele>
        <time>2019-05-25T07:06:52Z</time>
      </trkpt>
      <trkpt lat="44.99142" lon="4.64965">
        <ele>573</ele>
        <time>2019-05-25T07:06:58Z</time>
      </trkpt>
      <trkpt lat="44.99128" lon="4.64941">
        <ele>574</ele>
        <time>2019-05-25T07:07:04Z</time>
      </trkpt>
      <trkpt lat="44.9912" lon="4.64914">
        <ele>575</ele>
        <time>2019-05-25T07:07:10Z</time>
      </trkpt>
      <trkpt lat="44.99117" lon="4.64884">
        <ele>576</ele>
        <time>2019-05-25T07:07:16Z</time>
      </trkpt>
      <trkpt lat="44.99116" lon="4.64858">
        <ele>577</ele>
        <time>2019-05-25T07:07:22Z</time>
      </trkpt>
      <trkpt lat="44.99119" lon="4.64829">
        <ele>577</ele>
        <time>2019-05-25T07:07:28Z</time>
      </trkpt>
      <trkpt lat="44.99144" lon="4.64814">
        <ele>577</ele>
        <time>2019-05-25T07:07:34Z</time>
      </trkpt>
      <trkpt lat="44.99165" lon="4.64791">
        <ele>578</ele>
        <time>2019-05-25T07:07:40Z</time>
      </trkpt>
      <trkpt lat="44.99148" lon="4.64756">
        <ele>580</ele>
        <time>2019-05-25T07:07:46Z</time>
      </trkpt>
      <trkpt lat="44.99129" lon="4.64738">
        <ele>581</ele>
        <time>2019-05-25T07:07:52Z</time>
      </trkpt>
      <trkpt lat="44.99106" lon="4.64723">
        <ele>582</ele>
        <time>2019-05-25T07:07:58Z</time>
      </trkpt>
      <trkpt lat="44.99084" lon="4.64711">
        <ele>584</ele>
        <time>2019-05-25T07:08:04Z</time>
      </trkpt>
      <trkpt lat="44.99062" lon="4.64709">
        <ele>585</ele>
        <time>2019-05-25T07:08:09Z</time>
      </trkpt>
      <trkpt lat="44.99042" lon="4.64722">
        <ele>586</ele>
        <time>2019-05-25T07:08:14Z</time>
      </trkpt>
      <trkpt lat="44.9903" lon="4.64741">
        <ele>587</ele>
        <time>2019-05-25T07:08:19Z</time>
      </trkpt>
      <trkpt lat="44.9902" lon="4.64763">
        <ele>589</ele>
        <time>2019-05-25T07:08:24Z</time>
      </trkpt>
      <trkpt lat="44.9901" lon="4.64782">
        <ele>590</ele>
        <time>2019-05-25T07:08:29Z</time>
      </trkpt>
      <trkpt lat="44.98994" lon="4.6479">
        <ele>591</ele>
        <time>2019-05-25T07:08:34Z</time>
      </trkpt>
      <trkpt lat="44.98977" lon="4.6479">
        <ele>591</ele>
        <time>2019-05-25T07:08:39Z</time>
      </trkpt>
      <trkpt lat="44.98959" lon="4.6478">
        <ele>593</ele>
        <time>2019-05-25T07:08:44Z</time>
      </trkpt>
      <trkpt lat="44.98946" lon="4.64758">
        <ele>593</ele>
        <time>2019-05-25T07:08:49Z</time>
      </trkpt>
      <trkpt lat="44.98939" lon="4.64732">
        <ele>594</ele>
        <time>2019-05-25T07:08:54Z</time>
      </trkpt>
      <trkpt lat="44.98935" lon="4.64706">
        <ele>595</ele>
        <time>2019-05-25T07:08:59Z</time>
      </trkpt>
      <trkpt lat="44.98928" lon="4.64683">
        <ele>596</ele>
        <time>2019-05-25T07:09:04Z</time>
      </trkpt>
      <trkpt lat="44.98921" lon="4.64659">
        <ele>597</ele>
        <time>2019-05-25T07:09:09Z</time>
      </trkpt>
      <trkpt lat="44.9891" lon="4.64634">
        <ele>599</ele>
        <time>2019-05-25T07:09:14Z</time>
      </trkpt>
      <trkpt lat="44.98895" lon="4.64618">
        <ele>599</ele>
        <time>2019-05-25T07:09:19Z</time>
      </trkpt>
      <trkpt lat="44.98878" lon="4.646">
        <ele>601</ele>
        <time>2019-05-25T07:09:24Z</time>
      </trkpt>
      <trkpt lat="44.98864" lon="4.64578">
        <ele>602</ele>
        <time>2019-05-25T07:09:29Z</time>
      </trkpt>
      <trkpt lat="44.98862" lon="4.64551">
        <ele>602</ele>
        <time>2019-05-25T07:09:34Z</time>
      </trkpt>
      <trkpt lat="44.98855" lon="4.64525">
        <ele>604</ele>
        <time>2019-05-25T07:09:39Z</time>
      </trkpt>
      <trkpt lat="44.98841" lon="4.64501">
        <ele>605</ele>
        <time>2019-05-25T07:09:44Z</time>
      </trkpt>
      <trkpt lat="44.98825" lon="4.64479">
        <ele>607</ele>
        <time>2019-05-25T07:09:49Z</time>
      </trkpt>
      <trkpt lat="44.98804" lon="4.64469">
        <ele>608</ele>
        <time>2019-05-25T07:09:54Z</time>
      </trkpt>
      <trkpt lat="44.98781" lon="4.64472">
        <ele>609</ele>
        <time>2019-05-25T07:09:59Z</time>
      </trkpt>
      <trkpt lat="44.98765" lon="4.64495">
        <ele>610</ele>
        <time>2019-05-25T07:10:04Z</time>
      </trkpt>
      <trkpt lat="44.98755" lon="4.64521">
        <ele>610</ele>
        <time>2019-05-25T07:10:09Z</time>
      </trkpt>
      <trkpt lat="44.98738" lon="4.64544">
        <ele>612</ele>
        <time>2019-05-25T07:10:14Z</time>
      </trkpt>
      <trkpt lat="44.98722" lon="4.64566">
        <ele>613</ele>
        <time>2019-05-25T07:10:19Z</time>
      </trkpt>
      <trkpt lat="44.9871" lon="4.64589">
        <ele>614</ele>
        <time>2019-05-25T07:10:24Z</time>
      </trkpt>
      <trkpt lat="44.98698" lon="4.64611">
        <ele>616</ele>
        <time>2019-05-25T07:10:29Z</time>
      </trkpt>
      <trkpt lat="44.98677" lon="4.64633">
        <ele>617</ele>
        <time>2019-05-25T07:10:35Z</time>
      </trkpt>
      <trkpt lat="44.98648" lon="4.64642">
        <ele>619</ele>
        <time>2019-05-25T07:10:41Z</time>
      </trkpt>
      <trkpt lat="44.98621" lon="4.64641">
        <ele>619</ele>
        <time>2019-05-25T07:10:47Z</time>
      </trkpt>
      <trkpt lat="44.98596" lon="4.64634">
        <ele>621</ele>
        <time>2019-05-25T07:10:53Z</time>
      </trkpt>
      <trkpt lat="44.9857" lon="4.64626">
        <ele>622</ele>
        <time>2019-05-25T07:10:59Z</time>
      </trkpt>
      <trkpt lat="44.98546" lon="4.64613">
        <ele>624</ele>
        <time>2019-05-25T07:11:05Z</time>
      </trkpt>
      <trkpt lat="44.9853" lon="4.64587">
        <ele>625</ele>
        <time>2019-05-25T07:11:11Z</time>
      </trkpt>
      <trkpt lat="44.98526" lon="4.64546">
        <ele>625</ele>
        <time>2019-05-25T07:11:17Z</time>
      </trkpt>
      <trkpt lat="44.98536" lon="4.64497">
        <ele>625</ele>
        <time>2019-05-25T07:11:23Z</time>
      </trkpt>
      <trkpt lat="44.98552" lon="4.64442">
        <ele>624</ele>
        <time>2019-05-25T07:11:29Z</time>
      </trkpt>
      <trkpt lat="44.9855" lon="4.64378">
        <ele>622</ele>
        <time>2019-05-25T07:11:35Z</time>
      </trkpt>
      <trkpt lat="44.98534" lon="4.64322">
        <ele>621</ele>
        <time>2019-05-25T07:11:40Z</time>
      </trkpt>
      <trkpt lat="44.98522" lon="4.64265">
        <ele>619</ele>
        <time>2019-05-25T07:11:45Z</time>
      </trkpt>
      <trkpt lat="44.98525" lon="4.64203">
        <ele>617</ele>
        <time>2019-05-25T07:11:50Z</time>
      </trkpt>
      <trkpt lat="44.98515" lon="4.64144">
        <ele>616</ele>
        <time>2019-05-25T07:11:55Z</time>
      </trkpt>
      <trkpt lat="44.98521" lon="4.64085">
        <ele>614</ele>
        <time>2019-05-25T07:12:00Z</time>
      </trkpt>
      <trkpt lat="44.98552" lon="4.64046">
        <ele>612</ele>
        <time>2019-05-25T07:12:05Z</time>
      </trkpt>
      <trkpt lat="44.98587" lon="4.64008">
        <ele>611</ele>
        <time>2019-05-25T07:12:10Z</time>
      </trkpt>
      <trkpt lat="44.9862" lon="4.63957">
        <ele>609</ele>
        <time>2019-05-25T07:12:15Z</time>
      </trkpt>
      <trkpt lat="44.98663" lon="4.63922">
        <ele>608</ele>
        <time>2019-05-25T07:12:20Z</time>
      </trkpt>
      <trkpt lat="44.9869" lon="4.63882">
        <ele>605</ele>
        <time>2019-05-25T07:12:25Z</time>
      </trkpt>
      <trkpt lat="44.98684" lon="4.63832">
        <ele>604</ele>
        <time>2019-05-25T07:12:30Z</time>
      </trkpt>
      <trkpt lat="44.9865" lon="4.63846">
        <ele>602</ele>
        <time>2019-05-25T07:12:35Z</time>
      </trkpt>
      <trkpt lat="44.98611" lon="4.63856">
        <ele>601</ele>
        <time>2019-05-25T07:12:40Z</time>
      </trkpt>
      <trkpt lat="44.98565" lon="4.63852">
        <ele>600</ele>
        <time>2019-05-25T07:12:45Z</time>
      </trkpt>
      <trkpt lat="44.98518" lon="4.63866">
        <ele>598</ele>
        <time>2019-05-25T07:12:50Z</time>
      </trkpt>
      <trkpt lat="44.9847" lon="4.63849">
        <ele>596</ele>
        <time>2019-05-25T07:12:55Z</time>
      </trkpt>
      <trkpt lat="44.9844" lon="4.63796">
        <ele>595</ele>
        <time>2019-05-25T07:13:00Z</time>
      </trkpt>
      <trkpt lat="44.98426" lon="4.63725">
        <ele>593</ele>
        <time>2019-05-25T07:13:05Z</time>
      </trkpt>
      <trkpt lat="44.98422" lon="4.6365">
        <ele>591</ele>
        <time>2019-05-25T07:13:10Z</time>
      </trkpt>
      <trkpt lat="44.98425" lon="4.63576">
        <ele>589</ele>
        <time>2019-05-25T07:13:15Z</time>
      </trkpt>
      <trkpt lat="44.98409" lon="4.63507">
        <ele>587</ele>
        <time>2019-05-25T07:13:20Z</time>
      </trkpt>
      <trkpt lat="44.98389" lon="4.63442">
        <ele>584</ele>
        <time>2019-05-25T07:13:25Z</time>
      </trkpt>
      <trkpt lat="44.98376" lon="4.63376">
        <ele>582</ele>
        <time>2019-05-25T07:13:30Z</time>
      </trkpt>
      <trkpt lat="44.98398" lon="4.63315">
        <ele>580</ele>
        <time>2019-05-25T07:13:35Z</time>
      </trkpt>
      <trkpt lat="44.98422" lon="4.6326">
        <ele>580</ele>
        <time>2019-05-25T07:13:40Z</time>
      </trkpt>
      <trkpt lat="44.98417" lon="4.63213">
        <ele>578</ele>
        <time>2019-05-25T07:13:45Z</time>
      </trkpt>
      <trkpt lat="44.98374" lon="4.63215">
        <ele>576</ele>
        <time>2019-05-25T07:13:50Z</time>
      </trkpt>
      <trkpt lat="44.98332" lon="4.63188">
        <ele>574</ele>
        <time>2019-05-25T07:13:55Z</time>
      </trkpt>
      <trkpt lat="44.98288" lon="4.63183">
        <ele>573</ele>
        <time>2019-05-25T07:14:00Z</time>
      </trkpt>
      <trkpt lat="44.98253" lon="4.63147">
        <ele>572</ele>
        <time>2019-05-25T07:14:05Z</time>
      </trkpt>
      <trkpt lat="44.9824" lon="4.6308">
        <ele>569</ele>
        <time>2019-05-25T07:14:10Z</time>
      </trkpt>
      <trkpt lat="44.98245" lon="4.63011">
        <ele>567</ele>
        <time>2019-05-25T07:14:15Z</time>
      </trkpt>
      <trkpt lat="44.98256" lon="4.62948">
        <ele>565</ele>
        <time>2019-05-25T07:14:20Z</time>
      </trkpt>
      <trkpt lat="44.98236" lon="4.62894">
        <ele>563</ele>
        <time>2019-05-25T07:14:25Z</time>
      </trkpt>
      <trkpt lat="44.9822" lon="4.62836">
        <ele>562</ele>
        <time>2019-05-25T07:14:30Z</time>
      </trkpt>
      <trkpt lat="44.9822" lon="4.62772">
        <ele>561</ele>
        <time>2019-05-25T07:14:35Z</time>
      </trkpt>
      <trkpt lat="44.98243" lon="4.62717">
        <ele>559</ele>
        <time>2019-05-25T07:14:40Z</time>
      </trkpt>
      <trkpt lat="44.98267" lon="4.6266">
        <ele>557</ele>
        <time>2019-05-25T07:14:45Z</time>
      </trkpt>
      <trkpt lat="44.98276" lon="4.62602">
        <ele>555</ele>
        <time>2019-05-25T07:14:50Z</time>
      </trkpt>
      <trkpt lat="44.9831" lon="4.62574">
        <ele>555</ele>
        <time>2019-05-25T07:14:55Z</time>
      </trkpt>
      <trkpt lat="44.98351" lon="4.62533">
        <ele>553</ele>
        <time>2019-05-25T07:15:00Z</time>
      </trkpt>
      <trkpt lat="44.98387" lon="4.62491">
        <ele>551</ele>
        <time>2019-05-25T07:15:05Z</time>
      </trkpt>
      <trkpt lat="44.98391" lon="4.62423">
        <ele>548</ele>
        <time>2019-05-25T07:15:10Z</time>
      </trkpt>
      <trkpt lat="44.98406" lon="4.62359">
        <ele>546</ele>
        <time>2019-05-25T07:15:15Z</time>
      </trkpt>
      <trkpt lat="44.98434" lon="4.62301">
        <ele>545</ele>
        <time>2019-05-25T07:15:20Z</time>
      </trkpt>
      <trkpt lat="44.98441" lon="4.62232">
        <ele>542</ele>
        <time>2019-05-25T07:15:25Z</time>
      </trkpt>
      <trkpt lat="44.9845" lon="4.62171">
        <ele>540</ele>
        <time>2019-05-25T07:15:30Z</time>
      </trkpt>
      <trkpt lat="44.98488" lon="4.62158">
        <ele>539</ele>
        <time>2019-05-25T07:15:35Z</time>
      </trkpt>
      <trkpt lat="44.98505" lon="4.62108">
        <ele>537</ele>
        <time>2019-05-25T07:15:40Z</time>
      </trkpt>
      <trkpt lat="44.98511" lon="4.6205">
        <ele>537</ele>
        <time>2019-05-25T07:15:45Z</time>
      </trkpt>
      <trkpt lat="44.98504" lon="4.61989">
        <ele>535</ele>
        <time>2019-05-25T07:15:50Z</time>
      </trkpt>
      <trkpt lat="44.985" lon="4.61925">
        <ele>534</ele>
        <time>2019-05-25T07:15:55Z</time>
      </trkpt>
      <trkpt lat="44.98505" lon="4.61864">
        <ele>533</ele>
        <time>2019-05-25T07:16:00Z</time>
      </trkpt>
      <trkpt lat="44.98516" lon="4.61808">
        <ele>532</ele>
        <time>2019-05-25T07:16:05Z</time>
      </trkpt>
      <trkpt lat="44.9854" lon="4.61753">
        <ele>529</ele>
        <time>2019-05-25T07:16:10Z</time>
      </trkpt>
      <trkpt lat="44.98545" lon="4.61683">
        <ele>526</ele>
        <time>2019-05-25T07:16:15Z</time>
      </trkpt>
      <trkpt lat="44.98541" lon="4.61615">
        <ele>524</ele>
        <time>2019-05-25T07:16:20Z</time>
      </trkpt>
      <trkpt lat="44.98546" lon="4.61562">
        <ele>520</ele>
        <time>2019-05-25T07:16:25Z</time>
      </trkpt>
      <trkpt lat="44.98574" lon="4.61537">
        <ele>518</ele>
        <time>2019-05-25T07:16:30Z</time>
      </trkpt>
      <trkpt lat="44.9861" lon="4.61516">
        <ele>516</ele>
        <time>2019-05-25T07:16:35Z</time>
      </trkpt>
      <trkpt lat="44.98646" lon="4.61482">
        <ele>515</ele>
        <time>2019-05-25T07:16:40Z</time>
      </trkpt>
      <trkpt lat="44.98686" lon="4.61464">
        <ele>512</ele>
        <time>2019-05-25T07:16:45Z</time>
      </trkpt>
      <trkpt lat="44.98728" lon="4.61507">
        <ele>508</ele>
        <time>2019-05-25T07:16:50Z</time>
      </trkpt>
      <trkpt lat="44.98762" lon="4.61538">
        <ele>505</ele>
        <time>2019-05-25T07:16:55Z</time>
      </trkpt>
      <trkpt lat="44.98796" lon="4.61512">
        <ele>502</ele>
        <time>2019-05-25T07:17:00Z</time>
      </trkpt>
      <trkpt lat="44.9882" lon="4.61451">
        <ele>500</ele>
        <time>2019-05-25T07:17:05Z</time>
      </trkpt>
      <trkpt lat="44.98847" lon="4.61387">
        <ele>496</ele>
        <time>2019-05-25T07:17:10Z</time>
      </trkpt>
      <trkpt lat="44.98874" lon="4.61322">
        <ele>495</ele>
        <time>2019-05-25T07:17:15Z</time>
      </trkpt>
      <trkpt lat="44.98916" lon="4.61298">
        <ele>491</ele>
        <time>2019-05-25T07:17:20Z</time>
      </trkpt>
      <trkpt lat="44.98957" lon="4.61316">
        <ele>487</ele>
        <time>2019-05-25T07:17:25Z</time>
      </trkpt>
      <trkpt lat="44.98988" lon="4.61278">
        <ele>485</ele>
        <time>2019-05-25T07:17:30Z</time>
      </trkpt>
      <trkpt lat="44.99022" lon="4.61228">
        <ele>482</ele>
        <time>2019-05-25T07:17:35Z</time>
      </trkpt>
      <trkpt lat="44.9904" lon="4.61161">
        <ele>478</ele>
        <time>2019-05-25T07:17:40Z</time>
      </trkpt>
      <trkpt lat="44.99052" lon="4.6109">
        <ele>476</ele>
        <time>2019-05-25T07:17:45Z</time>
      </trkpt>
      <trkpt lat="44.99082" lon="4.61034">
        <ele>472</ele>
        <time>2019-05-25T07:17:50Z</time>
      </trkpt>
      <trkpt lat="44.99107" lon="4.60966">
        <ele>470</ele>
        <time>2019-05-25T07:17:55Z</time>
      </trkpt>
      <trkpt lat="44.9914" lon="4.60903">
        <ele>466</ele>
        <time>2019-05-25T07:18:00Z</time>
      </trkpt>
      <trkpt lat="44.99162" lon="4.60832">
        <ele>464</ele>
        <time>2019-05-25T07:18:05Z</time>
      </trkpt>
      <trkpt lat="44.9916" lon="4.60757">
        <ele>460</ele>
        <time>2019-05-25T07:18:10Z</time>
      </trkpt>
      <trkpt lat="44.99141" lon="4.60684">
        <ele>458</ele>
        <time>2019-05-25T07:18:15Z</time>
      </trkpt>
      <trkpt lat="44.99122" lon="4.60609">
        <ele>454</ele>
        <time>2019-05-25T07:18:20Z</time>
      </trkpt>
      <trkpt lat="44.99115" lon="4.60532">
        <ele>451</ele>
        <time>2019-05-25T07:18:25Z</time>
      </trkpt>
      <trkpt lat="44.99095" lon="4.60467">
        <ele>448</ele>
        <time>2019-05-25T07:18:30Z</time>
      </trkpt>
      <trkpt lat="44.99055" lon="4.60459">
        <ele>445</ele>
        <time>2019-05-25T07:18:35Z</time>
      </trkpt>
      <trkpt lat="44.99024" lon="4.60428">
        <ele>441</ele>
        <time>2019-05-25T07:18:40Z</time>
      </trkpt>
      <trkpt lat="44.99029" lon="4.60367">
        <ele>439</ele>
        <time>2019-05-25T07:18:45Z</time>
      </trkpt>
      <trkpt lat="44.99026" lon="4.60298">
        <ele>437</ele>
        <time>2019-05-25T07:18:50Z</time>
      </trkpt>
      <trkpt lat="44.99021" lon="4.60227">
        <ele>433</ele>
        <time>2019-05-25T07:18:55Z</time>
      </trkpt>
      <trkpt lat="44.99001" lon="4.60162">
        <ele>430</ele>
        <time>2019-05-25T07:19:00Z</time>
      </trkpt>
      <trkpt lat="44.98961" lon="4.60114">
        <ele>428</ele>
        <time>2019-05-25T07:19:05Z</time>
      </trkpt>
      <trkpt lat="44.98938" lon="4.60049">
        <ele>424</ele>
        <time>2019-05-25T07:19:10Z</time>
      </trkpt>
      <trkpt lat="44.98926" lon="4.59976">
        <ele>420</ele>
        <time>2019-05-25T07:19:15Z</time>
      </trkpt>
      <trkpt lat="44.98915" lon="4.59903">
        <ele>418</ele>
        <time>2019-05-25T07:19:20Z</time>
      </trkpt>
      <trkpt lat="44.9889" lon="4.59848">
        <ele>416</ele>
        <time>2019-05-25T07:19:25Z</time>
      </trkpt>
      <trkpt lat="44.98844" lon="4.59829">
        <ele>412</ele>
        <time>2019-05-25T07:19:30Z</time>
      </trkpt>
      <trkpt lat="44.98805" lon="4.59791">
        <ele>409</ele>
        <time>2019-05-25T07:19:35Z</time>
      </trkpt>
      <trkpt lat="44.9878" lon="4.59738">
        <ele>407</ele>
        <time>2019-05-25T07:19:40Z</time>
      </trkpt>
      <trkpt lat="44.98737" lon="4.59729">
        <ele>403</ele>
        <time>2019-05-25T07:19:45Z</time>
      </trkpt>
      <trkpt lat="44.987" lon="4.59768">
        <ele>401</ele>
        <time>2019-05-25T07:19:50Z</time>
      </trkpt>
      <trkpt lat="44.98662" lon="4.59788">
        <ele>398</ele>
        <time>2019-05-25T07:19:55Z</time>
      </trkpt>
      <trkpt lat="44.98615" lon="4.59787">
        <ele>394</ele>
        <time>2019-05-25T07:20:00Z</time>
      </trkpt>
      <trkpt lat="44.98573" lon="4.59756">
        <ele>392</ele>
        <time>2019-05-25T07:20:05Z</time>
      </trkpt>
      <trkpt lat="44.98548" lon="4.59695">
        <ele>390</ele>
        <time>2019-05-25T07:20:10Z</time>
      </trkpt>
      <trkpt lat="44.98552" lon="4.59621">
        <ele>386</ele>
        <time>2019-05-25T07:20:15Z</time>
      </trkpt>
      <trkpt lat="44.9856" lon="4.59551">
        <ele>384</ele>
        <time>2019-05-25T07:20:20Z</time>
      </trkpt>
      <trkpt lat="44.98556" lon="4.59481">
        <ele>380</ele>
        <time>2019-05-25T07:20:25Z</time>
      </trkpt>
      <trkpt lat="44.9854" lon="4.59413">
        <ele>376</ele>
        <time>2019-05-25T07:20:30Z</time>
      </trkpt>
      <trkpt lat="44.98535" lon="4.59341">
        <ele>374</ele>
        <time>2019-05-25T07:20:35Z</time>
      </trkpt>
      <trkpt lat="44.98534" lon="4.59268">
        <ele>372</ele>
        <time>2019-05-25T07:20:40Z</time>
      </trkpt>
      <trkpt lat="44.98553" lon="4.59199">
        <ele>369</ele>
        <time>2019-05-25T07:20:45Z</time>
      </trkpt>
      <trkpt lat="44.98556" lon="4.59127">
        <ele>365</ele>
        <time>2019-05-25T07:20:50Z</time>
      </trkpt>
      <trkpt lat="44.98533" lon="4.59075">
        <ele>361</ele>
        <time>2019-05-25T07:20:55Z</time>
      </trkpt>
      <trkpt lat="44.98497" lon="4.59035">
        <ele>358</ele>
        <time>2019-05-25T07:21:00Z</time>
      </trkpt>
      <trkpt lat="44.98466" lon="4.58996">
        <ele>357</ele>
        <time>2019-05-25T07:21:05Z</time>
      </trkpt>
      <trkpt lat="44.98422" lon="4.58989">
        <ele>353</ele>
        <time>2019-05-25T07:21:10Z</time>
      </trkpt>
      <trkpt lat="44.98389" lon="4.58977">
        <ele>352</ele>
        <time>2019-05-25T07:21:15Z</time>
      </trkpt>
      <trkpt lat="44.98386" lon="4.58921">
        <ele>348</ele>
        <time>2019-05-25T07:21:20Z</time>
      </trkpt>
      <trkpt lat="44.98387" lon="4.58855">
        <ele>347</ele>
        <time>2019-05-25T07:21:25Z</time>
      </trkpt>
      <trkpt lat="44.9839" lon="4.58791">
        <ele>343</ele>
        <time>2019-05-25T07:21:30Z</time>
      </trkpt>
      <trkpt lat="44.98412" lon="4.58728">
        <ele>340</ele>
        <time>2019-05-25T07:21:35Z</time>
      </trkpt>
      <trkpt lat="44.9844" lon="4.58725">
        <ele>336</ele>
        <time>2019-05-25T07:21:40Z</time>
      </trkpt>
      <trkpt lat="44.98461" lon="4.5878">
        <ele>335</ele>
        <time>2019-05-25T07:21:45Z</time>
      </trkpt>
      <trkpt lat="44.98498" lon="4.58818">
        <ele>332</ele>
        <time>2019-05-25T07:21:50Z</time>
      </trkpt>
      <trkpt lat="44.98536" lon="4.58865">
        <ele>330</ele>
        <time>2019-05-25T07:21:55Z</time>
      </trkpt>
      <trkpt lat="44.98575" lon="4.58913">
        <ele>327</ele>
        <time>2019-05-25T07:22:00Z</time>
      </trkpt>
      <trkpt lat="44.98624" lon="4.5894">
        <ele>323</ele>
        <time>2019-05-25T07:22:05Z</time>
      </trkpt>
      <trkpt lat="44.98671" lon="4.58978">
        <ele>321</ele>
        <time>2019-05-25T07:22:10Z</time>
      </trkpt>
      <trkpt lat="44.9872" lon="4.59013">
        <ele>317</ele>
        <time>2019-05-25T07:22:15Z</time>
      </trkpt>
      <trkpt lat="44.98773" lon="4.59038">
        <ele>313</ele>
        <time>2019-05-25T07:22:20Z</time>
      </trkpt>
      <trkpt lat="44.98827" lon="4.59024">
        <ele>311</ele>
        <time>2019-05-25T07:22:25Z</time>
      </trkpt>
      <trkpt lat="44.98879" lon="4.59025">
        <ele>308</ele>
        <time>2019-05-25T07:22:30Z</time>
      </trkpt>
      <trkpt lat="44.98924" lon="4.59024">
        <ele>305</ele>
        <time>2019-05-25T07:22:35Z</time>
      </trkpt>
      <trkpt lat="44.98959" lon="4.59007">
        <ele>301</ele>
        <time>2019-05-25T07:22:40Z</time>
      </trkpt>
      <trkpt lat="44.98995" lon="4.58977">
        <ele>299</ele>
        <time>2019-05-25T07:22:45Z</time>
      </trkpt>
      <trkpt lat="44.99009" lon="4.58956">
        <ele>298</ele>
        <time>2019-05-25T07:22:50Z</time>
      </trkpt>
      <trkpt lat="44.98998" lon="4.58925">
        <ele>297</ele>
        <time>2019-05-25T07:22:55Z</time>
      </trkpt>
      <trkpt lat="44.9898" lon="4.5889">
        <ele>297</ele>
        <time>2019-05-25T07:23:00Z</time>
      </trkpt>
      <trkpt lat="44.98963" lon="4.58851">
        <ele>297</ele>
        <time>2019-05-25T07:23:05Z</time>
      </trkpt>
      <trkpt lat="44.98946" lon="4.58814">
        <ele>297</ele>
        <time>2019-05-25T07:23:10Z</time>
      </trkpt>
      <trkpt lat="44.9893" lon="4.5878">
        <ele>298</ele>
        <time>2019-05-25T07:23:15Z</time>
      </trkpt>
      <trkpt lat="44.98914" lon="4.58746">
        <ele>298</ele>
        <time>2019-05-25T07:23:20Z</time>
      </trkpt>
      <trkpt lat="44.98898" lon="4.58711">
        <ele>299</ele>
        <time>2019-05-25T07:23:25Z</time>
      </trkpt>
      <trkpt lat="44.9888" lon="4.58678">
        <ele>299</ele>
        <time>2019-05-25T07:23:30Z</time>
      </trkpt>
      <trkpt lat="44.98859" lon="4.58651">
        <ele>300</ele>
        <time>2019-05-25T07:23:35Z</time>
      </trkpt>
      <trkpt lat="44.98834" lon="4.58623">
        <ele>300</ele>
        <time>2019-05-25T07:23:40Z</time>
      </trkpt>
      <trkpt lat="44.98807" lon="4.58594">
        <ele>300</ele>
        <time>2019-05-25T07:23:45Z</time>
      </trkpt>
      <trkpt lat="44.98786" lon="4.58557">
        <ele>300</ele>
        <time>2019-05-25T07:23:50Z</time>
      </trkpt>
      <trkpt lat="44.98766" lon="4.58517">
        <ele>300</ele>
        <time>2019-05-25T07:23:55Z</time>
      </trkpt>
      <trkpt lat="44.98748" lon="4.58475">
        <ele>300</ele>
        <time>2019-05-25T07:24:00Z</time>
      </trkpt>
      <trkpt lat="44.98732" lon="4.58434">
        <ele>301</ele>
        <time>2019-05-25T07:24:05Z</time>
      </trkpt>
      <trkpt lat="44.98721" lon="4.5839">
        <ele>301</ele>
        <time>2019-05-25T07:24:10Z</time>
      </trkpt>
      <trkpt lat="44.98712" lon="4.58348">
        <ele>302</ele>
        <time>2019-05-25T07:24:15Z</time>
      </trkpt>
      <trkpt lat="44.98706" lon="4.58309">
        <ele>302</ele>
        <time>2019-05-25T07:24:20Z</time>
      </trkpt>
      <trkpt lat="44.98686" lon="4.58295">
        <ele>302</ele>
        <time>2019-05-25T07:24:25Z</time>
      </trkpt>
      <trkpt lat="44.98665" lon="4.58286">
        <ele>303</ele>
        <time>2019-05-25T07:24:30Z</time>
      </trkpt>
      <trkpt lat="44.98652" lon="4.58257">
        <ele>303</ele>
        <time>2019-05-25T07:24:35Z</time>
      </trkpt>
      <trkpt lat="44.98634" lon="4.5823">
        <ele>304</ele>
        <time>2019-05-25T07:24:40Z</time>
      </trkpt>
      <trkpt lat="44.98608" lon="4.58216">
        <ele>305</ele>
        <time>2019-05-25T07:24:45Z</time>
      </trkpt>
      <trkpt lat="44.98585" lon="4.58212">
        <ele>305</ele>
        <time>2019-05-25T07:24:50Z</time>
      </trkpt>
      <trkpt lat="44.98561" lon="4.58207">
        <ele>305</ele>
        <time>2019-05-25T07:24:55Z</time>
      </trkpt>
      <trkpt lat="44.98546" lon="4.58178">
        <ele>305</ele>
        <time>2019-05-25T07:25:00Z</time>
      </trkpt>
      <trkpt lat="44.98531" lon="4.58137">
        <ele>304</ele>
        <time>2019-05-25T07:25:05Z</time>
      </trkpt>
      <trkpt lat="44.98509" lon="4.58104">
        <ele>304</ele>
        <time>2019-05-25T07:25:10Z</time>
      </trkpt>
      <trkpt lat="44.98492" lon="4.58073">
        <ele>304</ele>
        <time>2019-05-25T07:25:15Z</time>
      </trkpt>
      <trkpt lat="44.98489" lon="4.58038">
        <ele>304</ele>
        <time>2019-05-25T07:25:20Z</time>
      </trkpt>
      <trkpt lat="44.9848" lon="4.58001">
        <ele>305</ele>
        <time>2019-05-25T07:25:25Z</time>
      </trkpt>
      <trkpt lat="44.98464" lon="4.57971">
        <ele>306</ele>
        <time>2019-05-25T07:25:30Z</time>
      </trkpt>
      <trkpt lat="44.98448" lon="4.57944">
        <ele>307</ele>
        <time>2019-05-25T07:25:35Z</time>
      </trkpt>
      <trkpt lat="44.98432" lon="4.57914">
        <ele>308</ele>
        <time>2019-05-25T07:25:40Z</time>
      </trkpt>
      <trkpt lat="44.98413" lon="4.57885">
        <ele>309</ele>
        <time>2019-05-25T07:25:45Z</time>
      </trkpt>
      <trkpt lat="44.98398" lon="4.57856">
        <ele>309</ele>
        <time>2019-05-25T07:25:50Z</time>
      </trkpt>
      <trkpt lat="44.98384" lon="4.57828">
        <ele>310</ele>
        <time>2019-05-25T07:25:55Z</time>
      </trkpt>
      <trkpt lat="44.9837" lon="4.57799">
        <ele>310</ele>
        <time>2019-05-25T07:26:00Z</time>
      </trkpt>
      <trkpt lat="44.98356" lon="4.57769">
        <ele>310</ele>
        <time>2019-05-25T07:26:05Z</time>
      </trkpt>
      <trkpt lat="44.98342" lon="4.57737">
        <ele>310</ele>
        <time>2019-05-25T07:26:10Z</time>
      </trkpt>
      <trkpt lat="44.98328" lon="4.57702">
        <ele>310</ele>
        <time>2019-05-25T07:26:15Z</time>
      </trkpt>
      <trkpt lat="44.98315" lon="4.57667">
        <ele>311</ele>
        <time>2019-05-25T07:26:20Z</time>
      </trkpt>
      <trkpt lat="44.98301" lon="4.57629">
        <ele>311</ele>
        <time>2019-05-25T07:26:25Z</time>
      </trkpt>
      <trkpt lat="44.9829" lon="4.57586">
        <ele>311</ele>
        <time>2019-05-25T07:26:30Z</time>
      </trkpt>
      <trkpt lat="44.98284" lon="4.57539">
        <ele>311</ele>
        <time>2019-05-25T07:26:35Z</time>
      </trkpt>
      <trkpt lat="44.98278" lon="4.5749">
        <ele>311</ele>
        <time>2019-05-25T07:26:40Z</time>
      </trkpt>
      <trkpt lat="44.98274" lon="4.57443">
        <ele>311</ele>
        <time>2019-05-25T07:26:45Z</time>
      </trkpt>
      <trkpt lat="44.98269" lon="4.574">
        <ele>312</ele>
        <time>2019-05-25T07:26:50Z</time>
      </trkpt>
      <trkpt lat="44.98264" lon="4.57358">
        <ele>312</ele>
        <time>2019-05-25T07:26:55Z</time>
      </trkpt>
      <trkpt lat="44.9826" lon="4.57319">
        <ele>313</ele>
        <time>2019-05-25T07:27:00Z</time>
      </trkpt>
      <trkpt lat="44.98258" lon="4.57278">
        <ele>313</ele>
        <time>2019-05-25T07:27:05Z</time>
      </trkpt>
      <trkpt lat="44.9827" lon="4.57235">
        <ele>313</ele>
        <time>2019-05-25T07:27:10Z</time>
      </trkpt>
      <trkpt lat="44.98288" lon="4.57194">
        <ele>313</ele>
        <time>2019-05-25T07:27:15Z</time>
      </trkpt>
      <trkpt lat="44.98312" lon="4.57155">
        <ele>313</ele>
        <time>2019-05-25T07:27:20Z</time>
      </trkpt>
      <trkpt lat="44.98335" lon="4.57112">
        <ele>313</ele>
        <time>2019-05-25T07:27:25Z</time>
      </trkpt>
      <trkpt lat="44.98358" lon="4.57072">
        <ele>313</ele>
        <time>2019-05-25T07:27:30Z</time>
      </trkpt>
      <trkpt lat="44.98385" lon="4.57045">
        <ele>313</ele>
        <time>2019-05-25T07:27:35Z</time>
      </trkpt>
      <trkpt lat="44.98413" lon="4.57024">
        <ele>313</ele>
        <time>2019-05-25T07:27:40Z</time>
      </trkpt>
      <trkpt lat="44.98439" lon="4.57005">
        <ele>313</ele>
        <time>2019-05-25T07:27:45Z</time>
      </trkpt>
      <trkpt lat="44.98463" lon="4.56986">
        <ele>314</ele>
        <time>2019-05-25T07:27:50Z</time>
      </trkpt>
      <trkpt lat="44.98488" lon="4.56968">
        <ele>315</ele>
        <time>2019-05-25T07:27:55Z</time>
      </trkpt>
      <trkpt lat="44.98514" lon="4.56951">
        <ele>316</ele>
        <time>2019-05-25T07:28:00Z</time>
      </trkpt>
      <trkpt lat="44.98537" lon="4.56932">
        <ele>318</ele>
        <time>2019-05-25T07:28:05Z</time>
      </trkpt>
      <trkpt lat="44.98554" lon="4.56904">
        <ele>319</ele>
        <time>2019-05-25T07:28:10Z</time>
      </trkpt>
      <trkpt lat="44.98562" lon="4.56872">
        <ele>321</ele>
        <time>2019-05-25T07:28:15Z</time>
      </trkpt>
      <trkpt lat="44.98563" lon="4.5684">
        <ele>322</ele>
        <time>2019-05-25T07:28:20Z</time>
      </trkpt>
      <trkpt lat="44.98561" lon="4.56811">
        <ele>323</ele>
        <time>2019-05-25T07:28:25Z</time>
      </trkpt>
      <trkpt lat="44.9856" lon="4.56782">
        <ele>324</ele>
        <time>2019-05-25T07:28:30Z</time>
      </trkpt>
      <trkpt lat="44.98569" lon="4.56751">
        <ele>325</ele>
        <time>2019-05-25T07:28:35Z</time>
      </trkpt>
      <trkpt lat="44.9858" lon="4.56725">
        <ele>326</ele>
        <time>2019-05-25T07:28:40Z</time>
      </trkpt>
      <trkpt lat="44.9859" lon="4.56697">
        <ele>328</ele>
        <time>2019-05-25T07:28:45Z</time>
      </trkpt>
      <trkpt lat="44.98601" lon="4.56667">
        <ele>329</ele>
        <time>2019-05-25T07:28:50Z</time>
      </trkpt>
      <trkpt lat="44.98608" lon="4.56639">
        <ele>330</ele>
        <time>2019-05-25T07:28:55Z</time>
      </trkpt>
      <trkpt lat="44.98617" lon="4.56606">
        <ele>331</ele>
        <time>2019-05-25T07:29:01Z</time>
      </trkpt>
      <trkpt lat="44.98623" lon="4.56583">
        <ele>332</ele>
        <time>2019-05-25T07:29:06Z</time>
      </trkpt>
      <trkpt lat="44.98629" lon="4.56563">
        <ele>333</ele>
        <time>2019-05-25T07:29:11Z</time>
      </trkpt>
      <trkpt lat="44.98644" lon="4.56532">
        <ele>335</ele>
        <time>2019-05-25T07:29:17Z</time>
      </trkpt>
      <trkpt lat="44.98659" lon="4.56512">
        <ele>337</ele>
        <time>2019-05-25T07:29:22Z</time>
      </trkpt>
      <trkpt lat="44.98674" lon="4.56492">
        <ele>338</ele>
        <time>2019-05-25T07:29:27Z</time>
      </trkpt>
      <trkpt lat="44.9869" lon="4.56479">
        <ele>339</ele>
        <time>2019-05-25T07:29:33Z</time>
      </trkpt>
      <trkpt lat="44.98692" lon="4.56478">
        <ele>339</ele>
        <time>2019-05-25T07:29:36Z</time>
      </trkpt>
      <trkpt lat="44.98704" lon="4.56472">
        <ele>340</ele>
        <time>2019-05-25T07:29:42Z</time>
      </trkpt>
      <trkpt lat="44.98716" lon="4.56459">
        <ele>340</ele>
        <time>2019-05-25T07:29:47Z</time>
      </trkpt>
      <trkpt lat="44.9873" lon="4.56441">
        <ele>341</ele>
        <time>2019-05-25T07:29:52Z</time>
      </trkpt>
      <trkpt lat="44.98751" lon="4.56427">
        <ele>342</ele>
        <time>2019-05-25T07:29:57Z</time>
      </trkpt>
      <trkpt lat="44.98774" lon="4.56422">
        <ele>343</ele>
        <time>2019-05-25T07:30:02Z</time>
      </trkpt>
      <trkpt lat="44.98798" lon="4.56418">
        <ele>344</ele>
        <time>2019-05-25T07:30:07Z</time>
      </trkpt>
      <trkpt lat="44.98821" lon="4.56408">
        <ele>345</ele>
        <time>2019-05-25T07:30:12Z</time>
      </trkpt>
      <trkpt lat="44.98839" lon="4.56382">
        <ele>346</ele>
        <time>2019-05-25T07:30:17Z</time>
      </trkpt>
      <trkpt lat="44.98841" lon="4.56351">
        <ele>346</ele>
        <time>2019-05-25T07:30:22Z</time>
      </trkpt>
      <trkpt lat="44.98829" lon="4.56323">
        <ele>347</ele>
        <time>2019-05-25T07:30:27Z</time>
      </trkpt>
      <trkpt lat="44.98808" lon="4.56303">
        <ele>347</ele>
        <time>2019-05-25T07:30:32Z</time>
      </trkpt>
      <trkpt lat="44.98783" lon="4.56284">
        <ele>347</ele>
        <time>2019-05-25T07:30:37Z</time>
      </trkpt>
      <trkpt lat="44.98756" lon="4.5625">
        <ele>348</ele>
        <time>2019-05-25T07:30:43Z</time>
      </trkpt>
      <trkpt lat="44.98729" lon="4.56222">
        <ele>348</ele>
        <time>2019-05-25T07:30:48Z</time>
      </trkpt>
      <trkpt lat="44.98699" lon="4.562">
        <ele>348</ele>
        <time>2019-05-25T07:30:53Z</time>
      </trkpt>
      <trkpt lat="44.98666" lon="4.56191">
        <ele>348</ele>
        <time>2019-05-25T07:30:58Z</time>
      </trkpt>
      <trkpt lat="44.98633" lon="4.56181">
        <ele>348</ele>
        <time>2019-05-25T07:31:03Z</time>
      </trkpt>
      <trkpt lat="44.98601" lon="4.56171">
        <ele>348</ele>
        <time>2019-05-25T07:31:08Z</time>
      </trkpt>
      <trkpt lat="44.98568" lon="4.56153">
        <ele>348</ele>
        <time>2019-05-25T07:31:13Z</time>
      </trkpt>
      <trkpt lat="44.98537" lon="4.56129">
        <ele>349</ele>
        <time>2019-05-25T07:31:18Z</time>
      </trkpt>
      <trkpt lat="44.98509" lon="4.56101">
        <ele>349</ele>
        <time>2019-05-25T07:31:23Z</time>
      </trkpt>
      <trkpt lat="44.9848" lon="4.56062">
        <ele>349</ele>
        <time>2019-05-25T07:31:29Z</time>
      </trkpt>
      <trkpt lat="44.98457" lon="4.56025">
        <ele>349</ele>
        <time>2019-05-25T07:31:34Z</time>
      </trkpt>
      <trkpt lat="44.98437" lon="4.55986">
        <ele>349</ele>
        <time>2019-05-25T07:31:39Z</time>
      </trkpt>
      <trkpt lat="44.98411" lon="4.55955">
        <ele>349</ele>
        <time>2019-05-25T07:31:44Z</time>
      </trkpt>
      <trkpt lat="44.9838" lon="4.55935">
        <ele>349</ele>
        <time>2019-05-25T07:31:49Z</time>
      </trkpt>
      <trkpt lat="44.98351" lon="4.55915">
        <ele>349</ele>
        <time>2019-05-25T07:31:54Z</time>
      </trkpt>
      <trkpt lat="44.98325" lon="4.55884">
        <ele>349</ele>
        <time>2019-05-25T07:31:59Z</time>
      </trkpt>
      <trkpt lat="44.98308" lon="4.55843">
        <ele>349</ele>
        <time>2019-05-25T07:32:04Z</time>
      </trkpt>
      <trkpt lat="44.98292" lon="4.55802">
        <ele>349</ele>
        <time>2019-05-25T07:32:09Z</time>
      </trkpt>
      <trkpt lat="44.98276" lon="4.55762">
        <ele>349</ele>
        <time>2019-05-25T07:32:14Z</time>
      </trkpt>
      <trkpt lat="44.98261" lon="4.55718">
        <ele>349</ele>
        <time>2019-05-25T07:32:19Z</time>
      </trkpt>
      <trkpt lat="44.9826" lon="4.55668">
        <ele>349</ele>
        <time>2019-05-25T07:32:24Z</time>
      </trkpt>
      <trkpt lat="44.98275" lon="4.55621">
        <ele>349</ele>
        <time>2019-05-25T07:32:29Z</time>
      </trkpt>
      <trkpt lat="44.98288" lon="4.55576">
        <ele>349</ele>
        <time>2019-05-25T07:32:34Z</time>
      </trkpt>
      <trkpt lat="44.98307" lon="4.55532">
        <ele>349</ele>
        <time>2019-05-25T07:32:40Z</time>
      </trkpt>
      <trkpt lat="44.98336" lon="4.55508">
        <ele>349</ele>
        <time>2019-05-25T07:32:45Z</time>
      </trkpt>
      <trkpt lat="44.98372" lon="4.55478">
        <ele>349</ele>
        <time>2019-05-25T07:32:50Z</time>
      </trkpt>
      <trkpt lat="44.98407" lon="4.5545">
        <ele>350</ele>
        <time>2019-05-25T07:32:55Z</time>
      </trkpt>
      <trkpt lat="44.98449" lon="4.5543">
        <ele>351</ele>
        <time>2019-05-25T07:33:01Z</time>
      </trkpt>
      <trkpt lat="44.98486" lon="4.55426">
        <ele>351</ele>
        <time>2019-05-25T07:33:06Z</time>
      </trkpt>
      <trkpt lat="44.98521" lon="4.55425">
        <ele>351</ele>
        <time>2019-05-25T07:33:11Z</time>
      </trkpt>
      <trkpt lat="44.98558" lon="4.55422">
        <ele>351</ele>
        <time>2019-05-25T07:33:16Z</time>
      </trkpt>
      <trkpt lat="44.98596" lon="4.55419">
        <ele>351</ele>
        <time>2019-05-25T07:33:21Z</time>
      </trkpt>
      <trkpt lat="44.98627" lon="4.5542">
        <ele>352</ele>
        <time>2019-05-25T07:33:26Z</time>
      </trkpt>
      <trkpt lat="44.98649" lon="4.5539">
        <ele>353</ele>
        <time>2019-05-25T07:33:31Z</time>
      </trkpt>
      <trkpt lat="44.9865" lon="4.55345">
        <ele>353</ele>
        <time>2019-05-25T07:33:36Z</time>
      </trkpt>
      <trkpt lat="44.98645" lon="4.55295">
        <ele>353</ele>
        <time>2019-05-25T07:33:42Z</time>
      </trkpt>
      <trkpt lat="44.9864" lon="4.55254">
        <ele>353</ele>
        <time>2019-05-25T07:33:47Z</time>
      </trkpt>
      <trkpt lat="44.98629" lon="4.55213">
        <ele>353</ele>
        <time>2019-05-25T07:33:52Z</time>
      </trkpt>
      <trkpt lat="44.98622" lon="4.55162">
        <ele>352</ele>
        <time>2019-05-25T07:33:58Z</time>
      </trkpt>
      <trkpt lat="44.98618" lon="4.55117">
        <ele>352</ele>
        <time>2019-05-25T07:34:03Z</time>
      </trkpt>
      <trkpt lat="44.98619" lon="4.55071">
        <ele>352</ele>
        <time>2019-05-25T07:34:08Z</time>
      </trkpt>
      <trkpt lat="44.98628" lon="4.55027">
        <ele>352</ele>
        <time>2019-05-25T07:34:13Z</time>
      </trkpt>
      <trkpt lat="44.98634" lon="4.54984">
        <ele>352</ele>
        <time>2019-05-25T07:34:18Z</time>
      </trkpt>
      <trkpt lat="44.98618" lon="4.54931">
        <ele>353</ele>
        <time>2019-05-25T07:34:24Z</time>
      </trkpt>
      <trkpt lat="44.986" lon="4.54891">
        <ele>353</ele>
        <time>2019-05-25T07:34:29Z</time>
      </trkpt>
      <trkpt lat="44.98583" lon="4.54852">
        <ele>353</ele>
        <time>2019-05-25T07:34:34Z</time>
      </trkpt>
      <trkpt lat="44.9857" lon="4.5481">
        <ele>353</ele>
        <time>2019-05-25T07:34:39Z</time>
      </trkpt>
      <trkpt lat="44.98559" lon="4.54766">
        <ele>353</ele>
        <time>2019-05-25T07:34:44Z</time>
      </trkpt>
      <trkpt lat="44.98554" lon="4.54719">
        <ele>353</ele>
        <time>2019-05-25T07:34:49Z</time>
      </trkpt>
      <trkpt lat="44.98551" lon="4.54673">
        <ele>353</ele>
        <time>2019-05-25T07:34:54Z</time>
      </trkpt>
      <trkpt lat="44.98553" lon="4.54625">
        <ele>353</ele>
        <time>2019-05-25T07:34:59Z</time>
      </trkpt>
      <trkpt lat="44.98564" lon="4.54579">
        <ele>353</ele>
        <time>2019-05-25T07:35:04Z</time>
      </trkpt>
      <trkpt lat="44.98579" lon="4.54541">
        <ele>354</ele>
        <time>2019-05-25T07:35:09Z</time>
      </trkpt>
      <trkpt lat="44.98598" lon="4.54496">
        <ele>354</ele>
        <time>2019-05-25T07:35:15Z</time>
      </trkpt>
      <trkpt lat="44.98612" lon="4.54461">
        <ele>354</ele>
        <time>2019-05-25T07:35:20Z</time>
      </trkpt>
      <trkpt lat="44.98631" lon="4.54431">
        <ele>354</ele>
        <time>2019-05-25T07:35:25Z</time>
      </trkpt>
      <trkpt lat="44.9866" lon="4.54405">
        <ele>354</ele>
        <time>2019-05-25T07:35:30Z</time>
      </trkpt>
      <trkpt lat="44.98683" lon="4.5438">
        <ele>355</ele>
        <time>2019-05-25T07:35:35Z</time>
      </trkpt>
      <trkpt lat="44.98708" lon="4.54354">
        <ele>355</ele>
        <time>2019-05-25T07:35:40Z</time>
      </trkpt>
      <trkpt lat="44.98734" lon="4.54317">
        <ele>355</ele>
        <time>2019-05-25T07:35:45Z</time>
      </trkpt>
      <trkpt lat="44.98738" lon="4.54274">
        <ele>355</ele>
        <time>2019-05-25T07:35:50Z</time>
      </trkpt>
      <trkpt lat="44.98726" lon="4.54231">
        <ele>355</ele>
        <time>2019-05-25T07:35:55Z</time>
      </trkpt>
      <trkpt lat="44.9871" lon="4.54189">
        <ele>355</ele>
        <time>2019-05-25T07:36:00Z</time>
      </trkpt>
      <trkpt lat="44.98693" lon="4.54147">
        <ele>355</ele>
        <time>2019-05-25T07:36:05Z</time>
      </trkpt>
      <trkpt lat="44.98674" lon="4.54107">
        <ele>356</ele>
        <time>2019-05-25T07:36:10Z</time>
      </trkpt>
      <trkpt lat="44.9864" lon="4.54073">
        <ele>356</ele>
        <time>2019-05-25T07:36:16Z</time>
      </trkpt>
      <trkpt lat="44.98618" lon="4.54036">
        <ele>356</ele>
        <time>2019-05-25T07:36:21Z</time>
      </trkpt>
      <trkpt lat="44.98608" lon="4.53986">
        <ele>356</ele>
        <time>2019-05-25T07:36:26Z</time>
      </trkpt>
      <trkpt lat="44.98603" lon="4.53936">
        <ele>357</ele>
        <time>2019-05-25T07:36:31Z</time>
      </trkpt>
      <trkpt lat="44.98601" lon="4.53886">
        <ele>358</ele>
        <time>2019-05-25T07:36:36Z</time>
      </trkpt>
      <trkpt lat="44.98598" lon="4.53838">
        <ele>358</ele>
        <time>2019-05-25T07:36:41Z</time>
      </trkpt>
      <trkpt lat="44.98599" lon="4.53796">
        <ele>358</ele>
        <time>2019-05-25T07:36:46Z</time>
      </trkpt>
      <trkpt lat="44.98605" lon="4.53753">
        <ele>358</ele>
        <time>2019-05-25T07:36:51Z</time>
      </trkpt>
      <trkpt lat="44.98611" lon="4.53705">
        <ele>358</ele>
        <time>2019-05-25T07:36:56Z</time>
      </trkpt>
      <trkpt lat="44.98612" lon="4.5365">
        <ele>358</ele>
        <time>2019-05-25T07:37:01Z</time>
      </trkpt>
      <trkpt lat="44.98623" lon="4.53602">
        <ele>358</ele>
        <time>2019-05-25T07:37:06Z</time>
      </trkpt>
      <trkpt lat="44.98645" lon="4.53552">
        <ele>358</ele>
        <time>2019-05-25T07:37:12Z</time>
      </trkpt>
      <trkpt lat="44.98667" lon="4.53501">
        <ele>359</ele>
        <time>2019-05-25T07:37:18Z</time>
      </trkpt>
      <trkpt lat="44.98679" lon="4.53456">
        <ele>359</ele>
        <time>2019-05-25T07:37:23Z</time>
      </trkpt>
      <trkpt lat="44.98691" lon="4.53404">
        <ele>359</ele>
        <time>2019-05-25T07:37:29Z</time>
      </trkpt>
      <trkpt lat="44.98703" lon="4.5335">
        <ele>360</ele>
        <time>2019-05-25T07:37:35Z</time>
      </trkpt>
      <trkpt lat="44.98717" lon="4.533">
        <ele>360</ele>
        <time>2019-05-25T07:37:41Z</time>
      </trkpt>
      <trkpt lat="44.98727" lon="4.53259">
        <ele>361</ele>
        <time>2019-05-25T07:37:46Z</time>
      </trkpt>
      <trkpt lat="44.98737" lon="4.53206">
        <ele>361</ele>
        <time>2019-05-25T07:37:52Z</time>
      </trkpt>
      <trkpt lat="44.98745" lon="4.5316">
        <ele>362</ele>
        <time>2019-05-25T07:37:57Z</time>
      </trkpt>
      <trkpt lat="44.98749" lon="4.53122">
        <ele>362</ele>
        <time>2019-05-25T07:38:02Z</time>
      </trkpt>
      <trkpt lat="44.98761" lon="4.53085">
        <ele>362</ele>
        <time>2019-05-25T07:38:07Z</time>
      </trkpt>
      <trkpt lat="44.9879" lon="4.53046">
        <ele>362</ele>
        <time>2019-05-25T07:38:12Z</time>
      </trkpt>
      <trkpt lat="44.98824" lon="4.53012">
        <ele>363</ele>
        <time>2019-05-25T07:38:17Z</time>
      </trkpt>
      <trkpt lat="44.9885" lon="4.52977">
        <ele>364</ele>
        <time>2019-05-25T07:38:22Z</time>
      </trkpt>
      <trkpt lat="44.98872" lon="4.52945">
        <ele>364</ele>
        <time>2019-05-25T07:38:27Z</time>
      </trkpt>
      <trkpt lat="44.98899" lon="4.52921">
        <ele>366</ele>
        <time>2019-05-25T07:38:32Z</time>
      </trkpt>
      <trkpt lat="44.98933" lon="4.52906">
        <ele>366</ele>
        <time>2019-05-25T07:38:37Z</time>
      </trkpt>
      <trkpt lat="44.98969" lon="4.5289">
        <ele>367</ele>
        <time>2019-05-25T07:38:43Z</time>
      </trkpt>
      <trkpt lat="44.98996" lon="4.52871">
        <ele>367</ele>
        <time>2019-05-25T07:38:48Z</time>
      </trkpt>
      <trkpt lat="44.99024" lon="4.52855">
        <ele>368</ele>
        <time>2019-05-25T07:38:53Z</time>
      </trkpt>
      <trkpt lat="44.99055" lon="4.52847">
        <ele>369</ele>
        <time>2019-05-25T07:38:58Z</time>
      </trkpt>
      <trkpt lat="44.99084" lon="4.52843">
        <ele>370</ele>
        <time>2019-05-25T07:39:03Z</time>
      </trkpt>
      <trkpt lat="44.99113" lon="4.52837">
        <ele>370</ele>
        <time>2019-05-25T07:39:08Z</time>
      </trkpt>
      <trkpt lat="44.99143" lon="4.52831">
        <ele>371</ele>
        <time>2019-05-25T07:39:13Z</time>
      </trkpt>
      <trkpt lat="44.99174" lon="4.52825">
        <ele>371</ele>
        <time>2019-05-25T07:39:18Z</time>
      </trkpt>
      <trkpt lat="44.99204" lon="4.52819">
        <ele>372</ele>
        <time>2019-05-25T07:39:23Z</time>
      </trkpt>
      <trkpt lat="44.99233" lon="4.52817">
        <ele>373</ele>
        <time>2019-05-25T07:39:28Z</time>
      </trkpt>
      <trkpt lat="44.99263" lon="4.52816">
        <ele>373</ele>
        <time>2019-05-25T07:39:33Z</time>
      </trkpt>
      <trkpt lat="44.99289" lon="4.52802">
        <ele>374</ele>
        <time>2019-05-25T07:39:38Z</time>
      </trkpt>
      <trkpt lat="44.99317" lon="4.52782">
        <ele>374</ele>
        <time>2019-05-25T07:39:43Z</time>
      </trkpt>
      <trkpt lat="44.99342" lon="4.52758">
        <ele>375</ele>
        <time>2019-05-25T07:39:48Z</time>
      </trkpt>
      <trkpt lat="44.99355" lon="4.52722">
        <ele>375</ele>
        <time>2019-05-25T07:39:53Z</time>
      </trkpt>
      <trkpt lat="44.99358" lon="4.52682">
        <ele>376</ele>
        <time>2019-05-25T07:39:58Z</time>
      </trkpt>
      <trkpt lat="44.99366" lon="4.52649">
        <ele>377</ele>
        <time>2019-05-25T07:40:03Z</time>
      </trkpt>
      <trkpt lat="44.99377" lon="4.52614">
        <ele>377</ele>
        <time>2019-05-25T07:40:08Z</time>
      </trkpt>
      <trkpt lat="44.99381" lon="4.52583">
        <ele>378</ele>
        <time>2019-05-25T07:40:13Z</time>
      </trkpt>
      <trkpt lat="44.99394" lon="4.52559">
        <ele>379</ele>
        <time>2019-05-25T07:40:18Z</time>
      </trkpt>
      <trkpt lat="44.99408" lon="4.52525">
        <ele>379</ele>
        <time>2019-05-25T07:40:23Z</time>
      </trkpt>
      <trkpt lat="44.99406" lon="4.52489">
        <ele>379</ele>
        <time>2019-05-25T07:40:28Z</time>
      </trkpt>
      <trkpt lat="44.99406" lon="4.52453">
        <ele>380</ele>
        <time>2019-05-25T07:40:33Z</time>
      </trkpt>
      <trkpt lat="44.99419" lon="4.52419">
        <ele>380</ele>
        <time>2019-05-25T07:40:38Z</time>
      </trkpt>
      <trkpt lat="44.99431" lon="4.52382">
        <ele>380</ele>
        <time>2019-05-25T07:40:43Z</time>
      </trkpt>
      <trkpt lat="44.99457" lon="4.52331">
        <ele>381</ele>
        <time>2019-05-25T07:40:48Z</time>
      </trkpt>
      <trkpt lat="44.99475" lon="4.52284">
        <ele>381</ele>
        <time>2019-05-25T07:40:53Z</time>
      </trkpt>
      <trkpt lat="44.99475" lon="4.52234">
        <ele>381</ele>
        <time>2019-05-25T07:40:58Z</time>
      </trkpt>
      <trkpt lat="44.99461" lon="4.52185">
        <ele>381</ele>
        <time>2019-05-25T07:41:03Z</time>
      </trkpt>
      <trkpt lat="44.99444" lon="4.52137">
        <ele>381</ele>
        <time>2019-05-25T07:41:08Z</time>
      </trkpt>
      <trkpt lat="44.99426" lon="4.52091">
        <ele>381</ele>
        <time>2019-05-25T07:41:13Z</time>
      </trkpt>
      <trkpt lat="44.99402" lon="4.52048">
        <ele>379</ele>
        <time>2019-05-25T07:41:18Z</time>
      </trkpt>
      <trkpt lat="44.99375" lon="4.52007">
        <ele>379</ele>
        <time>2019-05-25T07:41:23Z</time>
      </trkpt>
      <trkpt lat="44.99346" lon="4.51968">
        <ele>379</ele>
        <time>2019-05-25T07:41:28Z</time>
      </trkpt>
      <trkpt lat="44.9932" lon="4.51924">
        <ele>377</ele>
        <time>2019-05-25T07:41:33Z</time>
      </trkpt>
      <trkpt lat="44.99319" lon="4.51869">
        <ele>377</ele>
        <time>2019-05-25T07:41:38Z</time>
      </trkpt>
      <trkpt lat="44.99329" lon="4.5182">
        <ele>377</ele>
        <time>2019-05-25T07:41:43Z</time>
      </trkpt>
      <trkpt lat="44.99359" lon="4.51794">
        <ele>377</ele>
        <time>2019-05-25T07:41:48Z</time>
      </trkpt>
      <trkpt lat="44.99391" lon="4.51777">
        <ele>377</ele>
        <time>2019-05-25T07:41:53Z</time>
      </trkpt>
      <trkpt lat="44.99422" lon="4.51783">
        <ele>378</ele>
        <time>2019-05-25T07:41:58Z</time>
      </trkpt>
      <trkpt lat="44.99449" lon="4.51797">
        <ele>379</ele>
        <time>2019-05-25T07:42:03Z</time>
      </trkpt>
      <trkpt lat="44.99475" lon="4.5181">
        <ele>380</ele>
        <time>2019-05-25T07:42:08Z</time>
      </trkpt>
      <trkpt lat="44.995" lon="4.51807">
        <ele>381</ele>
        <time>2019-05-25T07:42:13Z</time>
      </trkpt>
      <trkpt lat="44.99517" lon="4.5179">
        <ele>382</ele>
        <time>2019-05-25T07:42:18Z</time>
      </trkpt>
      <trkpt lat="44.99521" lon="4.51775">
        <ele>383</ele>
        <time>2019-05-25T07:42:24Z</time>
      </trkpt>
      <trkpt lat="44.99516" lon="4.51746">
        <ele>383</ele>
        <time>2019-05-25T07:42:30Z</time>
      </trkpt>
      <trkpt lat="44.99508" lon="4.51723">
        <ele>383</ele>
        <time>2019-05-25T07:42:35Z</time>
      </trkpt>
      <trkpt lat="44.99498" lon="4.51708">
        <ele>384</ele>
        <time>2019-05-25T07:42:40Z</time>
      </trkpt>
      <trkpt lat="44.99492" lon="4.51698">
        <ele>385</ele>
        <time>2019-05-25T07:42:45Z</time>
      </trkpt>
      <trkpt lat="44.99491" lon="4.51692">
        <ele>386</ele>
        <time>2019-05-25T07:42:48Z</time>
      </trkpt>
      <trkpt lat="44.99491" lon="4.51683">
        <ele>386</ele>
        <time>2019-05-25T07:42:54Z</time>
      </trkpt>
      <trkpt lat="44.99578" lon="4.51579">
        <ele>392</ele>
        <time>2019-05-25T07:43:00Z</time>
      </trkpt>
      <trkpt lat="44.99601" lon="4.51573">
        <ele>393</ele>
        <time>2019-05-25T07:43:05Z</time>
      </trkpt>
      <trkpt lat="44.99624" lon="4.51568">
        <ele>394</ele>
        <time>2019-05-25T07:43:10Z</time>
      </trkpt>
      <trkpt lat="44.99648" lon="4.51574">
        <ele>395</ele>
        <time>2019-05-25T07:43:15Z</time>
      </trkpt>
      <trkpt lat="44.99671" lon="4.51579">
        <ele>396</ele>
        <time>2019-05-25T07:43:20Z</time>
      </trkpt>
      <trkpt lat="44.99692" lon="4.51567">
        <ele>397</ele>
        <time>2019-05-25T07:43:25Z</time>
      </trkpt>
      <trkpt lat="44.9971" lon="4.51544">
        <ele>398</ele>
        <time>2019-05-25T07:43:30Z</time>
      </trkpt>
      <trkpt lat="44.99723" lon="4.51516">
        <ele>398</ele>
        <time>2019-05-25T07:43:35Z</time>
      </trkpt>
      <trkpt lat="44.99731" lon="4.51484">
        <ele>399</ele>
        <time>2019-05-25T07:43:40Z</time>
      </trkpt>
      <trkpt lat="44.99731" lon="4.5145">
        <ele>401</ele>
        <time>2019-05-25T07:43:45Z</time>
      </trkpt>
      <trkpt lat="44.99732" lon="4.51416">
        <ele>401</ele>
        <time>2019-05-25T07:43:50Z</time>
      </trkpt>
      <trkpt lat="44.99731" lon="4.51384">
        <ele>403</ele>
        <time>2019-05-25T07:43:55Z</time>
      </trkpt>
      <trkpt lat="44.99721" lon="4.51356">
        <ele>403</ele>
        <time>2019-05-25T07:44:00Z</time>
      </trkpt>
      <trkpt lat="44.99703" lon="4.51335">
        <ele>404</ele>
        <time>2019-05-25T07:44:05Z</time>
      </trkpt>
      <trkpt lat="44.99686" lon="4.51313">
        <ele>405</ele>
        <time>2019-05-25T07:44:10Z</time>
      </trkpt>
      <trkpt lat="44.99675" lon="4.51285">
        <ele>406</ele>
        <time>2019-05-25T07:44:15Z</time>
      </trkpt>
      <trkpt lat="44.99669" lon="4.51256">
        <ele>407</ele>
        <time>2019-05-25T07:44:20Z</time>
      </trkpt>
      <trkpt lat="44.99672" lon="4.51231">
        <ele>408</ele>
        <time>2019-05-25T07:44:25Z</time>
      </trkpt>
      <trkpt lat="44.99685" lon="4.51203">
        <ele>409</ele>
        <time>2019-05-25T07:44:30Z</time>
      </trkpt>
      <trkpt lat="44.99695" lon="4.51174">
        <ele>411</ele>
        <time>2019-05-25T07:44:35Z</time>
      </trkpt>
      <trkpt lat="44.99703" lon="4.51143">
        <ele>412</ele>
        <time>2019-05-25T07:44:40Z</time>
      </trkpt>
      <trkpt lat="44.99717" lon="4.51115">
        <ele>413</ele>
        <time>2019-05-25T07:44:45Z</time>
      </trkpt>
      <trkpt lat="44.99737" lon="4.51103">
        <ele>414</ele>
        <time>2019-05-25T07:44:50Z</time>
      </trkpt>
      <trkpt lat="44.99759" lon="4.51102">
        <ele>415</ele>
        <time>2019-05-25T07:44:55Z</time>
      </trkpt>
      <trkpt lat="44.99779" lon="4.51099">
        <ele>417</ele>
        <time>2019-05-25T07:45:00Z</time>
      </trkpt>
      <trkpt lat="44.99799" lon="4.51095">
        <ele>417</ele>
        <time>2019-05-25T07:45:05Z</time>
      </trkpt>
      <trkpt lat="44.99823" lon="4.51076">
        <ele>417</ele>
        <time>2019-05-25T07:45:10Z</time>
      </trkpt>
      <trkpt lat="44.99851" lon="4.51049">
        <ele>417</ele>
        <time>2019-05-25T07:45:15Z</time>
      </trkpt>
      <trkpt lat="44.99875" lon="4.51012">
        <ele>415</ele>
        <time>2019-05-25T07:45:20Z</time>
      </trkpt>
      <trkpt lat="44.99898" lon="4.5097">
        <ele>415</ele>
        <time>2019-05-25T07:45:25Z</time>
      </trkpt>
      <trkpt lat="44.99918" lon="4.50924">
        <ele>415</ele>
        <time>2019-05-25T07:45:30Z</time>
      </trkpt>
      <trkpt lat="44.99939" lon="4.50879">
        <ele>414</ele>
        <time>2019-05-25T07:45:35Z</time>
      </trkpt>
      <trkpt lat="44.99958" lon="4.50834">
        <ele>413</ele>
        <time>2019-05-25T07:45:40Z</time>
      </trkpt>
      <trkpt lat="44.9997" lon="4.50783">
        <ele>412</ele>
        <time>2019-05-25T07:45:45Z</time>
      </trkpt>
      <trkpt lat="44.9998" lon="4.5073">
        <ele>411</ele>
        <time>2019-05-25T07:45:50Z</time>
      </trkpt>
      <trkpt lat="45.00006" lon="4.50691">
        <ele>411</ele>
        <time>2019-05-25T07:45:55Z</time>
      </trkpt>
      <trkpt lat="45.00009" lon="4.50635">
        <ele>410</ele>
        <time>2019-05-25T07:46:00Z</time>
      </trkpt>
      <trkpt lat="45.00009" lon="4.50581">
        <ele>409</ele>
        <time>2019-05-25T07:46:05Z</time>
      </trkpt>
      <trkpt lat="45.00031" lon="4.50544">
        <ele>408</ele>
        <time>2019-05-25T07:46:10Z</time>
      </trkpt>
      <trkpt lat="45.00048" lon="4.50496">
        <ele>407</ele>
        <time>2019-05-25T07:46:15Z</time>
      </trkpt>
      <trkpt lat="45.00062" lon="4.50447">
        <ele>407</ele>
        <time>2019-05-25T07:46:20Z</time>
      </trkpt>
      <trkpt lat="45.00082" lon="4.50394">
        <ele>407</ele>
        <time>2019-05-25T07:46:25Z</time>
      </trkpt>
      <trkpt lat="45.00109" lon="4.50354">
        <ele>405</ele>
        <time>2019-05-25T07:46:30Z</time>
      </trkpt>
      <trkpt lat="45.00128" lon="4.5031">
        <ele>405</ele>
        <time>2019-05-25T07:46:35Z</time>
      </trkpt>
      <trkpt lat="45.00146" lon="4.50262">
        <ele>403</ele>
        <time>2019-05-25T07:46:40Z</time>
      </trkpt>
      <trkpt lat="45.00147" lon="4.50203">
        <ele>403</ele>
        <time>2019-05-25T07:46:45Z</time>
      </trkpt>
      <trkpt lat="45.00144" lon="4.50146">
        <ele>402</ele>
        <time>2019-05-25T07:46:50Z</time>
      </trkpt>
      <trkpt lat="45.00168" lon="4.50127">
        <ele>401</ele>
        <time>2019-05-25T07:46:55Z</time>
      </trkpt>
      <trkpt lat="45.00208" lon="4.50135">
        <ele>401</ele>
        <time>2019-05-25T07:47:00Z</time>
      </trkpt>
      <trkpt lat="45.00252" lon="4.50127">
        <ele>401</ele>
        <time>2019-05-25T07:47:05Z</time>
      </trkpt>
      <trkpt lat="45.00297" lon="4.50101">
        <ele>399</ele>
        <time>2019-05-25T07:47:10Z</time>
      </trkpt>
      <trkpt lat="45.0033" lon="4.50063">
        <ele>399</ele>
        <time>2019-05-25T07:47:15Z</time>
      </trkpt>
      <trkpt lat="45.00361" lon="4.50024">
        <ele>398</ele>
        <time>2019-05-25T07:47:20Z</time>
      </trkpt>
      <trkpt lat="45.00389" lon="4.49985">
        <ele>397</ele>
        <time>2019-05-25T07:47:25Z</time>
      </trkpt>
      <trkpt lat="45.00392" lon="4.4993">
        <ele>397</ele>
        <time>2019-05-25T07:47:30Z</time>
      </trkpt>
      <trkpt lat="45.00382" lon="4.49879">
        <ele>397</ele>
        <time>2019-05-25T07:47:35Z</time>
      </trkpt>
      <trkpt lat="45.00386" lon="4.49833">
        <ele>397</ele>
        <time>2019-05-25T07:47:40Z</time>
      </trkpt>
      <trkpt lat="45.00415" lon="4.49831">
        <ele>397</ele>
        <time>2019-05-25T07:47:45Z</time>
      </trkpt>
      <trkpt lat="45.00441" lon="4.49856">
        <ele>397</ele>
        <time>2019-05-25T07:47:50Z</time>
      </trkpt>
      <trkpt lat="45.00467" lon="4.49841">
        <ele>398</ele>
        <time>2019-05-25T07:47:55Z</time>
      </trkpt>
      <trkpt lat="45.00486" lon="4.49804">
        <ele>400</ele>
        <time>2019-05-25T07:48:00Z</time>
      </trkpt>
      <trkpt lat="45.00508" lon="4.49771">
        <ele>400</ele>
        <time>2019-05-25T07:48:05Z</time>
      </trkpt>
      <trkpt lat="45.00532" lon="4.49739">
        <ele>400</ele>
        <time>2019-05-25T07:48:10Z</time>
      </trkpt>
      <trkpt lat="45.0056" lon="4.49713">
        <ele>400</ele>
        <time>2019-05-25T07:48:15Z</time>
      </trkpt>
      <trkpt lat="45.00586" lon="4.49684">
        <ele>400</ele>
        <time>2019-05-25T07:48:20Z</time>
      </trkpt>
      <trkpt lat="45.00615" lon="4.49657">
        <ele>400</ele>
        <time>2019-05-25T07:48:25Z</time>
      </trkpt>
      <trkpt lat="45.00647" lon="4.4963">
        <ele>401</ele>
        <time>2019-05-25T07:48:30Z</time>
      </trkpt>
      <trkpt lat="45.00678" lon="4.49604">
        <ele>401</ele>
        <time>2019-05-25T07:48:35Z</time>
      </trkpt>
      <trkpt lat="45.00709" lon="4.49579">
        <ele>401</ele>
        <time>2019-05-25T07:48:40Z</time>
      </trkpt>
      <trkpt lat="45.00743" lon="4.49558">
        <ele>401</ele>
        <time>2019-05-25T07:48:45Z</time>
      </trkpt>
      <trkpt lat="45.00775" lon="4.49539">
        <ele>401</ele>
        <time>2019-05-25T07:48:50Z</time>
      </trkpt>
      <trkpt lat="45.0081" lon="4.49518">
        <ele>400</ele>
        <time>2019-05-25T07:48:55Z</time>
      </trkpt>
      <trkpt lat="45.00845" lon="4.49497">
        <ele>400</ele>
        <time>2019-05-25T07:49:00Z</time>
      </trkpt>
      <trkpt lat="45.0088" lon="4.4948">
        <ele>400</ele>
        <time>2019-05-25T07:49:05Z</time>
      </trkpt>
      <trkpt lat="45.00915" lon="4.49463">
        <ele>400</ele>
        <time>2019-05-25T07:49:10Z</time>
      </trkpt>
      <trkpt lat="45.00951" lon="4.49446">
        <ele>399</ele>
        <time>2019-05-25T07:49:15Z</time>
      </trkpt>
      <trkpt lat="45.00987" lon="4.49432">
        <ele>399</ele>
        <time>2019-05-25T07:49:20Z</time>
      </trkpt>
      <trkpt lat="45.01023" lon="4.49417">
        <ele>399</ele>
        <time>2019-05-25T07:49:25Z</time>
      </trkpt>
      <trkpt lat="45.01059" lon="4.49406">
        <ele>399</ele>
        <time>2019-05-25T07:49:30Z</time>
      </trkpt>
      <trkpt lat="45.01095" lon="4.49413">
        <ele>399</ele>
        <time>2019-05-25T07:49:35Z</time>
      </trkpt>
      <trkpt lat="45.0113" lon="4.49414">
        <ele>399</ele>
        <time>2019-05-25T07:49:40Z</time>
      </trkpt>
      <trkpt lat="45.01161" lon="4.49408">
        <ele>399</ele>
        <time>2019-05-25T07:49:45Z</time>
      </trkpt>
      <trkpt lat="45.01188" lon="4.4938">
        <ele>399</ele>
        <time>2019-05-25T07:49:50Z</time>
      </trkpt>
      <trkpt lat="45.01212" lon="4.49353">
        <ele>399</ele>
        <time>2019-05-25T07:49:55Z</time>
      </trkpt>
      <trkpt lat="45.01241" lon="4.49341">
        <ele>399</ele>
        <time>2019-05-25T07:50:00Z</time>
      </trkpt>
      <trkpt lat="45.01274" lon="4.49328">
        <ele>399</ele>
        <time>2019-05-25T07:50:05Z</time>
      </trkpt>
      <trkpt lat="45.01305" lon="4.4931">
        <ele>399</ele>
        <time>2019-05-25T07:50:10Z</time>
      </trkpt>
      <trkpt lat="45.01334" lon="4.49298">
        <ele>400</ele>
        <time>2019-05-25T07:50:15Z</time>
      </trkpt>
      <trkpt lat="45.0136" lon="4.4929">
        <ele>401</ele>
        <time>2019-05-25T07:50:20Z</time>
      </trkpt>
      <trkpt lat="45.01387" lon="4.4928">
        <ele>402</ele>
        <time>2019-05-25T07:50:25Z</time>
      </trkpt>
      <trkpt lat="45.01412" lon="4.49266">
        <ele>402</ele>
        <time>2019-05-25T07:50:30Z</time>
      </trkpt>
      <trkpt lat="45.01437" lon="4.49254">
        <ele>402</ele>
        <time>2019-05-25T07:50:35Z</time>
      </trkpt>
      <trkpt lat="45.01462" lon="4.49247">
        <ele>404</ele>
        <time>2019-05-25T07:50:40Z</time>
      </trkpt>
      <trkpt lat="45.01488" lon="4.49238">
        <ele>404</ele>
        <time>2019-05-25T07:50:45Z</time>
      </trkpt>
      <trkpt lat="45.01513" lon="4.49229">
        <ele>405</ele>
        <time>2019-05-25T07:50:50Z</time>
      </trkpt>
      <trkpt lat="45.01539" lon="4.4922">
        <ele>405</ele>
        <time>2019-05-25T07:50:55Z</time>
      </trkpt>
      <trkpt lat="45.01565" lon="4.4921">
        <ele>405</ele>
        <time>2019-05-25T07:51:00Z</time>
      </trkpt>
      <trkpt lat="45.0159" lon="4.49195">
        <ele>405</ele>
        <time>2019-05-25T07:51:05Z</time>
      </trkpt>
      <trkpt lat="45.01614" lon="4.49175">
        <ele>406</ele>
        <time>2019-05-25T07:51:10Z</time>
      </trkpt>
      <trkpt lat="45.01637" lon="4.49155">
        <ele>407</ele>
        <time>2019-05-25T07:51:15Z</time>
      </trkpt>
      <trkpt lat="45.01655" lon="4.4913">
        <ele>408</ele>
        <time>2019-05-25T07:51:20Z</time>
      </trkpt>
      <trkpt lat="45.01666" lon="4.49097">
        <ele>409</ele>
        <time>2019-05-25T07:51:25Z</time>
      </trkpt>
      <trkpt lat="45.01675" lon="4.49063">
        <ele>410</ele>
        <time>2019-05-25T07:51:30Z</time>
      </trkpt>
      <trkpt lat="45.01684" lon="4.49029">
        <ele>411</ele>
        <time>2019-05-25T07:51:35Z</time>
      </trkpt>
      <trkpt lat="45.01691" lon="4.48996">
        <ele>412</ele>
        <time>2019-05-25T07:51:40Z</time>
      </trkpt>
      <trkpt lat="45.01699" lon="4.48966">
        <ele>412</ele>
        <time>2019-05-25T07:51:45Z</time>
      </trkpt>
      <trkpt lat="45.01705" lon="4.48938">
        <ele>413</ele>
        <time>2019-05-25T07:51:50Z</time>
      </trkpt>
      <trkpt lat="45.01714" lon="4.48905">
        <ele>414</ele>
        <time>2019-05-25T07:51:55Z</time>
      </trkpt>
      <trkpt lat="45.01722" lon="4.48871">
        <ele>415</ele>
        <time>2019-05-25T07:52:00Z</time>
      </trkpt>
      <trkpt lat="45.01734" lon="4.48837">
        <ele>417</ele>
        <time>2019-05-25T07:52:05Z</time>
      </trkpt>
      <trkpt lat="45.01757" lon="4.48817">
        <ele>417</ele>
        <time>2019-05-25T07:52:10Z</time>
      </trkpt>
      <trkpt lat="45.01788" lon="4.48801">
        <ele>418</ele>
        <time>2019-05-25T07:52:15Z</time>
      </trkpt>
      <trkpt lat="45.01817" lon="4.48784">
        <ele>418</ele>
        <time>2019-05-25T07:52:20Z</time>
      </trkpt>
      <trkpt lat="45.01839" lon="4.48773">
        <ele>418</ele>
        <time>2019-05-25T07:52:25Z</time>
      </trkpt>
      <trkpt lat="45.01853" lon="4.48778">
        <ele>417</ele>
        <time>2019-05-25T07:52:30Z</time>
      </trkpt>
      <trkpt lat="45.01856" lon="4.48773">
        <ele>417</ele>
        <time>2019-05-25T07:52:35Z</time>
      </trkpt>
      <trkpt lat="45.01851" lon="4.48776">
        <ele>417</ele>
        <time>2019-05-25T07:52:40Z</time>
      </trkpt>
      <trkpt lat="45.01869" lon="4.488">
        <ele>417</ele>
        <time>2019-05-25T07:52:45Z</time>
      </trkpt>
      <trkpt lat="45.01886" lon="4.4883">
        <ele>417</ele>
        <time>2019-05-25T07:52:50Z</time>
      </trkpt>
      <trkpt lat="45.01904" lon="4.48863">
        <ele>417</ele>
        <time>2019-05-25T07:52:55Z</time>
      </trkpt>
      <trkpt lat="45.01924" lon="4.48894">
        <ele>418</ele>
        <time>2019-05-25T07:53:00Z</time>
      </trkpt>
      <trkpt lat="45.01942" lon="4.48927">
        <ele>419</ele>
        <time>2019-05-25T07:53:05Z</time>
      </trkpt>
      <trkpt lat="45.01961" lon="4.48957">
        <ele>420</ele>
        <time>2019-05-25T07:53:10Z</time>
      </trkpt>
      <trkpt lat="45.01979" lon="4.48987">
        <ele>421</ele>
        <time>2019-05-25T07:53:15Z</time>
      </trkpt>
      <trkpt lat="45.01997" lon="4.49016">
        <ele>422</ele>
        <time>2019-05-25T07:53:20Z</time>
      </trkpt>
      <trkpt lat="45.02016" lon="4.49043">
        <ele>423</ele>
        <time>2019-05-25T07:53:25Z</time>
      </trkpt>
      <trkpt lat="45.02041" lon="4.4906">
        <ele>425</ele>
        <time>2019-05-25T07:53:30Z</time>
      </trkpt>
      <trkpt lat="45.02066" lon="4.49074">
        <ele>426</ele>
        <time>2019-05-25T07:53:35Z</time>
      </trkpt>
      <trkpt lat="45.02092" lon="4.49079">
        <ele>427</ele>
        <time>2019-05-25T07:53:40Z</time>
      </trkpt>
      <trkpt lat="45.02117" lon="4.4907">
        <ele>428</ele>
        <time>2019-05-25T07:53:45Z</time>
      </trkpt>
      <trkpt lat="45.02143" lon="4.49071">
        <ele>429</ele>
        <time>2019-05-25T07:53:50Z</time>
      </trkpt>
      <trkpt lat="45.02158" lon="4.49098">
        <ele>430</ele>
        <time>2019-05-25T07:53:55Z</time>
      </trkpt>
      <trkpt lat="45.02158" lon="4.49133">
        <ele>432</ele>
        <time>2019-05-25T07:54:00Z</time>
      </trkpt>
      <trkpt lat="45.02165" lon="4.49167">
        <ele>433</ele>
        <time>2019-05-25T07:54:05Z</time>
      </trkpt>
      <trkpt lat="45.02179" lon="4.49198">
        <ele>434</ele>
        <time>2019-05-25T07:54:10Z</time>
      </trkpt>
      <trkpt lat="45.02198" lon="4.49219">
        <ele>435</ele>
        <time>2019-05-25T07:54:15Z</time>
      </trkpt>
      <trkpt lat="45.02222" lon="4.49228">
        <ele>437</ele>
        <time>2019-05-25T07:54:20Z</time>
      </trkpt>
      <trkpt lat="45.02246" lon="4.49231">
        <ele>438</ele>
        <time>2019-05-25T07:54:25Z</time>
      </trkpt>
      <trkpt lat="45.02271" lon="4.49233">
        <ele>439</ele>
        <time>2019-05-25T07:54:30Z</time>
      </trkpt>
      <trkpt lat="45.02297" lon="4.49233">
        <ele>440</ele>
        <time>2019-05-25T07:54:35Z</time>
      </trkpt>
      <trkpt lat="45.02322" lon="4.49233">
        <ele>442</ele>
        <time>2019-05-25T07:54:40Z</time>
      </trkpt>
      <trkpt lat="45.02347" lon="4.49239">
        <ele>443</ele>
        <time>2019-05-25T07:54:45Z</time>
      </trkpt>
      <trkpt lat="45.02369" lon="4.49257">
        <ele>444</ele>
        <time>2019-05-25T07:54:50Z</time>
      </trkpt>
      <trkpt lat="45.02391" lon="4.49271">
        <ele>445</ele>
        <time>2019-05-25T07:54:55Z</time>
      </trkpt>
      <trkpt lat="45.02413" lon="4.49286">
        <ele>446</ele>
        <time>2019-05-25T07:55:00Z</time>
      </trkpt>
      <trkpt lat="45.02435" lon="4.49301">
        <ele>447</ele>
        <time>2019-05-25T07:55:05Z</time>
      </trkpt>
      <trkpt lat="45.02455" lon="4.49306">
        <ele>448</ele>
        <time>2019-05-25T07:55:10Z</time>
      </trkpt>
      <trkpt lat="45.02472" lon="4.49272">
        <ele>449</ele>
        <time>2019-05-25T07:55:15Z</time>
      </trkpt>
      <trkpt lat="45.02461" lon="4.49234">
        <ele>449</ele>
        <time>2019-05-25T07:55:20Z</time>
      </trkpt>
      <trkpt lat="45.0245" lon="4.49195">
        <ele>450</ele>
        <time>2019-05-25T07:55:25Z</time>
      </trkpt>
      <trkpt lat="45.02436" lon="4.49157">
        <ele>450</ele>
        <time>2019-05-25T07:55:30Z</time>
      </trkpt>
      <trkpt lat="45.02426" lon="4.49116">
        <ele>450</ele>
        <time>2019-05-25T07:55:35Z</time>
      </trkpt>
      <trkpt lat="45.02421" lon="4.49074">
        <ele>450</ele>
        <time>2019-05-25T07:55:40Z</time>
      </trkpt>
      <trkpt lat="45.02435" lon="4.49058">
        <ele>451</ele>
        <time>2019-05-25T07:55:45Z</time>
      </trkpt>
      <trkpt lat="45.02449" lon="4.49101">
        <ele>451</ele>
        <time>2019-05-25T07:55:50Z</time>
      </trkpt>
      <trkpt lat="45.02477" lon="4.49129">
        <ele>451</ele>
        <time>2019-05-25T07:55:55Z</time>
      </trkpt>
      <trkpt lat="45.02503" lon="4.49164">
        <ele>451</ele>
        <time>2019-05-25T07:56:00Z</time>
      </trkpt>
      <trkpt lat="45.02529" lon="4.49198">
        <ele>451</ele>
        <time>2019-05-25T07:56:05Z</time>
      </trkpt>
      <trkpt lat="45.02564" lon="4.49215">
        <ele>451</ele>
        <time>2019-05-25T07:56:10Z</time>
      </trkpt>
      <trkpt lat="45.02589" lon="4.49253">
        <ele>451</ele>
        <time>2019-05-25T07:56:15Z</time>
      </trkpt>
      <trkpt lat="45.02611" lon="4.49294">
        <ele>451</ele>
        <time>2019-05-25T07:56:20Z</time>
      </trkpt>
      <trkpt lat="45.02628" lon="4.49338">
        <ele>451</ele>
        <time>2019-05-25T07:56:25Z</time>
      </trkpt>
      <trkpt lat="45.02646" lon="4.4938">
        <ele>451</ele>
        <time>2019-05-25T07:56:30Z</time>
      </trkpt>
      <trkpt lat="45.0267" lon="4.49412">
        <ele>451</ele>
        <time>2019-05-25T07:56:35Z</time>
      </trkpt>
      <trkpt lat="45.02706" lon="4.49391">
        <ele>451</ele>
        <time>2019-05-25T07:56:40Z</time>
      </trkpt>
      <trkpt lat="45.02733" lon="4.49361">
        <ele>451</ele>
        <time>2019-05-25T07:56:45Z</time>
      </trkpt>
      <trkpt lat="45.02757" lon="4.49325">
        <ele>451</ele>
        <time>2019-05-25T07:56:50Z</time>
      </trkpt>
      <trkpt lat="45.02785" lon="4.49292">
        <ele>451</ele>
        <time>2019-05-25T07:56:55Z</time>
      </trkpt>
      <trkpt lat="45.02816" lon="4.49267">
        <ele>451</ele>
        <time>2019-05-25T07:57:00Z</time>
      </trkpt>
      <trkpt lat="45.02847" lon="4.49241">
        <ele>451</ele>
        <time>2019-05-25T07:57:05Z</time>
      </trkpt>
      <trkpt lat="45.0288" lon="4.49222">
        <ele>451</ele>
        <time>2019-05-25T07:57:10Z</time>
      </trkpt>
      <trkpt lat="45.02903" lon="4.49186">
        <ele>451</ele>
        <time>2019-05-25T07:57:15Z</time>
      </trkpt>
      <trkpt lat="45.02939" lon="4.49197">
        <ele>451</ele>
        <time>2019-05-25T07:57:20Z</time>
      </trkpt>
      <trkpt lat="45.02977" lon="4.49225">
        <ele>452</ele>
        <time>2019-05-25T07:57:26Z</time>
      </trkpt>
      <trkpt lat="45.03006" lon="4.49261">
        <ele>452</ele>
        <time>2019-05-25T07:57:31Z</time>
      </trkpt>
      <trkpt lat="45.03031" lon="4.49299">
        <ele>452</ele>
        <time>2019-05-25T07:57:36Z</time>
      </trkpt>
      <trkpt lat="45.0305" lon="4.49343">
        <ele>452</ele>
        <time>2019-05-25T07:57:41Z</time>
      </trkpt>
      <trkpt lat="45.03066" lon="4.49392">
        <ele>452</ele>
        <time>2019-05-25T07:57:46Z</time>
      </trkpt>
      <trkpt lat="45.03099" lon="4.49434">
        <ele>452</ele>
        <time>2019-05-25T07:57:52Z</time>
      </trkpt>
      <trkpt lat="45.03145" lon="4.49439">
        <ele>451</ele>
        <time>2019-05-25T07:57:57Z</time>
      </trkpt>
      <trkpt lat="45.03183" lon="4.49447">
        <ele>450</ele>
        <time>2019-05-25T07:58:03Z</time>
      </trkpt>
      <trkpt lat="45.0322" lon="4.49447">
        <ele>450</ele>
        <time>2019-05-25T07:58:08Z</time>
      </trkpt>
      <trkpt lat="45.03253" lon="4.49419">
        <ele>449</ele>
        <time>2019-05-25T07:58:13Z</time>
      </trkpt>
      <trkpt lat="45.03295" lon="4.494">
        <ele>447</ele>
        <time>2019-05-25T07:58:18Z</time>
      </trkpt>
      <trkpt lat="45.03317" lon="4.49357">
        <ele>447</ele>
        <time>2019-05-25T07:58:24Z</time>
      </trkpt>
      <trkpt lat="45.03329" lon="4.49306">
        <ele>447</ele>
        <time>2019-05-25T07:58:29Z</time>
      </trkpt>
      <trkpt lat="45.03331" lon="4.4925">
        <ele>447</ele>
        <time>2019-05-25T07:58:34Z</time>
      </trkpt>
      <trkpt lat="45.03337" lon="4.49193">
        <ele>446</ele>
        <time>2019-05-25T07:58:39Z</time>
      </trkpt>
      <trkpt lat="45.03344" lon="4.49139">
        <ele>446</ele>
        <time>2019-05-25T07:58:44Z</time>
      </trkpt>
      <trkpt lat="45.03355" lon="4.49084">
        <ele>445</ele>
        <time>2019-05-25T07:58:49Z</time>
      </trkpt>
      <trkpt lat="45.03383" lon="4.49047">
        <ele>443</ele>
        <time>2019-05-25T07:58:54Z</time>
      </trkpt>
      <trkpt lat="45.03413" lon="4.49075">
        <ele>443</ele>
        <time>2019-05-25T07:58:59Z</time>
      </trkpt>
      <trkpt lat="45.03423" lon="4.49123">
        <ele>443</ele>
        <time>2019-05-25T07:59:04Z</time>
      </trkpt>
      <trkpt lat="45.03429" lon="4.49171">
        <ele>444</ele>
        <time>2019-05-25T07:59:09Z</time>
      </trkpt>
      <trkpt lat="45.03442" lon="4.49211">
        <ele>445</ele>
        <time>2019-05-25T07:59:14Z</time>
      </trkpt>
      <trkpt lat="45.03478" lon="4.49227">
        <ele>446</ele>
        <time>2019-05-25T07:59:20Z</time>
      </trkpt>
      <trkpt lat="45.03515" lon="4.49238">
        <ele>447</ele>
        <time>2019-05-25T07:59:26Z</time>
      </trkpt>
      <trkpt lat="45.03544" lon="4.49248">
        <ele>448</ele>
        <time>2019-05-25T07:59:31Z</time>
      </trkpt>
      <trkpt lat="45.03579" lon="4.49252">
        <ele>449</ele>
        <time>2019-05-25T07:59:36Z</time>
      </trkpt>
      <trkpt lat="45.03608" lon="4.49256">
        <ele>449</ele>
        <time>2019-05-25T07:59:42Z</time>
      </trkpt>
      <trkpt lat="45.03644" lon="4.49258">
        <ele>450</ele>
        <time>2019-05-25T07:59:47Z</time>
      </trkpt>
      <trkpt lat="45.03671" lon="4.49267">
        <ele>451</ele>
        <time>2019-05-25T07:59:52Z</time>
      </trkpt>
      <trkpt lat="45.03696" lon="4.49282">
        <ele>452</ele>
        <time>2019-05-25T07:59:57Z</time>
      </trkpt>
      <trkpt lat="45.03719" lon="4.49297">
        <ele>453</ele>
        <time>2019-05-25T08:00:02Z</time>
      </trkpt>
      <trkpt lat="45.03747" lon="4.49312">
        <ele>454</ele>
        <time>2019-05-25T08:00:07Z</time>
      </trkpt>
      <trkpt lat="45.03772" lon="4.49325">
        <ele>455</ele>
        <time>2019-05-25T08:00:12Z</time>
      </trkpt>
      <trkpt lat="45.03797" lon="4.49314">
        <ele>455</ele>
        <time>2019-05-25T08:00:17Z</time>
      </trkpt>
      <trkpt lat="45.03819" lon="4.49294">
        <ele>456</ele>
        <time>2019-05-25T08:00:22Z</time>
      </trkpt>
      <trkpt lat="45.03842" lon="4.49319">
        <ele>456</ele>
        <time>2019-05-25T08:00:28Z</time>
      </trkpt>
      <trkpt lat="45.03837" lon="4.49365">
        <ele>457</ele>
        <time>2019-05-25T08:00:33Z</time>
      </trkpt>
      <trkpt lat="45.03852" lon="4.49403">
        <ele>458</ele>
        <time>2019-05-25T08:00:38Z</time>
      </trkpt>
      <trkpt lat="45.03879" lon="4.4944">
        <ele>459</ele>
        <time>2019-05-25T08:00:44Z</time>
      </trkpt>
      <trkpt lat="45.03901" lon="4.49469">
        <ele>460</ele>
        <time>2019-05-25T08:00:49Z</time>
      </trkpt>
      <trkpt lat="45.03922" lon="4.49512">
        <ele>461</ele>
        <time>2019-05-25T08:00:54Z</time>
      </trkpt>
      <trkpt lat="45.03941" lon="4.49546">
        <ele>461</ele>
        <time>2019-05-25T08:00:59Z</time>
      </trkpt>
      <trkpt lat="45.0396" lon="4.49576">
        <ele>462</ele>
        <time>2019-05-25T08:01:05Z</time>
      </trkpt>
      <trkpt lat="45.03981" lon="4.49612">
        <ele>463</ele>
        <time>2019-05-25T08:01:10Z</time>
      </trkpt>
      <trkpt lat="45.04" lon="4.49641">
        <ele>464</ele>
        <time>2019-05-25T08:01:15Z</time>
      </trkpt>
      <trkpt lat="45.0402" lon="4.49667">
        <ele>464</ele>
        <time>2019-05-25T08:01:20Z</time>
      </trkpt>
      <trkpt lat="45.04036" lon="4.49698">
        <ele>465</ele>
        <time>2019-05-25T08:01:26Z</time>
      </trkpt>
      <trkpt lat="45.04052" lon="4.49728">
        <ele>466</ele>
        <time>2019-05-25T08:01:31Z</time>
      </trkpt>
      <trkpt lat="45.04072" lon="4.49763">
        <ele>467</ele>
        <time>2019-05-25T08:01:37Z</time>
      </trkpt>
      <trkpt lat="45.04089" lon="4.49797">
        <ele>468</ele>
        <time>2019-05-25T08:01:43Z</time>
      </trkpt>
      <trkpt lat="45.04107" lon="4.49831">
        <ele>469</ele>
        <time>2019-05-25T08:01:49Z</time>
      </trkpt>
      <trkpt lat="45.04129" lon="4.49863">
        <ele>469</ele>
        <time>2019-05-25T08:01:54Z</time>
      </trkpt>
      <trkpt lat="45.04145" lon="4.49895">
        <ele>470</ele>
        <time>2019-05-25T08:01:59Z</time>
      </trkpt>
      <trkpt lat="45.04155" lon="4.4993">
        <ele>471</ele>
        <time>2019-05-25T08:02:04Z</time>
      </trkpt>
      <trkpt lat="45.04169" lon="4.49964">
        <ele>471</ele>
        <time>2019-05-25T08:02:09Z</time>
      </trkpt>
      <trkpt lat="45.04189" lon="4.49996">
        <ele>471</ele>
        <time>2019-05-25T08:02:15Z</time>
      </trkpt>
      <trkpt lat="45.04217" lon="4.50031">
        <ele>471</ele>
        <time>2019-05-25T08:02:20Z</time>
      </trkpt>
      <trkpt lat="45.04247" lon="4.50037">
        <ele>471</ele>
        <time>2019-05-25T08:02:26Z</time>
      </trkpt>
      <trkpt lat="45.04268" lon="4.50002">
        <ele>471</ele>
        <time>2019-05-25T08:02:31Z</time>
      </trkpt>
      <trkpt lat="45.04283" lon="4.4996">
        <ele>471</ele>
        <time>2019-05-25T08:02:36Z</time>
      </trkpt>
      <trkpt lat="45.04296" lon="4.49919">
        <ele>471</ele>
        <time>2019-05-25T08:02:41Z</time>
      </trkpt>
      <trkpt lat="45.04314" lon="4.49875">
        <ele>471</ele>
        <time>2019-05-25T08:02:47Z</time>
      </trkpt>
      <trkpt lat="45.04331" lon="4.49826">
        <ele>471</ele>
        <time>2019-05-25T08:02:53Z</time>
      </trkpt>
      <trkpt lat="45.04346" lon="4.49779">
        <ele>471</ele>
        <time>2019-05-25T08:02:59Z</time>
      </trkpt>
      <trkpt lat="45.04359" lon="4.49728">
        <ele>471</ele>
        <time>2019-05-25T08:03:05Z</time>
      </trkpt>
      <trkpt lat="45.04376" lon="4.49673">
        <ele>471</ele>
        <time>2019-05-25T08:03:11Z</time>
      </trkpt>
      <trkpt lat="45.04398" lon="4.49619">
        <ele>471</ele>
        <time>2019-05-25T08:03:17Z</time>
      </trkpt>
      <trkpt lat="45.0442" lon="4.49567">
        <ele>471</ele>
        <time>2019-05-25T08:03:23Z</time>
      </trkpt>
      <trkpt lat="45.04445" lon="4.49514">
        <ele>471</ele>
        <time>2019-05-25T08:03:29Z</time>
      </trkpt>
      <trkpt lat="45.04468" lon="4.49458">
        <ele>472</ele>
        <time>2019-05-25T08:03:35Z</time>
      </trkpt>
      <trkpt lat="45.04504" lon="4.49422">
        <ele>472</ele>
        <time>2019-05-25T08:03:41Z</time>
      </trkpt>
      <trkpt lat="45.04547" lon="4.49397">
        <ele>472</ele>
        <time>2019-05-25T08:03:47Z</time>
      </trkpt>
      <trkpt lat="45.04573" lon="4.49347">
        <ele>472</ele>
        <time>2019-05-25T08:03:53Z</time>
      </trkpt>
      <trkpt lat="45.04584" lon="4.49288">
        <ele>472</ele>
        <time>2019-05-25T08:03:59Z</time>
      </trkpt>
      <trkpt lat="45.04609" lon="4.49278">
        <ele>472</ele>
        <time>2019-05-25T08:04:05Z</time>
      </trkpt>
      <trkpt lat="45.04622" lon="4.49328">
        <ele>472</ele>
        <time>2019-05-25T08:04:11Z</time>
      </trkpt>
      <trkpt lat="45.04618" lon="4.49383">
        <ele>472</ele>
        <time>2019-05-25T08:04:17Z</time>
      </trkpt>
      <trkpt lat="45.04621" lon="4.49441">
        <ele>473</ele>
        <time>2019-05-25T08:04:23Z</time>
      </trkpt>
      <trkpt lat="45.04647" lon="4.49483">
        <ele>473</ele>
        <time>2019-05-25T08:04:29Z</time>
      </trkpt>
      <trkpt lat="45.04677" lon="4.49511">
        <ele>475</ele>
        <time>2019-05-25T08:04:35Z</time>
      </trkpt>
      <trkpt lat="45.0471" lon="4.49509">
        <ele>475</ele>
        <time>2019-05-25T08:04:41Z</time>
      </trkpt>
      <trkpt lat="45.04741" lon="4.49481">
        <ele>475</ele>
        <time>2019-05-25T08:04:47Z</time>
      </trkpt>
      <trkpt lat="45.0477" lon="4.49453">
        <ele>475</ele>
        <time>2019-05-25T08:04:53Z</time>
      </trkpt>
      <trkpt lat="45.04801" lon="4.49426">
        <ele>476</ele>
        <time>2019-05-25T08:04:59Z</time>
      </trkpt>
      <trkpt lat="45.04833" lon="4.49407">
        <ele>477</ele>
        <time>2019-05-25T08:05:05Z</time>
      </trkpt>
      <trkpt lat="45.04856" lon="4.49372">
        <ele>478</ele>
        <time>2019-05-25T08:05:11Z</time>
      </trkpt>
      <trkpt lat="45.04882" lon="4.49383">
        <ele>480</ele>
        <time>2019-05-25T08:05:17Z</time>
      </trkpt>
      <trkpt lat="45.04908" lon="4.49415">
        <ele>480</ele>
        <time>2019-05-25T08:05:23Z</time>
      </trkpt>
      <trkpt lat="45.04935" lon="4.49446">
        <ele>481</ele>
        <time>2019-05-25T08:05:29Z</time>
      </trkpt>
      <trkpt lat="45.0496" lon="4.49481">
        <ele>482</ele>
        <time>2019-05-25T08:05:35Z</time>
      </trkpt>
      <trkpt lat="45.04976" lon="4.49525">
        <ele>483</ele>
        <time>2019-05-25T08:05:41Z</time>
      </trkpt>
      <trkpt lat="45.04992" lon="4.49572">
        <ele>483</ele>
        <time>2019-05-25T08:05:47Z</time>
      </trkpt>
      <trkpt lat="45.05006" lon="4.49621">
        <ele>484</ele>
        <time>2019-05-25T08:05:53Z</time>
      </trkpt>
      <trkpt lat="45.05011" lon="4.49672">
        <ele>484</ele>
        <time>2019-05-25T08:05:58Z</time>
      </trkpt>
      <trkpt lat="45.05012" lon="4.49716">
        <ele>484</ele>
        <time>2019-05-25T08:06:04Z</time>
      </trkpt>
      <trkpt lat="45.05014" lon="4.49758">
        <ele>484</ele>
        <time>2019-05-25T08:06:09Z</time>
      </trkpt>
      <trkpt lat="45.05027" lon="4.49795">
        <ele>485</ele>
        <time>2019-05-25T08:06:14Z</time>
      </trkpt>
      <trkpt lat="45.05056" lon="4.49802">
        <ele>486</ele>
        <time>2019-05-25T08:06:19Z</time>
      </trkpt>
      <trkpt lat="45.05086" lon="4.49804">
        <ele>486</ele>
        <time>2019-05-25T08:06:24Z</time>
      </trkpt>
      <trkpt lat="45.05115" lon="4.49805">
        <ele>487</ele>
        <time>2019-05-25T08:06:29Z</time>
      </trkpt>
      <trkpt lat="45.05142" lon="4.49794">
        <ele>488</ele>
        <time>2019-05-25T08:06:34Z</time>
      </trkpt>
      <trkpt lat="45.05169" lon="4.49777">
        <ele>488</ele>
        <time>2019-05-25T08:06:39Z</time>
      </trkpt>
      <trkpt lat="45.05202" lon="4.49765">
        <ele>489</ele>
        <time>2019-05-25T08:06:45Z</time>
      </trkpt>
      <trkpt lat="45.05236" lon="4.4976">
        <ele>490</ele>
        <time>2019-05-25T08:06:51Z</time>
      </trkpt>
      <trkpt lat="45.05269" lon="4.49778">
        <ele>490</ele>
        <time>2019-05-25T08:06:57Z</time>
      </trkpt>
      <trkpt lat="45.05303" lon="4.49751">
        <ele>490</ele>
        <time>2019-05-25T08:07:03Z</time>
      </trkpt>
      <trkpt lat="45.05342" lon="4.49741">
        <ele>490</ele>
        <time>2019-05-25T08:07:09Z</time>
      </trkpt>
      <trkpt lat="45.05383" lon="4.49758">
        <ele>490</ele>
        <time>2019-05-25T08:07:15Z</time>
      </trkpt>
      <trkpt lat="45.05424" lon="4.49774">
        <ele>490</ele>
        <time>2019-05-25T08:07:21Z</time>
      </trkpt>
      <trkpt lat="45.05462" lon="4.49796">
        <ele>490</ele>
        <time>2019-05-25T08:07:27Z</time>
      </trkpt>
      <trkpt lat="45.05501" lon="4.49809">
        <ele>490</ele>
        <time>2019-05-25T08:07:33Z</time>
      </trkpt>
      <trkpt lat="45.05527" lon="4.49852">
        <ele>490</ele>
        <time>2019-05-25T08:07:39Z</time>
      </trkpt>
      <trkpt lat="45.05552" lon="4.49894">
        <ele>490</ele>
        <time>2019-05-25T08:07:45Z</time>
      </trkpt>
      <trkpt lat="45.05579" lon="4.49933">
        <ele>490</ele>
        <time>2019-05-25T08:07:51Z</time>
      </trkpt>
      <trkpt lat="45.0561" lon="4.49958">
        <ele>490</ele>
        <time>2019-05-25T08:07:57Z</time>
      </trkpt>
      <trkpt lat="45.05629" lon="4.49921">
        <ele>490</ele>
        <time>2019-05-25T08:08:03Z</time>
      </trkpt>
      <trkpt lat="45.05633" lon="4.49865">
        <ele>490</ele>
        <time>2019-05-25T08:08:09Z</time>
      </trkpt>
      <trkpt lat="45.0565" lon="4.49808">
        <ele>490</ele>
        <time>2019-05-25T08:08:15Z</time>
      </trkpt>
      <trkpt lat="45.0567" lon="4.49754">
        <ele>490</ele>
        <time>2019-05-25T08:08:21Z</time>
      </trkpt>
      <trkpt lat="45.05691" lon="4.49704">
        <ele>490</ele>
        <time>2019-05-25T08:08:27Z</time>
      </trkpt>
      <trkpt lat="45.05721" lon="4.4966">
        <ele>488</ele>
        <time>2019-05-25T08:08:33Z</time>
      </trkpt>
      <trkpt lat="45.05762" lon="4.49619">
        <ele>482</ele>
        <time>2019-05-25T08:08:39Z</time>
      </trkpt>
      <trkpt lat="45.058" lon="4.49593">
        <ele>478</ele>
        <time>2019-05-25T08:08:45Z</time>
      </trkpt>
      <trkpt lat="45.05826" lon="4.49619">
        <ele>475</ele>
        <time>2019-05-25T08:08:50Z</time>
      </trkpt>
      <trkpt lat="45.05836" lon="4.49654">
        <ele>475</ele>
        <time>2019-05-25T08:08:55Z</time>
      </trkpt>
      <trkpt lat="45.05831" lon="4.49693">
        <ele>475</ele>
        <time>2019-05-25T08:09:00Z</time>
      </trkpt>
      <trkpt lat="45.05813" lon="4.49737">
        <ele>475</ele>
        <time>2019-05-25T08:09:06Z</time>
      </trkpt>
      <trkpt lat="45.05802" lon="4.49782">
        <ele>476</ele>
        <time>2019-05-25T08:09:12Z</time>
      </trkpt>
      <trkpt lat="45.05798" lon="4.49818">
        <ele>479</ele>
        <time>2019-05-25T08:09:18Z</time>
      </trkpt>
      <trkpt lat="45.05789" lon="4.49853">
        <ele>482</ele>
        <time>2019-05-25T08:09:24Z</time>
      </trkpt>
      <trkpt lat="45.05783" lon="4.49893">
        <ele>484</ele>
        <time>2019-05-25T08:09:30Z</time>
      </trkpt>
      <trkpt lat="45.05782" lon="4.49931">
        <ele>485</ele>
        <time>2019-05-25T08:09:36Z</time>
      </trkpt>
      <trkpt lat="45.05783" lon="4.49959">
        <ele>487</ele>
        <time>2019-05-25T08:09:42Z</time>
      </trkpt>
      <trkpt lat="45.05785" lon="4.49987">
        <ele>490</ele>
        <time>2019-05-25T08:09:48Z</time>
      </trkpt>
      <trkpt lat="45.05789" lon="4.50014">
        <ele>492</ele>
        <time>2019-05-25T08:09:54Z</time>
      </trkpt>
      <trkpt lat="45.05798" lon="4.50034">
        <ele>495</ele>
        <time>2019-05-25T08:10:00Z</time>
      </trkpt>
      <trkpt lat="45.05805" lon="4.50053">
        <ele>498</ele>
        <time>2019-05-25T08:10:06Z</time>
      </trkpt>
      <trkpt lat="45.05812" lon="4.50069">
        <ele>500</ele>
        <time>2019-05-25T08:10:12Z</time>
      </trkpt>
      <trkpt lat="45.05818" lon="4.50084">
        <ele>503</ele>
        <time>2019-05-25T08:10:18Z</time>
      </trkpt>
      <trkpt lat="45.05825" lon="4.501">
        <ele>505</ele>
        <time>2019-05-25T08:10:24Z</time>
      </trkpt>
      <trkpt lat="45.05833" lon="4.50113">
        <ele>507</ele>
        <time>2019-05-25T08:10:30Z</time>
      </trkpt>
      <trkpt lat="45.05846" lon="4.5013">
        <ele>510</ele>
        <time>2019-05-25T08:10:36Z</time>
      </trkpt>
      <trkpt lat="45.05858" lon="4.50148">
        <ele>511</ele>
        <time>2019-05-25T08:10:42Z</time>
      </trkpt>
      <trkpt lat="45.05851" lon="4.50166">
        <ele>513</ele>
        <time>2019-05-25T08:10:48Z</time>
      </trkpt>
      <trkpt lat="45.05838" lon="4.50182">
        <ele>515</ele>
        <time>2019-05-25T08:10:54Z</time>
      </trkpt>
      <trkpt lat="45.05827" lon="4.50204">
        <ele>517</ele>
        <time>2019-05-25T08:11:00Z</time>
      </trkpt>
      <trkpt lat="45.05819" lon="4.50227">
        <ele>519</ele>
        <time>2019-05-25T08:11:06Z</time>
      </trkpt>
      <trkpt lat="45.05813" lon="4.5025">
        <ele>521</ele>
        <time>2019-05-25T08:11:12Z</time>
      </trkpt>
      <trkpt lat="45.05807" lon="4.5027">
        <ele>522</ele>
        <time>2019-05-25T08:11:18Z</time>
      </trkpt>
      <trkpt lat="45.05802" lon="4.5029">
        <ele>524</ele>
        <time>2019-05-25T08:11:24Z</time>
      </trkpt>
      <trkpt lat="45.05788" lon="4.50302">
        <ele>525</ele>
        <time>2019-05-25T08:11:30Z</time>
      </trkpt>
      <trkpt lat="45.05791" lon="4.5032">
        <ele>526</ele>
        <time>2019-05-25T08:11:35Z</time>
      </trkpt>
      <trkpt lat="45.05804" lon="4.50311">
        <ele>528</ele>
        <time>2019-05-25T08:11:40Z</time>
      </trkpt>
      <trkpt lat="45.05818" lon="4.50297">
        <ele>529</ele>
        <time>2019-05-25T08:11:45Z</time>
      </trkpt>
      <trkpt lat="45.0583" lon="4.50283">
        <ele>530</ele>
        <time>2019-05-25T08:11:50Z</time>
      </trkpt>
      <trkpt lat="45.05841" lon="4.50268">
        <ele>531</ele>
        <time>2019-05-25T08:11:55Z</time>
      </trkpt>
      <trkpt lat="45.0585" lon="4.50252">
        <ele>533</ele>
        <time>2019-05-25T08:12:00Z</time>
      </trkpt>
      <trkpt lat="45.05864" lon="4.5024">
        <ele>534</ele>
        <time>2019-05-25T08:12:05Z</time>
      </trkpt>
      <trkpt lat="45.05877" lon="4.50235">
        <ele>535</ele>
        <time>2019-05-25T08:12:10Z</time>
      </trkpt>
      <trkpt lat="45.05894" lon="4.50233">
        <ele>536</ele>
        <time>2019-05-25T08:12:15Z</time>
      </trkpt>
      <trkpt lat="45.05907" lon="4.50232">
        <ele>538</ele>
        <time>2019-05-25T08:12:20Z</time>
      </trkpt>
      <trkpt lat="45.05922" lon="4.50226">
        <ele>539</ele>
        <time>2019-05-25T08:12:25Z</time>
      </trkpt>
      <trkpt lat="45.05936" lon="4.50217">
        <ele>540</ele>
        <time>2019-05-25T08:12:31Z</time>
      </trkpt>
      <trkpt lat="45.05952" lon="4.50206">
        <ele>542</ele>
        <time>2019-05-25T08:12:37Z</time>
      </trkpt>
      <trkpt lat="45.05969" lon="4.50207">
        <ele>544</ele>
        <time>2019-05-25T08:12:43Z</time>
      </trkpt>
      <trkpt lat="45.05965" lon="4.50227">
        <ele>545</ele>
        <time>2019-05-25T08:12:49Z</time>
      </trkpt>
      <trkpt lat="45.05952" lon="4.50241">
        <ele>547</ele>
        <time>2019-05-25T08:12:55Z</time>
      </trkpt>
      <trkpt lat="45.05942" lon="4.50258">
        <ele>549</ele>
        <time>2019-05-25T08:13:01Z</time>
      </trkpt>
      <trkpt lat="45.05926" lon="4.50272">
        <ele>550</ele>
        <time>2019-05-25T08:13:07Z</time>
      </trkpt>
      <trkpt lat="45.05912" lon="4.50281">
        <ele>552</ele>
        <time>2019-05-25T08:13:13Z</time>
      </trkpt>
      <trkpt lat="45.05895" lon="4.50292">
        <ele>554</ele>
        <time>2019-05-25T08:13:19Z</time>
      </trkpt>
      <trkpt lat="45.0588" lon="4.50306">
        <ele>555</ele>
        <time>2019-05-25T08:13:25Z</time>
      </trkpt>
      <trkpt lat="45.05865" lon="4.50323">
        <ele>557</ele>
        <time>2019-05-25T08:13:31Z</time>
      </trkpt>
      <trkpt lat="45.05854" lon="4.50344">
        <ele>559</ele>
        <time>2019-05-25T08:13:37Z</time>
      </trkpt>
      <trkpt lat="45.05845" lon="4.50365">
        <ele>561</ele>
        <time>2019-05-25T08:13:43Z</time>
      </trkpt>
      <trkpt lat="45.05835" lon="4.50384">
        <ele>562</ele>
        <time>2019-05-25T08:13:49Z</time>
      </trkpt>
      <trkpt lat="45.05822" lon="4.50402">
        <ele>564</ele>
        <time>2019-05-25T08:13:55Z</time>
      </trkpt>
      <trkpt lat="45.05835" lon="4.50405">
        <ele>565</ele>
        <time>2019-05-25T08:14:01Z</time>
      </trkpt>
      <trkpt lat="45.05851" lon="4.50389">
        <ele>567</ele>
        <time>2019-05-25T08:14:07Z</time>
      </trkpt>
      <trkpt lat="45.05867" lon="4.50375">
        <ele>569</ele>
        <time>2019-05-25T08:14:13Z</time>
      </trkpt>
      <trkpt lat="45.05884" lon="4.50357">
        <ele>571</ele>
        <time>2019-05-25T08:14:19Z</time>
      </trkpt>
      <trkpt lat="45.05903" lon="4.50342">
        <ele>571</ele>
        <time>2019-05-25T08:14:25Z</time>
      </trkpt>
      <trkpt lat="45.05924" lon="4.50329">
        <ele>571</ele>
        <time>2019-05-25T08:14:31Z</time>
      </trkpt>
      <trkpt lat="45.05952" lon="4.50305">
        <ele>570</ele>
        <time>2019-05-25T08:14:37Z</time>
      </trkpt>
      <trkpt lat="45.05984" lon="4.50282">
        <ele>569</ele>
        <time>2019-05-25T08:14:43Z</time>
      </trkpt>
      <trkpt lat="45.06019" lon="4.50273">
        <ele>569</ele>
        <time>2019-05-25T08:14:49Z</time>
      </trkpt>
      <trkpt lat="45.06054" lon="4.50266">
        <ele>569</ele>
        <time>2019-05-25T08:14:55Z</time>
      </trkpt>
      <trkpt lat="45.06061" lon="4.50221">
        <ele>571</ele>
        <time>2019-05-25T08:15:01Z</time>
      </trkpt>
      <trkpt lat="45.06062" lon="4.5019">
        <ele>574</ele>
        <time>2019-05-25T08:15:07Z</time>
      </trkpt>
      <trkpt lat="45.06065" lon="4.50158">
        <ele>576</ele>
        <time>2019-05-25T08:15:13Z</time>
      </trkpt>
      <trkpt lat="45.06066" lon="4.50127">
        <ele>578</ele>
        <time>2019-05-25T08:15:19Z</time>
      </trkpt>
      <trkpt lat="45.06066" lon="4.50096">
        <ele>580</ele>
        <time>2019-05-25T08:15:25Z</time>
      </trkpt>
      <trkpt lat="45.06069" lon="4.50064">
        <ele>582</ele>
        <time>2019-05-25T08:15:31Z</time>
      </trkpt>
      <trkpt lat="45.06094" lon="4.50068">
        <ele>582</ele>
        <time>2019-05-25T08:15:37Z</time>
      </trkpt>
      <trkpt lat="45.0612" lon="4.50086">
        <ele>582</ele>
        <time>2019-05-25T08:15:43Z</time>
      </trkpt>
      <trkpt lat="45.06143" lon="4.50112">
        <ele>583</ele>
        <time>2019-05-25T08:15:49Z</time>
      </trkpt>
      <trkpt lat="45.06163" lon="4.50137">
        <ele>583</ele>
        <time>2019-05-25T08:15:55Z</time>
      </trkpt>
      <trkpt lat="45.06184" lon="4.50144">
        <ele>585</ele>
        <time>2019-05-25T08:16:01Z</time>
      </trkpt>
      <trkpt lat="45.06198" lon="4.50136">
        <ele>587</ele>
        <time>2019-05-25T08:16:06Z</time>
      </trkpt>
      <trkpt lat="45.06206" lon="4.50124">
        <ele>589</ele>
        <time>2019-05-25T08:16:12Z</time>
      </trkpt>
      <trkpt lat="45.06212" lon="4.50106">
        <ele>591</ele>
        <time>2019-05-25T08:16:17Z</time>
      </trkpt>
      <trkpt lat="45.06218" lon="4.50084">
        <ele>593</ele>
        <time>2019-05-25T08:16:23Z</time>
      </trkpt>
      <trkpt lat="45.06231" lon="4.50067">
        <ele>595</ele>
        <time>2019-05-25T08:16:29Z</time>
      </trkpt>
      <trkpt lat="45.06245" lon="4.5005">
        <ele>597</ele>
        <time>2019-05-25T08:16:35Z</time>
      </trkpt>
      <trkpt lat="45.06259" lon="4.50029">
        <ele>599</ele>
        <time>2019-05-25T08:16:41Z</time>
      </trkpt>
      <trkpt lat="45.06273" lon="4.50011">
        <ele>600</ele>
        <time>2019-05-25T08:16:47Z</time>
      </trkpt>
      <trkpt lat="45.06288" lon="4.49993">
        <ele>602</ele>
        <time>2019-05-25T08:16:53Z</time>
      </trkpt>
      <trkpt lat="45.06303" lon="4.49974">
        <ele>603</ele>
        <time>2019-05-25T08:16:59Z</time>
      </trkpt>
      <trkpt lat="45.06319" lon="4.49952">
        <ele>605</ele>
        <time>2019-05-25T08:17:05Z</time>
      </trkpt>
      <trkpt lat="45.06335" lon="4.49937">
        <ele>606</ele>
        <time>2019-05-25T08:17:11Z</time>
      </trkpt>
      <trkpt lat="45.06352" lon="4.4993">
        <ele>608</ele>
        <time>2019-05-25T08:17:17Z</time>
      </trkpt>
      <trkpt lat="45.0637" lon="4.49942">
        <ele>609</ele>
        <time>2019-05-25T08:17:23Z</time>
      </trkpt>
      <trkpt lat="45.06383" lon="4.49966">
        <ele>610</ele>
        <time>2019-05-25T08:17:29Z</time>
      </trkpt>
      <trkpt lat="45.06392" lon="4.49989">
        <ele>611</ele>
        <time>2019-05-25T08:17:35Z</time>
      </trkpt>
      <trkpt lat="45.064" lon="4.5001">
        <ele>614</ele>
        <time>2019-05-25T08:17:41Z</time>
      </trkpt>
      <trkpt lat="45.06406" lon="4.5003">
        <ele>616</ele>
        <time>2019-05-25T08:17:47Z</time>
      </trkpt>
      <trkpt lat="45.06413" lon="4.50049">
        <ele>618</ele>
        <time>2019-05-25T08:17:53Z</time>
      </trkpt>
      <trkpt lat="45.06421" lon="4.50068">
        <ele>620</ele>
        <time>2019-05-25T08:17:59Z</time>
      </trkpt>
      <trkpt lat="45.06435" lon="4.5008">
        <ele>621</ele>
        <time>2019-05-25T08:18:05Z</time>
      </trkpt>
      <trkpt lat="45.06447" lon="4.50084">
        <ele>623</ele>
        <time>2019-05-25T08:18:11Z</time>
      </trkpt>
      <trkpt lat="45.06464" lon="4.50092">
        <ele>625</ele>
        <time>2019-05-25T08:18:17Z</time>
      </trkpt>
      <trkpt lat="45.0648" lon="4.50104">
        <ele>626</ele>
        <time>2019-05-25T08:18:23Z</time>
      </trkpt>
      <trkpt lat="45.06496" lon="4.50117">
        <ele>627</ele>
        <time>2019-05-25T08:18:29Z</time>
      </trkpt>
      <trkpt lat="45.06511" lon="4.50133">
        <ele>628</ele>
        <time>2019-05-25T08:18:35Z</time>
      </trkpt>
      <trkpt lat="45.06525" lon="4.50149">
        <ele>630</ele>
        <time>2019-05-25T08:18:41Z</time>
      </trkpt>
      <trkpt lat="45.0654" lon="4.50166">
        <ele>631</ele>
        <time>2019-05-25T08:18:47Z</time>
      </trkpt>
      <trkpt lat="45.06555" lon="4.50185">
        <ele>632</ele>
        <time>2019-05-25T08:18:53Z</time>
      </trkpt>
      <trkpt lat="45.06571" lon="4.50205">
        <ele>633</ele>
        <time>2019-05-25T08:18:59Z</time>
      </trkpt>
      <trkpt lat="45.0659" lon="4.50223">
        <ele>634</ele>
        <time>2019-05-25T08:19:05Z</time>
      </trkpt>
      <trkpt lat="45.06614" lon="4.50231">
        <ele>634</ele>
        <time>2019-05-25T08:19:11Z</time>
      </trkpt>
      <trkpt lat="45.06642" lon="4.50247">
        <ele>634</ele>
        <time>2019-05-25T08:19:17Z</time>
      </trkpt>
      <trkpt lat="45.06669" lon="4.50279">
        <ele>636</ele>
        <time>2019-05-25T08:19:23Z</time>
      </trkpt>
      <trkpt lat="45.0669" lon="4.5032">
        <ele>637</ele>
        <time>2019-05-25T08:19:29Z</time>
      </trkpt>
      <trkpt lat="45.06711" lon="4.50356">
        <ele>638</ele>
        <time>2019-05-25T08:19:35Z</time>
      </trkpt>
      <trkpt lat="45.06728" lon="4.50399">
        <ele>639</ele>
        <time>2019-05-25T08:19:40Z</time>
      </trkpt>
      <trkpt lat="45.06733" lon="4.50439">
        <ele>640</ele>
        <time>2019-05-25T08:19:45Z</time>
      </trkpt>
      <trkpt lat="45.06752" lon="4.50454">
        <ele>640</ele>
        <time>2019-05-25T08:19:50Z</time>
      </trkpt>
      <trkpt lat="45.06782" lon="4.50467">
        <ele>641</ele>
        <time>2019-05-25T08:19:55Z</time>
      </trkpt>
      <trkpt lat="45.06811" lon="4.50495">
        <ele>641</ele>
        <time>2019-05-25T08:20:00Z</time>
      </trkpt>
      <trkpt lat="45.06837" lon="4.50479">
        <ele>641</ele>
        <time>2019-05-25T08:20:05Z</time>
      </trkpt>
      <trkpt lat="45.06828" lon="4.50415">
        <ele>638</ele>
        <time>2019-05-25T08:20:10Z</time>
      </trkpt>
      <trkpt lat="45.06831" lon="4.50337">
        <ele>634</ele>
        <time>2019-05-25T08:20:15Z</time>
      </trkpt>
      <trkpt lat="45.06848" lon="4.50267">
        <ele>630</ele>
        <time>2019-05-25T08:20:21Z</time>
      </trkpt>
      <trkpt lat="45.06895" lon="4.50239">
        <ele>624</ele>
        <time>2019-05-25T08:20:27Z</time>
      </trkpt>
      <trkpt lat="45.06892" lon="4.50173">
        <ele>622</ele>
        <time>2019-05-25T08:20:33Z</time>
      </trkpt>
      <trkpt lat="45.06869" lon="4.50111">
        <ele>620</ele>
        <time>2019-05-25T08:20:39Z</time>
      </trkpt>
      <trkpt lat="45.06852" lon="4.50067">
        <ele>621</ele>
        <time>2019-05-25T08:20:45Z</time>
      </trkpt>
      <trkpt lat="45.0684" lon="4.50028">
        <ele>625</ele>
        <time>2019-05-25T08:20:51Z</time>
      </trkpt>
      <trkpt lat="45.06836" lon="4.49989">
        <ele>627</ele>
        <time>2019-05-25T08:20:57Z</time>
      </trkpt>
      <trkpt lat="45.06845" lon="4.49956">
        <ele>630</ele>
        <time>2019-05-25T08:21:03Z</time>
      </trkpt>
      <trkpt lat="45.06858" lon="4.49928">
        <ele>631</ele>
        <time>2019-05-25T08:21:09Z</time>
      </trkpt>
      <trkpt lat="45.06867" lon="4.49904">
        <ele>634</ele>
        <time>2019-05-25T08:21:15Z</time>
      </trkpt>
      <trkpt lat="45.06874" lon="4.49882">
        <ele>635</ele>
        <time>2019-05-25T08:21:21Z</time>
      </trkpt>
      <trkpt lat="45.06877" lon="4.49861">
        <ele>637</ele>
        <time>2019-05-25T08:21:27Z</time>
      </trkpt>
      <trkpt lat="45.06882" lon="4.49834">
        <ele>639</ele>
        <time>2019-05-25T08:21:33Z</time>
      </trkpt>
      <trkpt lat="45.06886" lon="4.49809">
        <ele>640</ele>
        <time>2019-05-25T08:21:39Z</time>
      </trkpt>
      <trkpt lat="45.06894" lon="4.49781">
        <ele>642</ele>
        <time>2019-05-25T08:21:45Z</time>
      </trkpt>
      <trkpt lat="45.06901" lon="4.49747">
        <ele>643</ele>
        <time>2019-05-25T08:21:51Z</time>
      </trkpt>
      <trkpt lat="45.06904" lon="4.49715">
        <ele>645</ele>
        <time>2019-05-25T08:21:57Z</time>
      </trkpt>
      <trkpt lat="45.06905" lon="4.49682">
        <ele>647</ele>
        <time>2019-05-25T08:22:03Z</time>
      </trkpt>
      <trkpt lat="45.06907" lon="4.49649">
        <ele>648</ele>
        <time>2019-05-25T08:22:09Z</time>
      </trkpt>
      <trkpt lat="45.06916" lon="4.49617">
        <ele>650</ele>
        <time>2019-05-25T08:22:15Z</time>
      </trkpt>
      <trkpt lat="45.06935" lon="4.49598">
        <ele>651</ele>
        <time>2019-05-25T08:22:21Z</time>
      </trkpt>
      <trkpt lat="45.0696" lon="4.49622">
        <ele>652</ele>
        <time>2019-05-25T08:22:27Z</time>
      </trkpt>
      <trkpt lat="45.06986" lon="4.4966">
        <ele>651</ele>
        <time>2019-05-25T08:22:33Z</time>
      </trkpt>
      <trkpt lat="45.07018" lon="4.49696">
        <ele>651</ele>
        <time>2019-05-25T08:22:39Z</time>
      </trkpt>
      <trkpt lat="45.07055" lon="4.49726">
        <ele>649</ele>
        <time>2019-05-25T08:22:45Z</time>
      </trkpt>
      <trkpt lat="45.07095" lon="4.49751">
        <ele>647</ele>
        <time>2019-05-25T08:22:51Z</time>
      </trkpt>
      <trkpt lat="45.07137" lon="4.49776">
        <ele>647</ele>
        <time>2019-05-25T08:22:57Z</time>
      </trkpt>
      <trkpt lat="45.07176" lon="4.498">
        <ele>645</ele>
        <time>2019-05-25T08:23:03Z</time>
      </trkpt>
      <trkpt lat="45.0722" lon="4.49791">
        <ele>644</ele>
        <time>2019-05-25T08:23:09Z</time>
      </trkpt>
      <trkpt lat="45.0726" lon="4.4981">
        <ele>642</ele>
        <time>2019-05-25T08:23:15Z</time>
      </trkpt>
      <trkpt lat="45.07297" lon="4.49853">
        <ele>640</ele>
        <time>2019-05-25T08:23:21Z</time>
      </trkpt>
      <trkpt lat="45.07329" lon="4.49877">
        <ele>639</ele>
        <time>2019-05-25T08:23:27Z</time>
      </trkpt>
      <trkpt lat="45.07355" lon="4.4985">
        <ele>641</ele>
        <time>2019-05-25T08:23:33Z</time>
      </trkpt>
      <trkpt lat="45.07377" lon="4.49823">
        <ele>642</ele>
        <time>2019-05-25T08:23:38Z</time>
      </trkpt>
      <trkpt lat="45.07394" lon="4.49803">
        <ele>642</ele>
        <time>2019-05-25T08:23:43Z</time>
      </trkpt>
      <trkpt lat="45.07408" lon="4.4978">
        <ele>643</ele>
        <time>2019-05-25T08:23:48Z</time>
      </trkpt>
      <trkpt lat="45.07421" lon="4.49759">
        <ele>645</ele>
        <time>2019-05-25T08:23:53Z</time>
      </trkpt>
      <trkpt lat="45.07438" lon="4.49743">
        <ele>647</ele>
        <time>2019-05-25T08:23:58Z</time>
      </trkpt>
      <trkpt lat="45.07457" lon="4.49733">
        <ele>648</ele>
        <time>2019-05-25T08:24:04Z</time>
      </trkpt>
      <trkpt lat="45.07481" lon="4.49728">
        <ele>649</ele>
        <time>2019-05-25T08:24:10Z</time>
      </trkpt>
      <trkpt lat="45.07504" lon="4.49722">
        <ele>650</ele>
        <time>2019-05-25T08:24:16Z</time>
      </trkpt>
      <trkpt lat="45.07525" lon="4.49716">
        <ele>652</ele>
        <time>2019-05-25T08:24:22Z</time>
      </trkpt>
      <trkpt lat="45.07546" lon="4.49706">
        <ele>654</ele>
        <time>2019-05-25T08:24:28Z</time>
      </trkpt>
      <trkpt lat="45.07565" lon="4.49687">
        <ele>655</ele>
        <time>2019-05-25T08:24:34Z</time>
      </trkpt>
      <trkpt lat="45.07585" lon="4.49668">
        <ele>657</ele>
        <time>2019-05-25T08:24:40Z</time>
      </trkpt>
      <trkpt lat="45.07607" lon="4.49653">
        <ele>659</ele>
        <time>2019-05-25T08:24:46Z</time>
      </trkpt>
      <trkpt lat="45.07631" lon="4.49644">
        <ele>660</ele>
        <time>2019-05-25T08:24:52Z</time>
      </trkpt>
      <trkpt lat="45.07656" lon="4.49646">
        <ele>660</ele>
        <time>2019-05-25T08:24:58Z</time>
      </trkpt>
      <trkpt lat="45.07674" lon="4.49678">
        <ele>660</ele>
        <time>2019-05-25T08:25:04Z</time>
      </trkpt>
      <trkpt lat="45.07689" lon="4.49723">
        <ele>660</ele>
        <time>2019-05-25T08:25:10Z</time>
      </trkpt>
      <trkpt lat="45.077" lon="4.49789">
        <ele>660</ele>
        <time>2019-05-25T08:25:16Z</time>
      </trkpt>
      <trkpt lat="45.0771" lon="4.49867">
        <ele>656</ele>
        <time>2019-05-25T08:25:22Z</time>
      </trkpt>
      <trkpt lat="45.07727" lon="4.49939">
        <ele>652</ele>
        <time>2019-05-25T08:25:28Z</time>
      </trkpt>
      <trkpt lat="45.07742" lon="4.50006">
        <ele>652</ele>
        <time>2019-05-25T08:25:34Z</time>
      </trkpt>
      <trkpt lat="45.07752" lon="4.5007">
        <ele>652</ele>
        <time>2019-05-25T08:25:40Z</time>
      </trkpt>
      <trkpt lat="45.07772" lon="4.50109">
        <ele>655</ele>
        <time>2019-05-25T08:25:46Z</time>
      </trkpt>
      <trkpt lat="45.07793" lon="4.50142">
        <ele>658</ele>
        <time>2019-05-25T08:25:52Z</time>
      </trkpt>
      <trkpt lat="45.07811" lon="4.50178">
        <ele>660</ele>
        <time>2019-05-25T08:25:58Z</time>
      </trkpt>
      <trkpt lat="45.07833" lon="4.50213">
        <ele>660</ele>
        <time>2019-05-25T08:26:03Z</time>
      </trkpt>
      <trkpt lat="45.07852" lon="4.50244">
        <ele>661</ele>
        <time>2019-05-25T08:26:08Z</time>
      </trkpt>
      <trkpt lat="45.07849" lon="4.50294">
        <ele>661</ele>
        <time>2019-05-25T08:26:14Z</time>
      </trkpt>
      <trkpt lat="45.07821" lon="4.50359">
        <ele>658</ele>
        <time>2019-05-25T08:26:20Z</time>
      </trkpt>
      <trkpt lat="45.07797" lon="4.50414">
        <ele>658</ele>
        <time>2019-05-25T08:26:26Z</time>
      </trkpt>
      <trkpt lat="45.07816" lon="4.50452">
        <ele>658</ele>
        <time>2019-05-25T08:26:32Z</time>
      </trkpt>
      <trkpt lat="45.07846" lon="4.5048">
        <ele>658</ele>
        <time>2019-05-25T08:26:38Z</time>
      </trkpt>
      <trkpt lat="45.07856" lon="4.50522">
        <ele>660</ele>
        <time>2019-05-25T08:26:44Z</time>
      </trkpt>
      <trkpt lat="45.0786" lon="4.5056">
        <ele>662</ele>
        <time>2019-05-25T08:26:50Z</time>
      </trkpt>
      <trkpt lat="45.07862" lon="4.50592">
        <ele>665</ele>
        <time>2019-05-25T08:26:56Z</time>
      </trkpt>
      <trkpt lat="45.07862" lon="4.50621">
        <ele>666</ele>
        <time>2019-05-25T08:27:02Z</time>
      </trkpt>
      <trkpt lat="45.07858" lon="4.50649">
        <ele>669</ele>
        <time>2019-05-25T08:27:08Z</time>
      </trkpt>
      <trkpt lat="45.07846" lon="4.50678">
        <ele>671</ele>
        <time>2019-05-25T08:27:14Z</time>
      </trkpt>
      <trkpt lat="45.07836" lon="4.50708">
        <ele>673</ele>
        <time>2019-05-25T08:27:20Z</time>
      </trkpt>
      <trkpt lat="45.07826" lon="4.5074">
        <ele>674</ele>
        <time>2019-05-25T08:27:26Z</time>
      </trkpt>
      <trkpt lat="45.07805" lon="4.50775">
        <ele>674</ele>
        <time>2019-05-25T08:27:32Z</time>
      </trkpt>
      <trkpt lat="45.07797" lon="4.5083">
        <ele>673</ele>
        <time>2019-05-25T08:27:38Z</time>
      </trkpt>
      <trkpt lat="45.07819" lon="4.50851">
        <ele>673</ele>
        <time>2019-05-25T08:27:44Z</time>
      </trkpt>
      <trkpt lat="45.07829" lon="4.50879">
        <ele>675</ele>
        <time>2019-05-25T08:27:50Z</time>
      </trkpt>
      <trkpt lat="45.07843" lon="4.50902">
        <ele>677</ele>
        <time>2019-05-25T08:27:56Z</time>
      </trkpt>
      <trkpt lat="45.07869" lon="4.50912">
        <ele>678</ele>
        <time>2019-05-25T08:28:02Z</time>
      </trkpt>
      <trkpt lat="45.07898" lon="4.50923">
        <ele>679</ele>
        <time>2019-05-25T08:28:08Z</time>
      </trkpt>
      <trkpt lat="45.07925" lon="4.50923">
        <ele>681</ele>
        <time>2019-05-25T08:28:14Z</time>
      </trkpt>
      <trkpt lat="45.07947" lon="4.50913">
        <ele>684</ele>
        <time>2019-05-25T08:28:20Z</time>
      </trkpt>
      <trkpt lat="45.0796" lon="4.50918">
        <ele>686</ele>
        <time>2019-05-25T08:28:26Z</time>
      </trkpt>
      <trkpt lat="45.07948" lon="4.50933">
        <ele>688</ele>
        <time>2019-05-25T08:28:32Z</time>
      </trkpt>
      <trkpt lat="45.07934" lon="4.5095">
        <ele>689</ele>
        <time>2019-05-25T08:28:38Z</time>
      </trkpt>
      <trkpt lat="45.0792" lon="4.50968">
        <ele>691</ele>
        <time>2019-05-25T08:28:44Z</time>
      </trkpt>
      <trkpt lat="45.07904" lon="4.50986">
        <ele>693</ele>
        <time>2019-05-25T08:28:50Z</time>
      </trkpt>
      <trkpt lat="45.07882" lon="4.50995">
        <ele>694</ele>
        <time>2019-05-25T08:28:56Z</time>
      </trkpt>
      <trkpt lat="45.07859" lon="4.50998">
        <ele>695</ele>
        <time>2019-05-25T08:29:02Z</time>
      </trkpt>
      <trkpt lat="45.07836" lon="4.51002">
        <ele>696</ele>
        <time>2019-05-25T08:29:08Z</time>
      </trkpt>
      <trkpt lat="45.07812" lon="4.51007">
        <ele>697</ele>
        <time>2019-05-25T08:29:14Z</time>
      </trkpt>
      <trkpt lat="45.07786" lon="4.51021">
        <ele>698</ele>
        <time>2019-05-25T08:29:20Z</time>
      </trkpt>
      <trkpt lat="45.07768" lon="4.51045">
        <ele>699</ele>
        <time>2019-05-25T08:29:26Z</time>
      </trkpt>
      <trkpt lat="45.07754" lon="4.51076">
        <ele>701</ele>
        <time>2019-05-25T08:29:32Z</time>
      </trkpt>
      <trkpt lat="45.07734" lon="4.51105">
        <ele>702</ele>
        <time>2019-05-25T08:29:37Z</time>
      </trkpt>
      <trkpt lat="45.07721" lon="4.51131">
        <ele>703</ele>
        <time>2019-05-25T08:29:42Z</time>
      </trkpt>
      <trkpt lat="45.07705" lon="4.51152">
        <ele>704</ele>
        <time>2019-05-25T08:29:48Z</time>
      </trkpt>
      <trkpt lat="45.07686" lon="4.51176">
        <ele>705</ele>
        <time>2019-05-25T08:29:54Z</time>
      </trkpt>
      <trkpt lat="45.07669" lon="4.51204">
        <ele>706</ele>
        <time>2019-05-25T08:30:00Z</time>
      </trkpt>
      <trkpt lat="45.07652" lon="4.51229">
        <ele>707</ele>
        <time>2019-05-25T08:30:06Z</time>
      </trkpt>
      <trkpt lat="45.07652" lon="4.51265">
        <ele>708</ele>
        <time>2019-05-25T08:30:12Z</time>
      </trkpt>
      <trkpt lat="45.07648" lon="4.51297">
        <ele>710</ele>
        <time>2019-05-25T08:30:18Z</time>
      </trkpt>
      <trkpt lat="45.0764" lon="4.51325">
        <ele>711</ele>
        <time>2019-05-25T08:30:24Z</time>
      </trkpt>
      <trkpt lat="45.0763" lon="4.51355">
        <ele>713</ele>
        <time>2019-05-25T08:30:30Z</time>
      </trkpt>
      <trkpt lat="45.07618" lon="4.51384">
        <ele>714</ele>
        <time>2019-05-25T08:30:36Z</time>
      </trkpt>
      <trkpt lat="45.07606" lon="4.51415">
        <ele>715</ele>
        <time>2019-05-25T08:30:42Z</time>
      </trkpt>
      <trkpt lat="45.07596" lon="4.51448">
        <ele>716</ele>
        <time>2019-05-25T08:30:48Z</time>
      </trkpt>
      <trkpt lat="45.07586" lon="4.51476">
        <ele>717</ele>
        <time>2019-05-25T08:30:54Z</time>
      </trkpt>
      <trkpt lat="45.07582" lon="4.51506">
        <ele>719</ele>
        <time>2019-05-25T08:31:00Z</time>
      </trkpt>
      <trkpt lat="45.07573" lon="4.51536">
        <ele>720</ele>
        <time>2019-05-25T08:31:06Z</time>
      </trkpt>
      <trkpt lat="45.07559" lon="4.51566">
        <ele>722</ele>
        <time>2019-05-25T08:31:12Z</time>
      </trkpt>
      <trkpt lat="45.0755" lon="4.51599">
        <ele>723</ele>
        <time>2019-05-25T08:31:18Z</time>
      </trkpt>
      <trkpt lat="45.07558" lon="4.51634">
        <ele>725</ele>
        <time>2019-05-25T08:31:24Z</time>
      </trkpt>
      <trkpt lat="45.07558" lon="4.51667">
        <ele>726</ele>
        <time>2019-05-25T08:31:30Z</time>
      </trkpt>
      <trkpt lat="45.07551" lon="4.51703">
        <ele>727</ele>
        <time>2019-05-25T08:31:36Z</time>
      </trkpt>
      <trkpt lat="45.07545" lon="4.51729">
        <ele>728</ele>
        <time>2019-05-25T08:31:42Z</time>
      </trkpt>
      <trkpt lat="45.07536" lon="4.51759">
        <ele>729</ele>
        <time>2019-05-25T08:31:48Z</time>
      </trkpt>
      <trkpt lat="45.0753" lon="4.51789">
        <ele>731</ele>
        <time>2019-05-25T08:31:54Z</time>
      </trkpt>
      <trkpt lat="45.07526" lon="4.5182">
        <ele>732</ele>
        <time>2019-05-25T08:32:00Z</time>
      </trkpt>
      <trkpt lat="45.07518" lon="4.51845">
        <ele>733</ele>
        <time>2019-05-25T08:32:06Z</time>
      </trkpt>
      <trkpt lat="45.07538" lon="4.51838">
        <ele>734</ele>
        <time>2019-05-25T08:32:12Z</time>
      </trkpt>
      <trkpt lat="45.07558" lon="4.51816">
        <ele>736</ele>
        <time>2019-05-25T08:32:18Z</time>
      </trkpt>
      <trkpt lat="45.07582" lon="4.51795">
        <ele>737</ele>
        <time>2019-05-25T08:32:24Z</time>
      </trkpt>
      <trkpt lat="45.07603" lon="4.51777">
        <ele>738</ele>
        <time>2019-05-25T08:32:30Z</time>
      </trkpt>
      <trkpt lat="45.07626" lon="4.51756">
        <ele>739</ele>
        <time>2019-05-25T08:32:36Z</time>
      </trkpt>
      <trkpt lat="45.07647" lon="4.51737">
        <ele>740</ele>
        <time>2019-05-25T08:32:42Z</time>
      </trkpt>
      <trkpt lat="45.07668" lon="4.51718">
        <ele>741</ele>
        <time>2019-05-25T08:32:48Z</time>
      </trkpt>
      <trkpt lat="45.07687" lon="4.517">
        <ele>742</ele>
        <time>2019-05-25T08:32:54Z</time>
      </trkpt>
      <trkpt lat="45.07706" lon="4.51682">
        <ele>744</ele>
        <time>2019-05-25T08:33:00Z</time>
      </trkpt>
      <trkpt lat="45.07721" lon="4.51669">
        <ele>745</ele>
        <time>2019-05-25T08:33:06Z</time>
      </trkpt>
      <trkpt lat="45.07742" lon="4.51666">
        <ele>746</ele>
        <time>2019-05-25T08:33:12Z</time>
      </trkpt>
      <trkpt lat="45.07761" lon="4.51684">
        <ele>748</ele>
        <time>2019-05-25T08:33:18Z</time>
      </trkpt>
      <trkpt lat="45.07776" lon="4.51707">
        <ele>749</ele>
        <time>2019-05-25T08:33:24Z</time>
      </trkpt>
      <trkpt lat="45.07792" lon="4.51728">
        <ele>749</ele>
        <time>2019-05-25T08:33:29Z</time>
      </trkpt>
      <trkpt lat="45.07805" lon="4.51745">
        <ele>750</ele>
        <time>2019-05-25T08:33:34Z</time>
      </trkpt>
      <trkpt lat="45.07817" lon="4.51761">
        <ele>751</ele>
        <time>2019-05-25T08:33:40Z</time>
      </trkpt>
      <trkpt lat="45.07832" lon="4.5178">
        <ele>753</ele>
        <time>2019-05-25T08:33:46Z</time>
      </trkpt>
      <trkpt lat="45.07848" lon="4.51803">
        <ele>754</ele>
        <time>2019-05-25T08:33:52Z</time>
      </trkpt>
      <trkpt lat="45.0786" lon="4.51829">
        <ele>755</ele>
        <time>2019-05-25T08:33:58Z</time>
      </trkpt>
      <trkpt lat="45.0787" lon="4.51857">
        <ele>756</ele>
        <time>2019-05-25T08:34:04Z</time>
      </trkpt>
      <trkpt lat="45.07875" lon="4.51888">
        <ele>757</ele>
        <time>2019-05-25T08:34:10Z</time>
      </trkpt>
      <trkpt lat="45.07877" lon="4.5192">
        <ele>759</ele>
        <time>2019-05-25T08:34:16Z</time>
      </trkpt>
      <trkpt lat="45.07876" lon="4.5195">
        <ele>760</ele>
        <time>2019-05-25T08:34:22Z</time>
      </trkpt>
      <trkpt lat="45.07871" lon="4.51979">
        <ele>761</ele>
        <time>2019-05-25T08:34:28Z</time>
      </trkpt>
      <trkpt lat="45.07863" lon="4.52004">
        <ele>763</ele>
        <time>2019-05-25T08:34:34Z</time>
      </trkpt>
      <trkpt lat="45.07854" lon="4.52029">
        <ele>764</ele>
        <time>2019-05-25T08:34:40Z</time>
      </trkpt>
      <trkpt lat="45.07845" lon="4.52052">
        <ele>766</ele>
        <time>2019-05-25T08:34:46Z</time>
      </trkpt>
      <trkpt lat="45.07834" lon="4.52073">
        <ele>766</ele>
        <time>2019-05-25T08:34:52Z</time>
      </trkpt>
      <trkpt lat="45.07824" lon="4.521">
        <ele>768</ele>
        <time>2019-05-25T08:34:58Z</time>
      </trkpt>
      <trkpt lat="45.07821" lon="4.52131">
        <ele>769</ele>
        <time>2019-05-25T08:35:04Z</time>
      </trkpt>
      <trkpt lat="45.07832" lon="4.52161">
        <ele>770</ele>
        <time>2019-05-25T08:35:10Z</time>
      </trkpt>
      <trkpt lat="45.07847" lon="4.52187">
        <ele>772</ele>
        <time>2019-05-25T08:35:16Z</time>
      </trkpt>
      <trkpt lat="45.07854" lon="4.52219">
        <ele>773</ele>
        <time>2019-05-25T08:35:22Z</time>
      </trkpt>
      <trkpt lat="45.0786" lon="4.52248">
        <ele>774</ele>
        <time>2019-05-25T08:35:28Z</time>
      </trkpt>
      <trkpt lat="45.07864" lon="4.52275">
        <ele>775</ele>
        <time>2019-05-25T08:35:34Z</time>
      </trkpt>
      <trkpt lat="45.07865" lon="4.523">
        <ele>776</ele>
        <time>2019-05-25T08:35:40Z</time>
      </trkpt>
      <trkpt lat="45.07868" lon="4.52328">
        <ele>777</ele>
        <time>2019-05-25T08:35:46Z</time>
      </trkpt>
      <trkpt lat="45.07878" lon="4.52351">
        <ele>778</ele>
        <time>2019-05-25T08:35:52Z</time>
      </trkpt>
      <trkpt lat="45.07892" lon="4.52331">
        <ele>780</ele>
        <time>2019-05-25T08:35:58Z</time>
      </trkpt>
      <trkpt lat="45.07902" lon="4.52303">
        <ele>781</ele>
        <time>2019-05-25T08:36:04Z</time>
      </trkpt>
      <trkpt lat="45.07916" lon="4.52278">
        <ele>782</ele>
        <time>2019-05-25T08:36:10Z</time>
      </trkpt>
      <trkpt lat="45.0793" lon="4.52251">
        <ele>783</ele>
        <time>2019-05-25T08:36:16Z</time>
      </trkpt>
      <trkpt lat="45.0794" lon="4.52224">
        <ele>784</ele>
        <time>2019-05-25T08:36:22Z</time>
      </trkpt>
      <trkpt lat="45.07952" lon="4.522">
        <ele>785</ele>
        <time>2019-05-25T08:36:28Z</time>
      </trkpt>
      <trkpt lat="45.0797" lon="4.52182">
        <ele>786</ele>
        <time>2019-05-25T08:36:34Z</time>
      </trkpt>
      <trkpt lat="45.07987" lon="4.52166">
        <ele>787</ele>
        <time>2019-05-25T08:36:40Z</time>
      </trkpt>
      <trkpt lat="45.08008" lon="4.52159">
        <ele>788</ele>
        <time>2019-05-25T08:36:46Z</time>
      </trkpt>
      <trkpt lat="45.08029" lon="4.52152">
        <ele>789</ele>
        <time>2019-05-25T08:36:52Z</time>
      </trkpt>
      <trkpt lat="45.08049" lon="4.52144">
        <ele>790</ele>
        <time>2019-05-25T08:36:58Z</time>
      </trkpt>
      <trkpt lat="45.08075" lon="4.52139">
        <ele>791</ele>
        <time>2019-05-25T08:37:04Z</time>
      </trkpt>
      <trkpt lat="45.08101" lon="4.52136">
        <ele>792</ele>
        <time>2019-05-25T08:37:10Z</time>
      </trkpt>
      <trkpt lat="45.08124" lon="4.52135">
        <ele>793</ele>
        <time>2019-05-25T08:37:15Z</time>
      </trkpt>
      <trkpt lat="45.08137" lon="4.52132">
        <ele>794</ele>
        <time>2019-05-25T08:37:20Z</time>
      </trkpt>
      <trkpt lat="45.08155" lon="4.5212">
        <ele>795</ele>
        <time>2019-05-25T08:37:26Z</time>
      </trkpt>
      <trkpt lat="45.08166" lon="4.52088">
        <ele>796</ele>
        <time>2019-05-25T08:37:32Z</time>
      </trkpt>
      <trkpt lat="45.08175" lon="4.52054">
        <ele>797</ele>
        <time>2019-05-25T08:37:38Z</time>
      </trkpt>
      <trkpt lat="45.08169" lon="4.52019">
        <ele>798</ele>
        <time>2019-05-25T08:37:44Z</time>
      </trkpt>
      <trkpt lat="45.08159" lon="4.51984">
        <ele>799</ele>
        <time>2019-05-25T08:37:50Z</time>
      </trkpt>
      <trkpt lat="45.08154" lon="4.51947">
        <ele>799</ele>
        <time>2019-05-25T08:37:56Z</time>
      </trkpt>
      <trkpt lat="45.0816" lon="4.51909">
        <ele>800</ele>
        <time>2019-05-25T08:38:02Z</time>
      </trkpt>
      <trkpt lat="45.08171" lon="4.51877">
        <ele>802</ele>
        <time>2019-05-25T08:38:08Z</time>
      </trkpt>
      <trkpt lat="45.08187" lon="4.51849">
        <ele>803</ele>
        <time>2019-05-25T08:38:14Z</time>
      </trkpt>
      <trkpt lat="45.08209" lon="4.51843">
        <ele>804</ele>
        <time>2019-05-25T08:38:20Z</time>
      </trkpt>
      <trkpt lat="45.0823" lon="4.51864">
        <ele>806</ele>
        <time>2019-05-25T08:38:26Z</time>
      </trkpt>
      <trkpt lat="45.08245" lon="4.51892">
        <ele>807</ele>
        <time>2019-05-25T08:38:32Z</time>
      </trkpt>
      <trkpt lat="45.08262" lon="4.51921">
        <ele>808</ele>
        <time>2019-05-25T08:38:38Z</time>
      </trkpt>
      <trkpt lat="45.08278" lon="4.51954">
        <ele>810</ele>
        <time>2019-05-25T08:38:44Z</time>
      </trkpt>
      <trkpt lat="45.08297" lon="4.51984">
        <ele>811</ele>
        <time>2019-05-25T08:38:50Z</time>
      </trkpt>
      <trkpt lat="45.08314" lon="4.52013">
        <ele>812</ele>
        <time>2019-05-25T08:38:56Z</time>
      </trkpt>
      <trkpt lat="45.08333" lon="4.5204">
        <ele>814</ele>
        <time>2019-05-25T08:39:02Z</time>
      </trkpt>
      <trkpt lat="45.08353" lon="4.52063">
        <ele>816</ele>
        <time>2019-05-25T08:39:08Z</time>
      </trkpt>
      <trkpt lat="45.08373" lon="4.52081">
        <ele>817</ele>
        <time>2019-05-25T08:39:14Z</time>
      </trkpt>
      <trkpt lat="45.08397" lon="4.52104">
        <ele>819</ele>
        <time>2019-05-25T08:39:20Z</time>
      </trkpt>
      <trkpt lat="45.08418" lon="4.52119">
        <ele>820</ele>
        <time>2019-05-25T08:39:26Z</time>
      </trkpt>
      <trkpt lat="45.08437" lon="4.52127">
        <ele>821</ele>
        <time>2019-05-25T08:39:32Z</time>
      </trkpt>
      <trkpt lat="45.08458" lon="4.52136">
        <ele>823</ele>
        <time>2019-05-25T08:39:38Z</time>
      </trkpt>
      <trkpt lat="45.08481" lon="4.52147">
        <ele>824</ele>
        <time>2019-05-25T08:39:44Z</time>
      </trkpt>
      <trkpt lat="45.08503" lon="4.52164">
        <ele>825</ele>
        <time>2019-05-25T08:39:50Z</time>
      </trkpt>
      <trkpt lat="45.08523" lon="4.52184">
        <ele>826</ele>
        <time>2019-05-25T08:39:56Z</time>
      </trkpt>
      <trkpt lat="45.0854" lon="4.52209">
        <ele>828</ele>
        <time>2019-05-25T08:40:02Z</time>
      </trkpt>
      <trkpt lat="45.08547" lon="4.5224">
        <ele>829</ele>
        <time>2019-05-25T08:40:08Z</time>
      </trkpt>
      <trkpt lat="45.08551" lon="4.52273">
        <ele>831</ele>
        <time>2019-05-25T08:40:14Z</time>
      </trkpt>
      <trkpt lat="45.08551" lon="4.52304">
        <ele>832</ele>
        <time>2019-05-25T08:40:20Z</time>
      </trkpt>
      <trkpt lat="45.08555" lon="4.52339">
        <ele>833</ele>
        <time>2019-05-25T08:40:26Z</time>
      </trkpt>
      <trkpt lat="45.08573" lon="4.52356">
        <ele>835</ele>
        <time>2019-05-25T08:40:32Z</time>
      </trkpt>
      <trkpt lat="45.08596" lon="4.52364">
        <ele>836</ele>
        <time>2019-05-25T08:40:38Z</time>
      </trkpt>
      <trkpt lat="45.08619" lon="4.52385">
        <ele>837</ele>
        <time>2019-05-25T08:40:44Z</time>
      </trkpt>
      <trkpt lat="45.08638" lon="4.524">
        <ele>838</ele>
        <time>2019-05-25T08:40:50Z</time>
      </trkpt>
      <trkpt lat="45.08658" lon="4.52406">
        <ele>839</ele>
        <time>2019-05-25T08:40:56Z</time>
      </trkpt>
      <trkpt lat="45.08678" lon="4.5241">
        <ele>841</ele>
        <time>2019-05-25T08:41:02Z</time>
      </trkpt>
      <trkpt lat="45.08703" lon="4.52415">
        <ele>842</ele>
        <time>2019-05-25T08:41:08Z</time>
      </trkpt>
      <trkpt lat="45.08729" lon="4.52417">
        <ele>843</ele>
        <time>2019-05-25T08:41:13Z</time>
      </trkpt>
      <trkpt lat="45.08753" lon="4.52421">
        <ele>845</ele>
        <time>2019-05-25T08:41:19Z</time>
      </trkpt>
      <trkpt lat="45.08777" lon="4.52431">
        <ele>846</ele>
        <time>2019-05-25T08:41:25Z</time>
      </trkpt>
      <trkpt lat="45.08796" lon="4.52439">
        <ele>848</ele>
        <time>2019-05-25T08:41:30Z</time>
      </trkpt>
      <trkpt lat="45.08815" lon="4.52452">
        <ele>849</ele>
        <time>2019-05-25T08:41:36Z</time>
      </trkpt>
      <trkpt lat="45.08832" lon="4.52468">
        <ele>850</ele>
        <time>2019-05-25T08:41:42Z</time>
      </trkpt>
      <trkpt lat="45.08852" lon="4.5248">
        <ele>852</ele>
        <time>2019-05-25T08:41:48Z</time>
      </trkpt>
      <trkpt lat="45.08873" lon="4.52483">
        <ele>854</ele>
        <time>2019-05-25T08:41:54Z</time>
      </trkpt>
      <trkpt lat="45.08899" lon="4.52493">
        <ele>855</ele>
        <time>2019-05-25T08:42:00Z</time>
      </trkpt>
      <trkpt lat="45.08923" lon="4.52505">
        <ele>856</ele>
        <time>2019-05-25T08:42:06Z</time>
      </trkpt>
      <trkpt lat="45.08948" lon="4.52514">
        <ele>857</ele>
        <time>2019-05-25T08:42:12Z</time>
      </trkpt>
      <trkpt lat="45.08971" lon="4.52514">
        <ele>859</ele>
        <time>2019-05-25T08:42:18Z</time>
      </trkpt>
      <trkpt lat="45.08994" lon="4.52511">
        <ele>860</ele>
        <time>2019-05-25T08:42:24Z</time>
      </trkpt>
      <trkpt lat="45.09021" lon="4.52503">
        <ele>861</ele>
        <time>2019-05-25T08:42:30Z</time>
      </trkpt>
      <trkpt lat="45.09046" lon="4.52479">
        <ele>862</ele>
        <time>2019-05-25T08:42:36Z</time>
      </trkpt>
      <trkpt lat="45.09063" lon="4.52454">
        <ele>864</ele>
        <time>2019-05-25T08:42:42Z</time>
      </trkpt>
      <trkpt lat="45.09076" lon="4.52422">
        <ele>864</ele>
        <time>2019-05-25T08:42:48Z</time>
      </trkpt>
      <trkpt lat="45.09087" lon="4.52388">
        <ele>866</ele>
        <time>2019-05-25T08:42:54Z</time>
      </trkpt>
      <trkpt lat="45.09098" lon="4.52355">
        <ele>867</ele>
        <time>2019-05-25T08:43:00Z</time>
      </trkpt>
      <trkpt lat="45.09118" lon="4.52334">
        <ele>868</ele>
        <time>2019-05-25T08:43:06Z</time>
      </trkpt>
      <trkpt lat="45.0914" lon="4.52355">
        <ele>869</ele>
        <time>2019-05-25T08:43:12Z</time>
      </trkpt>
      <trkpt lat="45.09151" lon="4.5239">
        <ele>870</ele>
        <time>2019-05-25T08:43:18Z</time>
      </trkpt>
      <trkpt lat="45.09155" lon="4.52433">
        <ele>872</ele>
        <time>2019-05-25T08:43:24Z</time>
      </trkpt>
      <trkpt lat="45.09154" lon="4.52462">
        <ele>873</ele>
        <time>2019-05-25T08:43:30Z</time>
      </trkpt>
      <trkpt lat="45.09153" lon="4.52497">
        <ele>874</ele>
        <time>2019-05-25T08:43:36Z</time>
      </trkpt>
      <trkpt lat="45.09151" lon="4.52529">
        <ele>876</ele>
        <time>2019-05-25T08:43:42Z</time>
      </trkpt>
      <trkpt lat="45.09147" lon="4.52551">
        <ele>876</ele>
        <time>2019-05-25T08:43:48Z</time>
      </trkpt>
      <trkpt lat="45.09149" lon="4.52589">
        <ele>877</ele>
        <time>2019-05-25T08:43:54Z</time>
      </trkpt>
      <trkpt lat="45.0915" lon="4.5263">
        <ele>877</ele>
        <time>2019-05-25T08:44:00Z</time>
      </trkpt>
      <trkpt lat="45.09159" lon="4.52669">
        <ele>878</ele>
        <time>2019-05-25T08:44:06Z</time>
      </trkpt>
      <trkpt lat="45.09174" lon="4.52704">
        <ele>878</ele>
        <time>2019-05-25T08:44:12Z</time>
      </trkpt>
      <trkpt lat="45.09192" lon="4.52737">
        <ele>879</ele>
        <time>2019-05-25T08:44:18Z</time>
      </trkpt>
      <trkpt lat="45.09215" lon="4.52762">
        <ele>880</ele>
        <time>2019-05-25T08:44:23Z</time>
      </trkpt>
      <trkpt lat="45.09238" lon="4.52771">
        <ele>881</ele>
        <time>2019-05-25T08:44:28Z</time>
      </trkpt>
      <trkpt lat="45.09259" lon="4.5278">
        <ele>882</ele>
        <time>2019-05-25T08:44:33Z</time>
      </trkpt>
      <trkpt lat="45.09279" lon="4.52796">
        <ele>883</ele>
        <time>2019-05-25T08:44:39Z</time>
      </trkpt>
      <trkpt lat="45.09299" lon="4.52824">
        <ele>884</ele>
        <time>2019-05-25T08:44:45Z</time>
      </trkpt>
      <trkpt lat="45.09314" lon="4.52857">
        <ele>885</ele>
        <time>2019-05-25T08:44:51Z</time>
      </trkpt>
      <trkpt lat="45.09322" lon="4.52899">
        <ele>887</ele>
        <time>2019-05-25T08:44:57Z</time>
      </trkpt>
      <trkpt lat="45.09298" lon="4.52918">
        <ele>888</ele>
        <time>2019-05-25T08:45:03Z</time>
      </trkpt>
      <trkpt lat="45.09266" lon="4.5292">
        <ele>889</ele>
        <time>2019-05-25T08:45:09Z</time>
      </trkpt>
      <trkpt lat="45.09238" lon="4.52936">
        <ele>889</ele>
        <time>2019-05-25T08:45:15Z</time>
      </trkpt>
      <trkpt lat="45.09218" lon="4.52956">
        <ele>890</ele>
        <time>2019-05-25T08:45:21Z</time>
      </trkpt>
      <trkpt lat="45.09205" lon="4.52996">
        <ele>892</ele>
        <time>2019-05-25T08:45:27Z</time>
      </trkpt>
      <trkpt lat="45.09219" lon="4.53036">
        <ele>893</ele>
        <time>2019-05-25T08:45:33Z</time>
      </trkpt>
      <trkpt lat="45.09244" lon="4.53068">
        <ele>894</ele>
        <time>2019-05-25T08:45:39Z</time>
      </trkpt>
      <trkpt lat="45.09266" lon="4.53099">
        <ele>895</ele>
        <time>2019-05-25T08:45:45Z</time>
      </trkpt>
      <trkpt lat="45.09279" lon="4.53134">
        <ele>896</ele>
        <time>2019-05-25T08:45:51Z</time>
      </trkpt>
      <trkpt lat="45.09293" lon="4.53172">
        <ele>897</ele>
        <time>2019-05-25T08:45:57Z</time>
      </trkpt>
      <trkpt lat="45.09305" lon="4.53209">
        <ele>898</ele>
        <time>2019-05-25T08:46:03Z</time>
      </trkpt>
      <trkpt lat="45.09317" lon="4.53247">
        <ele>900</ele>
        <time>2019-05-25T08:46:09Z</time>
      </trkpt>
      <trkpt lat="45.09326" lon="4.53292">
        <ele>901</ele>
        <time>2019-05-25T08:46:15Z</time>
      </trkpt>
      <trkpt lat="45.09331" lon="4.53334">
        <ele>901</ele>
        <time>2019-05-25T08:46:21Z</time>
      </trkpt>
      <trkpt lat="45.09333" lon="4.53377">
        <ele>903</ele>
        <time>2019-05-25T08:46:27Z</time>
      </trkpt>
      <trkpt lat="45.0934" lon="4.5342">
        <ele>904</ele>
        <time>2019-05-25T08:46:33Z</time>
      </trkpt>
      <trkpt lat="45.0937" lon="4.53439">
        <ele>905</ele>
        <time>2019-05-25T08:46:39Z</time>
      </trkpt>
      <trkpt lat="45.09398" lon="4.53455">
        <ele>905</ele>
        <time>2019-05-25T08:46:45Z</time>
      </trkpt>
      <trkpt lat="45.09429" lon="4.53467">
        <ele>907</ele>
        <time>2019-05-25T08:46:51Z</time>
      </trkpt>
      <trkpt lat="45.09458" lon="4.53481">
        <ele>907</ele>
        <time>2019-05-25T08:46:56Z</time>
      </trkpt>
      <trkpt lat="45.09481" lon="4.53497">
        <ele>908</ele>
        <time>2019-05-25T08:47:01Z</time>
      </trkpt>
      <trkpt lat="45.09501" lon="4.53519">
        <ele>909</ele>
        <time>2019-05-25T08:47:07Z</time>
      </trkpt>
      <trkpt lat="45.09521" lon="4.53552">
        <ele>910</ele>
        <time>2019-05-25T08:47:13Z</time>
      </trkpt>
      <trkpt lat="45.09532" lon="4.53592">
        <ele>911</ele>
        <time>2019-05-25T08:47:19Z</time>
      </trkpt>
      <trkpt lat="45.09537" lon="4.53631">
        <ele>912</ele>
        <time>2019-05-25T08:47:25Z</time>
      </trkpt>
      <trkpt lat="45.09541" lon="4.53671">
        <ele>913</ele>
        <time>2019-05-25T08:47:31Z</time>
      </trkpt>
      <trkpt lat="45.09554" lon="4.53711">
        <ele>914</ele>
        <time>2019-05-25T08:47:37Z</time>
      </trkpt>
      <trkpt lat="45.0958" lon="4.53733">
        <ele>915</ele>
        <time>2019-05-25T08:47:43Z</time>
      </trkpt>
      <trkpt lat="45.09609" lon="4.53745">
        <ele>916</ele>
        <time>2019-05-25T08:47:49Z</time>
      </trkpt>
      <trkpt lat="45.09637" lon="4.53749">
        <ele>917</ele>
        <time>2019-05-25T08:47:55Z</time>
      </trkpt>
      <trkpt lat="45.09666" lon="4.53747">
        <ele>918</ele>
        <time>2019-05-25T08:48:01Z</time>
      </trkpt>
      <trkpt lat="45.09697" lon="4.53745">
        <ele>919</ele>
        <time>2019-05-25T08:48:07Z</time>
      </trkpt>
      <trkpt lat="45.09727" lon="4.53747">
        <ele>919</ele>
        <time>2019-05-25T08:48:12Z</time>
      </trkpt>
      <trkpt lat="45.09753" lon="4.53756">
        <ele>920</ele>
        <time>2019-05-25T08:48:17Z</time>
      </trkpt>
      <trkpt lat="45.09778" lon="4.53768">
        <ele>921</ele>
        <time>2019-05-25T08:48:22Z</time>
      </trkpt>
      <trkpt lat="45.09802" lon="4.53788">
        <ele>922</ele>
        <time>2019-05-25T08:48:27Z</time>
      </trkpt>
      <trkpt lat="45.09822" lon="4.53809">
        <ele>923</ele>
        <time>2019-05-25T08:48:32Z</time>
      </trkpt>
      <trkpt lat="45.09842" lon="4.53831">
        <ele>923</ele>
        <time>2019-05-25T08:48:37Z</time>
      </trkpt>
      <trkpt lat="45.09866" lon="4.53858">
        <ele>925</ele>
        <time>2019-05-25T08:48:43Z</time>
      </trkpt>
      <trkpt lat="45.09889" lon="4.53889">
        <ele>926</ele>
        <time>2019-05-25T08:48:49Z</time>
      </trkpt>
      <trkpt lat="45.09911" lon="4.5392">
        <ele>927</ele>
        <time>2019-05-25T08:48:55Z</time>
      </trkpt>
      <trkpt lat="45.09926" lon="4.53945">
        <ele>928</ele>
        <time>2019-05-25T08:49:00Z</time>
      </trkpt>
      <trkpt lat="45.09944" lon="4.53978">
        <ele>929</ele>
        <time>2019-05-25T08:49:06Z</time>
      </trkpt>
      <trkpt lat="45.09958" lon="4.54007">
        <ele>930</ele>
        <time>2019-05-25T08:49:11Z</time>
      </trkpt>
      <trkpt lat="45.09973" lon="4.54039">
        <ele>930</ele>
        <time>2019-05-25T08:49:16Z</time>
      </trkpt>
      <trkpt lat="45.09997" lon="4.54068">
        <ele>931</ele>
        <time>2019-05-25T08:49:22Z</time>
      </trkpt>
      <trkpt lat="45.1002" lon="4.54082">
        <ele>932</ele>
        <time>2019-05-25T08:49:27Z</time>
      </trkpt>
      <trkpt lat="45.10051" lon="4.5409">
        <ele>933</ele>
        <time>2019-05-25T08:49:33Z</time>
      </trkpt>
      <trkpt lat="45.10078" lon="4.54097">
        <ele>934</ele>
        <time>2019-05-25T08:49:38Z</time>
      </trkpt>
      <trkpt lat="45.10102" lon="4.54115">
        <ele>934</ele>
        <time>2019-05-25T08:49:43Z</time>
      </trkpt>
      <trkpt lat="45.10136" lon="4.54144">
        <ele>934</ele>
        <time>2019-05-25T08:49:49Z</time>
      </trkpt>
      <trkpt lat="45.10181" lon="4.54155">
        <ele>931</ele>
        <time>2019-05-25T08:49:55Z</time>
      </trkpt>
      <trkpt lat="45.10224" lon="4.54174">
        <ele>929</ele>
        <time>2019-05-25T08:50:01Z</time>
      </trkpt>
      <trkpt lat="45.10246" lon="4.5419">
        <ele>928</ele>
        <time>2019-05-25T08:50:07Z</time>
      </trkpt>
      <trkpt lat="45.10236" lon="4.54183">
        <ele>928</ele>
        <time>2019-05-25T08:50:12Z</time>
      </trkpt>
      <trkpt lat="45.10217" lon="4.54173">
        <ele>927</ele>
        <time>2019-05-25T08:50:17Z</time>
      </trkpt>
      <trkpt lat="45.10202" lon="4.54168">
        <ele>927</ele>
        <time>2019-05-25T08:50:22Z</time>
      </trkpt>
      <trkpt lat="45.10181" lon="4.54165">
        <ele>926</ele>
        <time>2019-05-25T08:50:27Z</time>
      </trkpt>
      <trkpt lat="45.10155" lon="4.54168">
        <ele>926</ele>
        <time>2019-05-25T08:50:32Z</time>
      </trkpt>
      <trkpt lat="45.10126" lon="4.54199">
        <ele>926</ele>
        <time>2019-05-25T08:50:37Z</time>
      </trkpt>
      <trkpt lat="45.10114" lon="4.54272">
        <ele>924</ele>
        <time>2019-05-25T08:50:43Z</time>
      </trkpt>
      <trkpt lat="45.10093" lon="4.54328">
        <ele>920</ele>
        <time>2019-05-25T08:50:48Z</time>
      </trkpt>
      <trkpt lat="45.10059" lon="4.5437">
        <ele>918</ele>
        <time>2019-05-25T08:50:53Z</time>
      </trkpt>
      <trkpt lat="45.10045" lon="4.54429">
        <ele>917</ele>
        <time>2019-05-25T08:50:58Z</time>
      </trkpt>
      <trkpt lat="45.10054" lon="4.54498">
        <ele>915</ele>
        <time>2019-05-25T08:51:03Z</time>
      </trkpt>
      <trkpt lat="45.10032" lon="4.54556">
        <ele>913</ele>
        <time>2019-05-25T08:51:08Z</time>
      </trkpt>
      <trkpt lat="45.10021" lon="4.54624">
        <ele>911</ele>
        <time>2019-05-25T08:51:13Z</time>
      </trkpt>
      <trkpt lat="45.10021" lon="4.547">
        <ele>909</ele>
        <time>2019-05-25T08:51:18Z</time>
      </trkpt>
      <trkpt lat="45.10039" lon="4.54771">
        <ele>905</ele>
        <time>2019-05-25T08:51:23Z</time>
      </trkpt>
      <trkpt lat="45.1007" lon="4.54837">
        <ele>903</ele>
        <time>2019-05-25T08:51:28Z</time>
      </trkpt>
      <trkpt lat="45.10099" lon="4.54902">
        <ele>899</ele>
        <time>2019-05-25T08:51:33Z</time>
      </trkpt>
      <trkpt lat="45.10129" lon="4.54966">
        <ele>897</ele>
        <time>2019-05-25T08:51:38Z</time>
      </trkpt>
      <trkpt lat="45.10174" lon="4.55">
        <ele>893</ele>
        <time>2019-05-25T08:51:43Z</time>
      </trkpt>
      <trkpt lat="45.10222" lon="4.55065">
        <ele>889</ele>
        <time>2019-05-25T08:51:49Z</time>
      </trkpt>
      <trkpt lat="45.10268" lon="4.55111">
        <ele>884</ele>
        <time>2019-05-25T08:51:54Z</time>
      </trkpt>
      <trkpt lat="45.10314" lon="4.55152">
        <ele>880</ele>
        <time>2019-05-25T08:51:59Z</time>
      </trkpt>
      <trkpt lat="45.10331" lon="4.55222">
        <ele>877</ele>
        <time>2019-05-25T08:52:04Z</time>
      </trkpt>
      <trkpt lat="45.10324" lon="4.55297">
        <ele>872</ele>
        <time>2019-05-25T08:52:09Z</time>
      </trkpt>
      <trkpt lat="45.10341" lon="4.55371">
        <ele>870</ele>
        <time>2019-05-25T08:52:14Z</time>
      </trkpt>
      <trkpt lat="45.10373" lon="4.55437">
        <ele>864</ele>
        <time>2019-05-25T08:52:19Z</time>
      </trkpt>
      <trkpt lat="45.10396" lon="4.55512">
        <ele>860</ele>
        <time>2019-05-25T08:52:24Z</time>
      </trkpt>
      <trkpt lat="45.10413" lon="4.55592">
        <ele>857</ele>
        <time>2019-05-25T08:52:29Z</time>
      </trkpt>
      <trkpt lat="45.1045" lon="4.5566">
        <ele>853</ele>
        <time>2019-05-25T08:52:34Z</time>
      </trkpt>
      <trkpt lat="45.10473" lon="4.55739">
        <ele>849</ele>
        <time>2019-05-25T08:52:39Z</time>
      </trkpt>
      <trkpt lat="45.10493" lon="4.55823">
        <ele>845</ele>
        <time>2019-05-25T08:52:44Z</time>
      </trkpt>
      <trkpt lat="45.10508" lon="4.55908">
        <ele>841</ele>
        <time>2019-05-25T08:52:49Z</time>
      </trkpt>
      <trkpt lat="45.10506" lon="4.55998">
        <ele>837</ele>
        <time>2019-05-25T08:52:54Z</time>
      </trkpt>
      <trkpt lat="45.10508" lon="4.56089">
        <ele>833</ele>
        <time>2019-05-25T08:52:59Z</time>
      </trkpt>
      <trkpt lat="45.10521" lon="4.56182">
        <ele>827</ele>
        <time>2019-05-25T08:53:04Z</time>
      </trkpt>
      <trkpt lat="45.10522" lon="4.56269">
        <ele>823</ele>
        <time>2019-05-25T08:53:09Z</time>
      </trkpt>
      <trkpt lat="45.10508" lon="4.5636">
        <ele>819</ele>
        <time>2019-05-25T08:53:14Z</time>
      </trkpt>
      <trkpt lat="45.10489" lon="4.5645">
        <ele>817</ele>
        <time>2019-05-25T08:53:19Z</time>
      </trkpt>
      <trkpt lat="45.10465" lon="4.5653">
        <ele>814</ele>
        <time>2019-05-25T08:53:24Z</time>
      </trkpt>
      <trkpt lat="45.1044" lon="4.56607">
        <ele>810</ele>
        <time>2019-05-25T08:53:29Z</time>
      </trkpt>
      <trkpt lat="45.10411" lon="4.56682">
        <ele>808</ele>
        <time>2019-05-25T08:53:34Z</time>
      </trkpt>
      <trkpt lat="45.10389" lon="4.5676">
        <ele>806</ele>
        <time>2019-05-25T08:53:39Z</time>
      </trkpt>
      <trkpt lat="45.10373" lon="4.56844">
        <ele>803</ele>
        <time>2019-05-25T08:53:44Z</time>
      </trkpt>
      <trkpt lat="45.10357" lon="4.5693">
        <ele>799</ele>
        <time>2019-05-25T08:53:49Z</time>
      </trkpt>
      <trkpt lat="45.10344" lon="4.57014">
        <ele>795</ele>
        <time>2019-05-25T08:53:54Z</time>
      </trkpt>
      <trkpt lat="45.10325" lon="4.57093">
        <ele>793</ele>
        <time>2019-05-25T08:53:59Z</time>
      </trkpt>
      <trkpt lat="45.10317" lon="4.5717">
        <ele>792</ele>
        <time>2019-05-25T08:54:04Z</time>
      </trkpt>
      <trkpt lat="45.1031" lon="4.57244">
        <ele>790</ele>
        <time>2019-05-25T08:54:09Z</time>
      </trkpt>
      <trkpt lat="45.10291" lon="4.57305">
        <ele>788</ele>
        <time>2019-05-25T08:54:14Z</time>
      </trkpt>
      <trkpt lat="45.1028" lon="4.57371">
        <ele>788</ele>
        <time>2019-05-25T08:54:19Z</time>
      </trkpt>
      <trkpt lat="45.10255" lon="4.57421">
        <ele>786</ele>
        <time>2019-05-25T08:54:24Z</time>
      </trkpt>
      <trkpt lat="45.10206" lon="4.5742">
        <ele>785</ele>
        <time>2019-05-25T08:54:29Z</time>
      </trkpt>
      <trkpt lat="45.10158" lon="4.57428">
        <ele>783</ele>
        <time>2019-05-25T08:54:34Z</time>
      </trkpt>
      <trkpt lat="45.10125" lon="4.57476">
        <ele>782</ele>
        <time>2019-05-25T08:54:39Z</time>
      </trkpt>
      <trkpt lat="45.10099" lon="4.57533">
        <ele>781</ele>
        <time>2019-05-25T08:54:44Z</time>
      </trkpt>
      <trkpt lat="45.10066" lon="4.57586">
        <ele>779</ele>
        <time>2019-05-25T08:54:49Z</time>
      </trkpt>
      <trkpt lat="45.10027" lon="4.57636">
        <ele>776</ele>
        <time>2019-05-25T08:54:54Z</time>
      </trkpt>
      <trkpt lat="45.09987" lon="4.57686">
        <ele>772</ele>
        <time>2019-05-25T08:54:59Z</time>
      </trkpt>
      <trkpt lat="45.09965" lon="4.57756">
        <ele>771</ele>
        <time>2019-05-25T08:55:04Z</time>
      </trkpt>
      <trkpt lat="45.09977" lon="4.57832">
        <ele>767</ele>
        <time>2019-05-25T08:55:09Z</time>
      </trkpt>
      <trkpt lat="45.09994" lon="4.57906">
        <ele>765</ele>
        <time>2019-05-25T08:55:14Z</time>
      </trkpt>
      <trkpt lat="45.10009" lon="4.5798">
        <ele>761</ele>
        <time>2019-05-25T08:55:19Z</time>
      </trkpt>
      <trkpt lat="45.09995" lon="4.5806">
        <ele>758</ele>
        <time>2019-05-25T08:55:24Z</time>
      </trkpt>
      <trkpt lat="45.09968" lon="4.58131">
        <ele>756</ele>
        <time>2019-05-25T08:55:29Z</time>
      </trkpt>
      <trkpt lat="45.09938" lon="4.58196">
        <ele>752</ele>
        <time>2019-05-25T08:55:34Z</time>
      </trkpt>
      <trkpt lat="45.09908" lon="4.58261">
        <ele>749</ele>
        <time>2019-05-25T08:55:39Z</time>
      </trkpt>
      <trkpt lat="45.09875" lon="4.58317">
        <ele>745</ele>
        <time>2019-05-25T08:55:44Z</time>
      </trkpt>
      <trkpt lat="45.09834" lon="4.58355">
        <ele>742</ele>
        <time>2019-05-25T08:55:49Z</time>
      </trkpt>
      <trkpt lat="45.09831" lon="4.58429">
        <ele>740</ele>
        <time>2019-05-25T08:55:54Z</time>
      </trkpt>
      <trkpt lat="45.09829" lon="4.5851">
        <ele>737</ele>
        <time>2019-05-25T08:55:59Z</time>
      </trkpt>
      <trkpt lat="45.09801" lon="4.58579">
        <ele>733</ele>
        <time>2019-05-25T08:56:04Z</time>
      </trkpt>
      <trkpt lat="45.09746" lon="4.58606">
        <ele>731</ele>
        <time>2019-05-25T08:56:09Z</time>
      </trkpt>
      <trkpt lat="45.09697" lon="4.58641">
        <ele>727</ele>
        <time>2019-05-25T08:56:14Z</time>
      </trkpt>
      <trkpt lat="45.09643" lon="4.58628">
        <ele>724</ele>
        <time>2019-05-25T08:56:19Z</time>
      </trkpt>
      <trkpt lat="45.09595" lon="4.58592">
        <ele>722</ele>
        <time>2019-05-25T08:56:24Z</time>
      </trkpt>
      <trkpt lat="45.09547" lon="4.58555">
        <ele>718</ele>
        <time>2019-05-25T08:56:29Z</time>
      </trkpt>
      <trkpt lat="45.09498" lon="4.58525">
        <ele>716</ele>
        <time>2019-05-25T08:56:34Z</time>
      </trkpt>
      <trkpt lat="45.09448" lon="4.58546">
        <ele>714</ele>
        <time>2019-05-25T08:56:39Z</time>
      </trkpt>
      <trkpt lat="45.0941" lon="4.58598">
        <ele>711</ele>
        <time>2019-05-25T08:56:44Z</time>
      </trkpt>
      <trkpt lat="45.09381" lon="4.58661">
        <ele>709</ele>
        <time>2019-05-25T08:56:49Z</time>
      </trkpt>
      <trkpt lat="45.09378" lon="4.58737">
        <ele>705</ele>
        <time>2019-05-25T08:56:54Z</time>
      </trkpt>
      <trkpt lat="45.09391" lon="4.58817">
        <ele>703</ele>
        <time>2019-05-25T08:56:59Z</time>
      </trkpt>
      <trkpt lat="45.09399" lon="4.58898">
        <ele>700</ele>
        <time>2019-05-25T08:57:04Z</time>
      </trkpt>
      <trkpt lat="45.09403" lon="4.58982">
        <ele>697</ele>
        <time>2019-05-25T08:57:09Z</time>
      </trkpt>
      <trkpt lat="45.09409" lon="4.59065">
        <ele>695</ele>
        <time>2019-05-25T08:57:14Z</time>
      </trkpt>
      <trkpt lat="45.0942" lon="4.59146">
        <ele>691</ele>
        <time>2019-05-25T08:57:19Z</time>
      </trkpt>
      <trkpt lat="45.09418" lon="4.59228">
        <ele>688</ele>
        <time>2019-05-25T08:57:24Z</time>
      </trkpt>
      <trkpt lat="45.09429" lon="4.59306">
        <ele>684</ele>
        <time>2019-05-25T08:57:29Z</time>
      </trkpt>
      <trkpt lat="45.09464" lon="4.59368">
        <ele>683</ele>
        <time>2019-05-25T08:57:34Z</time>
      </trkpt>
      <trkpt lat="45.09509" lon="4.59412">
        <ele>680</ele>
        <time>2019-05-25T08:57:39Z</time>
      </trkpt>
      <trkpt lat="45.09548" lon="4.59464">
        <ele>678</ele>
        <time>2019-05-25T08:57:44Z</time>
      </trkpt>
      <trkpt lat="45.09569" lon="4.59529">
        <ele>675</ele>
        <time>2019-05-25T08:57:49Z</time>
      </trkpt>
      <trkpt lat="45.09583" lon="4.59596">
        <ele>674</ele>
        <time>2019-05-25T08:57:54Z</time>
      </trkpt>
      <trkpt lat="45.09612" lon="4.59657">
        <ele>671</ele>
        <time>2019-05-25T08:57:59Z</time>
      </trkpt>
      <trkpt lat="45.09645" lon="4.59717">
        <ele>669</ele>
        <time>2019-05-25T08:58:04Z</time>
      </trkpt>
      <trkpt lat="45.09656" lon="4.59789">
        <ele>666</ele>
        <time>2019-05-25T08:58:09Z</time>
      </trkpt>
      <trkpt lat="45.09662" lon="4.59863">
        <ele>664</ele>
        <time>2019-05-25T08:58:14Z</time>
      </trkpt>
      <trkpt lat="45.09667" lon="4.59942">
        <ele>662</ele>
        <time>2019-05-25T08:58:19Z</time>
      </trkpt>
      <trkpt lat="45.09652" lon="4.60021">
        <ele>660</ele>
        <time>2019-05-25T08:58:24Z</time>
      </trkpt>
      <trkpt lat="45.09639" lon="4.60098">
        <ele>657</ele>
        <time>2019-05-25T08:58:29Z</time>
      </trkpt>
      <trkpt lat="45.09633" lon="4.60178">
        <ele>653</ele>
        <time>2019-05-25T08:58:34Z</time>
      </trkpt>
      <trkpt lat="45.09603" lon="4.60247">
        <ele>649</ele>
        <time>2019-05-25T08:58:39Z</time>
      </trkpt>
      <trkpt lat="45.09565" lon="4.60306">
        <ele>647</ele>
        <time>2019-05-25T08:58:44Z</time>
      </trkpt>
      <trkpt lat="45.09539" lon="4.60359">
        <ele>643</ele>
        <time>2019-05-25T08:58:49Z</time>
      </trkpt>
      <trkpt lat="45.09558" lon="4.60435">
        <ele>641</ele>
        <time>2019-05-25T08:58:54Z</time>
      </trkpt>
      <trkpt lat="45.09563" lon="4.60515">
        <ele>639</ele>
        <time>2019-05-25T08:58:59Z</time>
      </trkpt>
      <trkpt lat="45.09568" lon="4.60592">
        <ele>637</ele>
        <time>2019-05-25T08:59:04Z</time>
      </trkpt>
      <trkpt lat="45.09575" lon="4.60664">
        <ele>634</ele>
        <time>2019-05-25T08:59:09Z</time>
      </trkpt>
      <trkpt lat="45.09588" lon="4.60733">
        <ele>632</ele>
        <time>2019-05-25T08:59:14Z</time>
      </trkpt>
      <trkpt lat="45.09602" lon="4.608">
        <ele>629</ele>
        <time>2019-05-25T08:59:19Z</time>
      </trkpt>
      <trkpt lat="45.0961" lon="4.60869">
        <ele>628</ele>
        <time>2019-05-25T08:59:24Z</time>
      </trkpt>
      <trkpt lat="45.09611" lon="4.60939">
        <ele>625</ele>
        <time>2019-05-25T08:59:29Z</time>
      </trkpt>
      <trkpt lat="45.09567" lon="4.6097">
        <ele>623</ele>
        <time>2019-05-25T08:59:34Z</time>
      </trkpt>
      <trkpt lat="45.09512" lon="4.60948">
        <ele>618</ele>
        <time>2019-05-25T08:59:39Z</time>
      </trkpt>
      <trkpt lat="45.09454" lon="4.6093">
        <ele>616</ele>
        <time>2019-05-25T08:59:44Z</time>
      </trkpt>
      <trkpt lat="45.09394" lon="4.60935">
        <ele>615</ele>
        <time>2019-05-25T08:59:49Z</time>
      </trkpt>
      <trkpt lat="45.09361" lon="4.60993">
        <ele>611</ele>
        <time>2019-05-25T08:59:54Z</time>
      </trkpt>
      <trkpt lat="45.09338" lon="4.61061">
        <ele>608</ele>
        <time>2019-05-25T08:59:59Z</time>
      </trkpt>
      <trkpt lat="45.09279" lon="4.61066">
        <ele>606</ele>
        <time>2019-05-25T09:00:04Z</time>
      </trkpt>
      <trkpt lat="45.09232" lon="4.61035">
        <ele>603</ele>
        <time>2019-05-25T09:00:09Z</time>
      </trkpt>
      <trkpt lat="45.092" lon="4.60972">
        <ele>600</ele>
        <time>2019-05-25T09:00:14Z</time>
      </trkpt>
      <trkpt lat="45.09161" lon="4.6093">
        <ele>597</ele>
        <time>2019-05-25T09:00:19Z</time>
      </trkpt>
      <trkpt lat="45.0912" lon="4.60905">
        <ele>595</ele>
        <time>2019-05-25T09:00:24Z</time>
      </trkpt>
      <trkpt lat="45.09087" lon="4.60893">
        <ele>592</ele>
        <time>2019-05-25T09:00:29Z</time>
      </trkpt>
      <trkpt lat="45.09058" lon="4.60889">
        <ele>590</ele>
        <time>2019-05-25T09:00:34Z</time>
      </trkpt>
      <trkpt lat="45.09032" lon="4.60909">
        <ele>588</ele>
        <time>2019-05-25T09:00:39Z</time>
      </trkpt>
      <trkpt lat="45.08992" lon="4.60948">
        <ele>587</ele>
        <time>2019-05-25T09:00:44Z</time>
      </trkpt>
      <trkpt lat="45.08952" lon="4.60997">
        <ele>585</ele>
        <time>2019-05-25T09:00:49Z</time>
      </trkpt>
      <trkpt lat="45.08898" lon="4.60991">
        <ele>582</ele>
        <time>2019-05-25T09:00:54Z</time>
      </trkpt>
      <trkpt lat="45.08873" lon="4.6092">
        <ele>579</ele>
        <time>2019-05-25T09:00:59Z</time>
      </trkpt>
      <trkpt lat="45.08874" lon="4.60841">
        <ele>578</ele>
        <time>2019-05-25T09:01:04Z</time>
      </trkpt>
      <trkpt lat="45.08874" lon="4.60767">
        <ele>575</ele>
        <time>2019-05-25T09:01:09Z</time>
      </trkpt>
      <trkpt lat="45.08867" lon="4.60694">
        <ele>571</ele>
        <time>2019-05-25T09:01:14Z</time>
      </trkpt>
      <trkpt lat="45.08835" lon="4.60636">
        <ele>569</ele>
        <time>2019-05-25T09:01:19Z</time>
      </trkpt>
      <trkpt lat="45.08783" lon="4.60607">
        <ele>566</ele>
        <time>2019-05-25T09:01:24Z</time>
      </trkpt>
      <trkpt lat="45.0874" lon="4.60554">
        <ele>564</ele>
        <time>2019-05-25T09:01:29Z</time>
      </trkpt>
      <trkpt lat="45.08693" lon="4.60509">
        <ele>562</ele>
        <time>2019-05-25T09:01:34Z</time>
      </trkpt>
      <trkpt lat="45.08641" lon="4.60486">
        <ele>560</ele>
        <time>2019-05-25T09:01:39Z</time>
      </trkpt>
      <trkpt lat="45.08597" lon="4.60522">
        <ele>556</ele>
        <time>2019-05-25T09:01:44Z</time>
      </trkpt>
      <trkpt lat="45.08571" lon="4.6059">
        <ele>555</ele>
        <time>2019-05-25T09:01:49Z</time>
      </trkpt>
      <trkpt lat="45.08548" lon="4.60659">
        <ele>552</ele>
        <time>2019-05-25T09:01:54Z</time>
      </trkpt>
      <trkpt lat="45.08544" lon="4.60733">
        <ele>550</ele>
        <time>2019-05-25T09:01:59Z</time>
      </trkpt>
      <trkpt lat="45.08571" lon="4.60801">
        <ele>547</ele>
        <time>2019-05-25T09:02:04Z</time>
      </trkpt>
      <trkpt lat="45.08577" lon="4.60877">
        <ele>545</ele>
        <time>2019-05-25T09:02:09Z</time>
      </trkpt>
      <trkpt lat="45.08581" lon="4.60952">
        <ele>542</ele>
        <time>2019-05-25T09:02:14Z</time>
      </trkpt>
      <trkpt lat="45.08583" lon="4.61025">
        <ele>541</ele>
        <time>2019-05-25T09:02:19Z</time>
      </trkpt>
      <trkpt lat="45.08606" lon="4.61087">
        <ele>539</ele>
        <time>2019-05-25T09:02:24Z</time>
      </trkpt>
      <trkpt lat="45.08618" lon="4.61156">
        <ele>536</ele>
        <time>2019-05-25T09:02:29Z</time>
      </trkpt>
      <trkpt lat="45.08646" lon="4.61208">
        <ele>535</ele>
        <time>2019-05-25T09:02:34Z</time>
      </trkpt>
      <trkpt lat="45.08688" lon="4.61246">
        <ele>532</ele>
        <time>2019-05-25T09:02:39Z</time>
      </trkpt>
      <trkpt lat="45.08715" lon="4.61297">
        <ele>530</ele>
        <time>2019-05-25T09:02:44Z</time>
      </trkpt>
      <trkpt lat="45.08682" lon="4.61338">
        <ele>528</ele>
        <time>2019-05-25T09:02:49Z</time>
      </trkpt>
      <trkpt lat="45.08634" lon="4.61347">
        <ele>525</ele>
        <time>2019-05-25T09:02:54Z</time>
      </trkpt>
      <trkpt lat="45.08589" lon="4.61381">
        <ele>524</ele>
        <time>2019-05-25T09:02:59Z</time>
      </trkpt>
      <trkpt lat="45.0854" lon="4.61401">
        <ele>522</ele>
        <time>2019-05-25T09:03:04Z</time>
      </trkpt>
      <trkpt lat="45.08497" lon="4.61434">
        <ele>519</ele>
        <time>2019-05-25T09:03:09Z</time>
      </trkpt>
      <trkpt lat="45.08482" lon="4.61501">
        <ele>517</ele>
        <time>2019-05-25T09:03:14Z</time>
      </trkpt>
      <trkpt lat="45.08483" lon="4.61572">
        <ele>515</ele>
        <time>2019-05-25T09:03:19Z</time>
      </trkpt>
      <trkpt lat="45.08485" lon="4.61644">
        <ele>513</ele>
        <time>2019-05-25T09:03:24Z</time>
      </trkpt>
      <trkpt lat="45.08489" lon="4.61716">
        <ele>509</ele>
        <time>2019-05-25T09:03:29Z</time>
      </trkpt>
      <trkpt lat="45.08481" lon="4.61787">
        <ele>507</ele>
        <time>2019-05-25T09:03:34Z</time>
      </trkpt>
      <trkpt lat="45.0847" lon="4.61856">
        <ele>505</ele>
        <time>2019-05-25T09:03:39Z</time>
      </trkpt>
      <trkpt lat="45.08466" lon="4.61924">
        <ele>503</ele>
        <time>2019-05-25T09:03:44Z</time>
      </trkpt>
      <trkpt lat="45.08469" lon="4.61994">
        <ele>501</ele>
        <time>2019-05-25T09:03:49Z</time>
      </trkpt>
      <trkpt lat="45.08457" lon="4.62055">
        <ele>501</ele>
        <time>2019-05-25T09:03:54Z</time>
      </trkpt>
      <trkpt lat="45.08445" lon="4.62116">
        <ele>499</ele>
        <time>2019-05-25T09:03:59Z</time>
      </trkpt>
      <trkpt lat="45.08439" lon="4.62182">
        <ele>497</ele>
        <time>2019-05-25T09:04:04Z</time>
      </trkpt>
      <trkpt lat="45.08458" lon="4.62248">
        <ele>495</ele>
        <time>2019-05-25T09:04:09Z</time>
      </trkpt>
      <trkpt lat="45.08483" lon="4.62311">
        <ele>490</ele>
        <time>2019-05-25T09:04:14Z</time>
      </trkpt>
      <trkpt lat="45.08505" lon="4.62374">
        <ele>486</ele>
        <time>2019-05-25T09:04:19Z</time>
      </trkpt>
      <trkpt lat="45.08527" lon="4.62432">
        <ele>482</ele>
        <time>2019-05-25T09:04:24Z</time>
      </trkpt>
      <trkpt lat="45.08545" lon="4.62489">
        <ele>478</ele>
        <time>2019-05-25T09:04:29Z</time>
      </trkpt>
      <trkpt lat="45.08556" lon="4.62534">
        <ele>476</ele>
        <time>2019-05-25T09:04:34Z</time>
      </trkpt>
      <trkpt lat="45.08541" lon="4.62547">
        <ele>472</ele>
        <time>2019-05-25T09:04:39Z</time>
      </trkpt>
      <trkpt lat="45.08512" lon="4.62525">
        <ele>471</ele>
        <time>2019-05-25T09:04:44Z</time>
      </trkpt>
      <trkpt lat="45.0848" lon="4.62503">
        <ele>469</ele>
        <time>2019-05-25T09:04:49Z</time>
      </trkpt>
      <trkpt lat="45.08445" lon="4.62482">
        <ele>468</ele>
        <time>2019-05-25T09:04:54Z</time>
      </trkpt>
      <trkpt lat="45.08406" lon="4.6248">
        <ele>468</ele>
        <time>2019-05-25T09:04:59Z</time>
      </trkpt>
      <trkpt lat="45.08371" lon="4.62498">
        <ele>467</ele>
        <time>2019-05-25T09:05:04Z</time>
      </trkpt>
      <trkpt lat="45.08338" lon="4.62523">
        <ele>467</ele>
        <time>2019-05-25T09:05:09Z</time>
      </trkpt>
      <trkpt lat="45.08306" lon="4.62548">
        <ele>466</ele>
        <time>2019-05-25T09:05:14Z</time>
      </trkpt>
      <trkpt lat="45.08277" lon="4.62573">
        <ele>465</ele>
        <time>2019-05-25T09:05:19Z</time>
      </trkpt>
      <trkpt lat="45.08291" lon="4.62614">
        <ele>463</ele>
        <time>2019-05-25T09:05:24Z</time>
      </trkpt>
      <trkpt lat="45.08328" lon="4.62632">
        <ele>461</ele>
        <time>2019-05-25T09:05:29Z</time>
      </trkpt>
      <trkpt lat="45.08366" lon="4.62641">
        <ele>459</ele>
        <time>2019-05-25T09:05:34Z</time>
      </trkpt>
      <trkpt lat="45.08401" lon="4.62651">
        <ele>456</ele>
        <time>2019-05-25T09:05:39Z</time>
      </trkpt>
      <trkpt lat="45.08411" lon="4.62686">
        <ele>454</ele>
        <time>2019-05-25T09:05:44Z</time>
      </trkpt>
      <trkpt lat="45.0844" lon="4.62712">
        <ele>452</ele>
        <time>2019-05-25T09:05:49Z</time>
      </trkpt>
      <trkpt lat="45.0846" lon="4.62735">
        <ele>451</ele>
        <time>2019-05-25T09:05:54Z</time>
      </trkpt>
      <trkpt lat="45.08482" lon="4.62743">
        <ele>449</ele>
        <time>2019-05-25T09:05:59Z</time>
      </trkpt>
      <trkpt lat="45.08501" lon="4.62764">
        <ele>450</ele>
        <time>2019-05-25T09:06:04Z</time>
      </trkpt>
      <trkpt lat="45.08518" lon="4.62787">
        <ele>450</ele>
        <time>2019-05-25T09:06:09Z</time>
      </trkpt>
      <trkpt lat="45.08534" lon="4.62811">
        <ele>451</ele>
        <time>2019-05-25T09:06:14Z</time>
      </trkpt>
      <trkpt lat="45.08549" lon="4.62833">
        <ele>453</ele>
        <time>2019-05-25T09:06:19Z</time>
      </trkpt>
      <trkpt lat="45.08564" lon="4.62854">
        <ele>454</ele>
        <time>2019-05-25T09:06:24Z</time>
      </trkpt>
      <trkpt lat="45.08582" lon="4.62865">
        <ele>454</ele>
        <time>2019-05-25T09:06:29Z</time>
      </trkpt>
      <trkpt lat="45.086" lon="4.62869">
        <ele>456</ele>
        <time>2019-05-25T09:06:34Z</time>
      </trkpt>
      <trkpt lat="45.08616" lon="4.62875">
        <ele>457</ele>
        <time>2019-05-25T09:06:39Z</time>
      </trkpt>
      <trkpt lat="45.08632" lon="4.62879">
        <ele>458</ele>
        <time>2019-05-25T09:06:44Z</time>
      </trkpt>
      <trkpt lat="45.08651" lon="4.62877">
        <ele>458</ele>
        <time>2019-05-25T09:06:49Z</time>
      </trkpt>
      <trkpt lat="45.08666" lon="4.62864">
        <ele>459</ele>
        <time>2019-05-25T09:06:54Z</time>
      </trkpt>
      <trkpt lat="45.08674" lon="4.62845">
        <ele>460</ele>
        <time>2019-05-25T09:06:59Z</time>
      </trkpt>
      <trkpt lat="45.08677" lon="4.62828">
        <ele>461</ele>
        <time>2019-05-25T09:07:04Z</time>
      </trkpt>
      <trkpt lat="45.08681" lon="4.62815">
        <ele>462</ele>
        <time>2019-05-25T09:07:09Z</time>
      </trkpt>
      <trkpt lat="45.08677" lon="4.62808">
        <ele>463</ele>
        <time>2019-05-25T09:07:14Z</time>
      </trkpt>
      <trkpt lat="45.08672" lon="4.62798">
        <ele>463</ele>
        <time>2019-05-25T09:07:16Z</time>
      </trkpt>
      <trkpt lat="45.08689" lon="4.6278">
        <ele>463</ele>
        <time>2019-05-25T09:07:21Z</time>
      </trkpt>
      <trkpt lat="45.08702" lon="4.62754">
        <ele>463</ele>
        <time>2019-05-25T09:07:26Z</time>
      </trkpt>
      <trkpt lat="45.08718" lon="4.62722">
        <ele>463</ele>
        <time>2019-05-25T09:07:31Z</time>
      </trkpt>
      <trkpt lat="45.08734" lon="4.62689">
        <ele>463</ele>
        <time>2019-05-25T09:07:36Z</time>
      </trkpt>
      <trkpt lat="45.0875" lon="4.62658">
        <ele>462</ele>
        <time>2019-05-25T09:07:41Z</time>
      </trkpt>
      <trkpt lat="45.08772" lon="4.6269">
        <ele>461</ele>
        <time>2019-05-25T09:07:47Z</time>
      </trkpt>
      <trkpt lat="45.08777" lon="4.62739">
        <ele>461</ele>
        <time>2019-05-25T09:07:52Z</time>
      </trkpt>
      <trkpt lat="45.08782" lon="4.62789">
        <ele>459</ele>
        <time>2019-05-25T09:07:57Z</time>
      </trkpt>
      <trkpt lat="45.08804" lon="4.62827">
        <ele>459</ele>
        <time>2019-05-25T09:08:02Z</time>
      </trkpt>
      <trkpt lat="45.08828" lon="4.62855">
        <ele>459</ele>
        <time>2019-05-25T09:08:07Z</time>
      </trkpt>
      <trkpt lat="45.08855" lon="4.62884">
        <ele>459</ele>
        <time>2019-05-25T09:08:12Z</time>
      </trkpt>
      <trkpt lat="45.08888" lon="4.62905">
        <ele>459</ele>
        <time>2019-05-25T09:08:17Z</time>
      </trkpt>
      <trkpt lat="45.08921" lon="4.6293">
        <ele>457</ele>
        <time>2019-05-25T09:08:22Z</time>
      </trkpt>
      <trkpt lat="45.08954" lon="4.6296">
        <ele>457</ele>
        <time>2019-05-25T09:08:27Z</time>
      </trkpt>
      <trkpt lat="45.08992" lon="4.62997">
        <ele>456</ele>
        <time>2019-05-25T09:08:33Z</time>
      </trkpt>
      <trkpt lat="45.09025" lon="4.63026">
        <ele>455</ele>
        <time>2019-05-25T09:08:38Z</time>
      </trkpt>
      <trkpt lat="45.09063" lon="4.6307">
        <ele>453</ele>
        <time>2019-05-25T09:08:44Z</time>
      </trkpt>
      <trkpt lat="45.09091" lon="4.63112">
        <ele>451</ele>
        <time>2019-05-25T09:08:49Z</time>
      </trkpt>
      <trkpt lat="45.09113" lon="4.63162">
        <ele>449</ele>
        <time>2019-05-25T09:08:54Z</time>
      </trkpt>
      <trkpt lat="45.0913" lon="4.63214">
        <ele>449</ele>
        <time>2019-05-25T09:08:59Z</time>
      </trkpt>
      <trkpt lat="45.09138" lon="4.63286">
        <ele>448</ele>
        <time>2019-05-25T09:09:05Z</time>
      </trkpt>
      <trkpt lat="45.09132" lon="4.63344">
        <ele>446</ele>
        <time>2019-05-25T09:09:10Z</time>
      </trkpt>
      <trkpt lat="45.09132" lon="4.63405">
        <ele>446</ele>
        <time>2019-05-25T09:09:15Z</time>
      </trkpt>
      <trkpt lat="45.09156" lon="4.63465">
        <ele>445</ele>
        <time>2019-05-25T09:09:20Z</time>
      </trkpt>
      <trkpt lat="45.09193" lon="4.63481">
        <ele>445</ele>
        <time>2019-05-25T09:09:25Z</time>
      </trkpt>
      <trkpt lat="45.09227" lon="4.63454">
        <ele>445</ele>
        <time>2019-05-25T09:09:30Z</time>
      </trkpt>
      <trkpt lat="45.09253" lon="4.63407">
        <ele>445</ele>
        <time>2019-05-25T09:09:35Z</time>
      </trkpt>
      <trkpt lat="45.09286" lon="4.63372">
        <ele>445</ele>
        <time>2019-05-25T09:09:40Z</time>
      </trkpt>
      <trkpt lat="45.09323" lon="4.63344">
        <ele>443</ele>
        <time>2019-05-25T09:09:45Z</time>
      </trkpt>
      <trkpt lat="45.0936" lon="4.63312">
        <ele>441</ele>
        <time>2019-05-25T09:09:50Z</time>
      </trkpt>
      <trkpt lat="45.09396" lon="4.63285">
        <ele>440</ele>
        <time>2019-05-25T09:09:55Z</time>
      </trkpt>
      <trkpt lat="45.09442" lon="4.63265">
        <ele>438</ele>
        <time>2019-05-25T09:10:01Z</time>
      </trkpt>
      <trkpt lat="45.09475" lon="4.63288">
        <ele>435</ele>
        <time>2019-05-25T09:10:06Z</time>
      </trkpt>
      <trkpt lat="45.09472" lon="4.63337">
        <ele>435</ele>
        <time>2019-05-25T09:10:11Z</time>
      </trkpt>
      <trkpt lat="45.09444" lon="4.63362">
        <ele>436</ele>
        <time>2019-05-25T09:10:16Z</time>
      </trkpt>
      <trkpt lat="45.09428" lon="4.634">
        <ele>438</ele>
        <time>2019-05-25T09:10:21Z</time>
      </trkpt>
      <trkpt lat="45.09424" lon="4.63443">
        <ele>440</ele>
        <time>2019-05-25T09:10:26Z</time>
      </trkpt>
      <trkpt lat="45.09414" lon="4.63482">
        <ele>442</ele>
        <time>2019-05-25T09:10:31Z</time>
      </trkpt>
      <trkpt lat="45.09404" lon="4.63516">
        <ele>443</ele>
        <time>2019-05-25T09:10:36Z</time>
      </trkpt>
      <trkpt lat="45.094" lon="4.63549">
        <ele>445</ele>
        <time>2019-05-25T09:10:41Z</time>
      </trkpt>
      <trkpt lat="45.09402" lon="4.63582">
        <ele>446</ele>
        <time>2019-05-25T09:10:46Z</time>
      </trkpt>
      <trkpt lat="45.0941" lon="4.63612">
        <ele>448</ele>
        <time>2019-05-25T09:10:51Z</time>
      </trkpt>
      <trkpt lat="45.0942" lon="4.63639">
        <ele>448</ele>
        <time>2019-05-25T09:10:56Z</time>
      </trkpt>
      <trkpt lat="45.09431" lon="4.63665">
        <ele>450</ele>
        <time>2019-05-25T09:11:02Z</time>
      </trkpt>
      <trkpt lat="45.09444" lon="4.63696">
        <ele>451</ele>
        <time>2019-05-25T09:11:07Z</time>
      </trkpt>
      <trkpt lat="45.09452" lon="4.63726">
        <ele>452</ele>
        <time>2019-05-25T09:11:12Z</time>
      </trkpt>
      <trkpt lat="45.09461" lon="4.63754">
        <ele>454</ele>
        <time>2019-05-25T09:11:17Z</time>
      </trkpt>
      <trkpt lat="45.09462" lon="4.63783">
        <ele>455</ele>
        <time>2019-05-25T09:11:22Z</time>
      </trkpt>
      <trkpt lat="45.09446" lon="4.63801">
        <ele>456</ele>
        <time>2019-05-25T09:11:27Z</time>
      </trkpt>
      <trkpt lat="45.09427" lon="4.63789">
        <ele>457</ele>
        <time>2019-05-25T09:11:32Z</time>
      </trkpt>
      <trkpt lat="45.0941" lon="4.63769">
        <ele>458</ele>
        <time>2019-05-25T09:11:37Z</time>
      </trkpt>
      <trkpt lat="45.09388" lon="4.63757">
        <ele>459</ele>
        <time>2019-05-25T09:11:42Z</time>
      </trkpt>
      <trkpt lat="45.09367" lon="4.63755">
        <ele>460</ele>
        <time>2019-05-25T09:11:47Z</time>
      </trkpt>
      <trkpt lat="45.09348" lon="4.63763">
        <ele>461</ele>
        <time>2019-05-25T09:11:52Z</time>
      </trkpt>
      <trkpt lat="45.0933" lon="4.63776">
        <ele>462</ele>
        <time>2019-05-25T09:11:57Z</time>
      </trkpt>
      <trkpt lat="45.09314" lon="4.63795">
        <ele>463</ele>
        <time>2019-05-25T09:12:02Z</time>
      </trkpt>
      <trkpt lat="45.09295" lon="4.63819">
        <ele>465</ele>
        <time>2019-05-25T09:12:08Z</time>
      </trkpt>
      <trkpt lat="45.09275" lon="4.63841">
        <ele>466</ele>
        <time>2019-05-25T09:12:15Z</time>
      </trkpt>
      <trkpt lat="45.09253" lon="4.63859">
        <ele>467</ele>
        <time>2019-05-25T09:12:21Z</time>
      </trkpt>
      <trkpt lat="45.0923" lon="4.63876">
        <ele>469</ele>
        <time>2019-05-25T09:12:27Z</time>
      </trkpt>
      <trkpt lat="45.09215" lon="4.63903">
        <ele>470</ele>
        <time>2019-05-25T09:12:32Z</time>
      </trkpt>
      <trkpt lat="45.09209" lon="4.63934">
        <ele>471</ele>
        <time>2019-05-25T09:12:37Z</time>
      </trkpt>
      <trkpt lat="45.09207" lon="4.63968">
        <ele>472</ele>
        <time>2019-05-25T09:12:42Z</time>
      </trkpt>
      <trkpt lat="45.092" lon="4.63998">
        <ele>473</ele>
        <time>2019-05-25T09:12:47Z</time>
      </trkpt>
      <trkpt lat="45.0919" lon="4.64024">
        <ele>474</ele>
        <time>2019-05-25T09:12:52Z</time>
      </trkpt>
      <trkpt lat="45.09176" lon="4.64044">
        <ele>476</ele>
        <time>2019-05-25T09:12:57Z</time>
      </trkpt>
      <trkpt lat="45.09156" lon="4.64053">
        <ele>477</ele>
        <time>2019-05-25T09:13:02Z</time>
      </trkpt>
      <trkpt lat="45.09133" lon="4.6404">
        <ele>478</ele>
        <time>2019-05-25T09:13:07Z</time>
      </trkpt>
      <trkpt lat="45.09114" lon="4.64017">
        <ele>480</ele>
        <time>2019-05-25T09:13:12Z</time>
      </trkpt>
      <trkpt lat="45.09096" lon="4.63998">
        <ele>481</ele>
        <time>2019-05-25T09:13:17Z</time>
      </trkpt>
      <trkpt lat="45.09073" lon="4.63995">
        <ele>482</ele>
        <time>2019-05-25T09:13:22Z</time>
      </trkpt>
      <trkpt lat="45.09051" lon="4.63996">
        <ele>483</ele>
        <time>2019-05-25T09:13:27Z</time>
      </trkpt>
      <trkpt lat="45.0903" lon="4.63996">
        <ele>484</ele>
        <time>2019-05-25T09:13:32Z</time>
      </trkpt>
      <trkpt lat="45.0901" lon="4.63995">
        <ele>485</ele>
        <time>2019-05-25T09:13:37Z</time>
      </trkpt>
      <trkpt lat="45.0899" lon="4.63995">
        <ele>487</ele>
        <time>2019-05-25T09:13:42Z</time>
      </trkpt>
      <trkpt lat="45.08974" lon="4.64011">
        <ele>488</ele>
        <time>2019-05-25T09:13:47Z</time>
      </trkpt>
      <trkpt lat="45.08975" lon="4.6404">
        <ele>489</ele>
        <time>2019-05-25T09:13:52Z</time>
      </trkpt>
      <trkpt lat="45.0899" lon="4.64062">
        <ele>490</ele>
        <time>2019-05-25T09:13:57Z</time>
      </trkpt>
      <trkpt lat="45.0901" lon="4.64073">
        <ele>491</ele>
        <time>2019-05-25T09:14:02Z</time>
      </trkpt>
      <trkpt lat="45.0903" lon="4.64083">
        <ele>492</ele>
        <time>2019-05-25T09:14:07Z</time>
      </trkpt>
      <trkpt lat="45.09049" lon="4.64095">
        <ele>493</ele>
        <time>2019-05-25T09:14:12Z</time>
      </trkpt>
      <trkpt lat="45.09069" lon="4.64106">
        <ele>494</ele>
        <time>2019-05-25T09:14:17Z</time>
      </trkpt>
      <trkpt lat="45.09089" lon="4.64123">
        <ele>495</ele>
        <time>2019-05-25T09:14:22Z</time>
      </trkpt>
      <trkpt lat="45.09106" lon="4.64139">
        <ele>497</ele>
        <time>2019-05-25T09:14:27Z</time>
      </trkpt>
      <trkpt lat="45.09124" lon="4.64151">
        <ele>498</ele>
        <time>2019-05-25T09:14:32Z</time>
      </trkpt>
      <trkpt lat="45.09143" lon="4.64155">
        <ele>499</ele>
        <time>2019-05-25T09:14:37Z</time>
      </trkpt>
      <trkpt lat="45.09169" lon="4.64155">
        <ele>500</ele>
        <time>2019-05-25T09:14:43Z</time>
      </trkpt>
      <trkpt lat="45.09189" lon="4.64157">
        <ele>501</ele>
        <time>2019-05-25T09:14:48Z</time>
      </trkpt>
      <trkpt lat="45.09208" lon="4.64158">
        <ele>502</ele>
        <time>2019-05-25T09:14:53Z</time>
      </trkpt>
      <trkpt lat="45.09228" lon="4.64158">
        <ele>503</ele>
        <time>2019-05-25T09:14:58Z</time>
      </trkpt>
      <trkpt lat="45.09247" lon="4.64159">
        <ele>504</ele>
        <time>2019-05-25T09:15:03Z</time>
      </trkpt>
      <trkpt lat="45.09267" lon="4.64162">
        <ele>505</ele>
        <time>2019-05-25T09:15:08Z</time>
      </trkpt>
      <trkpt lat="45.09287" lon="4.64169">
        <ele>507</ele>
        <time>2019-05-25T09:15:13Z</time>
      </trkpt>
      <trkpt lat="45.09305" lon="4.64181">
        <ele>508</ele>
        <time>2019-05-25T09:15:18Z</time>
      </trkpt>
      <trkpt lat="45.09321" lon="4.64196">
        <ele>509</ele>
        <time>2019-05-25T09:15:23Z</time>
      </trkpt>
      <trkpt lat="45.09334" lon="4.64215">
        <ele>511</ele>
        <time>2019-05-25T09:15:28Z</time>
      </trkpt>
      <trkpt lat="45.09346" lon="4.64233">
        <ele>512</ele>
        <time>2019-05-25T09:15:33Z</time>
      </trkpt>
      <trkpt lat="45.09359" lon="4.64259">
        <ele>513</ele>
        <time>2019-05-25T09:15:39Z</time>
      </trkpt>
      <trkpt lat="45.09369" lon="4.6428">
        <ele>513</ele>
        <time>2019-05-25T09:15:44Z</time>
      </trkpt>
      <trkpt lat="45.09379" lon="4.64302">
        <ele>515</ele>
        <time>2019-05-25T09:15:49Z</time>
      </trkpt>
      <trkpt lat="45.09387" lon="4.64327">
        <ele>516</ele>
        <time>2019-05-25T09:15:54Z</time>
      </trkpt>
      <trkpt lat="45.09396" lon="4.64356">
        <ele>517</ele>
        <time>2019-05-25T09:16:00Z</time>
      </trkpt>
      <trkpt lat="45.09414" lon="4.64379">
        <ele>518</ele>
        <time>2019-05-25T09:16:06Z</time>
      </trkpt>
      <trkpt lat="45.09434" lon="4.64398">
        <ele>519</ele>
        <time>2019-05-25T09:16:13Z</time>
      </trkpt>
      <trkpt lat="45.09454" lon="4.64417">
        <ele>521</ele>
        <time>2019-05-25T09:16:18Z</time>
      </trkpt>
      <trkpt lat="45.09471" lon="4.64432">
        <ele>522</ele>
        <time>2019-05-25T09:16:23Z</time>
      </trkpt>
      <trkpt lat="45.09487" lon="4.64447">
        <ele>523</ele>
        <time>2019-05-25T09:16:28Z</time>
      </trkpt>
      <trkpt lat="45.09503" lon="4.64464">
        <ele>523</ele>
        <time>2019-05-25T09:16:33Z</time>
      </trkpt>
      <trkpt lat="45.09516" lon="4.64483">
        <ele>525</ele>
        <time>2019-05-25T09:16:38Z</time>
      </trkpt>
      <trkpt lat="45.09532" lon="4.64497">
        <ele>526</ele>
        <time>2019-05-25T09:16:43Z</time>
      </trkpt>
      <trkpt lat="45.09549" lon="4.64509">
        <ele>527</ele>
        <time>2019-05-25T09:16:48Z</time>
      </trkpt>
      <trkpt lat="45.09567" lon="4.64517">
        <ele>527</ele>
        <time>2019-05-25T09:16:53Z</time>
      </trkpt>
      <trkpt lat="45.09584" lon="4.64529">
        <ele>528</ele>
        <time>2019-05-25T09:16:58Z</time>
      </trkpt>
      <trkpt lat="45.09601" lon="4.64542">
        <ele>529</ele>
        <time>2019-05-25T09:17:03Z</time>
      </trkpt>
      <trkpt lat="45.09615" lon="4.64559">
        <ele>530</ele>
        <time>2019-05-25T09:17:08Z</time>
      </trkpt>
      <trkpt lat="45.0963" lon="4.64577">
        <ele>531</ele>
        <time>2019-05-25T09:17:13Z</time>
      </trkpt>
      <trkpt lat="45.09644" lon="4.64596">
        <ele>533</ele>
        <time>2019-05-25T09:17:18Z</time>
      </trkpt>
      <trkpt lat="45.09653" lon="4.64626">
        <ele>534</ele>
        <time>2019-05-25T09:17:24Z</time>
      </trkpt>
      <trkpt lat="45.09659" lon="4.64656">
        <ele>535</ele>
        <time>2019-05-25T09:17:30Z</time>
      </trkpt>
      <trkpt lat="45.09664" lon="4.64683">
        <ele>536</ele>
        <time>2019-05-25T09:17:35Z</time>
      </trkpt>
      <trkpt lat="45.0967" lon="4.6471">
        <ele>536</ele>
        <time>2019-05-25T09:17:40Z</time>
      </trkpt>
      <trkpt lat="45.09675" lon="4.64742">
        <ele>537</ele>
        <time>2019-05-25T09:17:45Z</time>
      </trkpt>
      <trkpt lat="45.09677" lon="4.64785">
        <ele>537</ele>
        <time>2019-05-25T09:17:50Z</time>
      </trkpt>
      <trkpt lat="45.09677" lon="4.64837">
        <ele>536</ele>
        <time>2019-05-25T09:17:55Z</time>
      </trkpt>
      <trkpt lat="45.09679" lon="4.64893">
        <ele>535</ele>
        <time>2019-05-25T09:18:00Z</time>
      </trkpt>
      <trkpt lat="45.09682" lon="4.64954">
        <ele>533</ele>
        <time>2019-05-25T09:18:05Z</time>
      </trkpt>
      <trkpt lat="45.09685" lon="4.65019">
        <ele>530</ele>
        <time>2019-05-25T09:18:10Z</time>
      </trkpt>
      <trkpt lat="45.09689" lon="4.65086">
        <ele>528</ele>
        <time>2019-05-25T09:18:15Z</time>
      </trkpt>
      <trkpt lat="45.09691" lon="4.65153">
        <ele>528</ele>
        <time>2019-05-25T09:18:20Z</time>
      </trkpt>
      <trkpt lat="45.09688" lon="4.65219">
        <ele>525</ele>
        <time>2019-05-25T09:18:25Z</time>
      </trkpt>
      <trkpt lat="45.09684" lon="4.65284">
        <ele>525</ele>
        <time>2019-05-25T09:18:30Z</time>
      </trkpt>
      <trkpt lat="45.09685" lon="4.65365">
        <ele>523</ele>
        <time>2019-05-25T09:18:36Z</time>
      </trkpt>
      <trkpt lat="45.0971" lon="4.6544">
        <ele>521</ele>
        <time>2019-05-25T09:18:42Z</time>
      </trkpt>
      <trkpt lat="45.09753" lon="4.65498">
        <ele>519</ele>
        <time>2019-05-25T09:18:48Z</time>
      </trkpt>
      <trkpt lat="45.09813" lon="4.65513">
        <ele>517</ele>
        <time>2019-05-25T09:18:54Z</time>
      </trkpt>
      <trkpt lat="45.0987" lon="4.65547">
        <ele>514</ele>
        <time>2019-05-25T09:19:00Z</time>
      </trkpt>
      <trkpt lat="45.09924" lon="4.65592">
        <ele>511</ele>
        <time>2019-05-25T09:19:06Z</time>
      </trkpt>
      <trkpt lat="45.09973" lon="4.6561">
        <ele>509</ele>
        <time>2019-05-25T09:19:11Z</time>
      </trkpt>
      <trkpt lat="45.10018" lon="4.6558">
        <ele>507</ele>
        <time>2019-05-25T09:19:16Z</time>
      </trkpt>
      <trkpt lat="45.10076" lon="4.6555">
        <ele>504</ele>
        <time>2019-05-25T09:19:22Z</time>
      </trkpt>
      <trkpt lat="45.10118" lon="4.65592">
        <ele>501</ele>
        <time>2019-05-25T09:19:28Z</time>
      </trkpt>
      <trkpt lat="45.10093" lon="4.65652">
        <ele>501</ele>
        <time>2019-05-25T09:19:34Z</time>
      </trkpt>
      <trkpt lat="45.10066" lon="4.65711">
        <ele>501</ele>
        <time>2019-05-25T09:19:40Z</time>
      </trkpt>
      <trkpt lat="45.10055" lon="4.65775">
        <ele>501</ele>
        <time>2019-05-25T09:19:46Z</time>
      </trkpt>
      <trkpt lat="45.10045" lon="4.65834">
        <ele>501</ele>
        <time>2019-05-25T09:19:52Z</time>
      </trkpt>
      <trkpt lat="45.10022" lon="4.65882">
        <ele>501</ele>
        <time>2019-05-25T09:19:59Z</time>
      </trkpt>
      <trkpt lat="45.09998" lon="4.65932">
        <ele>501</ele>
        <time>2019-05-25T09:20:04Z</time>
      </trkpt>
      <trkpt lat="45.09997" lon="4.65982">
        <ele>501</ele>
        <time>2019-05-25T09:20:09Z</time>
      </trkpt>
      <trkpt lat="45.09989" lon="4.66027">
        <ele>502</ele>
        <time>2019-05-25T09:20:14Z</time>
      </trkpt>
      <trkpt lat="45.09962" lon="4.66046">
        <ele>502</ele>
        <time>2019-05-25T09:20:19Z</time>
      </trkpt>
      <trkpt lat="45.09932" lon="4.66056">
        <ele>503</ele>
        <time>2019-05-25T09:20:24Z</time>
      </trkpt>
      <trkpt lat="45.09905" lon="4.66078">
        <ele>504</ele>
        <time>2019-05-25T09:20:29Z</time>
      </trkpt>
      <trkpt lat="45.09881" lon="4.66108">
        <ele>504</ele>
        <time>2019-05-25T09:20:34Z</time>
      </trkpt>
      <trkpt lat="45.09858" lon="4.66139">
        <ele>505</ele>
        <time>2019-05-25T09:20:39Z</time>
      </trkpt>
      <trkpt lat="45.09835" lon="4.66168">
        <ele>505</ele>
        <time>2019-05-25T09:20:44Z</time>
      </trkpt>
      <trkpt lat="45.09811" lon="4.66198">
        <ele>506</ele>
        <time>2019-05-25T09:20:49Z</time>
      </trkpt>
      <trkpt lat="45.0979" lon="4.66231">
        <ele>507</ele>
        <time>2019-05-25T09:20:54Z</time>
      </trkpt>
      <trkpt lat="45.09788" lon="4.66271">
        <ele>508</ele>
        <time>2019-05-25T09:20:59Z</time>
      </trkpt>
      <trkpt lat="45.09797" lon="4.66308">
        <ele>509</ele>
        <time>2019-05-25T09:21:04Z</time>
      </trkpt>
      <trkpt lat="45.09808" lon="4.66341">
        <ele>509</ele>
        <time>2019-05-25T09:21:09Z</time>
      </trkpt>
      <trkpt lat="45.09826" lon="4.66371">
        <ele>510</ele>
        <time>2019-05-25T09:21:14Z</time>
      </trkpt>
      <trkpt lat="45.09847" lon="4.66396">
        <ele>510</ele>
        <time>2019-05-25T09:21:19Z</time>
      </trkpt>
      <trkpt lat="45.09867" lon="4.66419">
        <ele>511</ele>
        <time>2019-05-25T09:21:24Z</time>
      </trkpt>
      <trkpt lat="45.09888" lon="4.66444">
        <ele>511</ele>
        <time>2019-05-25T09:21:29Z</time>
      </trkpt>
      <trkpt lat="45.09911" lon="4.66468">
        <ele>511</ele>
        <time>2019-05-25T09:21:34Z</time>
      </trkpt>
      <trkpt lat="45.0993" lon="4.66498">
        <ele>512</ele>
        <time>2019-05-25T09:21:39Z</time>
      </trkpt>
      <trkpt lat="45.09943" lon="4.66532">
        <ele>513</ele>
        <time>2019-05-25T09:21:44Z</time>
      </trkpt>
      <trkpt lat="45.09951" lon="4.66566">
        <ele>514</ele>
        <time>2019-05-25T09:21:49Z</time>
      </trkpt>
      <trkpt lat="45.09969" lon="4.66594">
        <ele>514</ele>
        <time>2019-05-25T09:21:54Z</time>
      </trkpt>
      <trkpt lat="45.0999" lon="4.6662">
        <ele>514</ele>
        <time>2019-05-25T09:21:59Z</time>
      </trkpt>
      <trkpt lat="45.10003" lon="4.66656">
        <ele>514</ele>
        <time>2019-05-25T09:22:04Z</time>
      </trkpt>
      <trkpt lat="45.10009" lon="4.66693">
        <ele>515</ele>
        <time>2019-05-25T09:22:09Z</time>
      </trkpt>
      <trkpt lat="45.10019" lon="4.66728">
        <ele>515</ele>
        <time>2019-05-25T09:22:14Z</time>
      </trkpt>
      <trkpt lat="45.10028" lon="4.66765">
        <ele>515</ele>
        <time>2019-05-25T09:22:19Z</time>
      </trkpt>
      <trkpt lat="45.10027" lon="4.66806">
        <ele>516</ele>
        <time>2019-05-25T09:22:24Z</time>
      </trkpt>
      <trkpt lat="45.10015" lon="4.66843">
        <ele>517</ele>
        <time>2019-05-25T09:22:29Z</time>
      </trkpt>
      <trkpt lat="45.10011" lon="4.66879">
        <ele>518</ele>
        <time>2019-05-25T09:22:34Z</time>
      </trkpt>
      <trkpt lat="45.10018" lon="4.66917">
        <ele>518</ele>
        <time>2019-05-25T09:22:39Z</time>
      </trkpt>
      <trkpt lat="45.10028" lon="4.66951">
        <ele>519</ele>
        <time>2019-05-25T09:22:44Z</time>
      </trkpt>
      <trkpt lat="45.10044" lon="4.66981">
        <ele>520</ele>
        <time>2019-05-25T09:22:49Z</time>
      </trkpt>
      <trkpt lat="45.10066" lon="4.67004">
        <ele>520</ele>
        <time>2019-05-25T09:22:54Z</time>
      </trkpt>
      <trkpt lat="45.10088" lon="4.67026">
        <ele>520</ele>
        <time>2019-05-25T09:22:59Z</time>
      </trkpt>
      <trkpt lat="45.10108" lon="4.67048">
        <ele>520</ele>
        <time>2019-05-25T09:23:04Z</time>
      </trkpt>
      <trkpt lat="45.10118" lon="4.67081">
        <ele>521</ele>
        <time>2019-05-25T09:23:09Z</time>
      </trkpt>
      <trkpt lat="45.10114" lon="4.67116">
        <ele>522</ele>
        <time>2019-05-25T09:23:14Z</time>
      </trkpt>
      <trkpt lat="45.10109" lon="4.67151">
        <ele>523</ele>
        <time>2019-05-25T09:23:19Z</time>
      </trkpt>
      <trkpt lat="45.10098" lon="4.67184">
        <ele>523</ele>
        <time>2019-05-25T09:23:24Z</time>
      </trkpt>
      <trkpt lat="45.10084" lon="4.67214">
        <ele>524</ele>
        <time>2019-05-25T09:23:29Z</time>
      </trkpt>
      <trkpt lat="45.10069" lon="4.67245">
        <ele>525</ele>
        <time>2019-05-25T09:23:34Z</time>
      </trkpt>
      <trkpt lat="45.10055" lon="4.67278">
        <ele>526</ele>
        <time>2019-05-25T09:23:39Z</time>
      </trkpt>
      <trkpt lat="45.10051" lon="4.67315">
        <ele>526</ele>
        <time>2019-05-25T09:23:44Z</time>
      </trkpt>
      <trkpt lat="45.10053" lon="4.67351">
        <ele>527</ele>
        <time>2019-05-25T09:23:49Z</time>
      </trkpt>
      <trkpt lat="45.10055" lon="4.67384">
        <ele>529</ele>
        <time>2019-05-25T09:23:54Z</time>
      </trkpt>
      <trkpt lat="45.10075" lon="4.67394">
        <ele>530</ele>
        <time>2019-05-25T09:23:59Z</time>
      </trkpt>
      <trkpt lat="45.10095" lon="4.67399">
        <ele>531</ele>
        <time>2019-05-25T09:24:04Z</time>
      </trkpt>
      <trkpt lat="45.10107" lon="4.67412">
        <ele>532</ele>
        <time>2019-05-25T09:24:09Z</time>
      </trkpt>
      <trkpt lat="45.10095" lon="4.67437">
        <ele>532</ele>
        <time>2019-05-25T09:24:14Z</time>
      </trkpt>
      <trkpt lat="45.10068" lon="4.67433">
        <ele>532</ele>
        <time>2019-05-25T09:24:19Z</time>
      </trkpt>
      <trkpt lat="45.10053" lon="4.67445">
        <ele>532</ele>
        <time>2019-05-25T09:24:24Z</time>
      </trkpt>
      <trkpt lat="45.10043" lon="4.67473">
        <ele>532</ele>
        <time>2019-05-25T09:24:29Z</time>
      </trkpt>
      <trkpt lat="45.10047" lon="4.67516">
        <ele>533</ele>
        <time>2019-05-25T09:24:34Z</time>
      </trkpt>
      <trkpt lat="45.10052" lon="4.67566">
        <ele>533</ele>
        <time>2019-05-25T09:24:39Z</time>
      </trkpt>
      <trkpt lat="45.10049" lon="4.67632">
        <ele>529</ele>
        <time>2019-05-25T09:24:44Z</time>
      </trkpt>
      <trkpt lat="45.10042" lon="4.67704">
        <ele>524</ele>
        <time>2019-05-25T09:24:49Z</time>
      </trkpt>
      <trkpt lat="45.10036" lon="4.67773">
        <ele>524</ele>
        <time>2019-05-25T09:24:54Z</time>
      </trkpt>
      <trkpt lat="45.10034" lon="4.67838">
        <ele>523</ele>
        <time>2019-05-25T09:24:59Z</time>
      </trkpt>
      <trkpt lat="45.10031" lon="4.67898">
        <ele>522</ele>
        <time>2019-05-25T09:25:04Z</time>
      </trkpt>
      <trkpt lat="45.10029" lon="4.67954">
        <ele>522</ele>
        <time>2019-05-25T09:25:09Z</time>
      </trkpt>
      <trkpt lat="45.1003" lon="4.68004">
        <ele>522</ele>
        <time>2019-05-25T09:25:14Z</time>
      </trkpt>
      <trkpt lat="45.10025" lon="4.68045">
        <ele>523</ele>
        <time>2019-05-25T09:25:19Z</time>
      </trkpt>
      <trkpt lat="45.10013" lon="4.68084">
        <ele>524</ele>
        <time>2019-05-25T09:25:24Z</time>
      </trkpt>
      <trkpt lat="45.09999" lon="4.68122">
        <ele>524</ele>
        <time>2019-05-25T09:25:29Z</time>
      </trkpt>
      <trkpt lat="45.09996" lon="4.68173">
        <ele>524</ele>
        <time>2019-05-25T09:25:34Z</time>
      </trkpt>
      <trkpt lat="45.10001" lon="4.68224">
        <ele>524</ele>
        <time>2019-05-25T09:25:39Z</time>
      </trkpt>
      <trkpt lat="45.10004" lon="4.68274">
        <ele>524</ele>
        <time>2019-05-25T09:25:44Z</time>
      </trkpt>
      <trkpt lat="45.10008" lon="4.68328">
        <ele>524</ele>
        <time>2019-05-25T09:25:49Z</time>
      </trkpt>
      <trkpt lat="45.10009" lon="4.68383">
        <ele>522</ele>
        <time>2019-05-25T09:25:54Z</time>
      </trkpt>
      <trkpt lat="45.10018" lon="4.68439">
        <ele>520</ele>
        <time>2019-05-25T09:25:59Z</time>
      </trkpt>
      <trkpt lat="45.10016" lon="4.68488">
        <ele>517</ele>
        <time>2019-05-25T09:26:04Z</time>
      </trkpt>
      <trkpt lat="45.09986" lon="4.68534">
        <ele>513</ele>
        <time>2019-05-25T09:26:09Z</time>
      </trkpt>
      <trkpt lat="45.09968" lon="4.68597">
        <ele>510</ele>
        <time>2019-05-25T09:26:14Z</time>
      </trkpt>
      <trkpt lat="45.09945" lon="4.68659">
        <ele>508</ele>
        <time>2019-05-25T09:26:19Z</time>
      </trkpt>
      <trkpt lat="45.09913" lon="4.68708">
        <ele>508</ele>
        <time>2019-05-25T09:26:24Z</time>
      </trkpt>
      <trkpt lat="45.09881" lon="4.6875">
        <ele>508</ele>
        <time>2019-05-25T09:26:29Z</time>
      </trkpt>
      <trkpt lat="45.09846" lon="4.68794">
        <ele>508</ele>
        <time>2019-05-25T09:26:34Z</time>
      </trkpt>
      <trkpt lat="45.09803" lon="4.68846">
        <ele>504</ele>
        <time>2019-05-25T09:26:39Z</time>
      </trkpt>
      <trkpt lat="45.09761" lon="4.68901">
        <ele>501</ele>
        <time>2019-05-25T09:26:44Z</time>
      </trkpt>
      <trkpt lat="45.09721" lon="4.68956">
        <ele>498</ele>
        <time>2019-05-25T09:26:49Z</time>
      </trkpt>
      <trkpt lat="45.09688" lon="4.69003">
        <ele>493</ele>
        <time>2019-05-25T09:26:54Z</time>
      </trkpt>
      <trkpt lat="45.09695" lon="4.69061">
        <ele>488</ele>
        <time>2019-05-25T09:26:59Z</time>
      </trkpt>
      <trkpt lat="45.09708" lon="4.69139">
        <ele>484</ele>
        <time>2019-05-25T09:27:04Z</time>
      </trkpt>
      <trkpt lat="45.0972" lon="4.6922">
        <ele>479</ele>
        <time>2019-05-25T09:27:09Z</time>
      </trkpt>
      <trkpt lat="45.09728" lon="4.69302">
        <ele>474</ele>
        <time>2019-05-25T09:27:14Z</time>
      </trkpt>
      <trkpt lat="45.09734" lon="4.69393">
        <ele>468</ele>
        <time>2019-05-25T09:27:19Z</time>
      </trkpt>
      <trkpt lat="45.09745" lon="4.69481">
        <ele>464</ele>
        <time>2019-05-25T09:27:24Z</time>
      </trkpt>
      <trkpt lat="45.09756" lon="4.69556">
        <ele>459</ele>
        <time>2019-05-25T09:27:29Z</time>
      </trkpt>
      <trkpt lat="45.09734" lon="4.69629">
        <ele>454</ele>
        <time>2019-05-25T09:27:34Z</time>
      </trkpt>
      <trkpt lat="45.09716" lon="4.69701">
        <ele>450</ele>
        <time>2019-05-25T09:27:39Z</time>
      </trkpt>
      <trkpt lat="45.09738" lon="4.69742">
        <ele>446</ele>
        <time>2019-05-25T09:27:44Z</time>
      </trkpt>
      <trkpt lat="45.09775" lon="4.69749">
        <ele>444</ele>
        <time>2019-05-25T09:27:49Z</time>
      </trkpt>
      <trkpt lat="45.09797" lon="4.69784">
        <ele>440</ele>
        <time>2019-05-25T09:27:54Z</time>
      </trkpt>
      <trkpt lat="45.09791" lon="4.69852">
        <ele>436</ele>
        <time>2019-05-25T09:27:59Z</time>
      </trkpt>
      <trkpt lat="45.09789" lon="4.69918">
        <ele>432</ele>
        <time>2019-05-25T09:28:04Z</time>
      </trkpt>
      <trkpt lat="45.09794" lon="4.69994">
        <ele>427</ele>
        <time>2019-05-25T09:28:09Z</time>
      </trkpt>
      <trkpt lat="45.09801" lon="4.70072">
        <ele>421</ele>
        <time>2019-05-25T09:28:14Z</time>
      </trkpt>
      <trkpt lat="45.09809" lon="4.70143">
        <ele>417</ele>
        <time>2019-05-25T09:28:19Z</time>
      </trkpt>
      <trkpt lat="45.0982" lon="4.70208">
        <ele>414</ele>
        <time>2019-05-25T09:28:24Z</time>
      </trkpt>
      <trkpt lat="45.09827" lon="4.70266">
        <ele>408</ele>
        <time>2019-05-25T09:28:29Z</time>
      </trkpt>
      <trkpt lat="45.09831" lon="4.70318">
        <ele>405</ele>
        <time>2019-05-25T09:28:34Z</time>
      </trkpt>
      <trkpt lat="45.09834" lon="4.70351">
        <ele>402</ele>
        <time>2019-05-25T09:28:39Z</time>
      </trkpt>
      <trkpt lat="45.09839" lon="4.70378">
        <ele>401</ele>
        <time>2019-05-25T09:28:44Z</time>
      </trkpt>
      <trkpt lat="45.09845" lon="4.7042">
        <ele>399</ele>
        <time>2019-05-25T09:28:49Z</time>
      </trkpt>
      <trkpt lat="45.09852" lon="4.70459">
        <ele>397</ele>
        <time>2019-05-25T09:28:54Z</time>
      </trkpt>
      <trkpt lat="45.09859" lon="4.705">
        <ele>396</ele>
        <time>2019-05-25T09:28:59Z</time>
      </trkpt>
      <trkpt lat="45.09871" lon="4.70551">
        <ele>392</ele>
        <time>2019-05-25T09:29:04Z</time>
      </trkpt>
      <trkpt lat="45.09895" lon="4.70609">
        <ele>388</ele>
        <time>2019-05-25T09:29:09Z</time>
      </trkpt>
      <trkpt lat="45.09917" lon="4.70663">
        <ele>386</ele>
        <time>2019-05-25T09:29:14Z</time>
      </trkpt>
      <trkpt lat="45.09913" lon="4.70727">
        <ele>382</ele>
        <time>2019-05-25T09:29:19Z</time>
      </trkpt>
      <trkpt lat="45.09903" lon="4.70791">
        <ele>380</ele>
        <time>2019-05-25T09:29:24Z</time>
      </trkpt>
      <trkpt lat="45.09893" lon="4.70851">
        <ele>378</ele>
        <time>2019-05-25T09:29:29Z</time>
      </trkpt>
      <trkpt lat="45.09886" lon="4.70911">
        <ele>374</ele>
        <time>2019-05-25T09:29:34Z</time>
      </trkpt>
      <trkpt lat="45.09886" lon="4.70977">
        <ele>370</ele>
        <time>2019-05-25T09:29:39Z</time>
      </trkpt>
      <trkpt lat="45.09895" lon="4.71021">
        <ele>371</ele>
        <time>2019-05-25T09:29:44Z</time>
      </trkpt>
      <trkpt lat="45.09905" lon="4.71046">
        <ele>374</ele>
        <time>2019-05-25T09:29:49Z</time>
      </trkpt>
      <trkpt lat="45.09916" lon="4.71059">
        <ele>376</ele>
        <time>2019-05-25T09:29:54Z</time>
      </trkpt>
      <trkpt lat="45.0993" lon="4.71056">
        <ele>377</ele>
        <time>2019-05-25T09:29:59Z</time>
      </trkpt>
      <trkpt lat="45.09942" lon="4.71044">
        <ele>379</ele>
        <time>2019-05-25T09:30:04Z</time>
      </trkpt>
      <trkpt lat="45.09955" lon="4.71034">
        <ele>381</ele>
        <time>2019-05-25T09:30:09Z</time>
      </trkpt>
      <trkpt lat="45.09971" lon="4.71038">
        <ele>383</ele>
        <time>2019-05-25T09:30:14Z</time>
      </trkpt>
      <trkpt lat="45.09985" lon="4.71051">
        <ele>385</ele>
        <time>2019-05-25T09:30:19Z</time>
      </trkpt>
      <trkpt lat="45.09998" lon="4.71062">
        <ele>386</ele>
        <time>2019-05-25T09:30:24Z</time>
      </trkpt>
      <trkpt lat="45.10013" lon="4.71073">
        <ele>387</ele>
        <time>2019-05-25T09:30:29Z</time>
      </trkpt>
      <trkpt lat="45.10025" lon="4.71086">
        <ele>388</ele>
        <time>2019-05-25T09:30:34Z</time>
      </trkpt>
      <trkpt lat="45.10032" lon="4.71104">
        <ele>390</ele>
        <time>2019-05-25T09:30:39Z</time>
      </trkpt>
      <trkpt lat="45.10039" lon="4.71121">
        <ele>391</ele>
        <time>2019-05-25T09:30:44Z</time>
      </trkpt>
      <trkpt lat="45.1004" lon="4.71138">
        <ele>393</ele>
        <time>2019-05-25T09:30:49Z</time>
      </trkpt>
      <trkpt lat="45.10034" lon="4.71157">
        <ele>394</ele>
        <time>2019-05-25T09:30:54Z</time>
      </trkpt>
      <trkpt lat="45.10025" lon="4.71172">
        <ele>396</ele>
        <time>2019-05-25T09:30:59Z</time>
      </trkpt>
      <trkpt lat="45.10018" lon="4.71185">
        <ele>398</ele>
        <time>2019-05-25T09:31:04Z</time>
      </trkpt>
      <trkpt lat="45.10009" lon="4.71196">
        <ele>400</ele>
        <time>2019-05-25T09:31:09Z</time>
      </trkpt>
      <trkpt lat="45.1" lon="4.71204">
        <ele>401</ele>
        <time>2019-05-25T09:31:14Z</time>
      </trkpt>
      <trkpt lat="45.09988" lon="4.71215">
        <ele>403</ele>
        <time>2019-05-25T09:31:19Z</time>
      </trkpt>
      <trkpt lat="45.0998" lon="4.71225">
        <ele>404</ele>
        <time>2019-05-25T09:31:24Z</time>
      </trkpt>
      <trkpt lat="45.09972" lon="4.71238">
        <ele>406</ele>
        <time>2019-05-25T09:31:29Z</time>
      </trkpt>
      <trkpt lat="45.09965" lon="4.7125">
        <ele>408</ele>
        <time>2019-05-25T09:31:34Z</time>
      </trkpt>
      <trkpt lat="45.09959" lon="4.71264">
        <ele>410</ele>
        <time>2019-05-25T09:31:39Z</time>
      </trkpt>
      <trkpt lat="45.09957" lon="4.71283">
        <ele>411</ele>
        <time>2019-05-25T09:31:44Z</time>
      </trkpt>
      <trkpt lat="45.09956" lon="4.71304">
        <ele>413</ele>
        <time>2019-05-25T09:31:49Z</time>
      </trkpt>
      <trkpt lat="45.09951" lon="4.71321">
        <ele>414</ele>
        <time>2019-05-25T09:31:54Z</time>
      </trkpt>
      <trkpt lat="45.09944" lon="4.71342">
        <ele>414</ele>
        <time>2019-05-25T09:31:59Z</time>
      </trkpt>
      <trkpt lat="45.09937" lon="4.71367">
        <ele>414</ele>
        <time>2019-05-25T09:32:04Z</time>
      </trkpt>
      <trkpt lat="45.09931" lon="4.71401">
        <ele>413</ele>
        <time>2019-05-25T09:32:09Z</time>
      </trkpt>
      <trkpt lat="45.09923" lon="4.71445">
        <ele>412</ele>
        <time>2019-05-25T09:32:14Z</time>
      </trkpt>
      <trkpt lat="45.09936" lon="4.71496">
        <ele>409</ele>
        <time>2019-05-25T09:32:19Z</time>
      </trkpt>
      <trkpt lat="45.09945" lon="4.71542">
        <ele>409</ele>
        <time>2019-05-25T09:32:24Z</time>
      </trkpt>
      <trkpt lat="45.09945" lon="4.7157">
        <ele>409</ele>
        <time>2019-05-25T09:32:29Z</time>
      </trkpt>
      <trkpt lat="45.09946" lon="4.71595">
        <ele>412</ele>
        <time>2019-05-25T09:32:34Z</time>
      </trkpt>
      <trkpt lat="45.09951" lon="4.71619">
        <ele>415</ele>
        <time>2019-05-25T09:32:39Z</time>
      </trkpt>
      <trkpt lat="45.09957" lon="4.71641">
        <ele>417</ele>
        <time>2019-05-25T09:32:44Z</time>
      </trkpt>
      <trkpt lat="45.09962" lon="4.71663">
        <ele>419</ele>
        <time>2019-05-25T09:32:49Z</time>
      </trkpt>
      <trkpt lat="45.09962" lon="4.71685">
        <ele>421</ele>
        <time>2019-05-25T09:32:54Z</time>
      </trkpt>
      <trkpt lat="45.09951" lon="4.71725">
        <ele>420</ele>
        <time>2019-05-25T09:32:59Z</time>
      </trkpt>
      <trkpt lat="45.09935" lon="4.7175">
        <ele>420</ele>
        <time>2019-05-25T09:33:04Z</time>
      </trkpt>
      <trkpt lat="45.0992" lon="4.71774">
        <ele>420</ele>
        <time>2019-05-25T09:33:09Z</time>
      </trkpt>
      <trkpt lat="45.0991" lon="4.71796">
        <ele>421</ele>
        <time>2019-05-25T09:33:14Z</time>
      </trkpt>
      <trkpt lat="45.099" lon="4.7182">
        <ele>424</ele>
        <time>2019-05-25T09:33:20Z</time>
      </trkpt>
      <trkpt lat="45.09897" lon="4.71856">
        <ele>426</ele>
        <time>2019-05-25T09:33:26Z</time>
      </trkpt>
      <trkpt lat="45.09897" lon="4.71891">
        <ele>427</ele>
        <time>2019-05-25T09:33:32Z</time>
      </trkpt>
      <trkpt lat="45.09893" lon="4.71931">
        <ele>428</ele>
        <time>2019-05-25T09:33:38Z</time>
      </trkpt>
      <trkpt lat="45.09888" lon="4.71976">
        <ele>428</ele>
        <time>2019-05-25T09:33:44Z</time>
      </trkpt>
      <trkpt lat="45.09895" lon="4.72025">
        <ele>428</ele>
        <time>2019-05-25T09:33:50Z</time>
      </trkpt>
      <trkpt lat="45.09902" lon="4.72086">
        <ele>425</ele>
        <time>2019-05-25T09:33:56Z</time>
      </trkpt>
      <trkpt lat="45.09908" lon="4.72152">
        <ele>423</ele>
        <time>2019-05-25T09:34:02Z</time>
      </trkpt>
      <trkpt lat="45.09916" lon="4.72203">
        <ele>423</ele>
        <time>2019-05-25T09:34:07Z</time>
      </trkpt>
      <trkpt lat="45.09931" lon="4.72246">
        <ele>423</ele>
        <time>2019-05-25T09:34:12Z</time>
      </trkpt>
      <trkpt lat="45.09944" lon="4.72291">
        <ele>425</ele>
        <time>2019-05-25T09:34:18Z</time>
      </trkpt>
      <trkpt lat="45.09963" lon="4.72346">
        <ele>425</ele>
        <time>2019-05-25T09:34:23Z</time>
      </trkpt>
      <trkpt lat="45.09989" lon="4.72388">
        <ele>423</ele>
        <time>2019-05-25T09:34:28Z</time>
      </trkpt>
      <trkpt lat="45.10017" lon="4.72422">
        <ele>419</ele>
        <time>2019-05-25T09:34:33Z</time>
      </trkpt>
      <trkpt lat="45.10033" lon="4.72469">
        <ele>417</ele>
        <time>2019-05-25T09:34:38Z</time>
      </trkpt>
      <trkpt lat="45.10065" lon="4.72503">
        <ele>416</ele>
        <time>2019-05-25T09:34:43Z</time>
      </trkpt>
      <trkpt lat="45.101" lon="4.72521">
        <ele>415</ele>
        <time>2019-05-25T09:34:48Z</time>
      </trkpt>
      <trkpt lat="45.10127" lon="4.72544">
        <ele>415</ele>
        <time>2019-05-25T09:34:53Z</time>
      </trkpt>
      <trkpt lat="45.10129" lon="4.72589">
        <ele>413</ele>
        <time>2019-05-25T09:34:58Z</time>
      </trkpt>
      <trkpt lat="45.10135" lon="4.72636">
        <ele>412</ele>
        <time>2019-05-25T09:35:03Z</time>
      </trkpt>
      <trkpt lat="45.10156" lon="4.72677">
        <ele>411</ele>
        <time>2019-05-25T09:35:08Z</time>
      </trkpt>
      <trkpt lat="45.10177" lon="4.72722">
        <ele>409</ele>
        <time>2019-05-25T09:35:13Z</time>
      </trkpt>
      <trkpt lat="45.1021" lon="4.7277">
        <ele>407</ele>
        <time>2019-05-25T09:35:18Z</time>
      </trkpt>
      <trkpt lat="45.10248" lon="4.72821">
        <ele>403</ele>
        <time>2019-05-25T09:35:23Z</time>
      </trkpt>
      <trkpt lat="45.10287" lon="4.72868">
        <ele>399</ele>
        <time>2019-05-25T09:35:28Z</time>
      </trkpt>
      <trkpt lat="45.10323" lon="4.72923">
        <ele>396</ele>
        <time>2019-05-25T09:35:33Z</time>
      </trkpt>
      <trkpt lat="45.1035" lon="4.72987">
        <ele>392</ele>
        <time>2019-05-25T09:35:38Z</time>
      </trkpt>
      <trkpt lat="45.10373" lon="4.73051">
        <ele>389</ele>
        <time>2019-05-25T09:35:43Z</time>
      </trkpt>
      <trkpt lat="45.10395" lon="4.73111">
        <ele>387</ele>
        <time>2019-05-25T09:35:48Z</time>
      </trkpt>
      <trkpt lat="45.10414" lon="4.73165">
        <ele>385</ele>
        <time>2019-05-25T09:35:53Z</time>
      </trkpt>
      <trkpt lat="45.10421" lon="4.73226">
        <ele>381</ele>
        <time>2019-05-25T09:35:58Z</time>
      </trkpt>
      <trkpt lat="45.10422" lon="4.73294">
        <ele>379</ele>
        <time>2019-05-25T09:36:03Z</time>
      </trkpt>
      <trkpt lat="45.10422" lon="4.73363">
        <ele>376</ele>
        <time>2019-05-25T09:36:08Z</time>
      </trkpt>
      <trkpt lat="45.10433" lon="4.73428">
        <ele>372</ele>
        <time>2019-05-25T09:36:13Z</time>
      </trkpt>
      <trkpt lat="45.10459" lon="4.73486">
        <ele>372</ele>
        <time>2019-05-25T09:36:18Z</time>
      </trkpt>
      <trkpt lat="45.10477" lon="4.73549">
        <ele>366</ele>
        <time>2019-05-25T09:36:23Z</time>
      </trkpt>
      <trkpt lat="45.10508" lon="4.73576">
        <ele>366</ele>
        <time>2019-05-25T09:36:28Z</time>
      </trkpt>
      <trkpt lat="45.10534" lon="4.73579">
        <ele>368</ele>
        <time>2019-05-25T09:36:33Z</time>
      </trkpt>
      <trkpt lat="45.10553" lon="4.73589">
        <ele>370</ele>
        <time>2019-05-25T09:36:38Z</time>
      </trkpt>
      <trkpt lat="45.10568" lon="4.73602">
        <ele>371</ele>
        <time>2019-05-25T09:36:43Z</time>
      </trkpt>
      <trkpt lat="45.10582" lon="4.73613">
        <ele>373</ele>
        <time>2019-05-25T09:36:48Z</time>
      </trkpt>
      <trkpt lat="45.10598" lon="4.73621">
        <ele>374</ele>
        <time>2019-05-25T09:36:53Z</time>
      </trkpt>
      <trkpt lat="45.10615" lon="4.73622">
        <ele>376</ele>
        <time>2019-05-25T09:36:58Z</time>
      </trkpt>
      <trkpt lat="45.10633" lon="4.73624">
        <ele>377</ele>
        <time>2019-05-25T09:37:03Z</time>
      </trkpt>
      <trkpt lat="45.10646" lon="4.73631">
        <ele>379</ele>
        <time>2019-05-25T09:37:08Z</time>
      </trkpt>
      <trkpt lat="45.1066" lon="4.7364">
        <ele>380</ele>
        <time>2019-05-25T09:37:13Z</time>
      </trkpt>
      <trkpt lat="45.10673" lon="4.7365">
        <ele>382</ele>
        <time>2019-05-25T09:37:18Z</time>
      </trkpt>
      <trkpt lat="45.10686" lon="4.73662">
        <ele>383</ele>
        <time>2019-05-25T09:37:23Z</time>
      </trkpt>
      <trkpt lat="45.10699" lon="4.73675">
        <ele>384</ele>
        <time>2019-05-25T09:37:28Z</time>
      </trkpt>
      <trkpt lat="45.1071" lon="4.73689">
        <ele>385</ele>
        <time>2019-05-25T09:37:33Z</time>
      </trkpt>
      <trkpt lat="45.10722" lon="4.73704">
        <ele>386</ele>
        <time>2019-05-25T09:37:38Z</time>
      </trkpt>
      <trkpt lat="45.10735" lon="4.73718">
        <ele>388</ele>
        <time>2019-05-25T09:37:43Z</time>
      </trkpt>
      <trkpt lat="45.10748" lon="4.73733">
        <ele>389</ele>
        <time>2019-05-25T09:37:48Z</time>
      </trkpt>
      <trkpt lat="45.10763" lon="4.73748">
        <ele>390</ele>
        <time>2019-05-25T09:37:53Z</time>
      </trkpt>
      <trkpt lat="45.10776" lon="4.73765">
        <ele>391</ele>
        <time>2019-05-25T09:37:58Z</time>
      </trkpt>
      <trkpt lat="45.10789" lon="4.73782">
        <ele>392</ele>
        <time>2019-05-25T09:38:03Z</time>
      </trkpt>
      <trkpt lat="45.10801" lon="4.73797">
        <ele>393</ele>
        <time>2019-05-25T09:38:08Z</time>
      </trkpt>
      <trkpt lat="45.10815" lon="4.73814">
        <ele>395</ele>
        <time>2019-05-25T09:38:13Z</time>
      </trkpt>
      <trkpt lat="45.10827" lon="4.73832">
        <ele>396</ele>
        <time>2019-05-25T09:38:18Z</time>
      </trkpt>
      <trkpt lat="45.10839" lon="4.73853">
        <ele>397</ele>
        <time>2019-05-25T09:38:23Z</time>
      </trkpt>
      <trkpt lat="45.10848" lon="4.73875">
        <ele>398</ele>
        <time>2019-05-25T09:38:28Z</time>
      </trkpt>
      <trkpt lat="45.10855" lon="4.73894">
        <ele>399</ele>
        <time>2019-05-25T09:38:33Z</time>
      </trkpt>
      <trkpt lat="45.10862" lon="4.73916">
        <ele>399</ele>
        <time>2019-05-25T09:38:38Z</time>
      </trkpt>
      <trkpt lat="45.10857" lon="4.73942">
        <ele>399</ele>
        <time>2019-05-25T09:38:43Z</time>
      </trkpt>
      <trkpt lat="45.1085" lon="4.73975">
        <ele>399</ele>
        <time>2019-05-25T09:38:48Z</time>
      </trkpt>
      <trkpt lat="45.10838" lon="4.74017">
        <ele>398</ele>
        <time>2019-05-25T09:38:53Z</time>
      </trkpt>
      <trkpt lat="45.10825" lon="4.74067">
        <ele>397</ele>
        <time>2019-05-25T09:38:58Z</time>
      </trkpt>
      <trkpt lat="45.10813" lon="4.74122">
        <ele>395</ele>
        <time>2019-05-25T09:39:03Z</time>
      </trkpt>
      <trkpt lat="45.108" lon="4.7418">
        <ele>395</ele>
        <time>2019-05-25T09:39:08Z</time>
      </trkpt>
      <trkpt lat="45.10791" lon="4.74238">
        <ele>394</ele>
        <time>2019-05-25T09:39:13Z</time>
      </trkpt>
      <trkpt lat="45.10787" lon="4.74293">
        <ele>394</ele>
        <time>2019-05-25T09:39:18Z</time>
      </trkpt>
      <trkpt lat="45.10789" lon="4.74344">
        <ele>394</ele>
        <time>2019-05-25T09:39:23Z</time>
      </trkpt>
      <trkpt lat="45.1079" lon="4.74395">
        <ele>394</ele>
        <time>2019-05-25T09:39:28Z</time>
      </trkpt>
      <trkpt lat="45.10789" lon="4.74447">
        <ele>394</ele>
        <time>2019-05-25T09:39:33Z</time>
      </trkpt>
      <trkpt lat="45.10789" lon="4.74504">
        <ele>394</ele>
        <time>2019-05-25T09:39:38Z</time>
      </trkpt>
      <trkpt lat="45.10784" lon="4.74571">
        <ele>392</ele>
        <time>2019-05-25T09:39:43Z</time>
      </trkpt>
      <trkpt lat="45.10767" lon="4.74641">
        <ele>390</ele>
        <time>2019-05-25T09:39:48Z</time>
      </trkpt>
      <trkpt lat="45.10747" lon="4.74713">
        <ele>387</ele>
        <time>2019-05-25T09:39:53Z</time>
      </trkpt>
      <trkpt lat="45.10726" lon="4.74784">
        <ele>385</ele>
        <time>2019-05-25T09:39:58Z</time>
      </trkpt>
      <trkpt lat="45.10705" lon="4.74855">
        <ele>382</ele>
        <time>2019-05-25T09:40:03Z</time>
      </trkpt>
      <trkpt lat="45.10684" lon="4.74925">
        <ele>381</ele>
        <time>2019-05-25T09:40:08Z</time>
      </trkpt>
      <trkpt lat="45.10662" lon="4.74989">
        <ele>381</ele>
        <time>2019-05-25T09:40:13Z</time>
      </trkpt>
      <trkpt lat="45.10639" lon="4.75045">
        <ele>381</ele>
        <time>2019-05-25T09:40:18Z</time>
      </trkpt>
      <trkpt lat="45.10616" lon="4.75098">
        <ele>380</ele>
        <time>2019-05-25T09:40:23Z</time>
      </trkpt>
      <trkpt lat="45.10595" lon="4.75146">
        <ele>380</ele>
        <time>2019-05-25T09:40:28Z</time>
      </trkpt>
      <trkpt lat="45.10577" lon="4.75193">
        <ele>380</ele>
        <time>2019-05-25T09:40:33Z</time>
      </trkpt>
      <trkpt lat="45.10565" lon="4.75244">
        <ele>381</ele>
        <time>2019-05-25T09:40:38Z</time>
      </trkpt>
      <trkpt lat="45.10555" lon="4.75295">
        <ele>382</ele>
        <time>2019-05-25T09:40:43Z</time>
      </trkpt>
      <trkpt lat="45.10535" lon="4.75337">
        <ele>382</ele>
        <time>2019-05-25T09:40:48Z</time>
      </trkpt>
      <trkpt lat="45.10507" lon="4.75367">
        <ele>382</ele>
        <time>2019-05-25T09:40:53Z</time>
      </trkpt>
      <trkpt lat="45.10483" lon="4.754">
        <ele>384</ele>
        <time>2019-05-25T09:40:58Z</time>
      </trkpt>
      <trkpt lat="45.10461" lon="4.7544">
        <ele>384</ele>
        <time>2019-05-25T09:41:03Z</time>
      </trkpt>
      <trkpt lat="45.10442" lon="4.75488">
        <ele>385</ele>
        <time>2019-05-25T09:41:08Z</time>
      </trkpt>
      <trkpt lat="45.10423" lon="4.75538">
        <ele>385</ele>
        <time>2019-05-25T09:41:13Z</time>
      </trkpt>
      <trkpt lat="45.10404" lon="4.75588">
        <ele>385</ele>
        <time>2019-05-25T09:41:18Z</time>
      </trkpt>
      <trkpt lat="45.10385" lon="4.75636">
        <ele>385</ele>
        <time>2019-05-25T09:41:23Z</time>
      </trkpt>
      <trkpt lat="45.10364" lon="4.75685">
        <ele>385</ele>
        <time>2019-05-25T09:41:28Z</time>
      </trkpt>
      <trkpt lat="45.1034" lon="4.75734">
        <ele>384</ele>
        <time>2019-05-25T09:41:33Z</time>
      </trkpt>
      <trkpt lat="45.10313" lon="4.75777">
        <ele>384</ele>
        <time>2019-05-25T09:41:38Z</time>
      </trkpt>
      <trkpt lat="45.10293" lon="4.75827">
        <ele>384</ele>
        <time>2019-05-25T09:41:43Z</time>
      </trkpt>
      <trkpt lat="45.10275" lon="4.75886">
        <ele>382</ele>
        <time>2019-05-25T09:41:48Z</time>
      </trkpt>
      <trkpt lat="45.10245" lon="4.75939">
        <ele>381</ele>
        <time>2019-05-25T09:41:53Z</time>
      </trkpt>
      <trkpt lat="45.10206" lon="4.75983">
        <ele>380</ele>
        <time>2019-05-25T09:41:58Z</time>
      </trkpt>
      <trkpt lat="45.10167" lon="4.76029">
        <ele>378</ele>
        <time>2019-05-25T09:42:03Z</time>
      </trkpt>
      <trkpt lat="45.10126" lon="4.76066">
        <ele>376</ele>
        <time>2019-05-25T09:42:08Z</time>
      </trkpt>
      <trkpt lat="45.10078" lon="4.76091">
        <ele>376</ele>
        <time>2019-05-25T09:42:13Z</time>
      </trkpt>
      <trkpt lat="45.10028" lon="4.76102">
        <ele>375</ele>
        <time>2019-05-25T09:42:18Z</time>
      </trkpt>
      <trkpt lat="45.09979" lon="4.76094">
        <ele>375</ele>
        <time>2019-05-25T09:42:23Z</time>
      </trkpt>
      <trkpt lat="45.09934" lon="4.76068">
        <ele>375</ele>
        <time>2019-05-25T09:42:28Z</time>
      </trkpt>
      <trkpt lat="45.09896" lon="4.7604">
        <ele>375</ele>
        <time>2019-05-25T09:42:33Z</time>
      </trkpt>
      <trkpt lat="45.09859" lon="4.76012">
        <ele>375</ele>
        <time>2019-05-25T09:42:38Z</time>
      </trkpt>
      <trkpt lat="45.09819" lon="4.75983">
        <ele>375</ele>
        <time>2019-05-25T09:42:43Z</time>
      </trkpt>
      <trkpt lat="45.09775" lon="4.75958">
        <ele>375</ele>
        <time>2019-05-25T09:42:48Z</time>
      </trkpt>
      <trkpt lat="45.09726" lon="4.75945">
        <ele>372</ele>
        <time>2019-05-25T09:42:53Z</time>
      </trkpt>
      <trkpt lat="45.09677" lon="4.75935">
        <ele>370</ele>
        <time>2019-05-25T09:42:58Z</time>
      </trkpt>
      <trkpt lat="45.09625" lon="4.75935">
        <ele>368</ele>
        <time>2019-05-25T09:43:03Z</time>
      </trkpt>
      <trkpt lat="45.09574" lon="4.75953">
        <ele>366</ele>
        <time>2019-05-25T09:43:08Z</time>
      </trkpt>
      <trkpt lat="45.09535" lon="4.75999">
        <ele>366</ele>
        <time>2019-05-25T09:43:13Z</time>
      </trkpt>
      <trkpt lat="45.09508" lon="4.76063">
        <ele>364</ele>
        <time>2019-05-25T09:43:18Z</time>
      </trkpt>
      <trkpt lat="45.09486" lon="4.76133">
        <ele>362</ele>
        <time>2019-05-25T09:43:23Z</time>
      </trkpt>
      <trkpt lat="45.09462" lon="4.76202">
        <ele>359</ele>
        <time>2019-05-25T09:43:28Z</time>
      </trkpt>
      <trkpt lat="45.09423" lon="4.76254">
        <ele>358</ele>
        <time>2019-05-25T09:43:33Z</time>
      </trkpt>
      <trkpt lat="45.0937" lon="4.76271">
        <ele>356</ele>
        <time>2019-05-25T09:43:38Z</time>
      </trkpt>
      <trkpt lat="45.09334" lon="4.76324">
        <ele>353</ele>
        <time>2019-05-25T09:43:43Z</time>
      </trkpt>
      <trkpt lat="45.0933" lon="4.76399">
        <ele>351</ele>
        <time>2019-05-25T09:43:48Z</time>
      </trkpt>
      <trkpt lat="45.09285" lon="4.7644">
        <ele>349</ele>
        <time>2019-05-25T09:43:53Z</time>
      </trkpt>
      <trkpt lat="45.09235" lon="4.7647">
        <ele>345</ele>
        <time>2019-05-25T09:43:58Z</time>
      </trkpt>
      <trkpt lat="45.09183" lon="4.76451">
        <ele>345</ele>
        <time>2019-05-25T09:44:03Z</time>
      </trkpt>
      <trkpt lat="45.09132" lon="4.76476">
        <ele>341</ele>
        <time>2019-05-25T09:44:08Z</time>
      </trkpt>
      <trkpt lat="45.0913" lon="4.76552">
        <ele>339</ele>
        <time>2019-05-25T09:44:13Z</time>
      </trkpt>
      <trkpt lat="45.09163" lon="4.76609">
        <ele>338</ele>
        <time>2019-05-25T09:44:18Z</time>
      </trkpt>
      <trkpt lat="45.09185" lon="4.7667">
        <ele>335</ele>
        <time>2019-05-25T09:44:23Z</time>
      </trkpt>
      <trkpt lat="45.09167" lon="4.76732">
        <ele>333</ele>
        <time>2019-05-25T09:44:28Z</time>
      </trkpt>
      <trkpt lat="45.09145" lon="4.76795">
        <ele>331</ele>
        <time>2019-05-25T09:44:33Z</time>
      </trkpt>
      <trkpt lat="45.09137" lon="4.76866">
        <ele>329</ele>
        <time>2019-05-25T09:44:38Z</time>
      </trkpt>
      <trkpt lat="45.09115" lon="4.76933">
        <ele>327</ele>
        <time>2019-05-25T09:44:43Z</time>
      </trkpt>
      <trkpt lat="45.09086" lon="4.76997">
        <ele>325</ele>
        <time>2019-05-25T09:44:48Z</time>
      </trkpt>
      <trkpt lat="45.09057" lon="4.77065">
        <ele>323</ele>
        <time>2019-05-25T09:44:53Z</time>
      </trkpt>
      <trkpt lat="45.09036" lon="4.77142">
        <ele>321</ele>
        <time>2019-05-25T09:44:58Z</time>
      </trkpt>
      <trkpt lat="45.09015" lon="4.77215">
        <ele>319</ele>
        <time>2019-05-25T09:45:03Z</time>
      </trkpt>
      <trkpt lat="45.08959" lon="4.77228">
        <ele>315</ele>
        <time>2019-05-25T09:45:08Z</time>
      </trkpt>
      <trkpt lat="45.08905" lon="4.77201">
        <ele>313</ele>
        <time>2019-05-25T09:45:13Z</time>
      </trkpt>
      <trkpt lat="45.08851" lon="4.77176">
        <ele>312</ele>
        <time>2019-05-25T09:45:18Z</time>
      </trkpt>
      <trkpt lat="45.08799" lon="4.77152">
        <ele>312</ele>
        <time>2019-05-25T09:45:23Z</time>
      </trkpt>
      <trkpt lat="45.0875" lon="4.77136">
        <ele>313</ele>
        <time>2019-05-25T09:45:28Z</time>
      </trkpt>
      <trkpt lat="45.08711" lon="4.77168">
        <ele>314</ele>
        <time>2019-05-25T09:45:33Z</time>
      </trkpt>
      <trkpt lat="45.08682" lon="4.77211">
        <ele>315</ele>
        <time>2019-05-25T09:45:38Z</time>
      </trkpt>
      <trkpt lat="45.08678" lon="4.77266">
        <ele>317</ele>
        <time>2019-05-25T09:45:43Z</time>
      </trkpt>
      <trkpt lat="45.08701" lon="4.77301">
        <ele>318</ele>
        <time>2019-05-25T09:45:48Z</time>
      </trkpt>
      <trkpt lat="45.0873" lon="4.77328">
        <ele>318</ele>
        <time>2019-05-25T09:45:53Z</time>
      </trkpt>
      <trkpt lat="45.08746" lon="4.7737">
        <ele>318</ele>
        <time>2019-05-25T09:45:58Z</time>
      </trkpt>
      <trkpt lat="45.08743" lon="4.77417">
        <ele>319</ele>
        <time>2019-05-25T09:46:03Z</time>
      </trkpt>
      <trkpt lat="45.08733" lon="4.77464">
        <ele>320</ele>
        <time>2019-05-25T09:46:08Z</time>
      </trkpt>
      <trkpt lat="45.08718" lon="4.77508">
        <ele>321</ele>
        <time>2019-05-25T09:46:13Z</time>
      </trkpt>
      <trkpt lat="45.08689" lon="4.77531">
        <ele>321</ele>
        <time>2019-05-25T09:46:18Z</time>
      </trkpt>
      <trkpt lat="45.08654" lon="4.77534">
        <ele>322</ele>
        <time>2019-05-25T09:46:23Z</time>
      </trkpt>
      <trkpt lat="45.08618" lon="4.77525">
        <ele>323</ele>
        <time>2019-05-25T09:46:28Z</time>
      </trkpt>
      <trkpt lat="45.08586" lon="4.77491">
        <ele>324</ele>
        <time>2019-05-25T09:46:33Z</time>
      </trkpt>
      <trkpt lat="45.08556" lon="4.77457">
        <ele>325</ele>
        <time>2019-05-25T09:46:38Z</time>
      </trkpt>
      <trkpt lat="45.08518" lon="4.7744">
        <ele>326</ele>
        <time>2019-05-25T09:46:43Z</time>
      </trkpt>
      <trkpt lat="45.0848" lon="4.77441">
        <ele>326</ele>
        <time>2019-05-25T09:46:48Z</time>
      </trkpt>
      <trkpt lat="45.08443" lon="4.77434">
        <ele>326</ele>
        <time>2019-05-25T09:46:53Z</time>
      </trkpt>
      <trkpt lat="45.08403" lon="4.7742">
        <ele>326</ele>
        <time>2019-05-25T09:46:58Z</time>
      </trkpt>
      <trkpt lat="45.08358" lon="4.77413">
        <ele>326</ele>
        <time>2019-05-25T09:47:03Z</time>
      </trkpt>
      <trkpt lat="45.08313" lon="4.77435">
        <ele>324</ele>
        <time>2019-05-25T09:47:08Z</time>
      </trkpt>
      <trkpt lat="45.08264" lon="4.77427">
        <ele>322</ele>
        <time>2019-05-25T09:47:13Z</time>
      </trkpt>
      <trkpt lat="45.0822" lon="4.77384">
        <ele>320</ele>
        <time>2019-05-25T09:47:18Z</time>
      </trkpt>
      <trkpt lat="45.08181" lon="4.77401">
        <ele>316</ele>
        <time>2019-05-25T09:47:23Z</time>
      </trkpt>
      <trkpt lat="45.08196" lon="4.77476">
        <ele>316</ele>
        <time>2019-05-25T09:47:28Z</time>
      </trkpt>
      <trkpt lat="45.08225" lon="4.77548">
        <ele>314</ele>
        <time>2019-05-25T09:47:33Z</time>
      </trkpt>
      <trkpt lat="45.0822" lon="4.77625">
        <ele>312</ele>
        <time>2019-05-25T09:47:38Z</time>
      </trkpt>
      <trkpt lat="45.08187" lon="4.77686">
        <ele>311</ele>
        <time>2019-05-25T09:47:43Z</time>
      </trkpt>
      <trkpt lat="45.08166" lon="4.77776">
        <ele>309</ele>
        <time>2019-05-25T09:47:49Z</time>
      </trkpt>
      <trkpt lat="45.0814" lon="4.77849">
        <ele>305</ele>
        <time>2019-05-25T09:47:54Z</time>
      </trkpt>
      <trkpt lat="45.08081" lon="4.77878">
        <ele>302</ele>
        <time>2019-05-25T09:47:59Z</time>
      </trkpt>
      <trkpt lat="45.08036" lon="4.77939">
        <ele>299</ele>
        <time>2019-05-25T09:48:04Z</time>
      </trkpt>
      <trkpt lat="45.07983" lon="4.77989">
        <ele>293</ele>
        <time>2019-05-25T09:48:09Z</time>
      </trkpt>
      <trkpt lat="45.07907" lon="4.78031">
        <ele>289</ele>
        <time>2019-05-25T09:48:15Z</time>
      </trkpt>
      <trkpt lat="45.07826" lon="4.7805">
        <ele>283</ele>
        <time>2019-05-25T09:48:21Z</time>
      </trkpt>
      <trkpt lat="45.07756" lon="4.78042">
        <ele>279</ele>
        <time>2019-05-25T09:48:26Z</time>
      </trkpt>
      <trkpt lat="45.07687" lon="4.78013">
        <ele>276</ele>
        <time>2019-05-25T09:48:31Z</time>
      </trkpt>
      <trkpt lat="45.07624" lon="4.7797">
        <ele>270</ele>
        <time>2019-05-25T09:48:36Z</time>
      </trkpt>
      <trkpt lat="45.0756" lon="4.77925">
        <ele>266</ele>
        <time>2019-05-25T09:48:41Z</time>
      </trkpt>
      <trkpt lat="45.07501" lon="4.77879">
        <ele>263</ele>
        <time>2019-05-25T09:48:46Z</time>
      </trkpt>
      <trkpt lat="45.07443" lon="4.77834">
        <ele>258</ele>
        <time>2019-05-25T09:48:51Z</time>
      </trkpt>
      <trkpt lat="45.07379" lon="4.77858">
        <ele>254</ele>
        <time>2019-05-25T09:48:56Z</time>
      </trkpt>
      <trkpt lat="45.07314" lon="4.77872">
        <ele>251</ele>
        <time>2019-05-25T09:49:01Z</time>
      </trkpt>
      <trkpt lat="45.07248" lon="4.7788">
        <ele>246</ele>
        <time>2019-05-25T09:49:06Z</time>
      </trkpt>
      <trkpt lat="45.07181" lon="4.77891">
        <ele>241</ele>
        <time>2019-05-25T09:49:11Z</time>
      </trkpt>
      <trkpt lat="45.0712" lon="4.77927">
        <ele>237</ele>
        <time>2019-05-25T09:49:16Z</time>
      </trkpt>
      <trkpt lat="45.07059" lon="4.77947">
        <ele>232</ele>
        <time>2019-05-25T09:49:21Z</time>
      </trkpt>
      <trkpt lat="45.07066" lon="4.78029">
        <ele>229</ele>
        <time>2019-05-25T09:49:26Z</time>
      </trkpt>
      <trkpt lat="45.07109" lon="4.78114">
        <ele>225</ele>
        <time>2019-05-25T09:49:32Z</time>
      </trkpt>
      <trkpt lat="45.07161" lon="4.78182">
        <ele>221</ele>
        <time>2019-05-25T09:49:38Z</time>
      </trkpt>
      <trkpt lat="45.07218" lon="4.78249">
        <ele>216</ele>
        <time>2019-05-25T09:49:44Z</time>
      </trkpt>
      <trkpt lat="45.07263" lon="4.78307">
        <ele>212</ele>
        <time>2019-05-25T09:49:49Z</time>
      </trkpt>
      <trkpt lat="45.07301" lon="4.78392">
        <ele>208</ele>
        <time>2019-05-25T09:49:55Z</time>
      </trkpt>
      <trkpt lat="45.0727" lon="4.7842">
        <ele>203</ele>
        <time>2019-05-25T09:50:00Z</time>
      </trkpt>
      <trkpt lat="45.07218" lon="4.78388">
        <ele>199</ele>
        <time>2019-05-25T09:50:05Z</time>
      </trkpt>
      <trkpt lat="45.07157" lon="4.78367">
        <ele>196</ele>
        <time>2019-05-25T09:50:10Z</time>
      </trkpt>
      <trkpt lat="45.07097" lon="4.78375">
        <ele>193</ele>
        <time>2019-05-25T09:50:15Z</time>
      </trkpt>
      <trkpt lat="45.07066" lon="4.78468">
        <ele>189</ele>
        <time>2019-05-25T09:50:21Z</time>
      </trkpt>
      <trkpt lat="45.07043" lon="4.78541">
        <ele>183</ele>
        <time>2019-05-25T09:50:26Z</time>
      </trkpt>
      <trkpt lat="45.06995" lon="4.78597">
        <ele>181</ele>
        <time>2019-05-25T09:50:31Z</time>
      </trkpt>
      <trkpt lat="45.06998" lon="4.78684">
        <ele>176</ele>
        <time>2019-05-25T09:50:36Z</time>
      </trkpt>
      <trkpt lat="45.07022" lon="4.7876">
        <ele>173</ele>
        <time>2019-05-25T09:50:41Z</time>
      </trkpt>
      <trkpt lat="45.07013" lon="4.78843">
        <ele>168</ele>
        <time>2019-05-25T09:50:46Z</time>
      </trkpt>
      <trkpt lat="45.07035" lon="4.7893">
        <ele>164</ele>
        <time>2019-05-25T09:50:52Z</time>
      </trkpt>
      <trkpt lat="45.06992" lon="4.78966">
        <ele>160</ele>
        <time>2019-05-25T09:50:57Z</time>
      </trkpt>
      <trkpt lat="45.06962" lon="4.79042">
        <ele>157</ele>
        <time>2019-05-25T09:51:03Z</time>
      </trkpt>
      <trkpt lat="45.06994" lon="4.79102">
        <ele>154</ele>
        <time>2019-05-25T09:51:08Z</time>
      </trkpt>
      <trkpt lat="45.07013" lon="4.79128">
        <ele>149</ele>
        <time>2019-05-25T09:51:13Z</time>
      </trkpt>
      <trkpt lat="45.06977" lon="4.79097">
        <ele>147</ele>
        <time>2019-05-25T09:51:18Z</time>
      </trkpt>
      <trkpt lat="45.0694" lon="4.79022">
        <ele>144</ele>
        <time>2019-05-25T09:51:24Z</time>
      </trkpt>
      <trkpt lat="45.0696" lon="4.78924">
        <ele>139</ele>
        <time>2019-05-25T09:51:30Z</time>
      </trkpt>
      <trkpt lat="45.06973" lon="4.78859">
        <ele>135</ele>
        <time>2019-05-25T09:51:35Z</time>
      </trkpt>
      <trkpt lat="45.06959" lon="4.78766">
        <ele>130</ele>
        <time>2019-05-25T09:51:41Z</time>
      </trkpt>
      <trkpt lat="45.06923" lon="4.78701">
        <ele>126</ele>
        <time>2019-05-25T09:51:46Z</time>
      </trkpt>
      <trkpt lat="45.06906" lon="4.78616">
        <ele>122</ele>
        <time>2019-05-25T09:51:51Z</time>
      </trkpt>
      <trkpt lat="45.06886" lon="4.78509">
        <ele>117</ele>
        <time>2019-05-25T09:51:57Z</time>
      </trkpt>
      <trkpt lat="45.06898" lon="4.78414">
        <ele>111</ele>
        <time>2019-05-25T09:52:03Z</time>
      </trkpt>
      <trkpt lat="45.06909" lon="4.78351">
        <ele>106</ele>
        <time>2019-05-25T09:52:08Z</time>
      </trkpt>
      <trkpt lat="45.06852" lon="4.78334">
        <ele>102</ele>
        <time>2019-05-25T09:52:13Z</time>
      </trkpt>
      <trkpt lat="45.06797" lon="4.78306">
        <ele>98</ele>
        <time>2019-05-25T09:52:18Z</time>
      </trkpt>
      <trkpt lat="45.06756" lon="4.78241">
        <ele>94</ele>
        <time>2019-05-25T09:52:23Z</time>
      </trkpt>
      <trkpt lat="45.0674" lon="4.78162">
        <ele>88</ele>
        <time>2019-05-25T09:52:28Z</time>
      </trkpt>
      <trkpt lat="45.06728" lon="4.78102">
        <ele>84</ele>
        <time>2019-05-25T09:52:34Z</time>
      </trkpt>
      <trkpt lat="45.06717" lon="4.78117">
        <ele>84</ele>
        <time>2019-05-25T09:52:39Z</time>
      </trkpt>
      <trkpt lat="45.0673" lon="4.78169">
        <ele>83</ele>
        <time>2019-05-25T09:52:44Z</time>
      </trkpt>
      <trkpt lat="45.06739" lon="4.78235">
        <ele>80</ele>
        <time>2019-05-25T09:52:49Z</time>
      </trkpt>
      <trkpt lat="45.06752" lon="4.78303">
        <ele>78</ele>
        <time>2019-05-25T09:52:54Z</time>
      </trkpt>
      <trkpt lat="45.06778" lon="4.78359">
        <ele>78</ele>
        <time>2019-05-25T09:52:59Z</time>
      </trkpt>
      <trkpt lat="45.06803" lon="4.78416">
        <ele>77</ele>
        <time>2019-05-25T09:53:04Z</time>
      </trkpt>
      <trkpt lat="45.06813" lon="4.78487">
        <ele>77</ele>
        <time>2019-05-25T09:53:10Z</time>
      </trkpt>
      <trkpt lat="45.0681" lon="4.78544">
        <ele>78</ele>
        <time>2019-05-25T09:53:15Z</time>
      </trkpt>
      <trkpt lat="45.0681" lon="4.78596">
        <ele>78</ele>
        <time>2019-05-25T09:53:20Z</time>
      </trkpt>
      <trkpt lat="45.06809" lon="4.78646">
        <ele>78</ele>
        <time>2019-05-25T09:53:25Z</time>
      </trkpt>
      <trkpt lat="45.06808" lon="4.78693">
        <ele>77</ele>
        <time>2019-05-25T09:53:30Z</time>
      </trkpt>
      <trkpt lat="45.06806" lon="4.78741">
        <ele>77</ele>
        <time>2019-05-25T09:53:35Z</time>
      </trkpt>
      <trkpt lat="45.06805" lon="4.78799">
        <ele>76</ele>
        <time>2019-05-25T09:53:41Z</time>
      </trkpt>
      <trkpt lat="45.06811" lon="4.78861">
        <ele>75</ele>
        <time>2019-05-25T09:53:47Z</time>
      </trkpt>
      <trkpt lat="45.06821" lon="4.7892">
        <ele>75</ele>
        <time>2019-05-25T09:53:53Z</time>
      </trkpt>
      <trkpt lat="45.06823" lon="4.78981">
        <ele>74</ele>
        <time>2019-05-25T09:53:59Z</time>
      </trkpt>
      <trkpt lat="45.06825" lon="4.79048">
        <ele>74</ele>
        <time>2019-05-25T09:54:05Z</time>
      </trkpt>
      <trkpt lat="45.06834" lon="4.79118">
        <ele>72</ele>
        <time>2019-05-25T09:54:11Z</time>
      </trkpt>
      <trkpt lat="45.06854" lon="4.79178">
        <ele>72</ele>
        <time>2019-05-25T09:54:17Z</time>
      </trkpt>
      <trkpt lat="45.06874" lon="4.79224">
        <ele>72</ele>
        <time>2019-05-25T09:54:22Z</time>
      </trkpt>
      <trkpt lat="45.06892" lon="4.7927">
        <ele>73</ele>
        <time>2019-05-25T09:54:27Z</time>
      </trkpt>
      <trkpt lat="45.06906" lon="4.79322">
        <ele>73</ele>
        <time>2019-05-25T09:54:32Z</time>
      </trkpt>
      <trkpt lat="45.06926" lon="4.79371">
        <ele>73</ele>
        <time>2019-05-25T09:54:37Z</time>
      </trkpt>
      <trkpt lat="45.06948" lon="4.79422">
        <ele>73</ele>
        <time>2019-05-25T09:54:42Z</time>
      </trkpt>
      <trkpt lat="45.06975" lon="4.79472">
        <ele>71</ele>
        <time>2019-05-25T09:54:47Z</time>
      </trkpt>
      <trkpt lat="45.07003" lon="4.79531">
        <ele>70</ele>
        <time>2019-05-25T09:54:53Z</time>
      </trkpt>
      <trkpt lat="45.07025" lon="4.79577">
        <ele>70</ele>
        <time>2019-05-25T09:54:58Z</time>
      </trkpt>
      <trkpt lat="45.07051" lon="4.79632">
        <ele>70</ele>
        <time>2019-05-25T09:55:04Z</time>
      </trkpt>
      <trkpt lat="45.0708" lon="4.79689">
        <ele>70</ele>
        <time>2019-05-25T09:55:10Z</time>
      </trkpt>
      <trkpt lat="45.07108" lon="4.79745">
        <ele>68</ele>
        <time>2019-05-25T09:55:16Z</time>
      </trkpt>
      <trkpt lat="45.07128" lon="4.79791">
        <ele>68</ele>
        <time>2019-05-25T09:55:21Z</time>
      </trkpt>
      <trkpt lat="45.07153" lon="4.79843">
        <ele>68</ele>
        <time>2019-05-25T09:55:27Z</time>
      </trkpt>
      <trkpt lat="45.07172" lon="4.79885">
        <ele>68</ele>
        <time>2019-05-25T09:55:32Z</time>
      </trkpt>
      <trkpt lat="45.07199" lon="4.79925">
        <ele>68</ele>
        <time>2019-05-25T09:55:37Z</time>
      </trkpt>
      <trkpt lat="45.07235" lon="4.79954">
        <ele>67</ele>
        <time>2019-05-25T09:55:42Z</time>
      </trkpt>
      <trkpt lat="45.07266" lon="4.79985">
        <ele>67</ele>
        <time>2019-05-25T09:55:47Z</time>
      </trkpt>
      <trkpt lat="45.0729" lon="4.80018">
        <ele>67</ele>
        <time>2019-05-25T09:55:52Z</time>
      </trkpt>
      <trkpt lat="45.07313" lon="4.80052">
        <ele>67</ele>
        <time>2019-05-25T09:55:57Z</time>
      </trkpt>
      <trkpt lat="45.07338" lon="4.80088">
        <ele>67</ele>
        <time>2019-05-25T09:56:02Z</time>
      </trkpt>
      <trkpt lat="45.07364" lon="4.80141">
        <ele>67</ele>
        <time>2019-05-25T09:56:08Z</time>
      </trkpt>
      <trkpt lat="45.07384" lon="4.80186">
        <ele>67</ele>
        <time>2019-05-25T09:56:13Z</time>
      </trkpt>
      <trkpt lat="45.07412" lon="4.80228">
        <ele>67</ele>
        <time>2019-05-25T09:56:18Z</time>
      </trkpt>
      <trkpt lat="45.0744" lon="4.80268">
        <ele>66</ele>
        <time>2019-05-25T09:56:23Z</time>
      </trkpt>
      <trkpt lat="45.07464" lon="4.80306">
        <ele>65</ele>
        <time>2019-05-25T09:56:28Z</time>
      </trkpt>
      <trkpt lat="45.0749" lon="4.80354">
        <ele>65</ele>
        <time>2019-05-25T09:56:34Z</time>
      </trkpt>
      <trkpt lat="45.07513" lon="4.80395">
        <ele>65</ele>
        <time>2019-05-25T09:56:39Z</time>
      </trkpt>
      <trkpt lat="45.07538" lon="4.80446">
        <ele>64</ele>
        <time>2019-05-25T09:56:45Z</time>
      </trkpt>
      <trkpt lat="45.07552" lon="4.8049">
        <ele>64</ele>
        <time>2019-05-25T09:56:50Z</time>
      </trkpt>
      <trkpt lat="45.0756" lon="4.80531">
        <ele>64</ele>
        <time>2019-05-25T09:56:55Z</time>
      </trkpt>
      <trkpt lat="45.07573" lon="4.80578">
        <ele>65</ele>
        <time>2019-05-25T09:57:01Z</time>
      </trkpt>
      <trkpt lat="45.07583" lon="4.8062">
        <ele>66</ele>
        <time>2019-05-25T09:57:06Z</time>
      </trkpt>
      <trkpt lat="45.07596" lon="4.80663">
        <ele>67</ele>
        <time>2019-05-25T09:57:11Z</time>
      </trkpt>
      <trkpt lat="45.0761" lon="4.8071">
        <ele>68</ele>
        <time>2019-05-25T09:57:17Z</time>
      </trkpt>
      <trkpt lat="45.07629" lon="4.80755">
        <ele>68</ele>
        <time>2019-05-25T09:57:22Z</time>
      </trkpt>
      <trkpt lat="45.07644" lon="4.80807">
        <ele>68</ele>
        <time>2019-05-25T09:57:27Z</time>
      </trkpt>
      <trkpt lat="45.07651" lon="4.80861">
        <ele>68</ele>
        <time>2019-05-25T09:57:32Z</time>
      </trkpt>
      <trkpt lat="45.07662" lon="4.80916">
        <ele>66</ele>
        <time>2019-05-25T09:57:37Z</time>
      </trkpt>
      <trkpt lat="45.07674" lon="4.80974">
        <ele>64</ele>
        <time>2019-05-25T09:57:42Z</time>
      </trkpt>
      <trkpt lat="45.07693" lon="4.81027">
        <ele>63</ele>
        <time>2019-05-25T09:57:47Z</time>
      </trkpt>
      <trkpt lat="45.07696" lon="4.81079">
        <ele>61</ele>
        <time>2019-05-25T09:57:52Z</time>
      </trkpt>
      <trkpt lat="45.07672" lon="4.81133">
        <ele>61</ele>
        <time>2019-05-25T09:57:57Z</time>
      </trkpt>
      <trkpt lat="45.07643" lon="4.8119">
        <ele>57</ele>
        <time>2019-05-25T09:58:02Z</time>
      </trkpt>
      <trkpt lat="45.07612" lon="4.81228">
        <ele>56</ele>
        <time>2019-05-25T09:58:07Z</time>
      </trkpt>
      <trkpt lat="45.07594" lon="4.81291">
        <ele>55</ele>
        <time>2019-05-25T09:58:13Z</time>
      </trkpt>
      <trkpt lat="45.07581" lon="4.81341">
        <ele>55</ele>
        <time>2019-05-25T09:58:18Z</time>
      </trkpt>
      <trkpt lat="45.07563" lon="4.81385">
        <ele>55</ele>
        <time>2019-05-25T09:58:23Z</time>
      </trkpt>
      <trkpt lat="45.07559" lon="4.81435">
        <ele>55</ele>
        <time>2019-05-25T09:58:28Z</time>
      </trkpt>
      <trkpt lat="45.07584" lon="4.81479">
        <ele>55</ele>
        <time>2019-05-25T09:58:34Z</time>
      </trkpt>
      <trkpt lat="45.07618" lon="4.81496">
        <ele>55</ele>
        <time>2019-05-25T09:58:39Z</time>
      </trkpt>
      <trkpt lat="45.07638" lon="4.81536">
        <ele>55</ele>
        <time>2019-05-25T09:58:44Z</time>
      </trkpt>
      <trkpt lat="45.07629" lon="4.81577">
        <ele>55</ele>
        <time>2019-05-25T09:58:49Z</time>
      </trkpt>
      <trkpt lat="45.07599" lon="4.81599">
        <ele>56</ele>
        <time>2019-05-25T09:58:54Z</time>
      </trkpt>
      <trkpt lat="45.07569" lon="4.81616">
        <ele>56</ele>
        <time>2019-05-25T09:58:59Z</time>
      </trkpt>
      <trkpt lat="45.0754" lon="4.81636">
        <ele>56</ele>
        <time>2019-05-25T09:59:04Z</time>
      </trkpt>
      <trkpt lat="45.07513" lon="4.81655">
        <ele>58</ele>
        <time>2019-05-25T09:59:09Z</time>
      </trkpt>
      <trkpt lat="45.07484" lon="4.81675">
        <ele>58</ele>
        <time>2019-05-25T09:59:14Z</time>
      </trkpt>
      <trkpt lat="45.07454" lon="4.81696">
        <ele>59</ele>
        <time>2019-05-25T09:59:19Z</time>
      </trkpt>
      <trkpt lat="45.07423" lon="4.81718">
        <ele>59</ele>
        <time>2019-05-25T09:59:24Z</time>
      </trkpt>
      <trkpt lat="45.07396" lon="4.81713">
        <ele>59</ele>
        <time>2019-05-25T09:59:29Z</time>
      </trkpt>
      <trkpt lat="45.0738" lon="4.81662">
        <ele>59</ele>
        <time>2019-05-25T09:59:34Z</time>
      </trkpt>
      <trkpt lat="45.07368" lon="4.81612">
        <ele>57</ele>
        <time>2019-05-25T09:59:39Z</time>
      </trkpt>
      <trkpt lat="45.07354" lon="4.81567">
        <ele>57</ele>
        <time>2019-05-25T09:59:44Z</time>
      </trkpt>
      <trkpt lat="45.07333" lon="4.81555">
        <ele>57</ele>
        <time>2019-05-25T09:59:49Z</time>
      </trkpt>
      <trkpt lat="45.07321" lon="4.81595">
        <ele>55</ele>
        <time>2019-05-25T09:59:54Z</time>
      </trkpt>
      <trkpt lat="45.07311" lon="4.8163">
        <ele>55</ele>
        <time>2019-05-25T09:59:59Z</time>
      </trkpt>
      <trkpt lat="45.07302" lon="4.81667">
        <ele>55</ele>
        <time>2019-05-25T10:00:04Z</time>
      </trkpt>
      <trkpt lat="45.07296" lon="4.81694">
        <ele>55</ele>
        <time>2019-05-25T10:00:09Z</time>
      </trkpt>
      <trkpt lat="45.07301" lon="4.81671">
        <ele>55</ele>
        <time>2019-05-25T10:00:14Z</time>
      </trkpt>
      <trkpt lat="45.07305" lon="4.81646">
        <ele>55</ele>
        <time>2019-05-25T10:00:19Z</time>
      </trkpt>
      <trkpt lat="45.07304" lon="4.81632">
        <ele>55</ele>
        <time>2019-05-25T10:00:24Z</time>
      </trkpt>
      <trkpt lat="45.07304" lon="4.81632">
        <ele>55</ele>
        <time>2019-05-25T10:00:29Z</time>
      </trkpt>
    </trkseg>
  </trk>
</gpx>